<?xml version="1.0" encoding="UTF-8" standalone="no" ?>
<gpx xmlns="http://www.topografix.com/GPX/1/1" xmlns:xsi="http://www.w3.org/2001/XMLSchema-instance" xsi:schemaLocation="http://www.topografix.com/GPX/1/1 http://www.topografix.com/GPX/1/1/gpx.xsd" version="1.1" creator="VisuGPX - https://www.visugpx.com">
  <metadata>
    <name>Mont Colombier</name>
    <desc><![CDATA[cf http://www.skitour.fr/sorties/mont-colombier,62284.html#sortie]]></desc>
  </metadata>
  <trk>
    <name><![CDATA[ACTIVE LOG- 11 FEV 2015 08-45-F]]></name>
    <trkseg>
      <trkpt lat="45.63934" lon="6.09055">
        <ele>837.45</ele>
        <time>2015-02-11T07:45:40Z</time>
      </trkpt>
      <trkpt lat="45.63934" lon="6.09057">
        <ele>838.89</ele>
        <time>2015-02-11T07:46:14Z</time>
      </trkpt>
      <trkpt lat="45.63934" lon="6.09055">
        <ele>842.25</ele>
        <time>2015-02-11T07:47:22Z</time>
      </trkpt>
      <trkpt lat="45.63935" lon="6.09055">
        <ele>842.25</ele>
        <time>2015-02-11T07:47:39Z</time>
      </trkpt>
      <trkpt lat="45.63931" lon="6.09049">
        <ele>842.25</ele>
        <time>2015-02-11T07:47:56Z</time>
      </trkpt>
      <trkpt lat="45.63931" lon="6.09047">
        <ele>842.25</ele>
        <time>2015-02-11T07:48:00Z</time>
      </trkpt>
      <trkpt lat="45.63928" lon="6.09044">
        <ele>842.73</ele>
        <time>2015-02-11T07:48:17Z</time>
      </trkpt>
      <trkpt lat="45.63927" lon="6.09042">
        <ele>842.73</ele>
        <time>2015-02-11T07:48:19Z</time>
      </trkpt>
      <trkpt lat="45.63932" lon="6.09048">
        <ele>844.18</ele>
        <time>2015-02-11T07:48:31Z</time>
      </trkpt>
      <trkpt lat="45.6393" lon="6.09058">
        <ele>843.69</ele>
        <time>2015-02-11T07:48:40Z</time>
      </trkpt>
      <trkpt lat="45.63933" lon="6.09058">
        <ele>844.18</ele>
        <time>2015-02-11T07:48:58Z</time>
      </trkpt>
      <trkpt lat="45.63935" lon="6.09053">
        <ele>845.62</ele>
        <time>2015-02-11T07:49:12Z</time>
      </trkpt>
      <trkpt lat="45.63932" lon="6.09047">
        <ele>846.1</ele>
        <time>2015-02-11T07:49:31Z</time>
      </trkpt>
      <trkpt lat="45.6393" lon="6.09045">
        <ele>846.58</ele>
        <time>2015-02-11T07:49:51Z</time>
      </trkpt>
      <trkpt lat="45.6392" lon="6.09027">
        <ele>847.54</ele>
        <time>2015-02-11T07:50:12Z</time>
      </trkpt>
      <trkpt lat="45.63921" lon="6.09033">
        <ele>848.5</ele>
        <time>2015-02-11T07:50:28Z</time>
      </trkpt>
      <trkpt lat="45.63928" lon="6.09044">
        <ele>849.94</ele>
        <time>2015-02-11T07:50:44Z</time>
      </trkpt>
      <trkpt lat="45.63929" lon="6.09046">
        <ele>852.35</ele>
        <time>2015-02-11T07:51:27Z</time>
      </trkpt>
      <trkpt lat="45.63925" lon="6.09049">
        <ele>853.31</ele>
        <time>2015-02-11T07:51:42Z</time>
      </trkpt>
      <trkpt lat="45.63928" lon="6.09049">
        <ele>854.27</ele>
        <time>2015-02-11T07:51:59Z</time>
      </trkpt>
      <trkpt lat="45.63928" lon="6.09048">
        <ele>855.23</ele>
        <time>2015-02-11T07:52:16Z</time>
      </trkpt>
      <trkpt lat="45.63928" lon="6.09047">
        <ele>856.19</ele>
        <time>2015-02-11T07:52:33Z</time>
      </trkpt>
      <trkpt lat="45.63928" lon="6.09043">
        <ele>857.15</ele>
        <time>2015-02-11T07:53:12Z</time>
      </trkpt>
      <trkpt lat="45.63929" lon="6.09046">
        <ele>858.59</ele>
        <time>2015-02-11T07:53:46Z</time>
      </trkpt>
      <trkpt lat="45.63926" lon="6.09046">
        <ele>859.56</ele>
        <time>2015-02-11T07:54:04Z</time>
      </trkpt>
      <trkpt lat="45.63926" lon="6.09048">
        <ele>860.52</ele>
        <time>2015-02-11T07:54:29Z</time>
      </trkpt>
      <trkpt lat="45.63927" lon="6.09049">
        <ele>861</ele>
        <time>2015-02-11T07:54:46Z</time>
      </trkpt>
      <trkpt lat="45.63926" lon="6.0905">
        <ele>862.44</ele>
        <time>2015-02-11T07:55:16Z</time>
      </trkpt>
      <trkpt lat="45.63927" lon="6.0905">
        <ele>863.4</ele>
        <time>2015-02-11T07:55:44Z</time>
      </trkpt>
      <trkpt lat="45.63927" lon="6.09051">
        <ele>865.8</ele>
        <time>2015-02-11T07:56:27Z</time>
      </trkpt>
      <trkpt lat="45.63926" lon="6.09052">
        <ele>867.73</ele>
        <time>2015-02-11T07:57:01Z</time>
      </trkpt>
      <trkpt lat="45.63922" lon="6.09056">
        <ele>869.17</ele>
        <time>2015-02-11T07:57:10Z</time>
      </trkpt>
      <trkpt lat="45.63918" lon="6.09057">
        <ele>870.61</ele>
        <time>2015-02-11T07:57:17Z</time>
      </trkpt>
      <trkpt lat="45.63912" lon="6.09064">
        <ele>873.01</ele>
        <time>2015-02-11T07:57:30Z</time>
      </trkpt>
      <trkpt lat="45.63901" lon="6.09069">
        <ele>875.9</ele>
        <time>2015-02-11T07:57:46Z</time>
      </trkpt>
      <trkpt lat="45.639" lon="6.0907">
        <ele>876.86</ele>
        <time>2015-02-11T07:58:02Z</time>
      </trkpt>
      <trkpt lat="45.63896" lon="6.09074">
        <ele>878.78</ele>
        <time>2015-02-11T07:58:21Z</time>
      </trkpt>
      <trkpt lat="45.6389" lon="6.09083">
        <ele>881.19</ele>
        <time>2015-02-11T07:58:35Z</time>
      </trkpt>
      <trkpt lat="45.63889" lon="6.09093">
        <ele>883.59</ele>
        <time>2015-02-11T07:58:47Z</time>
      </trkpt>
      <trkpt lat="45.6389" lon="6.09103">
        <ele>886.47</ele>
        <time>2015-02-11T07:58:59Z</time>
      </trkpt>
      <trkpt lat="45.63893" lon="6.09112">
        <ele>888.4</ele>
        <time>2015-02-11T07:59:10Z</time>
      </trkpt>
      <trkpt lat="45.63894" lon="6.09123">
        <ele>890.32</ele>
        <time>2015-02-11T07:59:22Z</time>
      </trkpt>
      <trkpt lat="45.63888" lon="6.09131">
        <ele>892.24</ele>
        <time>2015-02-11T07:59:35Z</time>
      </trkpt>
      <trkpt lat="45.63881" lon="6.09135">
        <ele>894.16</ele>
        <time>2015-02-11T07:59:50Z</time>
      </trkpt>
      <trkpt lat="45.63879" lon="6.09137">
        <ele>894.64</ele>
        <time>2015-02-11T07:59:54Z</time>
      </trkpt>
      <trkpt lat="45.63871" lon="6.09145">
        <ele>897.05</ele>
        <time>2015-02-11T08:00:09Z</time>
      </trkpt>
      <trkpt lat="45.63868" lon="6.09156">
        <ele>899.45</ele>
        <time>2015-02-11T08:00:23Z</time>
      </trkpt>
      <trkpt lat="45.63866" lon="6.0916">
        <ele>900.89</ele>
        <time>2015-02-11T08:00:35Z</time>
      </trkpt>
      <trkpt lat="45.6387" lon="6.0917">
        <ele>903.78</ele>
        <time>2015-02-11T08:00:53Z</time>
      </trkpt>
      <trkpt lat="45.63877" lon="6.09178">
        <ele>905.7</ele>
        <time>2015-02-11T08:01:05Z</time>
      </trkpt>
      <trkpt lat="45.63882" lon="6.09186">
        <ele>907.62</ele>
        <time>2015-02-11T08:01:16Z</time>
      </trkpt>
      <trkpt lat="45.63887" lon="6.09199">
        <ele>910.03</ele>
        <time>2015-02-11T08:01:30Z</time>
      </trkpt>
      <trkpt lat="45.63884" lon="6.09206">
        <ele>912.43</ele>
        <time>2015-02-11T08:01:41Z</time>
      </trkpt>
      <trkpt lat="45.63882" lon="6.09207">
        <ele>912.91</ele>
        <time>2015-02-11T08:01:45Z</time>
      </trkpt>
      <trkpt lat="45.6388" lon="6.09214">
        <ele>915.79</ele>
        <time>2015-02-11T08:01:55Z</time>
      </trkpt>
      <trkpt lat="45.63881" lon="6.09216">
        <ele>916.27</ele>
        <time>2015-02-11T08:01:57Z</time>
      </trkpt>
      <trkpt lat="45.63879" lon="6.09227">
        <ele>917.72</ele>
        <time>2015-02-11T08:02:09Z</time>
      </trkpt>
      <trkpt lat="45.63873" lon="6.0923">
        <ele>919.64</ele>
        <time>2015-02-11T08:02:20Z</time>
      </trkpt>
      <trkpt lat="45.63865" lon="6.09239">
        <ele>921.56</ele>
        <time>2015-02-11T08:02:33Z</time>
      </trkpt>
      <trkpt lat="45.63864" lon="6.09242">
        <ele>922.04</ele>
        <time>2015-02-11T08:02:36Z</time>
      </trkpt>
      <trkpt lat="45.63853" lon="6.09254">
        <ele>923.96</ele>
        <time>2015-02-11T08:02:54Z</time>
      </trkpt>
      <trkpt lat="45.63845" lon="6.09262">
        <ele>926.37</ele>
        <time>2015-02-11T08:03:07Z</time>
      </trkpt>
      <trkpt lat="45.6384" lon="6.09274">
        <ele>928.29</ele>
        <time>2015-02-11T08:03:21Z</time>
      </trkpt>
      <trkpt lat="45.63834" lon="6.09284">
        <ele>930.69</ele>
        <time>2015-02-11T08:03:34Z</time>
      </trkpt>
      <trkpt lat="45.6383" lon="6.09293">
        <ele>932.14</ele>
        <time>2015-02-11T08:03:46Z</time>
      </trkpt>
      <trkpt lat="45.63831" lon="6.09297">
        <ele>932.62</ele>
        <time>2015-02-11T08:03:50Z</time>
      </trkpt>
      <trkpt lat="45.63834" lon="6.09307">
        <ele>934.54</ele>
        <time>2015-02-11T08:04:03Z</time>
      </trkpt>
      <trkpt lat="45.63838" lon="6.09316">
        <ele>936.94</ele>
        <time>2015-02-11T08:04:15Z</time>
      </trkpt>
      <trkpt lat="45.63843" lon="6.09327">
        <ele>939.35</ele>
        <time>2015-02-11T08:04:28Z</time>
      </trkpt>
      <trkpt lat="45.63847" lon="6.09336">
        <ele>941.27</ele>
        <time>2015-02-11T08:04:40Z</time>
      </trkpt>
      <trkpt lat="45.6385" lon="6.09343">
        <ele>943.19</ele>
        <time>2015-02-11T08:04:50Z</time>
      </trkpt>
      <trkpt lat="45.63856" lon="6.09349">
        <ele>945.11</ele>
        <time>2015-02-11T08:05:01Z</time>
      </trkpt>
      <trkpt lat="45.63861" lon="6.09356">
        <ele>947.52</ele>
        <time>2015-02-11T08:05:12Z</time>
      </trkpt>
      <trkpt lat="45.63868" lon="6.09365">
        <ele>949.92</ele>
        <time>2015-02-11T08:05:26Z</time>
      </trkpt>
      <trkpt lat="45.63869" lon="6.09368">
        <ele>950.4</ele>
        <time>2015-02-11T08:05:30Z</time>
      </trkpt>
      <trkpt lat="45.6387" lon="6.09379">
        <ele>952.32</ele>
        <time>2015-02-11T08:05:42Z</time>
      </trkpt>
      <trkpt lat="45.63869" lon="6.0939">
        <ele>954.73</ele>
        <time>2015-02-11T08:05:54Z</time>
      </trkpt>
      <trkpt lat="45.63864" lon="6.09403">
        <ele>957.13</ele>
        <time>2015-02-11T08:06:10Z</time>
      </trkpt>
      <trkpt lat="45.63855" lon="6.09416">
        <ele>959.53</ele>
        <time>2015-02-11T08:06:30Z</time>
      </trkpt>
      <trkpt lat="45.63848" lon="6.09416">
        <ele>960.98</ele>
        <time>2015-02-11T08:06:37Z</time>
      </trkpt>
      <trkpt lat="45.63826" lon="6.09411">
        <ele>960.49</ele>
        <time>2015-02-11T08:06:52Z</time>
      </trkpt>
      <trkpt lat="45.6381" lon="6.094">
        <ele>960.01</ele>
        <time>2015-02-11T08:07:06Z</time>
      </trkpt>
      <trkpt lat="45.63792" lon="6.09388">
        <ele>959.05</ele>
        <time>2015-02-11T08:07:20Z</time>
      </trkpt>
      <trkpt lat="45.63778" lon="6.09374">
        <ele>958.09</ele>
        <time>2015-02-11T08:07:35Z</time>
      </trkpt>
      <trkpt lat="45.63764" lon="6.09366">
        <ele>959.53</ele>
        <time>2015-02-11T08:07:50Z</time>
      </trkpt>
      <trkpt lat="45.63761" lon="6.09365">
        <ele>960.01</ele>
        <time>2015-02-11T08:07:53Z</time>
      </trkpt>
      <trkpt lat="45.63749" lon="6.09367">
        <ele>961.46</ele>
        <time>2015-02-11T08:08:07Z</time>
      </trkpt>
      <trkpt lat="45.63732" lon="6.0937">
        <ele>963.38</ele>
        <time>2015-02-11T08:08:28Z</time>
      </trkpt>
      <trkpt lat="45.63712" lon="6.09367">
        <ele>964.34</ele>
        <time>2015-02-11T08:08:48Z</time>
      </trkpt>
      <trkpt lat="45.637" lon="6.09361">
        <ele>963.86</ele>
        <time>2015-02-11T08:08:58Z</time>
      </trkpt>
      <trkpt lat="45.63692" lon="6.09359">
        <ele>963.86</ele>
        <time>2015-02-11T08:09:04Z</time>
      </trkpt>
      <trkpt lat="45.63672" lon="6.09339">
        <ele>964.34</ele>
        <time>2015-02-11T08:09:22Z</time>
      </trkpt>
      <trkpt lat="45.63656" lon="6.09324">
        <ele>965.78</ele>
        <time>2015-02-11T08:09:40Z</time>
      </trkpt>
      <trkpt lat="45.63639" lon="6.09318">
        <ele>968.18</ele>
        <time>2015-02-11T08:09:58Z</time>
      </trkpt>
      <trkpt lat="45.63622" lon="6.09315">
        <ele>969.15</ele>
        <time>2015-02-11T08:10:15Z</time>
      </trkpt>
      <trkpt lat="45.63613" lon="6.09311">
        <ele>970.59</ele>
        <time>2015-02-11T08:10:26Z</time>
      </trkpt>
      <trkpt lat="45.636" lon="6.09308">
        <ele>972.51</ele>
        <time>2015-02-11T08:10:42Z</time>
      </trkpt>
      <trkpt lat="45.6359" lon="6.09308">
        <ele>974.43</ele>
        <time>2015-02-11T08:10:54Z</time>
      </trkpt>
      <trkpt lat="45.6359" lon="6.09313">
        <ele>977.32</ele>
        <time>2015-02-11T08:11:06Z</time>
      </trkpt>
      <trkpt lat="45.63589" lon="6.09314">
        <ele>977.32</ele>
        <time>2015-02-11T08:11:07Z</time>
      </trkpt>
      <trkpt lat="45.63591" lon="6.09323">
        <ele>979.72</ele>
        <time>2015-02-11T08:11:19Z</time>
      </trkpt>
      <trkpt lat="45.63592" lon="6.09328">
        <ele>981.16</ele>
        <time>2015-02-11T08:11:24Z</time>
      </trkpt>
      <trkpt lat="45.63594" lon="6.09332">
        <ele>981.64</ele>
        <time>2015-02-11T08:11:29Z</time>
      </trkpt>
      <trkpt lat="45.63597" lon="6.0934">
        <ele>983.09</ele>
        <time>2015-02-11T08:11:37Z</time>
      </trkpt>
      <trkpt lat="45.63592" lon="6.09346">
        <ele>985.97</ele>
        <time>2015-02-11T08:11:51Z</time>
      </trkpt>
      <trkpt lat="45.63573" lon="6.09338">
        <ele>988.85</ele>
        <time>2015-02-11T08:12:15Z</time>
      </trkpt>
      <trkpt lat="45.63569" lon="6.09346">
        <ele>991.26</ele>
        <time>2015-02-11T08:12:34Z</time>
      </trkpt>
      <trkpt lat="45.63565" lon="6.09346">
        <ele>992.22</ele>
        <time>2015-02-11T08:13:15Z</time>
      </trkpt>
      <trkpt lat="45.63568" lon="6.09348">
        <ele>992.7</ele>
        <time>2015-02-11T08:13:30Z</time>
      </trkpt>
      <trkpt lat="45.63567" lon="6.09354">
        <ele>995.1</ele>
        <time>2015-02-11T08:14:00Z</time>
      </trkpt>
      <trkpt lat="45.63567" lon="6.09352">
        <ele>995.1</ele>
        <time>2015-02-11T08:14:56Z</time>
      </trkpt>
      <trkpt lat="45.63563" lon="6.09352">
        <ele>995.58</ele>
        <time>2015-02-11T08:15:22Z</time>
      </trkpt>
      <trkpt lat="45.63564" lon="6.09359">
        <ele>998.47</ele>
        <time>2015-02-11T08:16:24Z</time>
      </trkpt>
      <trkpt lat="45.6357" lon="6.09373">
        <ele>1001.83</ele>
        <time>2015-02-11T08:16:45Z</time>
      </trkpt>
      <trkpt lat="45.63567" lon="6.0938">
        <ele>1002.79</ele>
        <time>2015-02-11T08:17:01Z</time>
      </trkpt>
      <trkpt lat="45.63566" lon="6.09387">
        <ele>1005.2</ele>
        <time>2015-02-11T08:17:18Z</time>
      </trkpt>
      <trkpt lat="45.63568" lon="6.09389">
        <ele>1006.64</ele>
        <time>2015-02-11T08:17:36Z</time>
      </trkpt>
      <trkpt lat="45.63578" lon="6.09393">
        <ele>1009.04</ele>
        <time>2015-02-11T08:17:58Z</time>
      </trkpt>
      <trkpt lat="45.63585" lon="6.09402">
        <ele>1011.44</ele>
        <time>2015-02-11T08:18:22Z</time>
      </trkpt>
      <trkpt lat="45.63597" lon="6.09413">
        <ele>1013.37</ele>
        <time>2015-02-11T08:18:42Z</time>
      </trkpt>
      <trkpt lat="45.63604" lon="6.09421">
        <ele>1014.33</ele>
        <time>2015-02-11T08:19:01Z</time>
      </trkpt>
      <trkpt lat="45.63616" lon="6.09426">
        <ele>1017.21</ele>
        <time>2015-02-11T08:19:24Z</time>
      </trkpt>
      <trkpt lat="45.63627" lon="6.09431">
        <ele>1020.1</ele>
        <time>2015-02-11T08:19:45Z</time>
      </trkpt>
      <trkpt lat="45.63636" lon="6.09439">
        <ele>1023.46</ele>
        <time>2015-02-11T08:20:03Z</time>
      </trkpt>
      <trkpt lat="45.63648" lon="6.09444">
        <ele>1026.34</ele>
        <time>2015-02-11T08:20:27Z</time>
      </trkpt>
      <trkpt lat="45.63647" lon="6.09446">
        <ele>1027.31</ele>
        <time>2015-02-11T08:20:43Z</time>
      </trkpt>
      <trkpt lat="45.6364" lon="6.09455">
        <ele>1030.67</ele>
        <time>2015-02-11T08:21:02Z</time>
      </trkpt>
      <trkpt lat="45.63638" lon="6.09459">
        <ele>1033.55</ele>
        <time>2015-02-11T08:21:27Z</time>
      </trkpt>
      <trkpt lat="45.6363" lon="6.09464">
        <ele>1035.48</ele>
        <time>2015-02-11T08:21:47Z</time>
      </trkpt>
      <trkpt lat="45.63629" lon="6.0947">
        <ele>1038.84</ele>
        <time>2015-02-11T08:22:09Z</time>
      </trkpt>
      <trkpt lat="45.63628" lon="6.09476">
        <ele>1041.73</ele>
        <time>2015-02-11T08:22:26Z</time>
      </trkpt>
      <trkpt lat="45.63624" lon="6.09482">
        <ele>1043.65</ele>
        <time>2015-02-11T08:22:59Z</time>
      </trkpt>
      <trkpt lat="45.63629" lon="6.09485">
        <ele>1046.05</ele>
        <time>2015-02-11T08:23:25Z</time>
      </trkpt>
      <trkpt lat="45.6363" lon="6.0949">
        <ele>1048.94</ele>
        <time>2015-02-11T08:23:45Z</time>
      </trkpt>
      <trkpt lat="45.63618" lon="6.095">
        <ele>1050.86</ele>
        <time>2015-02-11T08:24:11Z</time>
      </trkpt>
      <trkpt lat="45.63615" lon="6.0951">
        <ele>1053.74</ele>
        <time>2015-02-11T08:24:30Z</time>
      </trkpt>
      <trkpt lat="45.63611" lon="6.09515">
        <ele>1056.63</ele>
        <time>2015-02-11T08:24:49Z</time>
      </trkpt>
      <trkpt lat="45.63607" lon="6.09522">
        <ele>1059.51</ele>
        <time>2015-02-11T08:25:07Z</time>
      </trkpt>
      <trkpt lat="45.63594" lon="6.09528">
        <ele>1062.39</ele>
        <time>2015-02-11T08:25:48Z</time>
      </trkpt>
      <trkpt lat="45.63584" lon="6.09529">
        <ele>1062.87</ele>
        <time>2015-02-11T08:26:27Z</time>
      </trkpt>
      <trkpt lat="45.63578" lon="6.09527">
        <ele>1061.43</ele>
        <time>2015-02-11T08:26:45Z</time>
      </trkpt>
      <trkpt lat="45.63566" lon="6.0952">
        <ele>1059.51</ele>
        <time>2015-02-11T08:27:03Z</time>
      </trkpt>
      <trkpt lat="45.63558" lon="6.09529">
        <ele>1061.91</ele>
        <time>2015-02-11T08:27:28Z</time>
      </trkpt>
      <trkpt lat="45.63552" lon="6.09535">
        <ele>1061.91</ele>
        <time>2015-02-11T08:27:54Z</time>
      </trkpt>
      <trkpt lat="45.63553" lon="6.09537">
        <ele>1063.36</ele>
        <time>2015-02-11T08:28:17Z</time>
      </trkpt>
      <trkpt lat="45.63555" lon="6.09538">
        <ele>1064.8</ele>
        <time>2015-02-11T08:28:30Z</time>
      </trkpt>
      <trkpt lat="45.63555" lon="6.09545">
        <ele>1067.68</ele>
        <time>2015-02-11T08:28:57Z</time>
      </trkpt>
      <trkpt lat="45.63555" lon="6.0955">
        <ele>1070.08</ele>
        <time>2015-02-11T08:29:34Z</time>
      </trkpt>
      <trkpt lat="45.63555" lon="6.0955">
        <ele>1070.57</ele>
        <time>2015-02-11T08:30:38Z</time>
      </trkpt>
      <trkpt lat="45.63557" lon="6.0955">
        <ele>1073.45</ele>
        <time>2015-02-11T08:34:04Z</time>
      </trkpt>
      <trkpt lat="45.63561" lon="6.09547">
        <ele>1074.41</ele>
        <time>2015-02-11T08:34:23Z</time>
      </trkpt>
      <trkpt lat="45.6356" lon="6.09552">
        <ele>1077.29</ele>
        <time>2015-02-11T08:34:49Z</time>
      </trkpt>
      <trkpt lat="45.63559" lon="6.09558">
        <ele>1079.22</ele>
        <time>2015-02-11T08:35:20Z</time>
      </trkpt>
      <trkpt lat="45.63561" lon="6.09564">
        <ele>1082.1</ele>
        <time>2015-02-11T08:35:47Z</time>
      </trkpt>
      <trkpt lat="45.63559" lon="6.09574">
        <ele>1085.47</ele>
        <time>2015-02-11T08:36:14Z</time>
      </trkpt>
      <trkpt lat="45.6356" lon="6.09579">
        <ele>1086.43</ele>
        <time>2015-02-11T08:36:32Z</time>
      </trkpt>
      <trkpt lat="45.63557" lon="6.09581">
        <ele>1088.35</ele>
        <time>2015-02-11T08:36:52Z</time>
      </trkpt>
      <trkpt lat="45.63559" lon="6.09583">
        <ele>1089.79</ele>
        <time>2015-02-11T08:37:08Z</time>
      </trkpt>
      <trkpt lat="45.63562" lon="6.09583">
        <ele>1091.23</ele>
        <time>2015-02-11T08:37:18Z</time>
      </trkpt>
      <trkpt lat="45.63563" lon="6.09583">
        <ele>1091.23</ele>
        <time>2015-02-11T08:37:21Z</time>
      </trkpt>
      <trkpt lat="45.63565" lon="6.09577">
        <ele>1091.23</ele>
        <time>2015-02-11T08:37:30Z</time>
      </trkpt>
      <trkpt lat="45.63567" lon="6.09582">
        <ele>1093.16</ele>
        <time>2015-02-11T08:37:43Z</time>
      </trkpt>
      <trkpt lat="45.63572" lon="6.09586">
        <ele>1096.04</ele>
        <time>2015-02-11T08:38:02Z</time>
      </trkpt>
      <trkpt lat="45.6357" lon="6.09591">
        <ele>1097.48</ele>
        <time>2015-02-11T08:38:19Z</time>
      </trkpt>
      <trkpt lat="45.63575" lon="6.0959">
        <ele>1098.44</ele>
        <time>2015-02-11T08:38:35Z</time>
      </trkpt>
      <trkpt lat="45.63577" lon="6.09589">
        <ele>1099.89</ele>
        <time>2015-02-11T08:38:49Z</time>
      </trkpt>
      <trkpt lat="45.63574" lon="6.09597">
        <ele>1100.85</ele>
        <time>2015-02-11T08:39:07Z</time>
      </trkpt>
      <trkpt lat="45.63577" lon="6.09598">
        <ele>1102.29</ele>
        <time>2015-02-11T08:39:20Z</time>
      </trkpt>
      <trkpt lat="45.63578" lon="6.096">
        <ele>1104.21</ele>
        <time>2015-02-11T08:39:35Z</time>
      </trkpt>
      <trkpt lat="45.63574" lon="6.09613">
        <ele>1107.1</ele>
        <time>2015-02-11T08:39:53Z</time>
      </trkpt>
      <trkpt lat="45.63574" lon="6.09616">
        <ele>1108.06</ele>
        <time>2015-02-11T08:40:07Z</time>
      </trkpt>
      <trkpt lat="45.63573" lon="6.09617">
        <ele>1108.54</ele>
        <time>2015-02-11T08:40:22Z</time>
      </trkpt>
      <trkpt lat="45.6357" lon="6.09622">
        <ele>1109.5</ele>
        <time>2015-02-11T08:40:44Z</time>
      </trkpt>
      <trkpt lat="45.63562" lon="6.09618">
        <ele>1108.54</ele>
        <time>2015-02-11T08:41:06Z</time>
      </trkpt>
      <trkpt lat="45.63558" lon="6.09622">
        <ele>1107.1</ele>
        <time>2015-02-11T08:41:27Z</time>
      </trkpt>
      <trkpt lat="45.63551" lon="6.09625">
        <ele>1107.58</ele>
        <time>2015-02-11T08:41:47Z</time>
      </trkpt>
      <trkpt lat="45.63548" lon="6.09625">
        <ele>1106.61</ele>
        <time>2015-02-11T08:42:14Z</time>
      </trkpt>
      <trkpt lat="45.6355" lon="6.09628">
        <ele>1108.06</ele>
        <time>2015-02-11T08:43:02Z</time>
      </trkpt>
      <trkpt lat="45.63554" lon="6.09627">
        <ele>1110.46</ele>
        <time>2015-02-11T08:43:29Z</time>
      </trkpt>
      <trkpt lat="45.63555" lon="6.09626">
        <ele>1110.46</ele>
        <time>2015-02-11T08:43:42Z</time>
      </trkpt>
      <trkpt lat="45.63558" lon="6.09627">
        <ele>1112.86</ele>
        <time>2015-02-11T08:44:09Z</time>
      </trkpt>
      <trkpt lat="45.63558" lon="6.09635">
        <ele>1115.27</ele>
        <time>2015-02-11T08:45:25Z</time>
      </trkpt>
      <trkpt lat="45.63568" lon="6.09631">
        <ele>1117.19</ele>
        <time>2015-02-11T08:45:52Z</time>
      </trkpt>
      <trkpt lat="45.63566" lon="6.09634">
        <ele>1117.67</ele>
        <time>2015-02-11T08:46:07Z</time>
      </trkpt>
      <trkpt lat="45.6357" lon="6.09636">
        <ele>1126.1</ele>
        <time>2015-02-11T08:46:10Z</time>
      </trkpt>
      <trkpt lat="45.6357" lon="6.09636">
        <ele>1126</ele>
        <time>2015-02-11T08:46:11Z</time>
      </trkpt>
      <trkpt lat="45.6357" lon="6.09636">
        <ele>1125.8</ele>
        <time>2015-02-11T08:46:12Z</time>
      </trkpt>
      <trkpt lat="45.6357" lon="6.09636">
        <ele>1125.9</ele>
        <time>2015-02-11T08:46:13Z</time>
      </trkpt>
      <trkpt lat="45.6357" lon="6.09637">
        <ele>1126.1</ele>
        <time>2015-02-11T08:46:14Z</time>
      </trkpt>
      <trkpt lat="45.63569" lon="6.09637">
        <ele>1126.2</ele>
        <time>2015-02-11T08:46:15Z</time>
      </trkpt>
      <trkpt lat="45.63569" lon="6.09637">
        <ele>1126.1</ele>
        <time>2015-02-11T08:46:16Z</time>
      </trkpt>
      <trkpt lat="45.63569" lon="6.09637">
        <ele>1126</ele>
        <time>2015-02-11T08:46:17Z</time>
      </trkpt>
      <trkpt lat="45.63568" lon="6.09637">
        <ele>1125.8</ele>
        <time>2015-02-11T08:46:18Z</time>
      </trkpt>
      <trkpt lat="45.63568" lon="6.09637">
        <ele>1125.7</ele>
        <time>2015-02-11T08:46:19Z</time>
      </trkpt>
      <trkpt lat="45.63567" lon="6.09637">
        <ele>1125.8</ele>
        <time>2015-02-11T08:46:20Z</time>
      </trkpt>
      <trkpt lat="45.63568" lon="6.09638">
        <ele>1126.1</ele>
        <time>2015-02-11T08:46:21Z</time>
      </trkpt>
      <trkpt lat="45.63568" lon="6.09638">
        <ele>1126.2</ele>
        <time>2015-02-11T08:46:22Z</time>
      </trkpt>
      <trkpt lat="45.63568" lon="6.09638">
        <ele>1126.2</ele>
        <time>2015-02-11T08:46:23Z</time>
      </trkpt>
      <trkpt lat="45.63568" lon="6.09638">
        <ele>1126.2</ele>
        <time>2015-02-11T08:46:24Z</time>
      </trkpt>
      <trkpt lat="45.63567" lon="6.09638">
        <ele>1126.3</ele>
        <time>2015-02-11T08:46:25Z</time>
      </trkpt>
      <trkpt lat="45.63568" lon="6.09639">
        <ele>1126.6</ele>
        <time>2015-02-11T08:46:26Z</time>
      </trkpt>
      <trkpt lat="45.63568" lon="6.09639">
        <ele>1126.5</ele>
        <time>2015-02-11T08:46:27Z</time>
      </trkpt>
      <trkpt lat="45.63568" lon="6.09638">
        <ele>1126.4</ele>
        <time>2015-02-11T08:46:28Z</time>
      </trkpt>
      <trkpt lat="45.63568" lon="6.09638">
        <ele>1126.3</ele>
        <time>2015-02-11T08:46:29Z</time>
      </trkpt>
      <trkpt lat="45.63568" lon="6.09638">
        <ele>1126.4</ele>
        <time>2015-02-11T08:46:30Z</time>
      </trkpt>
      <trkpt lat="45.63568" lon="6.09638">
        <ele>1126.5</ele>
        <time>2015-02-11T08:46:31Z</time>
      </trkpt>
      <trkpt lat="45.63568" lon="6.09638">
        <ele>1126.3</ele>
        <time>2015-02-11T08:46:32Z</time>
      </trkpt>
      <trkpt lat="45.63567" lon="6.09638">
        <ele>1126.2</ele>
        <time>2015-02-11T08:46:33Z</time>
      </trkpt>
      <trkpt lat="45.63567" lon="6.09639">
        <ele>1126.2</ele>
        <time>2015-02-11T08:46:34Z</time>
      </trkpt>
      <trkpt lat="45.63566" lon="6.09639">
        <ele>1126.1</ele>
        <time>2015-02-11T08:46:35Z</time>
      </trkpt>
      <trkpt lat="45.63565" lon="6.09639">
        <ele>1126.2</ele>
        <time>2015-02-11T08:46:36Z</time>
      </trkpt>
      <trkpt lat="45.63565" lon="6.0964">
        <ele>1126.5</ele>
        <time>2015-02-11T08:46:37Z</time>
      </trkpt>
      <trkpt lat="45.63565" lon="6.09641">
        <ele>1126.6</ele>
        <time>2015-02-11T08:46:38Z</time>
      </trkpt>
      <trkpt lat="45.63564" lon="6.09641">
        <ele>1126.8</ele>
        <time>2015-02-11T08:46:39Z</time>
      </trkpt>
      <trkpt lat="45.63563" lon="6.09642">
        <ele>1126.9</ele>
        <time>2015-02-11T08:46:40Z</time>
      </trkpt>
      <trkpt lat="45.63563" lon="6.09642">
        <ele>1127</ele>
        <time>2015-02-11T08:46:41Z</time>
      </trkpt>
      <trkpt lat="45.63562" lon="6.09643">
        <ele>1127.1</ele>
        <time>2015-02-11T08:46:42Z</time>
      </trkpt>
      <trkpt lat="45.63562" lon="6.09643">
        <ele>1127.1</ele>
        <time>2015-02-11T08:46:43Z</time>
      </trkpt>
      <trkpt lat="45.63562" lon="6.09643">
        <ele>1127.1</ele>
        <time>2015-02-11T08:46:44Z</time>
      </trkpt>
      <trkpt lat="45.63561" lon="6.09643">
        <ele>1127.1</ele>
        <time>2015-02-11T08:46:45Z</time>
      </trkpt>
      <trkpt lat="45.63561" lon="6.09643">
        <ele>1127.1</ele>
        <time>2015-02-11T08:46:46Z</time>
      </trkpt>
      <trkpt lat="45.63561" lon="6.09644">
        <ele>1127.2</ele>
        <time>2015-02-11T08:46:47Z</time>
      </trkpt>
      <trkpt lat="45.6356" lon="6.09644">
        <ele>1127.3</ele>
        <time>2015-02-11T08:46:48Z</time>
      </trkpt>
      <trkpt lat="45.63559" lon="6.09645">
        <ele>1127.5</ele>
        <time>2015-02-11T08:46:49Z</time>
      </trkpt>
      <trkpt lat="45.63559" lon="6.09646">
        <ele>1127.8</ele>
        <time>2015-02-11T08:46:50Z</time>
      </trkpt>
      <trkpt lat="45.63559" lon="6.09646">
        <ele>1127.8</ele>
        <time>2015-02-11T08:46:51Z</time>
      </trkpt>
      <trkpt lat="45.63559" lon="6.09646">
        <ele>1127.9</ele>
        <time>2015-02-11T08:46:52Z</time>
      </trkpt>
      <trkpt lat="45.63559" lon="6.09647">
        <ele>1128.1</ele>
        <time>2015-02-11T08:46:53Z</time>
      </trkpt>
      <trkpt lat="45.63559" lon="6.09647">
        <ele>1128.1</ele>
        <time>2015-02-11T08:46:54Z</time>
      </trkpt>
      <trkpt lat="45.63559" lon="6.09647">
        <ele>1128.2</ele>
        <time>2015-02-11T08:46:55Z</time>
      </trkpt>
      <trkpt lat="45.63558" lon="6.09647">
        <ele>1128.1</ele>
        <time>2015-02-11T08:46:56Z</time>
      </trkpt>
      <trkpt lat="45.63558" lon="6.09648">
        <ele>1128.3</ele>
        <time>2015-02-11T08:46:57Z</time>
      </trkpt>
      <trkpt lat="45.63558" lon="6.09648">
        <ele>1128.3</ele>
        <time>2015-02-11T08:46:58Z</time>
      </trkpt>
      <trkpt lat="45.63558" lon="6.09648">
        <ele>1128.4</ele>
        <time>2015-02-11T08:46:59Z</time>
      </trkpt>
      <trkpt lat="45.63557" lon="6.09648">
        <ele>1128.4</ele>
        <time>2015-02-11T08:47:00Z</time>
      </trkpt>
      <trkpt lat="45.63557" lon="6.09649">
        <ele>1128.5</ele>
        <time>2015-02-11T08:47:01Z</time>
      </trkpt>
      <trkpt lat="45.63557" lon="6.09649">
        <ele>1128.7</ele>
        <time>2015-02-11T08:47:02Z</time>
      </trkpt>
      <trkpt lat="45.63557" lon="6.0965">
        <ele>1128.8</ele>
        <time>2015-02-11T08:47:03Z</time>
      </trkpt>
      <trkpt lat="45.63556" lon="6.0965">
        <ele>1128.7</ele>
        <time>2015-02-11T08:47:04Z</time>
      </trkpt>
      <trkpt lat="45.63556" lon="6.0965">
        <ele>1128.8</ele>
        <time>2015-02-11T08:47:05Z</time>
      </trkpt>
      <trkpt lat="45.63556" lon="6.0965">
        <ele>1128.8</ele>
        <time>2015-02-11T08:47:06Z</time>
      </trkpt>
      <trkpt lat="45.63556" lon="6.0965">
        <ele>1128.8</ele>
        <time>2015-02-11T08:47:07Z</time>
      </trkpt>
      <trkpt lat="45.63556" lon="6.0965">
        <ele>1128.9</ele>
        <time>2015-02-11T08:47:08Z</time>
      </trkpt>
      <trkpt lat="45.63556" lon="6.0965">
        <ele>1128.8</ele>
        <time>2015-02-11T08:47:09Z</time>
      </trkpt>
      <trkpt lat="45.63556" lon="6.0965">
        <ele>1128.9</ele>
        <time>2015-02-11T08:47:10Z</time>
      </trkpt>
      <trkpt lat="45.63557" lon="6.0965">
        <ele>1129</ele>
        <time>2015-02-11T08:47:11Z</time>
      </trkpt>
      <trkpt lat="45.63556" lon="6.0965">
        <ele>1129</ele>
        <time>2015-02-11T08:47:12Z</time>
      </trkpt>
      <trkpt lat="45.63556" lon="6.0965">
        <ele>1129</ele>
        <time>2015-02-11T08:47:13Z</time>
      </trkpt>
      <trkpt lat="45.63557" lon="6.0965">
        <ele>1129</ele>
        <time>2015-02-11T08:47:14Z</time>
      </trkpt>
      <trkpt lat="45.63557" lon="6.0965">
        <ele>1129</ele>
        <time>2015-02-11T08:47:15Z</time>
      </trkpt>
      <trkpt lat="45.63557" lon="6.0965">
        <ele>1129.1</ele>
        <time>2015-02-11T08:47:16Z</time>
      </trkpt>
      <trkpt lat="45.63557" lon="6.09651">
        <ele>1129.3</ele>
        <time>2015-02-11T08:47:17Z</time>
      </trkpt>
      <trkpt lat="45.63556" lon="6.09651">
        <ele>1129.4</ele>
        <time>2015-02-11T08:47:18Z</time>
      </trkpt>
      <trkpt lat="45.63556" lon="6.09652">
        <ele>1129.7</ele>
        <time>2015-02-11T08:47:19Z</time>
      </trkpt>
      <trkpt lat="45.63557" lon="6.09652">
        <ele>1129.9</ele>
        <time>2015-02-11T08:47:20Z</time>
      </trkpt>
      <trkpt lat="45.63557" lon="6.09652">
        <ele>1130.1</ele>
        <time>2015-02-11T08:47:21Z</time>
      </trkpt>
      <trkpt lat="45.63557" lon="6.09653">
        <ele>1130.5</ele>
        <time>2015-02-11T08:47:22Z</time>
      </trkpt>
      <trkpt lat="45.63557" lon="6.09653">
        <ele>1130.5</ele>
        <time>2015-02-11T08:47:23Z</time>
      </trkpt>
      <trkpt lat="45.63557" lon="6.09653">
        <ele>1130.5</ele>
        <time>2015-02-11T08:47:24Z</time>
      </trkpt>
      <trkpt lat="45.63557" lon="6.09654">
        <ele>1130.6</ele>
        <time>2015-02-11T08:47:25Z</time>
      </trkpt>
      <trkpt lat="45.63557" lon="6.09654">
        <ele>1130.6</ele>
        <time>2015-02-11T08:47:26Z</time>
      </trkpt>
      <trkpt lat="45.63557" lon="6.09654">
        <ele>1130.6</ele>
        <time>2015-02-11T08:47:27Z</time>
      </trkpt>
      <trkpt lat="45.63556" lon="6.09654">
        <ele>1130.8</ele>
        <time>2015-02-11T08:47:28Z</time>
      </trkpt>
      <trkpt lat="45.63556" lon="6.09655">
        <ele>1130.9</ele>
        <time>2015-02-11T08:47:29Z</time>
      </trkpt>
      <trkpt lat="45.63556" lon="6.09655">
        <ele>1131.1</ele>
        <time>2015-02-11T08:47:30Z</time>
      </trkpt>
      <trkpt lat="45.63556" lon="6.09656">
        <ele>1131.4</ele>
        <time>2015-02-11T08:47:31Z</time>
      </trkpt>
      <trkpt lat="45.63556" lon="6.09656">
        <ele>1131.7</ele>
        <time>2015-02-11T08:47:32Z</time>
      </trkpt>
      <trkpt lat="45.63556" lon="6.09657">
        <ele>1131.8</ele>
        <time>2015-02-11T08:47:33Z</time>
      </trkpt>
      <trkpt lat="45.63556" lon="6.09657">
        <ele>1131.8</ele>
        <time>2015-02-11T08:47:34Z</time>
      </trkpt>
      <trkpt lat="45.63556" lon="6.09657">
        <ele>1131.8</ele>
        <time>2015-02-11T08:47:35Z</time>
      </trkpt>
      <trkpt lat="45.63556" lon="6.09657">
        <ele>1131.8</ele>
        <time>2015-02-11T08:47:36Z</time>
      </trkpt>
      <trkpt lat="45.63556" lon="6.09657">
        <ele>1131.9</ele>
        <time>2015-02-11T08:47:37Z</time>
      </trkpt>
      <trkpt lat="45.63556" lon="6.09657">
        <ele>1132</ele>
        <time>2015-02-11T08:47:38Z</time>
      </trkpt>
      <trkpt lat="45.63556" lon="6.09657">
        <ele>1132.1</ele>
        <time>2015-02-11T08:47:39Z</time>
      </trkpt>
      <trkpt lat="45.63556" lon="6.09657">
        <ele>1132.1</ele>
        <time>2015-02-11T08:47:40Z</time>
      </trkpt>
      <trkpt lat="45.63556" lon="6.09657">
        <ele>1132</ele>
        <time>2015-02-11T08:47:41Z</time>
      </trkpt>
      <trkpt lat="45.63556" lon="6.09657">
        <ele>1132</ele>
        <time>2015-02-11T08:47:42Z</time>
      </trkpt>
      <trkpt lat="45.63556" lon="6.09657">
        <ele>1132.1</ele>
        <time>2015-02-11T08:47:43Z</time>
      </trkpt>
      <trkpt lat="45.63557" lon="6.09657">
        <ele>1132.2</ele>
        <time>2015-02-11T08:47:44Z</time>
      </trkpt>
      <trkpt lat="45.63557" lon="6.09658">
        <ele>1132.4</ele>
        <time>2015-02-11T08:47:45Z</time>
      </trkpt>
      <trkpt lat="45.63558" lon="6.09657">
        <ele>1132.4</ele>
        <time>2015-02-11T08:47:46Z</time>
      </trkpt>
      <trkpt lat="45.63558" lon="6.09657">
        <ele>1132.5</ele>
        <time>2015-02-11T08:47:47Z</time>
      </trkpt>
      <trkpt lat="45.63559" lon="6.09657">
        <ele>1132.7</ele>
        <time>2015-02-11T08:47:48Z</time>
      </trkpt>
      <trkpt lat="45.6356" lon="6.09657">
        <ele>1132.9</ele>
        <time>2015-02-11T08:47:49Z</time>
      </trkpt>
      <trkpt lat="45.6356" lon="6.09658">
        <ele>1133.4</ele>
        <time>2015-02-11T08:47:50Z</time>
      </trkpt>
      <trkpt lat="45.6356" lon="6.09659">
        <ele>1133.5</ele>
        <time>2015-02-11T08:47:51Z</time>
      </trkpt>
      <trkpt lat="45.63561" lon="6.09659">
        <ele>1133.7</ele>
        <time>2015-02-11T08:47:52Z</time>
      </trkpt>
      <trkpt lat="45.63561" lon="6.09659">
        <ele>1133.8</ele>
        <time>2015-02-11T08:47:53Z</time>
      </trkpt>
      <trkpt lat="45.63562" lon="6.0966">
        <ele>1134.3</ele>
        <time>2015-02-11T08:47:54Z</time>
      </trkpt>
      <trkpt lat="45.63563" lon="6.0966">
        <ele>1134.6</ele>
        <time>2015-02-11T08:47:55Z</time>
      </trkpt>
      <trkpt lat="45.63563" lon="6.0966">
        <ele>1134.9</ele>
        <time>2015-02-11T08:47:56Z</time>
      </trkpt>
      <trkpt lat="45.63564" lon="6.0966">
        <ele>1135</ele>
        <time>2015-02-11T08:47:57Z</time>
      </trkpt>
      <trkpt lat="45.63565" lon="6.09661">
        <ele>1135.3</ele>
        <time>2015-02-11T08:47:58Z</time>
      </trkpt>
      <trkpt lat="45.63565" lon="6.0966">
        <ele>1135.1</ele>
        <time>2015-02-11T08:47:59Z</time>
      </trkpt>
      <trkpt lat="45.63565" lon="6.0966">
        <ele>1135.3</ele>
        <time>2015-02-11T08:48:00Z</time>
      </trkpt>
      <trkpt lat="45.63566" lon="6.0966">
        <ele>1135.5</ele>
        <time>2015-02-11T08:48:01Z</time>
      </trkpt>
      <trkpt lat="45.63567" lon="6.0966">
        <ele>1135.8</ele>
        <time>2015-02-11T08:48:02Z</time>
      </trkpt>
      <trkpt lat="45.63568" lon="6.0966">
        <ele>1135.9</ele>
        <time>2015-02-11T08:48:03Z</time>
      </trkpt>
      <trkpt lat="45.63568" lon="6.0966">
        <ele>1135.8</ele>
        <time>2015-02-11T08:48:04Z</time>
      </trkpt>
      <trkpt lat="45.63568" lon="6.0966">
        <ele>1135.7</ele>
        <time>2015-02-11T08:48:05Z</time>
      </trkpt>
      <trkpt lat="45.63569" lon="6.0966">
        <ele>1135.8</ele>
        <time>2015-02-11T08:48:06Z</time>
      </trkpt>
      <trkpt lat="45.63569" lon="6.0966">
        <ele>1135.9</ele>
        <time>2015-02-11T08:48:07Z</time>
      </trkpt>
      <trkpt lat="45.63569" lon="6.0966">
        <ele>1135.9</ele>
        <time>2015-02-11T08:48:08Z</time>
      </trkpt>
      <trkpt lat="45.6357" lon="6.0966">
        <ele>1136.2</ele>
        <time>2015-02-11T08:48:09Z</time>
      </trkpt>
      <trkpt lat="45.63571" lon="6.0966">
        <ele>1136.3</ele>
        <time>2015-02-11T08:48:10Z</time>
      </trkpt>
      <trkpt lat="45.63571" lon="6.0966">
        <ele>1136.4</ele>
        <time>2015-02-11T08:48:11Z</time>
      </trkpt>
      <trkpt lat="45.63572" lon="6.0966">
        <ele>1136.4</ele>
        <time>2015-02-11T08:48:12Z</time>
      </trkpt>
      <trkpt lat="45.63572" lon="6.0966">
        <ele>1136.5</ele>
        <time>2015-02-11T08:48:13Z</time>
      </trkpt>
      <trkpt lat="45.63572" lon="6.0966">
        <ele>1136.6</ele>
        <time>2015-02-11T08:48:14Z</time>
      </trkpt>
      <trkpt lat="45.63572" lon="6.0966">
        <ele>1136.7</ele>
        <time>2015-02-11T08:48:15Z</time>
      </trkpt>
      <trkpt lat="45.63572" lon="6.0966">
        <ele>1136.8</ele>
        <time>2015-02-11T08:48:16Z</time>
      </trkpt>
      <trkpt lat="45.63572" lon="6.0966">
        <ele>1136.9</ele>
        <time>2015-02-11T08:48:17Z</time>
      </trkpt>
      <trkpt lat="45.63573" lon="6.0966">
        <ele>1137.1</ele>
        <time>2015-02-11T08:48:18Z</time>
      </trkpt>
      <trkpt lat="45.63573" lon="6.09661">
        <ele>1137.2</ele>
        <time>2015-02-11T08:48:19Z</time>
      </trkpt>
      <trkpt lat="45.63574" lon="6.0966">
        <ele>1137.3</ele>
        <time>2015-02-11T08:48:20Z</time>
      </trkpt>
      <trkpt lat="45.63574" lon="6.0966">
        <ele>1137.3</ele>
        <time>2015-02-11T08:48:21Z</time>
      </trkpt>
      <trkpt lat="45.63575" lon="6.0966">
        <ele>1137.4</ele>
        <time>2015-02-11T08:48:22Z</time>
      </trkpt>
      <trkpt lat="45.63576" lon="6.0966">
        <ele>1137.5</ele>
        <time>2015-02-11T08:48:23Z</time>
      </trkpt>
      <trkpt lat="45.63577" lon="6.0966">
        <ele>1137.6</ele>
        <time>2015-02-11T08:48:24Z</time>
      </trkpt>
      <trkpt lat="45.63577" lon="6.0966">
        <ele>1137.6</ele>
        <time>2015-02-11T08:48:25Z</time>
      </trkpt>
      <trkpt lat="45.63578" lon="6.0966">
        <ele>1137.8</ele>
        <time>2015-02-11T08:48:26Z</time>
      </trkpt>
      <trkpt lat="45.63579" lon="6.0966">
        <ele>1137.9</ele>
        <time>2015-02-11T08:48:27Z</time>
      </trkpt>
      <trkpt lat="45.63579" lon="6.09659">
        <ele>1137.9</ele>
        <time>2015-02-11T08:48:28Z</time>
      </trkpt>
      <trkpt lat="45.6358" lon="6.09659">
        <ele>1137.9</ele>
        <time>2015-02-11T08:48:29Z</time>
      </trkpt>
      <trkpt lat="45.6358" lon="6.09659">
        <ele>1138</ele>
        <time>2015-02-11T08:48:30Z</time>
      </trkpt>
      <trkpt lat="45.63581" lon="6.09659">
        <ele>1138.1</ele>
        <time>2015-02-11T08:48:31Z</time>
      </trkpt>
      <trkpt lat="45.63581" lon="6.09659">
        <ele>1138.3</ele>
        <time>2015-02-11T08:48:32Z</time>
      </trkpt>
      <trkpt lat="45.63582" lon="6.09659">
        <ele>1138.3</ele>
        <time>2015-02-11T08:48:33Z</time>
      </trkpt>
      <trkpt lat="45.63582" lon="6.09659">
        <ele>1138.2</ele>
        <time>2015-02-11T08:48:34Z</time>
      </trkpt>
      <trkpt lat="45.63582" lon="6.09658">
        <ele>1138.2</ele>
        <time>2015-02-11T08:48:35Z</time>
      </trkpt>
      <trkpt lat="45.63583" lon="6.09658">
        <ele>1138.2</ele>
        <time>2015-02-11T08:48:36Z</time>
      </trkpt>
      <trkpt lat="45.63583" lon="6.09658">
        <ele>1138.2</ele>
        <time>2015-02-11T08:48:37Z</time>
      </trkpt>
      <trkpt lat="45.63584" lon="6.09658">
        <ele>1138.4</ele>
        <time>2015-02-11T08:48:38Z</time>
      </trkpt>
      <trkpt lat="45.63584" lon="6.09658">
        <ele>1138.6</ele>
        <time>2015-02-11T08:48:39Z</time>
      </trkpt>
      <trkpt lat="45.63585" lon="6.09659">
        <ele>1138.8</ele>
        <time>2015-02-11T08:48:40Z</time>
      </trkpt>
      <trkpt lat="45.63585" lon="6.09658">
        <ele>1138.7</ele>
        <time>2015-02-11T08:48:41Z</time>
      </trkpt>
      <trkpt lat="45.63586" lon="6.09657">
        <ele>1138.6</ele>
        <time>2015-02-11T08:48:42Z</time>
      </trkpt>
      <trkpt lat="45.63587" lon="6.09657">
        <ele>1138.7</ele>
        <time>2015-02-11T08:48:43Z</time>
      </trkpt>
      <trkpt lat="45.63587" lon="6.09658">
        <ele>1138.8</ele>
        <time>2015-02-11T08:48:44Z</time>
      </trkpt>
      <trkpt lat="45.63588" lon="6.09658">
        <ele>1139</ele>
        <time>2015-02-11T08:48:45Z</time>
      </trkpt>
      <trkpt lat="45.63588" lon="6.09658">
        <ele>1139.1</ele>
        <time>2015-02-11T08:48:46Z</time>
      </trkpt>
      <trkpt lat="45.63589" lon="6.09658">
        <ele>1139.3</ele>
        <time>2015-02-11T08:48:47Z</time>
      </trkpt>
      <trkpt lat="45.63589" lon="6.09658">
        <ele>1139.4</ele>
        <time>2015-02-11T08:48:48Z</time>
      </trkpt>
      <trkpt lat="45.6359" lon="6.09658">
        <ele>1139.6</ele>
        <time>2015-02-11T08:48:49Z</time>
      </trkpt>
      <trkpt lat="45.6359" lon="6.09658">
        <ele>1139.5</ele>
        <time>2015-02-11T08:48:50Z</time>
      </trkpt>
      <trkpt lat="45.6359" lon="6.09658">
        <ele>1139.8</ele>
        <time>2015-02-11T08:48:51Z</time>
      </trkpt>
      <trkpt lat="45.63591" lon="6.09659">
        <ele>1140.2</ele>
        <time>2015-02-11T08:48:52Z</time>
      </trkpt>
      <trkpt lat="45.63591" lon="6.09658">
        <ele>1140.1</ele>
        <time>2015-02-11T08:48:53Z</time>
      </trkpt>
      <trkpt lat="45.63592" lon="6.09658">
        <ele>1140</ele>
        <time>2015-02-11T08:48:54Z</time>
      </trkpt>
      <trkpt lat="45.63592" lon="6.09658">
        <ele>1140.1</ele>
        <time>2015-02-11T08:48:55Z</time>
      </trkpt>
      <trkpt lat="45.63593" lon="6.09658">
        <ele>1140.2</ele>
        <time>2015-02-11T08:48:56Z</time>
      </trkpt>
      <trkpt lat="45.63593" lon="6.09658">
        <ele>1140.3</ele>
        <time>2015-02-11T08:48:57Z</time>
      </trkpt>
      <trkpt lat="45.63594" lon="6.09658">
        <ele>1140.6</ele>
        <time>2015-02-11T08:48:58Z</time>
      </trkpt>
      <trkpt lat="45.63595" lon="6.09658">
        <ele>1140.6</ele>
        <time>2015-02-11T08:48:59Z</time>
      </trkpt>
      <trkpt lat="45.63595" lon="6.09657">
        <ele>1140.6</ele>
        <time>2015-02-11T08:49:00Z</time>
      </trkpt>
      <trkpt lat="45.63597" lon="6.09656">
        <ele>1140.2</ele>
        <time>2015-02-11T08:49:02Z</time>
      </trkpt>
      <trkpt lat="45.63598" lon="6.09655">
        <ele>1140</ele>
        <time>2015-02-11T08:49:03Z</time>
      </trkpt>
      <trkpt lat="45.63598" lon="6.09654">
        <ele>1139.9</ele>
        <time>2015-02-11T08:49:04Z</time>
      </trkpt>
      <trkpt lat="45.63599" lon="6.09654">
        <ele>1140</ele>
        <time>2015-02-11T08:49:05Z</time>
      </trkpt>
      <trkpt lat="45.63599" lon="6.09655">
        <ele>1140.3</ele>
        <time>2015-02-11T08:49:06Z</time>
      </trkpt>
      <trkpt lat="45.636" lon="6.09655">
        <ele>1140.4</ele>
        <time>2015-02-11T08:49:07Z</time>
      </trkpt>
      <trkpt lat="45.636" lon="6.09654">
        <ele>1140.3</ele>
        <time>2015-02-11T08:49:08Z</time>
      </trkpt>
      <trkpt lat="45.63601" lon="6.09654">
        <ele>1140.3</ele>
        <time>2015-02-11T08:49:09Z</time>
      </trkpt>
      <trkpt lat="45.63601" lon="6.09654">
        <ele>1140.3</ele>
        <time>2015-02-11T08:49:10Z</time>
      </trkpt>
      <trkpt lat="45.63602" lon="6.09654">
        <ele>1140.3</ele>
        <time>2015-02-11T08:49:11Z</time>
      </trkpt>
      <trkpt lat="45.63602" lon="6.09654">
        <ele>1140.5</ele>
        <time>2015-02-11T08:49:12Z</time>
      </trkpt>
      <trkpt lat="45.63602" lon="6.09654">
        <ele>1140.6</ele>
        <time>2015-02-11T08:49:13Z</time>
      </trkpt>
      <trkpt lat="45.63602" lon="6.09655">
        <ele>1140.8</ele>
        <time>2015-02-11T08:49:14Z</time>
      </trkpt>
      <trkpt lat="45.63602" lon="6.09655">
        <ele>1140.7</ele>
        <time>2015-02-11T08:49:15Z</time>
      </trkpt>
      <trkpt lat="45.63602" lon="6.09655">
        <ele>1140.7</ele>
        <time>2015-02-11T08:49:16Z</time>
      </trkpt>
      <trkpt lat="45.63601" lon="6.09655">
        <ele>1140.8</ele>
        <time>2015-02-11T08:49:17Z</time>
      </trkpt>
      <trkpt lat="45.63601" lon="6.09655">
        <ele>1140.5</ele>
        <time>2015-02-11T08:49:18Z</time>
      </trkpt>
      <trkpt lat="45.63601" lon="6.09655">
        <ele>1140.6</ele>
        <time>2015-02-11T08:49:19Z</time>
      </trkpt>
      <trkpt lat="45.63601" lon="6.09655">
        <ele>1140.7</ele>
        <time>2015-02-11T08:49:20Z</time>
      </trkpt>
      <trkpt lat="45.63601" lon="6.09655">
        <ele>1140.6</ele>
        <time>2015-02-11T08:49:21Z</time>
      </trkpt>
      <trkpt lat="45.636" lon="6.09655">
        <ele>1140.5</ele>
        <time>2015-02-11T08:49:22Z</time>
      </trkpt>
      <trkpt lat="45.636" lon="6.09655">
        <ele>1140.4</ele>
        <time>2015-02-11T08:49:23Z</time>
      </trkpt>
      <trkpt lat="45.636" lon="6.09655">
        <ele>1140.3</ele>
        <time>2015-02-11T08:49:24Z</time>
      </trkpt>
      <trkpt lat="45.63599" lon="6.09655">
        <ele>1140.3</ele>
        <time>2015-02-11T08:49:25Z</time>
      </trkpt>
      <trkpt lat="45.63599" lon="6.09656">
        <ele>1140.5</ele>
        <time>2015-02-11T08:49:26Z</time>
      </trkpt>
      <trkpt lat="45.63598" lon="6.09656">
        <ele>1140.8</ele>
        <time>2015-02-11T08:49:27Z</time>
      </trkpt>
      <trkpt lat="45.63598" lon="6.09657">
        <ele>1141.3</ele>
        <time>2015-02-11T08:49:28Z</time>
      </trkpt>
      <trkpt lat="45.63598" lon="6.09658">
        <ele>1141.5</ele>
        <time>2015-02-11T08:49:29Z</time>
      </trkpt>
      <trkpt lat="45.63598" lon="6.09659">
        <ele>1141.8</ele>
        <time>2015-02-11T08:49:30Z</time>
      </trkpt>
      <trkpt lat="45.63598" lon="6.09659">
        <ele>1142.1</ele>
        <time>2015-02-11T08:49:31Z</time>
      </trkpt>
      <trkpt lat="45.63598" lon="6.0966">
        <ele>1142.4</ele>
        <time>2015-02-11T08:49:32Z</time>
      </trkpt>
      <trkpt lat="45.63598" lon="6.09661">
        <ele>1142.6</ele>
        <time>2015-02-11T08:49:33Z</time>
      </trkpt>
      <trkpt lat="45.63598" lon="6.09661">
        <ele>1142.8</ele>
        <time>2015-02-11T08:49:34Z</time>
      </trkpt>
      <trkpt lat="45.63598" lon="6.09662">
        <ele>1143</ele>
        <time>2015-02-11T08:49:35Z</time>
      </trkpt>
      <trkpt lat="45.63598" lon="6.09662">
        <ele>1143.1</ele>
        <time>2015-02-11T08:49:36Z</time>
      </trkpt>
      <trkpt lat="45.63598" lon="6.09663">
        <ele>1143.5</ele>
        <time>2015-02-11T08:49:37Z</time>
      </trkpt>
      <trkpt lat="45.63598" lon="6.09663">
        <ele>1143.6</ele>
        <time>2015-02-11T08:49:38Z</time>
      </trkpt>
      <trkpt lat="45.63597" lon="6.09664">
        <ele>1143.9</ele>
        <time>2015-02-11T08:49:39Z</time>
      </trkpt>
      <trkpt lat="45.63597" lon="6.09665">
        <ele>1144.1</ele>
        <time>2015-02-11T08:49:40Z</time>
      </trkpt>
      <trkpt lat="45.63597" lon="6.09665">
        <ele>1144.3</ele>
        <time>2015-02-11T08:49:41Z</time>
      </trkpt>
      <trkpt lat="45.63597" lon="6.09665">
        <ele>1144.2</ele>
        <time>2015-02-11T08:49:42Z</time>
      </trkpt>
      <trkpt lat="45.63596" lon="6.09665">
        <ele>1144.1</ele>
        <time>2015-02-11T08:49:43Z</time>
      </trkpt>
      <trkpt lat="45.63596" lon="6.09665">
        <ele>1144.2</ele>
        <time>2015-02-11T08:49:44Z</time>
      </trkpt>
      <trkpt lat="45.63596" lon="6.09666">
        <ele>1144.3</ele>
        <time>2015-02-11T08:49:45Z</time>
      </trkpt>
      <trkpt lat="45.63595" lon="6.09667">
        <ele>1144.6</ele>
        <time>2015-02-11T08:49:46Z</time>
      </trkpt>
      <trkpt lat="45.63595" lon="6.09667">
        <ele>1144.9</ele>
        <time>2015-02-11T08:49:47Z</time>
      </trkpt>
      <trkpt lat="45.63595" lon="6.09668">
        <ele>1145.1</ele>
        <time>2015-02-11T08:49:48Z</time>
      </trkpt>
      <trkpt lat="45.63594" lon="6.09668">
        <ele>1144.9</ele>
        <time>2015-02-11T08:49:49Z</time>
      </trkpt>
      <trkpt lat="45.63594" lon="6.0967">
        <ele>1145.7</ele>
        <time>2015-02-11T08:49:50Z</time>
      </trkpt>
      <trkpt lat="45.63594" lon="6.0967">
        <ele>1145.9</ele>
        <time>2015-02-11T08:49:51Z</time>
      </trkpt>
      <trkpt lat="45.63594" lon="6.0967">
        <ele>1145.7</ele>
        <time>2015-02-11T08:49:52Z</time>
      </trkpt>
      <trkpt lat="45.63594" lon="6.0967">
        <ele>1145.5</ele>
        <time>2015-02-11T08:49:53Z</time>
      </trkpt>
      <trkpt lat="45.63594" lon="6.09671">
        <ele>1146.1</ele>
        <time>2015-02-11T08:49:54Z</time>
      </trkpt>
      <trkpt lat="45.63594" lon="6.09671">
        <ele>1146.3</ele>
        <time>2015-02-11T08:49:55Z</time>
      </trkpt>
      <trkpt lat="45.63594" lon="6.09671">
        <ele>1146.2</ele>
        <time>2015-02-11T08:49:56Z</time>
      </trkpt>
      <trkpt lat="45.63594" lon="6.09671">
        <ele>1146.4</ele>
        <time>2015-02-11T08:49:57Z</time>
      </trkpt>
      <trkpt lat="45.63594" lon="6.09672">
        <ele>1146.5</ele>
        <time>2015-02-11T08:49:58Z</time>
      </trkpt>
      <trkpt lat="45.63593" lon="6.09672">
        <ele>1146.6</ele>
        <time>2015-02-11T08:49:59Z</time>
      </trkpt>
      <trkpt lat="45.63593" lon="6.09673">
        <ele>1146.8</ele>
        <time>2015-02-11T08:50:00Z</time>
      </trkpt>
      <trkpt lat="45.63593" lon="6.09673">
        <ele>1146.8</ele>
        <time>2015-02-11T08:50:01Z</time>
      </trkpt>
      <trkpt lat="45.63593" lon="6.09673">
        <ele>1146.9</ele>
        <time>2015-02-11T08:50:02Z</time>
      </trkpt>
      <trkpt lat="45.63592" lon="6.09674">
        <ele>1147.1</ele>
        <time>2015-02-11T08:50:03Z</time>
      </trkpt>
      <trkpt lat="45.63592" lon="6.09674">
        <ele>1147.2</ele>
        <time>2015-02-11T08:50:04Z</time>
      </trkpt>
      <trkpt lat="45.63591" lon="6.09675">
        <ele>1147.3</ele>
        <time>2015-02-11T08:50:05Z</time>
      </trkpt>
      <trkpt lat="45.63591" lon="6.09675">
        <ele>1147.6</ele>
        <time>2015-02-11T08:50:06Z</time>
      </trkpt>
      <trkpt lat="45.63591" lon="6.09676">
        <ele>1147.9</ele>
        <time>2015-02-11T08:50:07Z</time>
      </trkpt>
      <trkpt lat="45.63591" lon="6.09676">
        <ele>1148</ele>
        <time>2015-02-11T08:50:08Z</time>
      </trkpt>
      <trkpt lat="45.6359" lon="6.09677">
        <ele>1148.2</ele>
        <time>2015-02-11T08:50:09Z</time>
      </trkpt>
      <trkpt lat="45.6359" lon="6.09678">
        <ele>1148.4</ele>
        <time>2015-02-11T08:50:10Z</time>
      </trkpt>
      <trkpt lat="45.6359" lon="6.09677">
        <ele>1148.3</ele>
        <time>2015-02-11T08:50:11Z</time>
      </trkpt>
      <trkpt lat="45.6359" lon="6.09677">
        <ele>1148.1</ele>
        <time>2015-02-11T08:50:12Z</time>
      </trkpt>
      <trkpt lat="45.6359" lon="6.09677">
        <ele>1147.9</ele>
        <time>2015-02-11T08:50:13Z</time>
      </trkpt>
      <trkpt lat="45.6359" lon="6.09676">
        <ele>1147.7</ele>
        <time>2015-02-11T08:50:14Z</time>
      </trkpt>
      <trkpt lat="45.6359" lon="6.09677">
        <ele>1147.9</ele>
        <time>2015-02-11T08:50:15Z</time>
      </trkpt>
      <trkpt lat="45.6359" lon="6.09676">
        <ele>1147.8</ele>
        <time>2015-02-11T08:50:16Z</time>
      </trkpt>
      <trkpt lat="45.6359" lon="6.09677">
        <ele>1147.9</ele>
        <time>2015-02-11T08:50:17Z</time>
      </trkpt>
      <trkpt lat="45.6359" lon="6.09677">
        <ele>1147.9</ele>
        <time>2015-02-11T08:50:18Z</time>
      </trkpt>
      <trkpt lat="45.6359" lon="6.09677">
        <ele>1148</ele>
        <time>2015-02-11T08:50:19Z</time>
      </trkpt>
      <trkpt lat="45.6359" lon="6.09677">
        <ele>1148.1</ele>
        <time>2015-02-11T08:50:20Z</time>
      </trkpt>
      <trkpt lat="45.6359" lon="6.09677">
        <ele>1148.1</ele>
        <time>2015-02-11T08:50:21Z</time>
      </trkpt>
      <trkpt lat="45.6359" lon="6.09678">
        <ele>1148.5</ele>
        <time>2015-02-11T08:50:22Z</time>
      </trkpt>
      <trkpt lat="45.63591" lon="6.09678">
        <ele>1148.8</ele>
        <time>2015-02-11T08:50:23Z</time>
      </trkpt>
      <trkpt lat="45.63592" lon="6.09679">
        <ele>1149.2</ele>
        <time>2015-02-11T08:50:24Z</time>
      </trkpt>
      <trkpt lat="45.63592" lon="6.09679">
        <ele>1149.3</ele>
        <time>2015-02-11T08:50:25Z</time>
      </trkpt>
      <trkpt lat="45.63593" lon="6.09679">
        <ele>1149.6</ele>
        <time>2015-02-11T08:50:26Z</time>
      </trkpt>
      <trkpt lat="45.63593" lon="6.09679">
        <ele>1149.8</ele>
        <time>2015-02-11T08:50:27Z</time>
      </trkpt>
      <trkpt lat="45.63593" lon="6.09679">
        <ele>1149.9</ele>
        <time>2015-02-11T08:50:28Z</time>
      </trkpt>
      <trkpt lat="45.63594" lon="6.0968">
        <ele>1150.1</ele>
        <time>2015-02-11T08:50:29Z</time>
      </trkpt>
      <trkpt lat="45.63594" lon="6.0968">
        <ele>1150.2</ele>
        <time>2015-02-11T08:50:30Z</time>
      </trkpt>
      <trkpt lat="45.63595" lon="6.0968">
        <ele>1150.4</ele>
        <time>2015-02-11T08:50:31Z</time>
      </trkpt>
      <trkpt lat="45.63595" lon="6.0968">
        <ele>1150.4</ele>
        <time>2015-02-11T08:50:32Z</time>
      </trkpt>
      <trkpt lat="45.63596" lon="6.0968">
        <ele>1150.5</ele>
        <time>2015-02-11T08:50:33Z</time>
      </trkpt>
      <trkpt lat="45.63596" lon="6.0968">
        <ele>1150.7</ele>
        <time>2015-02-11T08:50:34Z</time>
      </trkpt>
      <trkpt lat="45.63597" lon="6.0968">
        <ele>1150.8</ele>
        <time>2015-02-11T08:50:35Z</time>
      </trkpt>
      <trkpt lat="45.63597" lon="6.0968">
        <ele>1151</ele>
        <time>2015-02-11T08:50:36Z</time>
      </trkpt>
      <trkpt lat="45.63598" lon="6.0968">
        <ele>1151.4</ele>
        <time>2015-02-11T08:50:38Z</time>
      </trkpt>
      <trkpt lat="45.63599" lon="6.09681">
        <ele>1151.8</ele>
        <time>2015-02-11T08:50:39Z</time>
      </trkpt>
      <trkpt lat="45.636" lon="6.09681">
        <ele>1152</ele>
        <time>2015-02-11T08:50:40Z</time>
      </trkpt>
      <trkpt lat="45.636" lon="6.09681">
        <ele>1152.1</ele>
        <time>2015-02-11T08:50:41Z</time>
      </trkpt>
      <trkpt lat="45.63601" lon="6.09682">
        <ele>1152.5</ele>
        <time>2015-02-11T08:50:42Z</time>
      </trkpt>
      <trkpt lat="45.63602" lon="6.09682">
        <ele>1152.7</ele>
        <time>2015-02-11T08:50:43Z</time>
      </trkpt>
      <trkpt lat="45.63602" lon="6.09682">
        <ele>1152.9</ele>
        <time>2015-02-11T08:50:44Z</time>
      </trkpt>
      <trkpt lat="45.63603" lon="6.09682">
        <ele>1153</ele>
        <time>2015-02-11T08:50:45Z</time>
      </trkpt>
      <trkpt lat="45.63603" lon="6.09682">
        <ele>1153.1</ele>
        <time>2015-02-11T08:50:46Z</time>
      </trkpt>
      <trkpt lat="45.63604" lon="6.09682">
        <ele>1153.2</ele>
        <time>2015-02-11T08:50:47Z</time>
      </trkpt>
      <trkpt lat="45.63604" lon="6.09682">
        <ele>1153.2</ele>
        <time>2015-02-11T08:50:48Z</time>
      </trkpt>
      <trkpt lat="45.63604" lon="6.09682">
        <ele>1153.3</ele>
        <time>2015-02-11T08:50:49Z</time>
      </trkpt>
      <trkpt lat="45.63605" lon="6.09682">
        <ele>1153.3</ele>
        <time>2015-02-11T08:50:50Z</time>
      </trkpt>
      <trkpt lat="45.63605" lon="6.09682">
        <ele>1153.4</ele>
        <time>2015-02-11T08:50:51Z</time>
      </trkpt>
      <trkpt lat="45.63605" lon="6.09682">
        <ele>1153.5</ele>
        <time>2015-02-11T08:50:52Z</time>
      </trkpt>
      <trkpt lat="45.63605" lon="6.09684">
        <ele>1154.3</ele>
        <time>2015-02-11T08:50:54Z</time>
      </trkpt>
      <trkpt lat="45.63605" lon="6.09685">
        <ele>1154.4</ele>
        <time>2015-02-11T08:50:55Z</time>
      </trkpt>
      <trkpt lat="45.63604" lon="6.09685">
        <ele>1154.7</ele>
        <time>2015-02-11T08:50:56Z</time>
      </trkpt>
      <trkpt lat="45.63604" lon="6.09686">
        <ele>1154.8</ele>
        <time>2015-02-11T08:50:57Z</time>
      </trkpt>
      <trkpt lat="45.63603" lon="6.09686">
        <ele>1155</ele>
        <time>2015-02-11T08:50:58Z</time>
      </trkpt>
      <trkpt lat="45.63603" lon="6.09687">
        <ele>1155.2</ele>
        <time>2015-02-11T08:50:59Z</time>
      </trkpt>
      <trkpt lat="45.63602" lon="6.09688">
        <ele>1155.3</ele>
        <time>2015-02-11T08:51:00Z</time>
      </trkpt>
      <trkpt lat="45.63602" lon="6.09688">
        <ele>1155.5</ele>
        <time>2015-02-11T08:51:01Z</time>
      </trkpt>
      <trkpt lat="45.63602" lon="6.09689">
        <ele>1155.7</ele>
        <time>2015-02-11T08:51:02Z</time>
      </trkpt>
      <trkpt lat="45.63602" lon="6.09689">
        <ele>1155.8</ele>
        <time>2015-02-11T08:51:03Z</time>
      </trkpt>
      <trkpt lat="45.63601" lon="6.0969">
        <ele>1156</ele>
        <time>2015-02-11T08:51:04Z</time>
      </trkpt>
      <trkpt lat="45.63601" lon="6.0969">
        <ele>1155.9</ele>
        <time>2015-02-11T08:51:05Z</time>
      </trkpt>
      <trkpt lat="45.63599" lon="6.09691">
        <ele>1156.5</ele>
        <time>2015-02-11T08:51:07Z</time>
      </trkpt>
      <trkpt lat="45.63599" lon="6.09693">
        <ele>1156.9</ele>
        <time>2015-02-11T08:51:08Z</time>
      </trkpt>
      <trkpt lat="45.63598" lon="6.09694">
        <ele>1157.4</ele>
        <time>2015-02-11T08:51:09Z</time>
      </trkpt>
      <trkpt lat="45.63598" lon="6.09694">
        <ele>1157.5</ele>
        <time>2015-02-11T08:51:10Z</time>
      </trkpt>
      <trkpt lat="45.63598" lon="6.09695">
        <ele>1157.8</ele>
        <time>2015-02-11T08:51:11Z</time>
      </trkpt>
      <trkpt lat="45.63597" lon="6.09695">
        <ele>1157.9</ele>
        <time>2015-02-11T08:51:12Z</time>
      </trkpt>
      <trkpt lat="45.63597" lon="6.09696">
        <ele>1157.9</ele>
        <time>2015-02-11T08:51:13Z</time>
      </trkpt>
      <trkpt lat="45.63597" lon="6.09695">
        <ele>1157.7</ele>
        <time>2015-02-11T08:51:14Z</time>
      </trkpt>
      <trkpt lat="45.63596" lon="6.09696">
        <ele>1158</ele>
        <time>2015-02-11T08:51:15Z</time>
      </trkpt>
      <trkpt lat="45.63596" lon="6.09696">
        <ele>1157.8</ele>
        <time>2015-02-11T08:51:16Z</time>
      </trkpt>
      <trkpt lat="45.63595" lon="6.09697">
        <ele>1158</ele>
        <time>2015-02-11T08:51:17Z</time>
      </trkpt>
      <trkpt lat="45.63595" lon="6.09696">
        <ele>1157.6</ele>
        <time>2015-02-11T08:51:18Z</time>
      </trkpt>
      <trkpt lat="45.63595" lon="6.09696">
        <ele>1157.6</ele>
        <time>2015-02-11T08:51:19Z</time>
      </trkpt>
      <trkpt lat="45.63595" lon="6.09696">
        <ele>1157.8</ele>
        <time>2015-02-11T08:51:20Z</time>
      </trkpt>
      <trkpt lat="45.63595" lon="6.09696">
        <ele>1157.9</ele>
        <time>2015-02-11T08:51:21Z</time>
      </trkpt>
      <trkpt lat="45.63596" lon="6.09696">
        <ele>1157.7</ele>
        <time>2015-02-11T08:51:22Z</time>
      </trkpt>
      <trkpt lat="45.63596" lon="6.09695">
        <ele>1157.6</ele>
        <time>2015-02-11T08:51:23Z</time>
      </trkpt>
      <trkpt lat="45.63596" lon="6.09695">
        <ele>1157.7</ele>
        <time>2015-02-11T08:51:24Z</time>
      </trkpt>
      <trkpt lat="45.63597" lon="6.09695">
        <ele>1157.9</ele>
        <time>2015-02-11T08:51:25Z</time>
      </trkpt>
      <trkpt lat="45.63598" lon="6.09696">
        <ele>1158</ele>
        <time>2015-02-11T08:51:26Z</time>
      </trkpt>
      <trkpt lat="45.63598" lon="6.09696">
        <ele>1158.2</ele>
        <time>2015-02-11T08:51:27Z</time>
      </trkpt>
      <trkpt lat="45.63602" lon="6.09696">
        <ele>1159.2</ele>
        <time>2015-02-11T08:51:33Z</time>
      </trkpt>
      <trkpt lat="45.63603" lon="6.09697">
        <ele>1159.5</ele>
        <time>2015-02-11T08:51:34Z</time>
      </trkpt>
      <trkpt lat="45.63603" lon="6.09697">
        <ele>1159.6</ele>
        <time>2015-02-11T08:51:35Z</time>
      </trkpt>
      <trkpt lat="45.63604" lon="6.09697">
        <ele>1159.8</ele>
        <time>2015-02-11T08:51:36Z</time>
      </trkpt>
      <trkpt lat="45.63604" lon="6.09697">
        <ele>1159.9</ele>
        <time>2015-02-11T08:51:37Z</time>
      </trkpt>
      <trkpt lat="45.63605" lon="6.09697">
        <ele>1160.1</ele>
        <time>2015-02-11T08:51:38Z</time>
      </trkpt>
      <trkpt lat="45.63606" lon="6.09698">
        <ele>1160.2</ele>
        <time>2015-02-11T08:51:39Z</time>
      </trkpt>
      <trkpt lat="45.63606" lon="6.09698">
        <ele>1160.5</ele>
        <time>2015-02-11T08:51:40Z</time>
      </trkpt>
      <trkpt lat="45.63607" lon="6.09698">
        <ele>1160.7</ele>
        <time>2015-02-11T08:51:41Z</time>
      </trkpt>
      <trkpt lat="45.63607" lon="6.09699">
        <ele>1161</ele>
        <time>2015-02-11T08:51:42Z</time>
      </trkpt>
      <trkpt lat="45.63608" lon="6.09699">
        <ele>1161.2</ele>
        <time>2015-02-11T08:51:43Z</time>
      </trkpt>
      <trkpt lat="45.63608" lon="6.09699">
        <ele>1161.3</ele>
        <time>2015-02-11T08:51:44Z</time>
      </trkpt>
      <trkpt lat="45.63609" lon="6.097">
        <ele>1161.8</ele>
        <time>2015-02-11T08:51:46Z</time>
      </trkpt>
      <trkpt lat="45.6361" lon="6.097">
        <ele>1161.9</ele>
        <time>2015-02-11T08:51:47Z</time>
      </trkpt>
      <trkpt lat="45.63609" lon="6.097">
        <ele>1162</ele>
        <time>2015-02-11T08:51:48Z</time>
      </trkpt>
      <trkpt lat="45.63609" lon="6.09701">
        <ele>1162.1</ele>
        <time>2015-02-11T08:51:49Z</time>
      </trkpt>
      <trkpt lat="45.63609" lon="6.09701">
        <ele>1162.2</ele>
        <time>2015-02-11T08:51:50Z</time>
      </trkpt>
      <trkpt lat="45.63609" lon="6.09701">
        <ele>1162.2</ele>
        <time>2015-02-11T08:51:51Z</time>
      </trkpt>
      <trkpt lat="45.63608" lon="6.09702">
        <ele>1162.3</ele>
        <time>2015-02-11T08:51:52Z</time>
      </trkpt>
      <trkpt lat="45.63608" lon="6.09702">
        <ele>1162.5</ele>
        <time>2015-02-11T08:51:53Z</time>
      </trkpt>
      <trkpt lat="45.63607" lon="6.09703">
        <ele>1162.5</ele>
        <time>2015-02-11T08:51:54Z</time>
      </trkpt>
      <trkpt lat="45.63607" lon="6.09703">
        <ele>1162.7</ele>
        <time>2015-02-11T08:51:55Z</time>
      </trkpt>
      <trkpt lat="45.63607" lon="6.09704">
        <ele>1162.9</ele>
        <time>2015-02-11T08:51:56Z</time>
      </trkpt>
      <trkpt lat="45.63607" lon="6.09704">
        <ele>1163.2</ele>
        <time>2015-02-11T08:51:57Z</time>
      </trkpt>
      <trkpt lat="45.63608" lon="6.09705">
        <ele>1163.5</ele>
        <time>2015-02-11T08:51:58Z</time>
      </trkpt>
      <trkpt lat="45.63608" lon="6.09705">
        <ele>1163.7</ele>
        <time>2015-02-11T08:51:59Z</time>
      </trkpt>
      <trkpt lat="45.63608" lon="6.09706">
        <ele>1164</ele>
        <time>2015-02-11T08:52:00Z</time>
      </trkpt>
      <trkpt lat="45.63608" lon="6.09706">
        <ele>1164.1</ele>
        <time>2015-02-11T08:52:01Z</time>
      </trkpt>
      <trkpt lat="45.63609" lon="6.09706">
        <ele>1164.1</ele>
        <time>2015-02-11T08:52:02Z</time>
      </trkpt>
      <trkpt lat="45.63609" lon="6.09707">
        <ele>1164.3</ele>
        <time>2015-02-11T08:52:03Z</time>
      </trkpt>
      <trkpt lat="45.63608" lon="6.09707">
        <ele>1164.3</ele>
        <time>2015-02-11T08:52:04Z</time>
      </trkpt>
      <trkpt lat="45.63609" lon="6.09707">
        <ele>1164.3</ele>
        <time>2015-02-11T08:52:05Z</time>
      </trkpt>
      <trkpt lat="45.63609" lon="6.09707">
        <ele>1164.4</ele>
        <time>2015-02-11T08:52:06Z</time>
      </trkpt>
      <trkpt lat="45.63608" lon="6.09706">
        <ele>1164.1</ele>
        <time>2015-02-11T08:52:07Z</time>
      </trkpt>
      <trkpt lat="45.63608" lon="6.09706">
        <ele>1164</ele>
        <time>2015-02-11T08:52:08Z</time>
      </trkpt>
      <trkpt lat="45.63608" lon="6.09706">
        <ele>1164.1</ele>
        <time>2015-02-11T08:52:09Z</time>
      </trkpt>
      <trkpt lat="45.63608" lon="6.09707">
        <ele>1164.2</ele>
        <time>2015-02-11T08:52:10Z</time>
      </trkpt>
      <trkpt lat="45.63608" lon="6.09707">
        <ele>1164.3</ele>
        <time>2015-02-11T08:52:11Z</time>
      </trkpt>
      <trkpt lat="45.63608" lon="6.09707">
        <ele>1164.3</ele>
        <time>2015-02-11T08:52:12Z</time>
      </trkpt>
      <trkpt lat="45.63608" lon="6.09707">
        <ele>1164.4</ele>
        <time>2015-02-11T08:52:13Z</time>
      </trkpt>
      <trkpt lat="45.63608" lon="6.09707">
        <ele>1164.4</ele>
        <time>2015-02-11T08:52:14Z</time>
      </trkpt>
      <trkpt lat="45.63608" lon="6.09707">
        <ele>1164.4</ele>
        <time>2015-02-11T08:52:15Z</time>
      </trkpt>
      <trkpt lat="45.63608" lon="6.09707">
        <ele>1164.4</ele>
        <time>2015-02-11T08:52:16Z</time>
      </trkpt>
      <trkpt lat="45.63608" lon="6.09706">
        <ele>1163.9</ele>
        <time>2015-02-11T08:52:17Z</time>
      </trkpt>
      <trkpt lat="45.63608" lon="6.09705">
        <ele>1163.7</ele>
        <time>2015-02-11T08:52:18Z</time>
      </trkpt>
      <trkpt lat="45.63608" lon="6.09705">
        <ele>1163.5</ele>
        <time>2015-02-11T08:52:19Z</time>
      </trkpt>
      <trkpt lat="45.63608" lon="6.09705">
        <ele>1163.5</ele>
        <time>2015-02-11T08:52:20Z</time>
      </trkpt>
      <trkpt lat="45.63608" lon="6.09705">
        <ele>1163.5</ele>
        <time>2015-02-11T08:52:21Z</time>
      </trkpt>
      <trkpt lat="45.63608" lon="6.09705">
        <ele>1163.7</ele>
        <time>2015-02-11T08:52:22Z</time>
      </trkpt>
      <trkpt lat="45.63608" lon="6.09706">
        <ele>1163.8</ele>
        <time>2015-02-11T08:52:23Z</time>
      </trkpt>
      <trkpt lat="45.63608" lon="6.09706">
        <ele>1164</ele>
        <time>2015-02-11T08:52:24Z</time>
      </trkpt>
      <trkpt lat="45.63608" lon="6.09706">
        <ele>1164.1</ele>
        <time>2015-02-11T08:52:25Z</time>
      </trkpt>
      <trkpt lat="45.63608" lon="6.09707">
        <ele>1164.4</ele>
        <time>2015-02-11T08:52:26Z</time>
      </trkpt>
      <trkpt lat="45.63608" lon="6.09708">
        <ele>1164.7</ele>
        <time>2015-02-11T08:52:27Z</time>
      </trkpt>
      <trkpt lat="45.63608" lon="6.09709">
        <ele>1165.1</ele>
        <time>2015-02-11T08:52:28Z</time>
      </trkpt>
      <trkpt lat="45.63608" lon="6.0971">
        <ele>1165.4</ele>
        <time>2015-02-11T08:52:29Z</time>
      </trkpt>
      <trkpt lat="45.63609" lon="6.0971">
        <ele>1165.8</ele>
        <time>2015-02-11T08:52:30Z</time>
      </trkpt>
      <trkpt lat="45.6361" lon="6.09711">
        <ele>1166.4</ele>
        <time>2015-02-11T08:52:31Z</time>
      </trkpt>
      <trkpt lat="45.6361" lon="6.09712">
        <ele>1166.7</ele>
        <time>2015-02-11T08:52:32Z</time>
      </trkpt>
      <trkpt lat="45.6361" lon="6.09713">
        <ele>1167.2</ele>
        <time>2015-02-11T08:52:33Z</time>
      </trkpt>
      <trkpt lat="45.6361" lon="6.09714">
        <ele>1167.6</ele>
        <time>2015-02-11T08:52:34Z</time>
      </trkpt>
      <trkpt lat="45.63611" lon="6.09715">
        <ele>1168.1</ele>
        <time>2015-02-11T08:52:35Z</time>
      </trkpt>
      <trkpt lat="45.63612" lon="6.09715">
        <ele>1168.2</ele>
        <time>2015-02-11T08:52:36Z</time>
      </trkpt>
      <trkpt lat="45.63612" lon="6.09715">
        <ele>1168.2</ele>
        <time>2015-02-11T08:52:37Z</time>
      </trkpt>
      <trkpt lat="45.63612" lon="6.09715">
        <ele>1168.3</ele>
        <time>2015-02-11T08:52:38Z</time>
      </trkpt>
      <trkpt lat="45.63613" lon="6.09716">
        <ele>1168.4</ele>
        <time>2015-02-11T08:52:39Z</time>
      </trkpt>
      <trkpt lat="45.63613" lon="6.09716">
        <ele>1168.6</ele>
        <time>2015-02-11T08:52:40Z</time>
      </trkpt>
      <trkpt lat="45.63613" lon="6.09716">
        <ele>1168.6</ele>
        <time>2015-02-11T08:52:41Z</time>
      </trkpt>
      <trkpt lat="45.63613" lon="6.09716">
        <ele>1168.7</ele>
        <time>2015-02-11T08:52:42Z</time>
      </trkpt>
      <trkpt lat="45.63613" lon="6.09717">
        <ele>1168.9</ele>
        <time>2015-02-11T08:52:43Z</time>
      </trkpt>
      <trkpt lat="45.63613" lon="6.09717">
        <ele>1169.1</ele>
        <time>2015-02-11T08:52:44Z</time>
      </trkpt>
      <trkpt lat="45.63613" lon="6.09718">
        <ele>1169.2</ele>
        <time>2015-02-11T08:52:45Z</time>
      </trkpt>
      <trkpt lat="45.63613" lon="6.09719">
        <ele>1169.7</ele>
        <time>2015-02-11T08:52:46Z</time>
      </trkpt>
      <trkpt lat="45.63612" lon="6.09719">
        <ele>1169.8</ele>
        <time>2015-02-11T08:52:47Z</time>
      </trkpt>
      <trkpt lat="45.63612" lon="6.0972">
        <ele>1169.9</ele>
        <time>2015-02-11T08:52:48Z</time>
      </trkpt>
      <trkpt lat="45.63612" lon="6.0972">
        <ele>1170</ele>
        <time>2015-02-11T08:52:49Z</time>
      </trkpt>
      <trkpt lat="45.63611" lon="6.0972">
        <ele>1170.2</ele>
        <time>2015-02-11T08:52:50Z</time>
      </trkpt>
      <trkpt lat="45.63611" lon="6.09721">
        <ele>1170.4</ele>
        <time>2015-02-11T08:52:51Z</time>
      </trkpt>
      <trkpt lat="45.63611" lon="6.09721">
        <ele>1170.6</ele>
        <time>2015-02-11T08:52:52Z</time>
      </trkpt>
      <trkpt lat="45.6361" lon="6.09722">
        <ele>1170.6</ele>
        <time>2015-02-11T08:52:53Z</time>
      </trkpt>
      <trkpt lat="45.6361" lon="6.09722">
        <ele>1170.7</ele>
        <time>2015-02-11T08:52:54Z</time>
      </trkpt>
      <trkpt lat="45.6361" lon="6.09723">
        <ele>1170.9</ele>
        <time>2015-02-11T08:52:55Z</time>
      </trkpt>
      <trkpt lat="45.6361" lon="6.09723">
        <ele>1171.1</ele>
        <time>2015-02-11T08:52:56Z</time>
      </trkpt>
      <trkpt lat="45.6361" lon="6.09723">
        <ele>1171.2</ele>
        <time>2015-02-11T08:52:57Z</time>
      </trkpt>
      <trkpt lat="45.6361" lon="6.09724">
        <ele>1171.3</ele>
        <time>2015-02-11T08:52:58Z</time>
      </trkpt>
      <trkpt lat="45.63609" lon="6.09724">
        <ele>1171.3</ele>
        <time>2015-02-11T08:52:59Z</time>
      </trkpt>
      <trkpt lat="45.63609" lon="6.09724">
        <ele>1171.2</ele>
        <time>2015-02-11T08:53:00Z</time>
      </trkpt>
      <trkpt lat="45.63609" lon="6.09724">
        <ele>1171.3</ele>
        <time>2015-02-11T08:53:01Z</time>
      </trkpt>
      <trkpt lat="45.63609" lon="6.09724">
        <ele>1171.4</ele>
        <time>2015-02-11T08:53:02Z</time>
      </trkpt>
      <trkpt lat="45.63609" lon="6.09724">
        <ele>1171.3</ele>
        <time>2015-02-11T08:53:03Z</time>
      </trkpt>
      <trkpt lat="45.63608" lon="6.09725">
        <ele>1171.3</ele>
        <time>2015-02-11T08:53:04Z</time>
      </trkpt>
      <trkpt lat="45.63608" lon="6.09725">
        <ele>1171.5</ele>
        <time>2015-02-11T08:53:05Z</time>
      </trkpt>
      <trkpt lat="45.63608" lon="6.09726">
        <ele>1171.7</ele>
        <time>2015-02-11T08:53:06Z</time>
      </trkpt>
      <trkpt lat="45.63609" lon="6.09726">
        <ele>1171.8</ele>
        <time>2015-02-11T08:53:07Z</time>
      </trkpt>
      <trkpt lat="45.63609" lon="6.09726">
        <ele>1171.8</ele>
        <time>2015-02-11T08:53:08Z</time>
      </trkpt>
      <trkpt lat="45.63609" lon="6.09726">
        <ele>1172.1</ele>
        <time>2015-02-11T08:53:09Z</time>
      </trkpt>
      <trkpt lat="45.63609" lon="6.09727">
        <ele>1172.3</ele>
        <time>2015-02-11T08:53:10Z</time>
      </trkpt>
      <trkpt lat="45.6361" lon="6.09727">
        <ele>1172.4</ele>
        <time>2015-02-11T08:53:11Z</time>
      </trkpt>
      <trkpt lat="45.6361" lon="6.09727">
        <ele>1172.4</ele>
        <time>2015-02-11T08:53:12Z</time>
      </trkpt>
      <trkpt lat="45.63609" lon="6.09727">
        <ele>1172.3</ele>
        <time>2015-02-11T08:53:13Z</time>
      </trkpt>
      <trkpt lat="45.63609" lon="6.09727">
        <ele>1172.3</ele>
        <time>2015-02-11T08:53:14Z</time>
      </trkpt>
      <trkpt lat="45.63609" lon="6.09727">
        <ele>1172.2</ele>
        <time>2015-02-11T08:53:15Z</time>
      </trkpt>
      <trkpt lat="45.63609" lon="6.09726">
        <ele>1172.1</ele>
        <time>2015-02-11T08:53:16Z</time>
      </trkpt>
      <trkpt lat="45.63609" lon="6.09726">
        <ele>1172.1</ele>
        <time>2015-02-11T08:53:17Z</time>
      </trkpt>
      <trkpt lat="45.63609" lon="6.09726">
        <ele>1172.1</ele>
        <time>2015-02-11T08:53:18Z</time>
      </trkpt>
      <trkpt lat="45.63609" lon="6.09726">
        <ele>1172</ele>
        <time>2015-02-11T08:53:19Z</time>
      </trkpt>
      <trkpt lat="45.63609" lon="6.09726">
        <ele>1172</ele>
        <time>2015-02-11T08:53:20Z</time>
      </trkpt>
      <trkpt lat="45.63609" lon="6.09726">
        <ele>1172</ele>
        <time>2015-02-11T08:53:21Z</time>
      </trkpt>
      <trkpt lat="45.63609" lon="6.09726">
        <ele>1172</ele>
        <time>2015-02-11T08:53:22Z</time>
      </trkpt>
      <trkpt lat="45.63609" lon="6.09726">
        <ele>1172</ele>
        <time>2015-02-11T08:53:23Z</time>
      </trkpt>
      <trkpt lat="45.63609" lon="6.09726">
        <ele>1172</ele>
        <time>2015-02-11T08:53:24Z</time>
      </trkpt>
      <trkpt lat="45.63609" lon="6.09727">
        <ele>1172.1</ele>
        <time>2015-02-11T08:53:25Z</time>
      </trkpt>
      <trkpt lat="45.63609" lon="6.09727">
        <ele>1172.3</ele>
        <time>2015-02-11T08:53:26Z</time>
      </trkpt>
      <trkpt lat="45.63608" lon="6.09727">
        <ele>1172.3</ele>
        <time>2015-02-11T08:53:27Z</time>
      </trkpt>
      <trkpt lat="45.63608" lon="6.09727">
        <ele>1172.4</ele>
        <time>2015-02-11T08:53:28Z</time>
      </trkpt>
      <trkpt lat="45.63608" lon="6.09728">
        <ele>1172.4</ele>
        <time>2015-02-11T08:53:29Z</time>
      </trkpt>
      <trkpt lat="45.63608" lon="6.09728">
        <ele>1172.5</ele>
        <time>2015-02-11T08:53:30Z</time>
      </trkpt>
      <trkpt lat="45.63608" lon="6.09728">
        <ele>1172.5</ele>
        <time>2015-02-11T08:53:31Z</time>
      </trkpt>
      <trkpt lat="45.63608" lon="6.09728">
        <ele>1172.6</ele>
        <time>2015-02-11T08:53:32Z</time>
      </trkpt>
      <trkpt lat="45.63608" lon="6.09728">
        <ele>1172.7</ele>
        <time>2015-02-11T08:53:33Z</time>
      </trkpt>
      <trkpt lat="45.63608" lon="6.09728">
        <ele>1172.7</ele>
        <time>2015-02-11T08:53:34Z</time>
      </trkpt>
      <trkpt lat="45.63608" lon="6.09729">
        <ele>1172.8</ele>
        <time>2015-02-11T08:53:35Z</time>
      </trkpt>
      <trkpt lat="45.63609" lon="6.09729">
        <ele>1172.8</ele>
        <time>2015-02-11T08:53:36Z</time>
      </trkpt>
      <trkpt lat="45.63608" lon="6.09729">
        <ele>1172.8</ele>
        <time>2015-02-11T08:53:37Z</time>
      </trkpt>
      <trkpt lat="45.63608" lon="6.09729">
        <ele>1172.9</ele>
        <time>2015-02-11T08:53:38Z</time>
      </trkpt>
      <trkpt lat="45.63608" lon="6.09729">
        <ele>1172.9</ele>
        <time>2015-02-11T08:53:39Z</time>
      </trkpt>
      <trkpt lat="45.63608" lon="6.09729">
        <ele>1172.9</ele>
        <time>2015-02-11T08:53:40Z</time>
      </trkpt>
      <trkpt lat="45.63608" lon="6.09729">
        <ele>1172.9</ele>
        <time>2015-02-11T08:53:41Z</time>
      </trkpt>
      <trkpt lat="45.63608" lon="6.0973">
        <ele>1173.1</ele>
        <time>2015-02-11T08:53:42Z</time>
      </trkpt>
      <trkpt lat="45.63607" lon="6.0973">
        <ele>1173</ele>
        <time>2015-02-11T08:53:43Z</time>
      </trkpt>
      <trkpt lat="45.63607" lon="6.0973">
        <ele>1173.1</ele>
        <time>2015-02-11T08:53:44Z</time>
      </trkpt>
      <trkpt lat="45.63606" lon="6.09731">
        <ele>1173.2</ele>
        <time>2015-02-11T08:53:45Z</time>
      </trkpt>
      <trkpt lat="45.63606" lon="6.09731">
        <ele>1173.3</ele>
        <time>2015-02-11T08:53:46Z</time>
      </trkpt>
      <trkpt lat="45.63606" lon="6.09732">
        <ele>1173.5</ele>
        <time>2015-02-11T08:53:47Z</time>
      </trkpt>
      <trkpt lat="45.63605" lon="6.09732">
        <ele>1173.5</ele>
        <time>2015-02-11T08:53:48Z</time>
      </trkpt>
      <trkpt lat="45.63605" lon="6.09733">
        <ele>1173.6</ele>
        <time>2015-02-11T08:53:49Z</time>
      </trkpt>
      <trkpt lat="45.63605" lon="6.09733">
        <ele>1173.7</ele>
        <time>2015-02-11T08:53:50Z</time>
      </trkpt>
      <trkpt lat="45.63604" lon="6.09733">
        <ele>1173.8</ele>
        <time>2015-02-11T08:53:51Z</time>
      </trkpt>
      <trkpt lat="45.63604" lon="6.09733">
        <ele>1173.7</ele>
        <time>2015-02-11T08:53:52Z</time>
      </trkpt>
      <trkpt lat="45.63604" lon="6.09733">
        <ele>1173.8</ele>
        <time>2015-02-11T08:53:53Z</time>
      </trkpt>
      <trkpt lat="45.63604" lon="6.09734">
        <ele>1173.8</ele>
        <time>2015-02-11T08:53:54Z</time>
      </trkpt>
      <trkpt lat="45.63604" lon="6.09733">
        <ele>1173.7</ele>
        <time>2015-02-11T08:53:55Z</time>
      </trkpt>
      <trkpt lat="45.63604" lon="6.09734">
        <ele>1173.9</ele>
        <time>2015-02-11T08:53:56Z</time>
      </trkpt>
      <trkpt lat="45.63605" lon="6.09734">
        <ele>1174.1</ele>
        <time>2015-02-11T08:53:57Z</time>
      </trkpt>
      <trkpt lat="45.63605" lon="6.09735">
        <ele>1174.4</ele>
        <time>2015-02-11T08:53:58Z</time>
      </trkpt>
      <trkpt lat="45.63606" lon="6.09736">
        <ele>1174.8</ele>
        <time>2015-02-11T08:53:59Z</time>
      </trkpt>
      <trkpt lat="45.63606" lon="6.09735">
        <ele>1174.7</ele>
        <time>2015-02-11T08:54:00Z</time>
      </trkpt>
      <trkpt lat="45.63606" lon="6.09736">
        <ele>1175.1</ele>
        <time>2015-02-11T08:54:01Z</time>
      </trkpt>
      <trkpt lat="45.63606" lon="6.09737">
        <ele>1175.2</ele>
        <time>2015-02-11T08:54:02Z</time>
      </trkpt>
      <trkpt lat="45.63607" lon="6.09738">
        <ele>1175.8</ele>
        <time>2015-02-11T08:54:03Z</time>
      </trkpt>
      <trkpt lat="45.63606" lon="6.09738">
        <ele>1175.8</ele>
        <time>2015-02-11T08:54:04Z</time>
      </trkpt>
      <trkpt lat="45.63606" lon="6.09739">
        <ele>1176</ele>
        <time>2015-02-11T08:54:05Z</time>
      </trkpt>
      <trkpt lat="45.63606" lon="6.09739">
        <ele>1176.3</ele>
        <time>2015-02-11T08:54:06Z</time>
      </trkpt>
      <trkpt lat="45.63606" lon="6.0974">
        <ele>1176.7</ele>
        <time>2015-02-11T08:54:07Z</time>
      </trkpt>
      <trkpt lat="45.63606" lon="6.09742">
        <ele>1177.1</ele>
        <time>2015-02-11T08:54:08Z</time>
      </trkpt>
      <trkpt lat="45.63606" lon="6.09742">
        <ele>1177.4</ele>
        <time>2015-02-11T08:54:09Z</time>
      </trkpt>
      <trkpt lat="45.63606" lon="6.09743">
        <ele>1177.7</ele>
        <time>2015-02-11T08:54:10Z</time>
      </trkpt>
      <trkpt lat="45.63606" lon="6.09744">
        <ele>1178</ele>
        <time>2015-02-11T08:54:11Z</time>
      </trkpt>
      <trkpt lat="45.63605" lon="6.09745">
        <ele>1178.1</ele>
        <time>2015-02-11T08:54:12Z</time>
      </trkpt>
      <trkpt lat="45.63605" lon="6.09745">
        <ele>1178.2</ele>
        <time>2015-02-11T08:54:13Z</time>
      </trkpt>
      <trkpt lat="45.63606" lon="6.09746">
        <ele>1178.6</ele>
        <time>2015-02-11T08:54:14Z</time>
      </trkpt>
      <trkpt lat="45.63606" lon="6.09746">
        <ele>1178.6</ele>
        <time>2015-02-11T08:54:15Z</time>
      </trkpt>
      <trkpt lat="45.63605" lon="6.09747">
        <ele>1178.6</ele>
        <time>2015-02-11T08:54:16Z</time>
      </trkpt>
      <trkpt lat="45.63605" lon="6.09747">
        <ele>1178.7</ele>
        <time>2015-02-11T08:54:17Z</time>
      </trkpt>
      <trkpt lat="45.63604" lon="6.09748">
        <ele>1178.9</ele>
        <time>2015-02-11T08:54:18Z</time>
      </trkpt>
      <trkpt lat="45.63604" lon="6.09748">
        <ele>1179</ele>
        <time>2015-02-11T08:54:19Z</time>
      </trkpt>
      <trkpt lat="45.63604" lon="6.09748">
        <ele>1179</ele>
        <time>2015-02-11T08:54:20Z</time>
      </trkpt>
      <trkpt lat="45.63604" lon="6.09748">
        <ele>1179</ele>
        <time>2015-02-11T08:54:21Z</time>
      </trkpt>
      <trkpt lat="45.63603" lon="6.09749">
        <ele>1179</ele>
        <time>2015-02-11T08:54:22Z</time>
      </trkpt>
      <trkpt lat="45.63603" lon="6.09749">
        <ele>1179.2</ele>
        <time>2015-02-11T08:54:23Z</time>
      </trkpt>
      <trkpt lat="45.63603" lon="6.0975">
        <ele>1179.4</ele>
        <time>2015-02-11T08:54:24Z</time>
      </trkpt>
      <trkpt lat="45.63603" lon="6.0975">
        <ele>1179.5</ele>
        <time>2015-02-11T08:54:25Z</time>
      </trkpt>
      <trkpt lat="45.63603" lon="6.0975">
        <ele>1179.4</ele>
        <time>2015-02-11T08:54:26Z</time>
      </trkpt>
      <trkpt lat="45.63602" lon="6.0975">
        <ele>1179.5</ele>
        <time>2015-02-11T08:54:27Z</time>
      </trkpt>
      <trkpt lat="45.63602" lon="6.09751">
        <ele>1179.8</ele>
        <time>2015-02-11T08:54:28Z</time>
      </trkpt>
      <trkpt lat="45.63602" lon="6.09752">
        <ele>1179.9</ele>
        <time>2015-02-11T08:54:29Z</time>
      </trkpt>
      <trkpt lat="45.63601" lon="6.09752">
        <ele>1180.1</ele>
        <time>2015-02-11T08:54:30Z</time>
      </trkpt>
      <trkpt lat="45.63601" lon="6.09753">
        <ele>1180.3</ele>
        <time>2015-02-11T08:54:31Z</time>
      </trkpt>
      <trkpt lat="45.63601" lon="6.09753">
        <ele>1180.3</ele>
        <time>2015-02-11T08:54:32Z</time>
      </trkpt>
      <trkpt lat="45.63601" lon="6.09754">
        <ele>1180.5</ele>
        <time>2015-02-11T08:54:33Z</time>
      </trkpt>
      <trkpt lat="45.63601" lon="6.09754">
        <ele>1180.6</ele>
        <time>2015-02-11T08:54:34Z</time>
      </trkpt>
      <trkpt lat="45.636" lon="6.09754">
        <ele>1180.6</ele>
        <time>2015-02-11T08:54:35Z</time>
      </trkpt>
      <trkpt lat="45.636" lon="6.09755">
        <ele>1180.9</ele>
        <time>2015-02-11T08:54:36Z</time>
      </trkpt>
      <trkpt lat="45.636" lon="6.09755">
        <ele>1180.9</ele>
        <time>2015-02-11T08:54:37Z</time>
      </trkpt>
      <trkpt lat="45.636" lon="6.09756">
        <ele>1181.1</ele>
        <time>2015-02-11T08:54:38Z</time>
      </trkpt>
      <trkpt lat="45.636" lon="6.09755">
        <ele>1181</ele>
        <time>2015-02-11T08:54:39Z</time>
      </trkpt>
      <trkpt lat="45.636" lon="6.09756">
        <ele>1181.2</ele>
        <time>2015-02-11T08:54:40Z</time>
      </trkpt>
      <trkpt lat="45.63599" lon="6.09756">
        <ele>1181.3</ele>
        <time>2015-02-11T08:54:41Z</time>
      </trkpt>
      <trkpt lat="45.63599" lon="6.09757">
        <ele>1181.4</ele>
        <time>2015-02-11T08:54:42Z</time>
      </trkpt>
      <trkpt lat="45.63599" lon="6.09758">
        <ele>1181.8</ele>
        <time>2015-02-11T08:54:43Z</time>
      </trkpt>
      <trkpt lat="45.63599" lon="6.09758">
        <ele>1181.9</ele>
        <time>2015-02-11T08:54:44Z</time>
      </trkpt>
      <trkpt lat="45.63599" lon="6.09758">
        <ele>1182</ele>
        <time>2015-02-11T08:54:45Z</time>
      </trkpt>
      <trkpt lat="45.63599" lon="6.09759">
        <ele>1182.1</ele>
        <time>2015-02-11T08:54:46Z</time>
      </trkpt>
      <trkpt lat="45.63599" lon="6.09759">
        <ele>1182.3</ele>
        <time>2015-02-11T08:54:47Z</time>
      </trkpt>
      <trkpt lat="45.63599" lon="6.09759">
        <ele>1182.5</ele>
        <time>2015-02-11T08:54:48Z</time>
      </trkpt>
      <trkpt lat="45.63599" lon="6.0976">
        <ele>1182.6</ele>
        <time>2015-02-11T08:54:49Z</time>
      </trkpt>
      <trkpt lat="45.63599" lon="6.0976">
        <ele>1182.6</ele>
        <time>2015-02-11T08:54:50Z</time>
      </trkpt>
      <trkpt lat="45.63599" lon="6.0976">
        <ele>1182.4</ele>
        <time>2015-02-11T08:54:51Z</time>
      </trkpt>
      <trkpt lat="45.63599" lon="6.09759">
        <ele>1182.1</ele>
        <time>2015-02-11T08:54:52Z</time>
      </trkpt>
      <trkpt lat="45.63598" lon="6.09758">
        <ele>1181.7</ele>
        <time>2015-02-11T08:54:53Z</time>
      </trkpt>
      <trkpt lat="45.63598" lon="6.09758">
        <ele>1181.7</ele>
        <time>2015-02-11T08:54:54Z</time>
      </trkpt>
      <trkpt lat="45.63598" lon="6.09758">
        <ele>1181.7</ele>
        <time>2015-02-11T08:54:55Z</time>
      </trkpt>
      <trkpt lat="45.63599" lon="6.09758">
        <ele>1181.7</ele>
        <time>2015-02-11T08:54:56Z</time>
      </trkpt>
      <trkpt lat="45.63599" lon="6.09758">
        <ele>1181.7</ele>
        <time>2015-02-11T08:54:57Z</time>
      </trkpt>
      <trkpt lat="45.63599" lon="6.09758">
        <ele>1181.7</ele>
        <time>2015-02-11T08:54:58Z</time>
      </trkpt>
      <trkpt lat="45.63599" lon="6.09758">
        <ele>1181.7</ele>
        <time>2015-02-11T08:54:59Z</time>
      </trkpt>
      <trkpt lat="45.63599" lon="6.09758">
        <ele>1181.7</ele>
        <time>2015-02-11T08:55:00Z</time>
      </trkpt>
      <trkpt lat="45.63599" lon="6.09758">
        <ele>1181.7</ele>
        <time>2015-02-11T08:55:01Z</time>
      </trkpt>
      <trkpt lat="45.63599" lon="6.09758">
        <ele>1181.7</ele>
        <time>2015-02-11T08:55:02Z</time>
      </trkpt>
      <trkpt lat="45.63599" lon="6.09758">
        <ele>1181.8</ele>
        <time>2015-02-11T08:55:03Z</time>
      </trkpt>
      <trkpt lat="45.63599" lon="6.09758">
        <ele>1181.8</ele>
        <time>2015-02-11T08:55:04Z</time>
      </trkpt>
      <trkpt lat="45.63598" lon="6.09758">
        <ele>1181.8</ele>
        <time>2015-02-11T08:55:05Z</time>
      </trkpt>
      <trkpt lat="45.63599" lon="6.09758">
        <ele>1181.8</ele>
        <time>2015-02-11T08:55:06Z</time>
      </trkpt>
      <trkpt lat="45.63599" lon="6.09758">
        <ele>1181.9</ele>
        <time>2015-02-11T08:55:07Z</time>
      </trkpt>
      <trkpt lat="45.63599" lon="6.09758">
        <ele>1181.9</ele>
        <time>2015-02-11T08:55:08Z</time>
      </trkpt>
      <trkpt lat="45.63599" lon="6.09758">
        <ele>1182</ele>
        <time>2015-02-11T08:55:09Z</time>
      </trkpt>
      <trkpt lat="45.63599" lon="6.09758">
        <ele>1182.1</ele>
        <time>2015-02-11T08:55:10Z</time>
      </trkpt>
      <trkpt lat="45.63599" lon="6.09758">
        <ele>1182.1</ele>
        <time>2015-02-11T08:55:11Z</time>
      </trkpt>
      <trkpt lat="45.63599" lon="6.09758">
        <ele>1182</ele>
        <time>2015-02-11T08:55:12Z</time>
      </trkpt>
      <trkpt lat="45.63599" lon="6.09758">
        <ele>1182</ele>
        <time>2015-02-11T08:55:13Z</time>
      </trkpt>
      <trkpt lat="45.636" lon="6.09758">
        <ele>1182.1</ele>
        <time>2015-02-11T08:55:14Z</time>
      </trkpt>
      <trkpt lat="45.63599" lon="6.09758">
        <ele>1182.1</ele>
        <time>2015-02-11T08:55:15Z</time>
      </trkpt>
      <trkpt lat="45.636" lon="6.09758">
        <ele>1182.1</ele>
        <time>2015-02-11T08:55:16Z</time>
      </trkpt>
      <trkpt lat="45.636" lon="6.09758">
        <ele>1182.1</ele>
        <time>2015-02-11T08:55:17Z</time>
      </trkpt>
      <trkpt lat="45.63599" lon="6.09758">
        <ele>1182.1</ele>
        <time>2015-02-11T08:55:18Z</time>
      </trkpt>
      <trkpt lat="45.636" lon="6.09759">
        <ele>1182.2</ele>
        <time>2015-02-11T08:55:19Z</time>
      </trkpt>
      <trkpt lat="45.636" lon="6.09759">
        <ele>1182.2</ele>
        <time>2015-02-11T08:55:20Z</time>
      </trkpt>
      <trkpt lat="45.636" lon="6.09759">
        <ele>1182.3</ele>
        <time>2015-02-11T08:55:21Z</time>
      </trkpt>
      <trkpt lat="45.636" lon="6.09759">
        <ele>1182.4</ele>
        <time>2015-02-11T08:55:22Z</time>
      </trkpt>
      <trkpt lat="45.636" lon="6.09759">
        <ele>1182.5</ele>
        <time>2015-02-11T08:55:23Z</time>
      </trkpt>
      <trkpt lat="45.636" lon="6.0976">
        <ele>1182.6</ele>
        <time>2015-02-11T08:55:24Z</time>
      </trkpt>
      <trkpt lat="45.636" lon="6.0976">
        <ele>1182.8</ele>
        <time>2015-02-11T08:55:25Z</time>
      </trkpt>
      <trkpt lat="45.636" lon="6.0976">
        <ele>1182.8</ele>
        <time>2015-02-11T08:55:26Z</time>
      </trkpt>
      <trkpt lat="45.636" lon="6.0976">
        <ele>1182.9</ele>
        <time>2015-02-11T08:55:27Z</time>
      </trkpt>
      <trkpt lat="45.636" lon="6.0976">
        <ele>1182.9</ele>
        <time>2015-02-11T08:55:28Z</time>
      </trkpt>
      <trkpt lat="45.636" lon="6.0976">
        <ele>1182.9</ele>
        <time>2015-02-11T08:55:29Z</time>
      </trkpt>
      <trkpt lat="45.636" lon="6.0976">
        <ele>1182.9</ele>
        <time>2015-02-11T08:55:30Z</time>
      </trkpt>
      <trkpt lat="45.636" lon="6.0976">
        <ele>1183</ele>
        <time>2015-02-11T08:55:31Z</time>
      </trkpt>
      <trkpt lat="45.636" lon="6.0976">
        <ele>1183</ele>
        <time>2015-02-11T08:55:32Z</time>
      </trkpt>
      <trkpt lat="45.636" lon="6.0976">
        <ele>1182.9</ele>
        <time>2015-02-11T08:55:33Z</time>
      </trkpt>
      <trkpt lat="45.636" lon="6.0976">
        <ele>1182.9</ele>
        <time>2015-02-11T08:55:34Z</time>
      </trkpt>
      <trkpt lat="45.636" lon="6.0976">
        <ele>1182.9</ele>
        <time>2015-02-11T08:55:35Z</time>
      </trkpt>
      <trkpt lat="45.636" lon="6.0976">
        <ele>1182.9</ele>
        <time>2015-02-11T08:55:36Z</time>
      </trkpt>
      <trkpt lat="45.636" lon="6.0976">
        <ele>1182.9</ele>
        <time>2015-02-11T08:55:37Z</time>
      </trkpt>
      <trkpt lat="45.636" lon="6.0976">
        <ele>1182.9</ele>
        <time>2015-02-11T08:55:38Z</time>
      </trkpt>
      <trkpt lat="45.636" lon="6.0976">
        <ele>1182.9</ele>
        <time>2015-02-11T08:55:39Z</time>
      </trkpt>
      <trkpt lat="45.636" lon="6.0976">
        <ele>1182.9</ele>
        <time>2015-02-11T08:55:40Z</time>
      </trkpt>
      <trkpt lat="45.636" lon="6.0976">
        <ele>1182.9</ele>
        <time>2015-02-11T08:55:41Z</time>
      </trkpt>
      <trkpt lat="45.636" lon="6.0976">
        <ele>1182.8</ele>
        <time>2015-02-11T08:55:42Z</time>
      </trkpt>
      <trkpt lat="45.636" lon="6.0976">
        <ele>1182.8</ele>
        <time>2015-02-11T08:55:43Z</time>
      </trkpt>
      <trkpt lat="45.636" lon="6.0976">
        <ele>1182.8</ele>
        <time>2015-02-11T08:55:44Z</time>
      </trkpt>
      <trkpt lat="45.636" lon="6.0976">
        <ele>1182.8</ele>
        <time>2015-02-11T08:55:45Z</time>
      </trkpt>
      <trkpt lat="45.636" lon="6.0976">
        <ele>1182.9</ele>
        <time>2015-02-11T08:55:46Z</time>
      </trkpt>
      <trkpt lat="45.636" lon="6.0976">
        <ele>1182.9</ele>
        <time>2015-02-11T08:55:47Z</time>
      </trkpt>
      <trkpt lat="45.636" lon="6.0976">
        <ele>1183</ele>
        <time>2015-02-11T08:55:48Z</time>
      </trkpt>
      <trkpt lat="45.636" lon="6.09761">
        <ele>1183.1</ele>
        <time>2015-02-11T08:55:49Z</time>
      </trkpt>
      <trkpt lat="45.636" lon="6.09761">
        <ele>1183.2</ele>
        <time>2015-02-11T08:55:50Z</time>
      </trkpt>
      <trkpt lat="45.636" lon="6.09761">
        <ele>1183.3</ele>
        <time>2015-02-11T08:55:51Z</time>
      </trkpt>
      <trkpt lat="45.636" lon="6.09762">
        <ele>1183.4</ele>
        <time>2015-02-11T08:55:52Z</time>
      </trkpt>
      <trkpt lat="45.636" lon="6.09762">
        <ele>1183.5</ele>
        <time>2015-02-11T08:55:53Z</time>
      </trkpt>
      <trkpt lat="45.636" lon="6.09762">
        <ele>1183.6</ele>
        <time>2015-02-11T08:55:54Z</time>
      </trkpt>
      <trkpt lat="45.636" lon="6.09762">
        <ele>1183.7</ele>
        <time>2015-02-11T08:55:55Z</time>
      </trkpt>
      <trkpt lat="45.63601" lon="6.09762">
        <ele>1183.7</ele>
        <time>2015-02-11T08:55:56Z</time>
      </trkpt>
      <trkpt lat="45.63601" lon="6.09762">
        <ele>1183.7</ele>
        <time>2015-02-11T08:55:57Z</time>
      </trkpt>
      <trkpt lat="45.63601" lon="6.09762">
        <ele>1183.7</ele>
        <time>2015-02-11T08:55:59Z</time>
      </trkpt>
      <trkpt lat="45.63601" lon="6.09762">
        <ele>1183.6</ele>
        <time>2015-02-11T08:56:00Z</time>
      </trkpt>
      <trkpt lat="45.63601" lon="6.09762">
        <ele>1183.5</ele>
        <time>2015-02-11T08:56:01Z</time>
      </trkpt>
      <trkpt lat="45.63601" lon="6.09761">
        <ele>1183.4</ele>
        <time>2015-02-11T08:56:02Z</time>
      </trkpt>
      <trkpt lat="45.63601" lon="6.09761">
        <ele>1183.4</ele>
        <time>2015-02-11T08:56:03Z</time>
      </trkpt>
      <trkpt lat="45.63601" lon="6.09761">
        <ele>1183.3</ele>
        <time>2015-02-11T08:56:04Z</time>
      </trkpt>
      <trkpt lat="45.63601" lon="6.09761">
        <ele>1183.3</ele>
        <time>2015-02-11T08:56:05Z</time>
      </trkpt>
      <trkpt lat="45.63601" lon="6.09761">
        <ele>1183.2</ele>
        <time>2015-02-11T08:56:06Z</time>
      </trkpt>
      <trkpt lat="45.63601" lon="6.0976">
        <ele>1183.2</ele>
        <time>2015-02-11T08:56:07Z</time>
      </trkpt>
      <trkpt lat="45.63601" lon="6.0976">
        <ele>1183.1</ele>
        <time>2015-02-11T08:56:08Z</time>
      </trkpt>
      <trkpt lat="45.63601" lon="6.0976">
        <ele>1183</ele>
        <time>2015-02-11T08:56:09Z</time>
      </trkpt>
      <trkpt lat="45.63601" lon="6.0976">
        <ele>1183</ele>
        <time>2015-02-11T08:56:10Z</time>
      </trkpt>
      <trkpt lat="45.63601" lon="6.0976">
        <ele>1182.9</ele>
        <time>2015-02-11T08:56:11Z</time>
      </trkpt>
      <trkpt lat="45.63601" lon="6.0976">
        <ele>1182.9</ele>
        <time>2015-02-11T08:56:12Z</time>
      </trkpt>
      <trkpt lat="45.63602" lon="6.09759">
        <ele>1182.8</ele>
        <time>2015-02-11T08:56:13Z</time>
      </trkpt>
      <trkpt lat="45.63602" lon="6.09759">
        <ele>1182.8</ele>
        <time>2015-02-11T08:56:14Z</time>
      </trkpt>
      <trkpt lat="45.63602" lon="6.09759">
        <ele>1182.8</ele>
        <time>2015-02-11T08:56:15Z</time>
      </trkpt>
      <trkpt lat="45.63602" lon="6.09759">
        <ele>1182.7</ele>
        <time>2015-02-11T08:56:16Z</time>
      </trkpt>
      <trkpt lat="45.63602" lon="6.09759">
        <ele>1182.7</ele>
        <time>2015-02-11T08:56:17Z</time>
      </trkpt>
      <trkpt lat="45.63602" lon="6.09759">
        <ele>1182.6</ele>
        <time>2015-02-11T08:56:18Z</time>
      </trkpt>
      <trkpt lat="45.63602" lon="6.09759">
        <ele>1182.6</ele>
        <time>2015-02-11T08:56:19Z</time>
      </trkpt>
      <trkpt lat="45.63602" lon="6.09758">
        <ele>1182.6</ele>
        <time>2015-02-11T08:56:20Z</time>
      </trkpt>
      <trkpt lat="45.63602" lon="6.09758">
        <ele>1182.5</ele>
        <time>2015-02-11T08:56:21Z</time>
      </trkpt>
      <trkpt lat="45.63602" lon="6.09758">
        <ele>1182.4</ele>
        <time>2015-02-11T08:56:22Z</time>
      </trkpt>
      <trkpt lat="45.63602" lon="6.09758">
        <ele>1182.3</ele>
        <time>2015-02-11T08:56:23Z</time>
      </trkpt>
      <trkpt lat="45.63602" lon="6.09758">
        <ele>1182.2</ele>
        <time>2015-02-11T08:56:24Z</time>
      </trkpt>
      <trkpt lat="45.63602" lon="6.09757">
        <ele>1182.1</ele>
        <time>2015-02-11T08:56:25Z</time>
      </trkpt>
      <trkpt lat="45.63602" lon="6.09757">
        <ele>1182.1</ele>
        <time>2015-02-11T08:56:26Z</time>
      </trkpt>
      <trkpt lat="45.63602" lon="6.09757">
        <ele>1182</ele>
        <time>2015-02-11T08:56:27Z</time>
      </trkpt>
      <trkpt lat="45.63602" lon="6.09757">
        <ele>1182</ele>
        <time>2015-02-11T08:56:28Z</time>
      </trkpt>
      <trkpt lat="45.63602" lon="6.09757">
        <ele>1181.9</ele>
        <time>2015-02-11T08:56:29Z</time>
      </trkpt>
      <trkpt lat="45.63602" lon="6.09757">
        <ele>1181.9</ele>
        <time>2015-02-11T08:56:30Z</time>
      </trkpt>
      <trkpt lat="45.63602" lon="6.09757">
        <ele>1181.8</ele>
        <time>2015-02-11T08:56:31Z</time>
      </trkpt>
      <trkpt lat="45.63601" lon="6.09757">
        <ele>1181.9</ele>
        <time>2015-02-11T08:56:32Z</time>
      </trkpt>
      <trkpt lat="45.63601" lon="6.09757">
        <ele>1181.8</ele>
        <time>2015-02-11T08:56:33Z</time>
      </trkpt>
      <trkpt lat="45.63601" lon="6.09757">
        <ele>1181.8</ele>
        <time>2015-02-11T08:56:34Z</time>
      </trkpt>
      <trkpt lat="45.63601" lon="6.09757">
        <ele>1181.8</ele>
        <time>2015-02-11T08:56:35Z</time>
      </trkpt>
      <trkpt lat="45.63601" lon="6.09757">
        <ele>1181.8</ele>
        <time>2015-02-11T08:56:36Z</time>
      </trkpt>
      <trkpt lat="45.63601" lon="6.09757">
        <ele>1181.8</ele>
        <time>2015-02-11T08:56:37Z</time>
      </trkpt>
      <trkpt lat="45.63601" lon="6.09757">
        <ele>1181.8</ele>
        <time>2015-02-11T08:56:38Z</time>
      </trkpt>
      <trkpt lat="45.63601" lon="6.09757">
        <ele>1181.8</ele>
        <time>2015-02-11T08:56:39Z</time>
      </trkpt>
      <trkpt lat="45.63601" lon="6.09757">
        <ele>1181.8</ele>
        <time>2015-02-11T08:56:40Z</time>
      </trkpt>
      <trkpt lat="45.63601" lon="6.09757">
        <ele>1181.9</ele>
        <time>2015-02-11T08:56:41Z</time>
      </trkpt>
      <trkpt lat="45.63601" lon="6.09757">
        <ele>1181.9</ele>
        <time>2015-02-11T08:56:42Z</time>
      </trkpt>
      <trkpt lat="45.63601" lon="6.09757">
        <ele>1181.9</ele>
        <time>2015-02-11T08:56:43Z</time>
      </trkpt>
      <trkpt lat="45.63601" lon="6.09757">
        <ele>1181.9</ele>
        <time>2015-02-11T08:56:44Z</time>
      </trkpt>
      <trkpt lat="45.63601" lon="6.09758">
        <ele>1182.1</ele>
        <time>2015-02-11T08:56:45Z</time>
      </trkpt>
      <trkpt lat="45.63601" lon="6.09758">
        <ele>1182</ele>
        <time>2015-02-11T08:56:46Z</time>
      </trkpt>
      <trkpt lat="45.636" lon="6.09757">
        <ele>1181.8</ele>
        <time>2015-02-11T08:56:47Z</time>
      </trkpt>
      <trkpt lat="45.636" lon="6.09757">
        <ele>1181.7</ele>
        <time>2015-02-11T08:56:48Z</time>
      </trkpt>
      <trkpt lat="45.636" lon="6.09757">
        <ele>1181.6</ele>
        <time>2015-02-11T08:56:49Z</time>
      </trkpt>
      <trkpt lat="45.636" lon="6.09757">
        <ele>1181.6</ele>
        <time>2015-02-11T08:56:50Z</time>
      </trkpt>
      <trkpt lat="45.636" lon="6.09757">
        <ele>1181.5</ele>
        <time>2015-02-11T08:56:51Z</time>
      </trkpt>
      <trkpt lat="45.636" lon="6.09757">
        <ele>1181.6</ele>
        <time>2015-02-11T08:56:52Z</time>
      </trkpt>
      <trkpt lat="45.636" lon="6.09757">
        <ele>1181.6</ele>
        <time>2015-02-11T08:56:53Z</time>
      </trkpt>
      <trkpt lat="45.63599" lon="6.09757">
        <ele>1181.5</ele>
        <time>2015-02-11T08:56:54Z</time>
      </trkpt>
      <trkpt lat="45.63599" lon="6.09757">
        <ele>1181.5</ele>
        <time>2015-02-11T08:56:55Z</time>
      </trkpt>
      <trkpt lat="45.63599" lon="6.09757">
        <ele>1181.7</ele>
        <time>2015-02-11T08:56:56Z</time>
      </trkpt>
      <trkpt lat="45.63599" lon="6.09758">
        <ele>1181.7</ele>
        <time>2015-02-11T08:56:57Z</time>
      </trkpt>
      <trkpt lat="45.63599" lon="6.09758">
        <ele>1181.8</ele>
        <time>2015-02-11T08:56:58Z</time>
      </trkpt>
      <trkpt lat="45.63599" lon="6.09758">
        <ele>1181.7</ele>
        <time>2015-02-11T08:56:59Z</time>
      </trkpt>
      <trkpt lat="45.63599" lon="6.09757">
        <ele>1181.6</ele>
        <time>2015-02-11T08:57:00Z</time>
      </trkpt>
      <trkpt lat="45.63599" lon="6.09757">
        <ele>1181.6</ele>
        <time>2015-02-11T08:57:01Z</time>
      </trkpt>
      <trkpt lat="45.63599" lon="6.09758">
        <ele>1181.7</ele>
        <time>2015-02-11T08:57:02Z</time>
      </trkpt>
      <trkpt lat="45.63599" lon="6.09758">
        <ele>1181.7</ele>
        <time>2015-02-11T08:57:03Z</time>
      </trkpt>
      <trkpt lat="45.63599" lon="6.09758">
        <ele>1181.8</ele>
        <time>2015-02-11T08:57:04Z</time>
      </trkpt>
      <trkpt lat="45.63599" lon="6.09758">
        <ele>1181.8</ele>
        <time>2015-02-11T08:57:05Z</time>
      </trkpt>
      <trkpt lat="45.63599" lon="6.09758">
        <ele>1181.9</ele>
        <time>2015-02-11T08:57:06Z</time>
      </trkpt>
      <trkpt lat="45.63599" lon="6.09758">
        <ele>1181.9</ele>
        <time>2015-02-11T08:57:07Z</time>
      </trkpt>
      <trkpt lat="45.63599" lon="6.09758">
        <ele>1181.8</ele>
        <time>2015-02-11T08:57:08Z</time>
      </trkpt>
      <trkpt lat="45.63599" lon="6.09758">
        <ele>1181.9</ele>
        <time>2015-02-11T08:57:09Z</time>
      </trkpt>
      <trkpt lat="45.63599" lon="6.09758">
        <ele>1181.8</ele>
        <time>2015-02-11T08:57:10Z</time>
      </trkpt>
      <trkpt lat="45.63599" lon="6.09758">
        <ele>1181.8</ele>
        <time>2015-02-11T08:57:11Z</time>
      </trkpt>
      <trkpt lat="45.63599" lon="6.09758">
        <ele>1181.7</ele>
        <time>2015-02-11T08:57:12Z</time>
      </trkpt>
      <trkpt lat="45.63599" lon="6.09758">
        <ele>1181.7</ele>
        <time>2015-02-11T08:57:13Z</time>
      </trkpt>
      <trkpt lat="45.63599" lon="6.09758">
        <ele>1181.7</ele>
        <time>2015-02-11T08:57:14Z</time>
      </trkpt>
      <trkpt lat="45.63599" lon="6.09758">
        <ele>1181.7</ele>
        <time>2015-02-11T08:57:15Z</time>
      </trkpt>
      <trkpt lat="45.63599" lon="6.09757">
        <ele>1181.6</ele>
        <time>2015-02-11T08:57:16Z</time>
      </trkpt>
      <trkpt lat="45.63599" lon="6.09757">
        <ele>1181.6</ele>
        <time>2015-02-11T08:57:17Z</time>
      </trkpt>
      <trkpt lat="45.63599" lon="6.09757">
        <ele>1181.6</ele>
        <time>2015-02-11T08:57:18Z</time>
      </trkpt>
      <trkpt lat="45.63599" lon="6.09757">
        <ele>1181.6</ele>
        <time>2015-02-11T08:57:19Z</time>
      </trkpt>
      <trkpt lat="45.63599" lon="6.09757">
        <ele>1181.6</ele>
        <time>2015-02-11T08:57:20Z</time>
      </trkpt>
      <trkpt lat="45.63599" lon="6.09757">
        <ele>1181.6</ele>
        <time>2015-02-11T08:57:21Z</time>
      </trkpt>
      <trkpt lat="45.63599" lon="6.09758">
        <ele>1181.7</ele>
        <time>2015-02-11T08:57:22Z</time>
      </trkpt>
      <trkpt lat="45.63599" lon="6.09758">
        <ele>1181.7</ele>
        <time>2015-02-11T08:57:23Z</time>
      </trkpt>
      <trkpt lat="45.63599" lon="6.09758">
        <ele>1181.7</ele>
        <time>2015-02-11T08:57:24Z</time>
      </trkpt>
      <trkpt lat="45.63599" lon="6.09758">
        <ele>1181.7</ele>
        <time>2015-02-11T08:57:25Z</time>
      </trkpt>
      <trkpt lat="45.63599" lon="6.09758">
        <ele>1181.7</ele>
        <time>2015-02-11T08:57:26Z</time>
      </trkpt>
      <trkpt lat="45.63599" lon="6.09758">
        <ele>1181.7</ele>
        <time>2015-02-11T08:57:27Z</time>
      </trkpt>
      <trkpt lat="45.63599" lon="6.09758">
        <ele>1181.7</ele>
        <time>2015-02-11T08:57:28Z</time>
      </trkpt>
      <trkpt lat="45.63599" lon="6.09758">
        <ele>1181.7</ele>
        <time>2015-02-11T08:57:29Z</time>
      </trkpt>
      <trkpt lat="45.63599" lon="6.09758">
        <ele>1181.7</ele>
        <time>2015-02-11T08:57:30Z</time>
      </trkpt>
      <trkpt lat="45.63599" lon="6.09758">
        <ele>1181.7</ele>
        <time>2015-02-11T08:57:31Z</time>
      </trkpt>
      <trkpt lat="45.63599" lon="6.09758">
        <ele>1181.7</ele>
        <time>2015-02-11T08:57:32Z</time>
      </trkpt>
      <trkpt lat="45.63599" lon="6.09758">
        <ele>1181.7</ele>
        <time>2015-02-11T08:57:33Z</time>
      </trkpt>
      <trkpt lat="45.63599" lon="6.09758">
        <ele>1181.9</ele>
        <time>2015-02-11T08:57:34Z</time>
      </trkpt>
      <trkpt lat="45.63599" lon="6.09758">
        <ele>1182</ele>
        <time>2015-02-11T08:57:35Z</time>
      </trkpt>
      <trkpt lat="45.63599" lon="6.09759">
        <ele>1182.4</ele>
        <time>2015-02-11T08:57:36Z</time>
      </trkpt>
      <trkpt lat="45.63599" lon="6.0976">
        <ele>1182.8</ele>
        <time>2015-02-11T08:57:37Z</time>
      </trkpt>
      <trkpt lat="45.636" lon="6.09761">
        <ele>1183.1</ele>
        <time>2015-02-11T08:57:38Z</time>
      </trkpt>
      <trkpt lat="45.636" lon="6.09762">
        <ele>1183.7</ele>
        <time>2015-02-11T08:57:39Z</time>
      </trkpt>
      <trkpt lat="45.636" lon="6.09763">
        <ele>1183.9</ele>
        <time>2015-02-11T08:57:40Z</time>
      </trkpt>
      <trkpt lat="45.636" lon="6.09763">
        <ele>1184</ele>
        <time>2015-02-11T08:57:41Z</time>
      </trkpt>
      <trkpt lat="45.636" lon="6.09764">
        <ele>1184.3</ele>
        <time>2015-02-11T08:57:42Z</time>
      </trkpt>
      <trkpt lat="45.636" lon="6.09765">
        <ele>1184.5</ele>
        <time>2015-02-11T08:57:43Z</time>
      </trkpt>
      <trkpt lat="45.636" lon="6.09765">
        <ele>1184.8</ele>
        <time>2015-02-11T08:57:44Z</time>
      </trkpt>
      <trkpt lat="45.63599" lon="6.09766">
        <ele>1184.8</ele>
        <time>2015-02-11T08:57:45Z</time>
      </trkpt>
      <trkpt lat="45.63599" lon="6.09767">
        <ele>1185.1</ele>
        <time>2015-02-11T08:57:46Z</time>
      </trkpt>
      <trkpt lat="45.63598" lon="6.09767">
        <ele>1185.3</ele>
        <time>2015-02-11T08:57:47Z</time>
      </trkpt>
      <trkpt lat="45.63599" lon="6.09768">
        <ele>1185.4</ele>
        <time>2015-02-11T08:57:48Z</time>
      </trkpt>
      <trkpt lat="45.63599" lon="6.09768">
        <ele>1185.4</ele>
        <time>2015-02-11T08:57:49Z</time>
      </trkpt>
      <trkpt lat="45.63599" lon="6.09767">
        <ele>1185.3</ele>
        <time>2015-02-11T08:57:50Z</time>
      </trkpt>
      <trkpt lat="45.63599" lon="6.09768">
        <ele>1185.4</ele>
        <time>2015-02-11T08:57:51Z</time>
      </trkpt>
      <trkpt lat="45.63598" lon="6.09768">
        <ele>1185.5</ele>
        <time>2015-02-11T08:57:52Z</time>
      </trkpt>
      <trkpt lat="45.63599" lon="6.09768">
        <ele>1185.7</ele>
        <time>2015-02-11T08:57:53Z</time>
      </trkpt>
      <trkpt lat="45.63599" lon="6.09769">
        <ele>1185.8</ele>
        <time>2015-02-11T08:57:54Z</time>
      </trkpt>
      <trkpt lat="45.63599" lon="6.09769">
        <ele>1185.9</ele>
        <time>2015-02-11T08:57:55Z</time>
      </trkpt>
      <trkpt lat="45.63599" lon="6.09769">
        <ele>1185.9</ele>
        <time>2015-02-11T08:57:56Z</time>
      </trkpt>
      <trkpt lat="45.63599" lon="6.09769">
        <ele>1185.9</ele>
        <time>2015-02-11T08:57:57Z</time>
      </trkpt>
      <trkpt lat="45.63599" lon="6.09768">
        <ele>1185.8</ele>
        <time>2015-02-11T08:57:58Z</time>
      </trkpt>
      <trkpt lat="45.63599" lon="6.09768">
        <ele>1185.8</ele>
        <time>2015-02-11T08:57:59Z</time>
      </trkpt>
      <trkpt lat="45.63599" lon="6.09769">
        <ele>1185.9</ele>
        <time>2015-02-11T08:58:00Z</time>
      </trkpt>
      <trkpt lat="45.63599" lon="6.09769">
        <ele>1186</ele>
        <time>2015-02-11T08:58:01Z</time>
      </trkpt>
      <trkpt lat="45.63599" lon="6.09769">
        <ele>1186.1</ele>
        <time>2015-02-11T08:58:02Z</time>
      </trkpt>
      <trkpt lat="45.63599" lon="6.09769">
        <ele>1186.2</ele>
        <time>2015-02-11T08:58:03Z</time>
      </trkpt>
      <trkpt lat="45.63599" lon="6.0977">
        <ele>1186.3</ele>
        <time>2015-02-11T08:58:04Z</time>
      </trkpt>
      <trkpt lat="45.63599" lon="6.0977">
        <ele>1186.4</ele>
        <time>2015-02-11T08:58:05Z</time>
      </trkpt>
      <trkpt lat="45.63599" lon="6.0977">
        <ele>1186.4</ele>
        <time>2015-02-11T08:58:06Z</time>
      </trkpt>
      <trkpt lat="45.63599" lon="6.0977">
        <ele>1186.5</ele>
        <time>2015-02-11T08:58:07Z</time>
      </trkpt>
      <trkpt lat="45.63598" lon="6.09771">
        <ele>1186.7</ele>
        <time>2015-02-11T08:58:08Z</time>
      </trkpt>
      <trkpt lat="45.63598" lon="6.09772">
        <ele>1186.9</ele>
        <time>2015-02-11T08:58:09Z</time>
      </trkpt>
      <trkpt lat="45.63598" lon="6.09772">
        <ele>1187</ele>
        <time>2015-02-11T08:58:10Z</time>
      </trkpt>
      <trkpt lat="45.63597" lon="6.09773">
        <ele>1187.2</ele>
        <time>2015-02-11T08:58:11Z</time>
      </trkpt>
      <trkpt lat="45.63597" lon="6.09774">
        <ele>1187.4</ele>
        <time>2015-02-11T08:58:12Z</time>
      </trkpt>
      <trkpt lat="45.63597" lon="6.09775">
        <ele>1187.9</ele>
        <time>2015-02-11T08:58:13Z</time>
      </trkpt>
      <trkpt lat="45.63596" lon="6.09776">
        <ele>1188.2</ele>
        <time>2015-02-11T08:58:14Z</time>
      </trkpt>
      <trkpt lat="45.63596" lon="6.09778">
        <ele>1188.6</ele>
        <time>2015-02-11T08:58:15Z</time>
      </trkpt>
      <trkpt lat="45.63596" lon="6.09778">
        <ele>1188.9</ele>
        <time>2015-02-11T08:58:16Z</time>
      </trkpt>
      <trkpt lat="45.63596" lon="6.0978">
        <ele>1189.4</ele>
        <time>2015-02-11T08:58:17Z</time>
      </trkpt>
      <trkpt lat="45.63596" lon="6.09781">
        <ele>1189.7</ele>
        <time>2015-02-11T08:58:18Z</time>
      </trkpt>
      <trkpt lat="45.63596" lon="6.09782">
        <ele>1190.2</ele>
        <time>2015-02-11T08:58:19Z</time>
      </trkpt>
      <trkpt lat="45.63596" lon="6.09782">
        <ele>1190.5</ele>
        <time>2015-02-11T08:58:20Z</time>
      </trkpt>
      <trkpt lat="45.63596" lon="6.09783">
        <ele>1190.5</ele>
        <time>2015-02-11T08:58:21Z</time>
      </trkpt>
      <trkpt lat="45.63595" lon="6.09783">
        <ele>1190.6</ele>
        <time>2015-02-11T08:58:22Z</time>
      </trkpt>
      <trkpt lat="45.63594" lon="6.09783">
        <ele>1190.3</ele>
        <time>2015-02-11T08:58:23Z</time>
      </trkpt>
      <trkpt lat="45.63594" lon="6.09783">
        <ele>1190.3</ele>
        <time>2015-02-11T08:58:24Z</time>
      </trkpt>
      <trkpt lat="45.63594" lon="6.09783">
        <ele>1190.1</ele>
        <time>2015-02-11T08:58:25Z</time>
      </trkpt>
      <trkpt lat="45.63593" lon="6.09783">
        <ele>1190</ele>
        <time>2015-02-11T08:58:26Z</time>
      </trkpt>
      <trkpt lat="45.63593" lon="6.09783">
        <ele>1189.8</ele>
        <time>2015-02-11T08:58:27Z</time>
      </trkpt>
      <trkpt lat="45.63593" lon="6.09783">
        <ele>1189.8</ele>
        <time>2015-02-11T08:58:28Z</time>
      </trkpt>
      <trkpt lat="45.63593" lon="6.09783">
        <ele>1189.8</ele>
        <time>2015-02-11T08:58:29Z</time>
      </trkpt>
      <trkpt lat="45.63592" lon="6.09783">
        <ele>1189.9</ele>
        <time>2015-02-11T08:58:30Z</time>
      </trkpt>
      <trkpt lat="45.63592" lon="6.09783">
        <ele>1189.9</ele>
        <time>2015-02-11T08:58:31Z</time>
      </trkpt>
      <trkpt lat="45.63592" lon="6.09783">
        <ele>1189.8</ele>
        <time>2015-02-11T08:58:32Z</time>
      </trkpt>
      <trkpt lat="45.63592" lon="6.09783">
        <ele>1189.8</ele>
        <time>2015-02-11T08:58:33Z</time>
      </trkpt>
      <trkpt lat="45.63592" lon="6.09783">
        <ele>1189.7</ele>
        <time>2015-02-11T08:58:34Z</time>
      </trkpt>
      <trkpt lat="45.63591" lon="6.09783">
        <ele>1189.7</ele>
        <time>2015-02-11T08:58:35Z</time>
      </trkpt>
      <trkpt lat="45.63591" lon="6.09783">
        <ele>1189.6</ele>
        <time>2015-02-11T08:58:36Z</time>
      </trkpt>
      <trkpt lat="45.63591" lon="6.09783">
        <ele>1189.6</ele>
        <time>2015-02-11T08:58:37Z</time>
      </trkpt>
      <trkpt lat="45.63591" lon="6.09783">
        <ele>1189.5</ele>
        <time>2015-02-11T08:58:38Z</time>
      </trkpt>
      <trkpt lat="45.63591" lon="6.09783">
        <ele>1189.4</ele>
        <time>2015-02-11T08:58:39Z</time>
      </trkpt>
      <trkpt lat="45.63591" lon="6.09782">
        <ele>1189.3</ele>
        <time>2015-02-11T08:58:40Z</time>
      </trkpt>
      <trkpt lat="45.63591" lon="6.09782">
        <ele>1189.3</ele>
        <time>2015-02-11T08:58:41Z</time>
      </trkpt>
      <trkpt lat="45.63591" lon="6.09782">
        <ele>1189.2</ele>
        <time>2015-02-11T08:58:42Z</time>
      </trkpt>
      <trkpt lat="45.63591" lon="6.09782">
        <ele>1189.2</ele>
        <time>2015-02-11T08:58:43Z</time>
      </trkpt>
      <trkpt lat="45.63591" lon="6.09782">
        <ele>1189.1</ele>
        <time>2015-02-11T08:58:44Z</time>
      </trkpt>
      <trkpt lat="45.63591" lon="6.09782">
        <ele>1189.1</ele>
        <time>2015-02-11T08:58:45Z</time>
      </trkpt>
      <trkpt lat="45.6359" lon="6.09782">
        <ele>1189.2</ele>
        <time>2015-02-11T08:58:46Z</time>
      </trkpt>
      <trkpt lat="45.6359" lon="6.09782">
        <ele>1189.1</ele>
        <time>2015-02-11T08:58:47Z</time>
      </trkpt>
      <trkpt lat="45.6359" lon="6.09782">
        <ele>1189.1</ele>
        <time>2015-02-11T08:58:48Z</time>
      </trkpt>
      <trkpt lat="45.6359" lon="6.09782">
        <ele>1189.1</ele>
        <time>2015-02-11T08:58:49Z</time>
      </trkpt>
      <trkpt lat="45.6359" lon="6.09782">
        <ele>1189.1</ele>
        <time>2015-02-11T08:58:50Z</time>
      </trkpt>
      <trkpt lat="45.6359" lon="6.09782">
        <ele>1189.1</ele>
        <time>2015-02-11T08:58:51Z</time>
      </trkpt>
      <trkpt lat="45.6359" lon="6.09782">
        <ele>1189.1</ele>
        <time>2015-02-11T08:58:52Z</time>
      </trkpt>
      <trkpt lat="45.6359" lon="6.09782">
        <ele>1189.1</ele>
        <time>2015-02-11T08:58:53Z</time>
      </trkpt>
      <trkpt lat="45.6359" lon="6.09782">
        <ele>1189.1</ele>
        <time>2015-02-11T08:58:54Z</time>
      </trkpt>
      <trkpt lat="45.6359" lon="6.09782">
        <ele>1189</ele>
        <time>2015-02-11T08:58:55Z</time>
      </trkpt>
      <trkpt lat="45.6359" lon="6.09782">
        <ele>1189</ele>
        <time>2015-02-11T08:58:56Z</time>
      </trkpt>
      <trkpt lat="45.63589" lon="6.09782">
        <ele>1188.9</ele>
        <time>2015-02-11T08:58:57Z</time>
      </trkpt>
      <trkpt lat="45.63589" lon="6.09782">
        <ele>1188.9</ele>
        <time>2015-02-11T08:58:58Z</time>
      </trkpt>
      <trkpt lat="45.63589" lon="6.09782">
        <ele>1188.8</ele>
        <time>2015-02-11T08:58:59Z</time>
      </trkpt>
      <trkpt lat="45.63589" lon="6.09782">
        <ele>1188.8</ele>
        <time>2015-02-11T08:59:00Z</time>
      </trkpt>
      <trkpt lat="45.63589" lon="6.09782">
        <ele>1188.8</ele>
        <time>2015-02-11T08:59:01Z</time>
      </trkpt>
      <trkpt lat="45.63589" lon="6.09782">
        <ele>1188.7</ele>
        <time>2015-02-11T08:59:02Z</time>
      </trkpt>
      <trkpt lat="45.63589" lon="6.09782">
        <ele>1188.7</ele>
        <time>2015-02-11T08:59:03Z</time>
      </trkpt>
      <trkpt lat="45.63589" lon="6.09782">
        <ele>1188.7</ele>
        <time>2015-02-11T08:59:04Z</time>
      </trkpt>
      <trkpt lat="45.63589" lon="6.09782">
        <ele>1188.7</ele>
        <time>2015-02-11T08:59:05Z</time>
      </trkpt>
      <trkpt lat="45.63589" lon="6.09782">
        <ele>1188.8</ele>
        <time>2015-02-11T08:59:06Z</time>
      </trkpt>
      <trkpt lat="45.63589" lon="6.09782">
        <ele>1188.8</ele>
        <time>2015-02-11T08:59:07Z</time>
      </trkpt>
      <trkpt lat="45.63589" lon="6.09783">
        <ele>1188.9</ele>
        <time>2015-02-11T08:59:08Z</time>
      </trkpt>
      <trkpt lat="45.63589" lon="6.09783">
        <ele>1188.9</ele>
        <time>2015-02-11T08:59:09Z</time>
      </trkpt>
      <trkpt lat="45.63589" lon="6.09783">
        <ele>1189</ele>
        <time>2015-02-11T08:59:10Z</time>
      </trkpt>
      <trkpt lat="45.63589" lon="6.09783">
        <ele>1189.1</ele>
        <time>2015-02-11T08:59:11Z</time>
      </trkpt>
      <trkpt lat="45.63589" lon="6.09783">
        <ele>1189.2</ele>
        <time>2015-02-11T08:59:12Z</time>
      </trkpt>
      <trkpt lat="45.63589" lon="6.09784">
        <ele>1189.3</ele>
        <time>2015-02-11T08:59:13Z</time>
      </trkpt>
      <trkpt lat="45.6359" lon="6.09785">
        <ele>1190</ele>
        <time>2015-02-11T08:59:14Z</time>
      </trkpt>
      <trkpt lat="45.63591" lon="6.09786">
        <ele>1190.7</ele>
        <time>2015-02-11T08:59:15Z</time>
      </trkpt>
      <trkpt lat="45.63592" lon="6.09787">
        <ele>1191.2</ele>
        <time>2015-02-11T08:59:16Z</time>
      </trkpt>
      <trkpt lat="45.63592" lon="6.09788">
        <ele>1191.6</ele>
        <time>2015-02-11T08:59:17Z</time>
      </trkpt>
      <trkpt lat="45.63593" lon="6.09788">
        <ele>1192.1</ele>
        <time>2015-02-11T08:59:18Z</time>
      </trkpt>
      <trkpt lat="45.63594" lon="6.09789">
        <ele>1192.3</ele>
        <time>2015-02-11T08:59:19Z</time>
      </trkpt>
      <trkpt lat="45.63594" lon="6.09789">
        <ele>1192.5</ele>
        <time>2015-02-11T08:59:20Z</time>
      </trkpt>
      <trkpt lat="45.63594" lon="6.09789">
        <ele>1192.7</ele>
        <time>2015-02-11T08:59:21Z</time>
      </trkpt>
      <trkpt lat="45.63595" lon="6.0979">
        <ele>1192.9</ele>
        <time>2015-02-11T08:59:22Z</time>
      </trkpt>
      <trkpt lat="45.63595" lon="6.0979">
        <ele>1193.2</ele>
        <time>2015-02-11T08:59:23Z</time>
      </trkpt>
      <trkpt lat="45.63596" lon="6.0979">
        <ele>1193.3</ele>
        <time>2015-02-11T08:59:24Z</time>
      </trkpt>
      <trkpt lat="45.63596" lon="6.0979">
        <ele>1193.4</ele>
        <time>2015-02-11T08:59:25Z</time>
      </trkpt>
      <trkpt lat="45.63596" lon="6.0979">
        <ele>1193.4</ele>
        <time>2015-02-11T08:59:26Z</time>
      </trkpt>
      <trkpt lat="45.63596" lon="6.0979">
        <ele>1193.4</ele>
        <time>2015-02-11T08:59:27Z</time>
      </trkpt>
      <trkpt lat="45.63596" lon="6.0979">
        <ele>1193.5</ele>
        <time>2015-02-11T08:59:28Z</time>
      </trkpt>
      <trkpt lat="45.63596" lon="6.09791">
        <ele>1193.5</ele>
        <time>2015-02-11T08:59:29Z</time>
      </trkpt>
      <trkpt lat="45.63596" lon="6.09791">
        <ele>1193.5</ele>
        <time>2015-02-11T08:59:30Z</time>
      </trkpt>
      <trkpt lat="45.63596" lon="6.09791">
        <ele>1193.5</ele>
        <time>2015-02-11T08:59:31Z</time>
      </trkpt>
      <trkpt lat="45.63596" lon="6.0979">
        <ele>1193.4</ele>
        <time>2015-02-11T08:59:32Z</time>
      </trkpt>
      <trkpt lat="45.63596" lon="6.0979">
        <ele>1193.4</ele>
        <time>2015-02-11T08:59:33Z</time>
      </trkpt>
      <trkpt lat="45.63595" lon="6.0979">
        <ele>1193.2</ele>
        <time>2015-02-11T08:59:34Z</time>
      </trkpt>
      <trkpt lat="45.63595" lon="6.0979">
        <ele>1193.1</ele>
        <time>2015-02-11T08:59:35Z</time>
      </trkpt>
      <trkpt lat="45.63595" lon="6.09789">
        <ele>1192.8</ele>
        <time>2015-02-11T08:59:36Z</time>
      </trkpt>
      <trkpt lat="45.63595" lon="6.09789">
        <ele>1192.6</ele>
        <time>2015-02-11T08:59:37Z</time>
      </trkpt>
      <trkpt lat="45.63595" lon="6.09788">
        <ele>1192.3</ele>
        <time>2015-02-11T08:59:38Z</time>
      </trkpt>
      <trkpt lat="45.63594" lon="6.09788">
        <ele>1192</ele>
        <time>2015-02-11T08:59:39Z</time>
      </trkpt>
      <trkpt lat="45.63594" lon="6.09787">
        <ele>1191.7</ele>
        <time>2015-02-11T08:59:40Z</time>
      </trkpt>
      <trkpt lat="45.63594" lon="6.09787">
        <ele>1191.6</ele>
        <time>2015-02-11T08:59:41Z</time>
      </trkpt>
      <trkpt lat="45.63593" lon="6.09787">
        <ele>1191.5</ele>
        <time>2015-02-11T08:59:42Z</time>
      </trkpt>
      <trkpt lat="45.63593" lon="6.09786">
        <ele>1191.3</ele>
        <time>2015-02-11T08:59:43Z</time>
      </trkpt>
      <trkpt lat="45.63593" lon="6.09786">
        <ele>1191.2</ele>
        <time>2015-02-11T08:59:44Z</time>
      </trkpt>
      <trkpt lat="45.63593" lon="6.09786">
        <ele>1191.2</ele>
        <time>2015-02-11T08:59:45Z</time>
      </trkpt>
      <trkpt lat="45.63593" lon="6.09786">
        <ele>1191.2</ele>
        <time>2015-02-11T08:59:46Z</time>
      </trkpt>
      <trkpt lat="45.63593" lon="6.09786">
        <ele>1191</ele>
        <time>2015-02-11T08:59:47Z</time>
      </trkpt>
      <trkpt lat="45.63593" lon="6.09786">
        <ele>1191</ele>
        <time>2015-02-11T08:59:48Z</time>
      </trkpt>
      <trkpt lat="45.63592" lon="6.09786">
        <ele>1191</ele>
        <time>2015-02-11T08:59:49Z</time>
      </trkpt>
      <trkpt lat="45.63592" lon="6.09786">
        <ele>1191</ele>
        <time>2015-02-11T08:59:50Z</time>
      </trkpt>
      <trkpt lat="45.63592" lon="6.09786">
        <ele>1191</ele>
        <time>2015-02-11T08:59:51Z</time>
      </trkpt>
      <trkpt lat="45.63592" lon="6.09786">
        <ele>1191</ele>
        <time>2015-02-11T08:59:52Z</time>
      </trkpt>
      <trkpt lat="45.63592" lon="6.09786">
        <ele>1191</ele>
        <time>2015-02-11T08:59:53Z</time>
      </trkpt>
      <trkpt lat="45.63592" lon="6.09787">
        <ele>1191.1</ele>
        <time>2015-02-11T08:59:54Z</time>
      </trkpt>
      <trkpt lat="45.63592" lon="6.09787">
        <ele>1191.4</ele>
        <time>2015-02-11T08:59:55Z</time>
      </trkpt>
      <trkpt lat="45.63592" lon="6.09788">
        <ele>1191.6</ele>
        <time>2015-02-11T08:59:56Z</time>
      </trkpt>
      <trkpt lat="45.63591" lon="6.09788">
        <ele>1191.5</ele>
        <time>2015-02-11T08:59:57Z</time>
      </trkpt>
      <trkpt lat="45.63591" lon="6.09788">
        <ele>1191.5</ele>
        <time>2015-02-11T08:59:58Z</time>
      </trkpt>
      <trkpt lat="45.63591" lon="6.09788">
        <ele>1191.5</ele>
        <time>2015-02-11T08:59:59Z</time>
      </trkpt>
      <trkpt lat="45.63592" lon="6.09788">
        <ele>1191.7</ele>
        <time>2015-02-11T09:00:00Z</time>
      </trkpt>
      <trkpt lat="45.63592" lon="6.09789">
        <ele>1191.8</ele>
        <time>2015-02-11T09:00:01Z</time>
      </trkpt>
      <trkpt lat="45.63591" lon="6.09789">
        <ele>1192</ele>
        <time>2015-02-11T09:00:02Z</time>
      </trkpt>
      <trkpt lat="45.63591" lon="6.09789">
        <ele>1192</ele>
        <time>2015-02-11T09:00:03Z</time>
      </trkpt>
      <trkpt lat="45.63591" lon="6.0979">
        <ele>1192.3</ele>
        <time>2015-02-11T09:00:04Z</time>
      </trkpt>
      <trkpt lat="45.63591" lon="6.09791">
        <ele>1192.7</ele>
        <time>2015-02-11T09:00:05Z</time>
      </trkpt>
      <trkpt lat="45.63591" lon="6.09792">
        <ele>1193.1</ele>
        <time>2015-02-11T09:00:06Z</time>
      </trkpt>
      <trkpt lat="45.63591" lon="6.09793">
        <ele>1193.3</ele>
        <time>2015-02-11T09:00:07Z</time>
      </trkpt>
      <trkpt lat="45.63591" lon="6.09794">
        <ele>1193.7</ele>
        <time>2015-02-11T09:00:08Z</time>
      </trkpt>
      <trkpt lat="45.63591" lon="6.09795">
        <ele>1194</ele>
        <time>2015-02-11T09:00:09Z</time>
      </trkpt>
      <trkpt lat="45.63592" lon="6.09796">
        <ele>1194.4</ele>
        <time>2015-02-11T09:00:10Z</time>
      </trkpt>
      <trkpt lat="45.63592" lon="6.09796">
        <ele>1194.7</ele>
        <time>2015-02-11T09:00:11Z</time>
      </trkpt>
      <trkpt lat="45.63591" lon="6.09797">
        <ele>1194.8</ele>
        <time>2015-02-11T09:00:12Z</time>
      </trkpt>
      <trkpt lat="45.63591" lon="6.09798">
        <ele>1195.1</ele>
        <time>2015-02-11T09:00:13Z</time>
      </trkpt>
      <trkpt lat="45.63591" lon="6.09799">
        <ele>1195.4</ele>
        <time>2015-02-11T09:00:14Z</time>
      </trkpt>
      <trkpt lat="45.6359" lon="6.098">
        <ele>1195.6</ele>
        <time>2015-02-11T09:00:15Z</time>
      </trkpt>
      <trkpt lat="45.6359" lon="6.09801">
        <ele>1195.7</ele>
        <time>2015-02-11T09:00:16Z</time>
      </trkpt>
      <trkpt lat="45.63589" lon="6.09801">
        <ele>1195.9</ele>
        <time>2015-02-11T09:00:17Z</time>
      </trkpt>
      <trkpt lat="45.63589" lon="6.09802">
        <ele>1196</ele>
        <time>2015-02-11T09:00:18Z</time>
      </trkpt>
      <trkpt lat="45.63588" lon="6.09802">
        <ele>1195.9</ele>
        <time>2015-02-11T09:00:19Z</time>
      </trkpt>
      <trkpt lat="45.63588" lon="6.09803">
        <ele>1196.1</ele>
        <time>2015-02-11T09:00:20Z</time>
      </trkpt>
      <trkpt lat="45.63588" lon="6.09803">
        <ele>1196.3</ele>
        <time>2015-02-11T09:00:21Z</time>
      </trkpt>
      <trkpt lat="45.63587" lon="6.09804">
        <ele>1196.4</ele>
        <time>2015-02-11T09:00:22Z</time>
      </trkpt>
      <trkpt lat="45.63587" lon="6.09805">
        <ele>1196.6</ele>
        <time>2015-02-11T09:00:23Z</time>
      </trkpt>
      <trkpt lat="45.63587" lon="6.09805">
        <ele>1196.8</ele>
        <time>2015-02-11T09:00:24Z</time>
      </trkpt>
      <trkpt lat="45.63587" lon="6.09806">
        <ele>1197.1</ele>
        <time>2015-02-11T09:00:25Z</time>
      </trkpt>
      <trkpt lat="45.63586" lon="6.09807">
        <ele>1197.3</ele>
        <time>2015-02-11T09:00:26Z</time>
      </trkpt>
      <trkpt lat="45.63586" lon="6.09808">
        <ele>1197.5</ele>
        <time>2015-02-11T09:00:27Z</time>
      </trkpt>
      <trkpt lat="45.63585" lon="6.09808">
        <ele>1197.7</ele>
        <time>2015-02-11T09:00:28Z</time>
      </trkpt>
      <trkpt lat="45.63585" lon="6.09809">
        <ele>1197.8</ele>
        <time>2015-02-11T09:00:29Z</time>
      </trkpt>
      <trkpt lat="45.63584" lon="6.0981">
        <ele>1197.9</ele>
        <time>2015-02-11T09:00:30Z</time>
      </trkpt>
      <trkpt lat="45.63584" lon="6.0981">
        <ele>1198.1</ele>
        <time>2015-02-11T09:00:31Z</time>
      </trkpt>
      <trkpt lat="45.63583" lon="6.09811">
        <ele>1198.4</ele>
        <time>2015-02-11T09:00:32Z</time>
      </trkpt>
      <trkpt lat="45.63583" lon="6.09812">
        <ele>1198.5</ele>
        <time>2015-02-11T09:00:33Z</time>
      </trkpt>
      <trkpt lat="45.63582" lon="6.09813">
        <ele>1198.6</ele>
        <time>2015-02-11T09:00:34Z</time>
      </trkpt>
      <trkpt lat="45.63582" lon="6.09814">
        <ele>1198.8</ele>
        <time>2015-02-11T09:00:35Z</time>
      </trkpt>
      <trkpt lat="45.63582" lon="6.09814">
        <ele>1198.8</ele>
        <time>2015-02-11T09:00:36Z</time>
      </trkpt>
      <trkpt lat="45.63582" lon="6.09815">
        <ele>1199.5</ele>
        <time>2015-02-11T09:00:37Z</time>
      </trkpt>
      <trkpt lat="45.63581" lon="6.09816">
        <ele>1199.6</ele>
        <time>2015-02-11T09:00:38Z</time>
      </trkpt>
      <trkpt lat="45.6358" lon="6.09817">
        <ele>1199.4</ele>
        <time>2015-02-11T09:00:39Z</time>
      </trkpt>
      <trkpt lat="45.63579" lon="6.09817">
        <ele>1199.4</ele>
        <time>2015-02-11T09:00:40Z</time>
      </trkpt>
      <trkpt lat="45.63578" lon="6.09818">
        <ele>1199.4</ele>
        <time>2015-02-11T09:00:41Z</time>
      </trkpt>
      <trkpt lat="45.63578" lon="6.09819">
        <ele>1199.4</ele>
        <time>2015-02-11T09:00:42Z</time>
      </trkpt>
      <trkpt lat="45.63577" lon="6.09819">
        <ele>1199.4</ele>
        <time>2015-02-11T09:00:43Z</time>
      </trkpt>
      <trkpt lat="45.63577" lon="6.0982">
        <ele>1199.6</ele>
        <time>2015-02-11T09:00:44Z</time>
      </trkpt>
      <trkpt lat="45.63576" lon="6.09821">
        <ele>1199.8</ele>
        <time>2015-02-11T09:00:45Z</time>
      </trkpt>
      <trkpt lat="45.63576" lon="6.09822">
        <ele>1200</ele>
        <time>2015-02-11T09:00:46Z</time>
      </trkpt>
      <trkpt lat="45.63576" lon="6.09823">
        <ele>1200.5</ele>
        <time>2015-02-11T09:00:47Z</time>
      </trkpt>
      <trkpt lat="45.63575" lon="6.09824">
        <ele>1200.6</ele>
        <time>2015-02-11T09:00:48Z</time>
      </trkpt>
      <trkpt lat="45.63575" lon="6.09825">
        <ele>1200.8</ele>
        <time>2015-02-11T09:00:49Z</time>
      </trkpt>
      <trkpt lat="45.63575" lon="6.09826">
        <ele>1201</ele>
        <time>2015-02-11T09:00:50Z</time>
      </trkpt>
      <trkpt lat="45.63574" lon="6.09827">
        <ele>1201.1</ele>
        <time>2015-02-11T09:00:51Z</time>
      </trkpt>
      <trkpt lat="45.63573" lon="6.09828">
        <ele>1201.2</ele>
        <time>2015-02-11T09:00:52Z</time>
      </trkpt>
      <trkpt lat="45.63573" lon="6.09829">
        <ele>1201.6</ele>
        <time>2015-02-11T09:00:53Z</time>
      </trkpt>
      <trkpt lat="45.63573" lon="6.0983">
        <ele>1201.6</ele>
        <time>2015-02-11T09:00:54Z</time>
      </trkpt>
      <trkpt lat="45.63572" lon="6.09831">
        <ele>1201.8</ele>
        <time>2015-02-11T09:00:55Z</time>
      </trkpt>
      <trkpt lat="45.63571" lon="6.09832">
        <ele>1201.8</ele>
        <time>2015-02-11T09:00:56Z</time>
      </trkpt>
      <trkpt lat="45.63571" lon="6.09833">
        <ele>1202</ele>
        <time>2015-02-11T09:00:57Z</time>
      </trkpt>
      <trkpt lat="45.63571" lon="6.09834">
        <ele>1202.4</ele>
        <time>2015-02-11T09:00:58Z</time>
      </trkpt>
      <trkpt lat="45.6357" lon="6.09835">
        <ele>1202.7</ele>
        <time>2015-02-11T09:00:59Z</time>
      </trkpt>
      <trkpt lat="45.6357" lon="6.09836">
        <ele>1203</ele>
        <time>2015-02-11T09:01:00Z</time>
      </trkpt>
      <trkpt lat="45.6357" lon="6.09837">
        <ele>1203.1</ele>
        <time>2015-02-11T09:01:01Z</time>
      </trkpt>
      <trkpt lat="45.63569" lon="6.09838">
        <ele>1203.3</ele>
        <time>2015-02-11T09:01:02Z</time>
      </trkpt>
      <trkpt lat="45.63569" lon="6.09838">
        <ele>1203.3</ele>
        <time>2015-02-11T09:01:03Z</time>
      </trkpt>
      <trkpt lat="45.63569" lon="6.09839">
        <ele>1203.5</ele>
        <time>2015-02-11T09:01:04Z</time>
      </trkpt>
      <trkpt lat="45.63569" lon="6.09839">
        <ele>1203.4</ele>
        <time>2015-02-11T09:01:05Z</time>
      </trkpt>
      <trkpt lat="45.63569" lon="6.0984">
        <ele>1203.9</ele>
        <time>2015-02-11T09:01:06Z</time>
      </trkpt>
      <trkpt lat="45.63569" lon="6.0984">
        <ele>1203.9</ele>
        <time>2015-02-11T09:01:07Z</time>
      </trkpt>
      <trkpt lat="45.63568" lon="6.09841">
        <ele>1204.2</ele>
        <time>2015-02-11T09:01:08Z</time>
      </trkpt>
      <trkpt lat="45.63568" lon="6.09842">
        <ele>1204.4</ele>
        <time>2015-02-11T09:01:09Z</time>
      </trkpt>
      <trkpt lat="45.63568" lon="6.09842">
        <ele>1204.6</ele>
        <time>2015-02-11T09:01:10Z</time>
      </trkpt>
      <trkpt lat="45.63568" lon="6.09843">
        <ele>1204.7</ele>
        <time>2015-02-11T09:01:11Z</time>
      </trkpt>
      <trkpt lat="45.63567" lon="6.09843">
        <ele>1204.8</ele>
        <time>2015-02-11T09:01:12Z</time>
      </trkpt>
      <trkpt lat="45.63567" lon="6.09844">
        <ele>1204.8</ele>
        <time>2015-02-11T09:01:13Z</time>
      </trkpt>
      <trkpt lat="45.63567" lon="6.09843">
        <ele>1204.5</ele>
        <time>2015-02-11T09:01:14Z</time>
      </trkpt>
      <trkpt lat="45.63566" lon="6.09844">
        <ele>1204.5</ele>
        <time>2015-02-11T09:01:15Z</time>
      </trkpt>
      <trkpt lat="45.63566" lon="6.09844">
        <ele>1204.8</ele>
        <time>2015-02-11T09:01:16Z</time>
      </trkpt>
      <trkpt lat="45.63566" lon="6.09845">
        <ele>1205.1</ele>
        <time>2015-02-11T09:01:17Z</time>
      </trkpt>
      <trkpt lat="45.63566" lon="6.09846">
        <ele>1205.5</ele>
        <time>2015-02-11T09:01:18Z</time>
      </trkpt>
      <trkpt lat="45.63566" lon="6.09847">
        <ele>1205.6</ele>
        <time>2015-02-11T09:01:19Z</time>
      </trkpt>
      <trkpt lat="45.63566" lon="6.09848">
        <ele>1206</ele>
        <time>2015-02-11T09:01:20Z</time>
      </trkpt>
      <trkpt lat="45.63565" lon="6.09848">
        <ele>1206.1</ele>
        <time>2015-02-11T09:01:21Z</time>
      </trkpt>
      <trkpt lat="45.63565" lon="6.09849">
        <ele>1206.4</ele>
        <time>2015-02-11T09:01:22Z</time>
      </trkpt>
      <trkpt lat="45.63565" lon="6.0985">
        <ele>1206.5</ele>
        <time>2015-02-11T09:01:23Z</time>
      </trkpt>
      <trkpt lat="45.63565" lon="6.09851">
        <ele>1206.7</ele>
        <time>2015-02-11T09:01:24Z</time>
      </trkpt>
      <trkpt lat="45.63564" lon="6.09851">
        <ele>1206.8</ele>
        <time>2015-02-11T09:01:25Z</time>
      </trkpt>
      <trkpt lat="45.63564" lon="6.09852">
        <ele>1207.1</ele>
        <time>2015-02-11T09:01:26Z</time>
      </trkpt>
      <trkpt lat="45.63564" lon="6.09853">
        <ele>1207.5</ele>
        <time>2015-02-11T09:01:27Z</time>
      </trkpt>
      <trkpt lat="45.63564" lon="6.09854">
        <ele>1208</ele>
        <time>2015-02-11T09:01:28Z</time>
      </trkpt>
      <trkpt lat="45.63564" lon="6.09855">
        <ele>1208.3</ele>
        <time>2015-02-11T09:01:29Z</time>
      </trkpt>
      <trkpt lat="45.63564" lon="6.09856">
        <ele>1208.8</ele>
        <time>2015-02-11T09:01:30Z</time>
      </trkpt>
      <trkpt lat="45.63564" lon="6.09857">
        <ele>1209.3</ele>
        <time>2015-02-11T09:01:31Z</time>
      </trkpt>
      <trkpt lat="45.63564" lon="6.09858">
        <ele>1209.6</ele>
        <time>2015-02-11T09:01:32Z</time>
      </trkpt>
      <trkpt lat="45.63564" lon="6.09859">
        <ele>1210</ele>
        <time>2015-02-11T09:01:33Z</time>
      </trkpt>
      <trkpt lat="45.63564" lon="6.09859">
        <ele>1210</ele>
        <time>2015-02-11T09:01:34Z</time>
      </trkpt>
      <trkpt lat="45.63565" lon="6.0986">
        <ele>1210.5</ele>
        <time>2015-02-11T09:01:35Z</time>
      </trkpt>
      <trkpt lat="45.63564" lon="6.0986">
        <ele>1210.7</ele>
        <time>2015-02-11T09:01:36Z</time>
      </trkpt>
      <trkpt lat="45.63564" lon="6.09861">
        <ele>1210.8</ele>
        <time>2015-02-11T09:01:37Z</time>
      </trkpt>
      <trkpt lat="45.63564" lon="6.09861">
        <ele>1211.1</ele>
        <time>2015-02-11T09:01:38Z</time>
      </trkpt>
      <trkpt lat="45.63564" lon="6.09862">
        <ele>1211.5</ele>
        <time>2015-02-11T09:01:39Z</time>
      </trkpt>
      <trkpt lat="45.63564" lon="6.09863">
        <ele>1212.2</ele>
        <time>2015-02-11T09:01:40Z</time>
      </trkpt>
      <trkpt lat="45.63564" lon="6.09864">
        <ele>1212.2</ele>
        <time>2015-02-11T09:01:41Z</time>
      </trkpt>
      <trkpt lat="45.63564" lon="6.09865">
        <ele>1212.5</ele>
        <time>2015-02-11T09:01:42Z</time>
      </trkpt>
      <trkpt lat="45.63563" lon="6.09865">
        <ele>1212.5</ele>
        <time>2015-02-11T09:01:43Z</time>
      </trkpt>
      <trkpt lat="45.63562" lon="6.09866">
        <ele>1212.8</ele>
        <time>2015-02-11T09:01:44Z</time>
      </trkpt>
      <trkpt lat="45.63562" lon="6.09867">
        <ele>1213</ele>
        <time>2015-02-11T09:01:45Z</time>
      </trkpt>
      <trkpt lat="45.63562" lon="6.09868">
        <ele>1213.4</ele>
        <time>2015-02-11T09:01:46Z</time>
      </trkpt>
      <trkpt lat="45.63561" lon="6.09868">
        <ele>1213.4</ele>
        <time>2015-02-11T09:01:47Z</time>
      </trkpt>
      <trkpt lat="45.6356" lon="6.09869">
        <ele>1213.1</ele>
        <time>2015-02-11T09:01:48Z</time>
      </trkpt>
      <trkpt lat="45.6356" lon="6.09869">
        <ele>1212.9</ele>
        <time>2015-02-11T09:01:49Z</time>
      </trkpt>
      <trkpt lat="45.63559" lon="6.09869">
        <ele>1213</ele>
        <time>2015-02-11T09:01:50Z</time>
      </trkpt>
      <trkpt lat="45.63559" lon="6.09869">
        <ele>1213.1</ele>
        <time>2015-02-11T09:01:51Z</time>
      </trkpt>
      <trkpt lat="45.63559" lon="6.0987">
        <ele>1213.2</ele>
        <time>2015-02-11T09:01:52Z</time>
      </trkpt>
      <trkpt lat="45.63558" lon="6.09871">
        <ele>1213.4</ele>
        <time>2015-02-11T09:01:53Z</time>
      </trkpt>
      <trkpt lat="45.63558" lon="6.09871">
        <ele>1213.8</ele>
        <time>2015-02-11T09:01:54Z</time>
      </trkpt>
      <trkpt lat="45.63558" lon="6.09872">
        <ele>1214</ele>
        <time>2015-02-11T09:01:55Z</time>
      </trkpt>
      <trkpt lat="45.63558" lon="6.09873">
        <ele>1214</ele>
        <time>2015-02-11T09:01:56Z</time>
      </trkpt>
      <trkpt lat="45.63557" lon="6.09873">
        <ele>1214.2</ele>
        <time>2015-02-11T09:01:57Z</time>
      </trkpt>
      <trkpt lat="45.63557" lon="6.09874">
        <ele>1214.4</ele>
        <time>2015-02-11T09:01:58Z</time>
      </trkpt>
      <trkpt lat="45.63557" lon="6.09875">
        <ele>1214.8</ele>
        <time>2015-02-11T09:01:59Z</time>
      </trkpt>
      <trkpt lat="45.63556" lon="6.09875">
        <ele>1215</ele>
        <time>2015-02-11T09:02:00Z</time>
      </trkpt>
      <trkpt lat="45.63556" lon="6.09876">
        <ele>1215.3</ele>
        <time>2015-02-11T09:02:01Z</time>
      </trkpt>
      <trkpt lat="45.63555" lon="6.09877">
        <ele>1215.3</ele>
        <time>2015-02-11T09:02:02Z</time>
      </trkpt>
      <trkpt lat="45.63554" lon="6.09877">
        <ele>1215.2</ele>
        <time>2015-02-11T09:02:03Z</time>
      </trkpt>
      <trkpt lat="45.63554" lon="6.09878">
        <ele>1215.3</ele>
        <time>2015-02-11T09:02:04Z</time>
      </trkpt>
      <trkpt lat="45.63553" lon="6.09878">
        <ele>1215.4</ele>
        <time>2015-02-11T09:02:05Z</time>
      </trkpt>
      <trkpt lat="45.63553" lon="6.09879">
        <ele>1215.6</ele>
        <time>2015-02-11T09:02:06Z</time>
      </trkpt>
      <trkpt lat="45.63552" lon="6.09879">
        <ele>1215.5</ele>
        <time>2015-02-11T09:02:07Z</time>
      </trkpt>
      <trkpt lat="45.63552" lon="6.0988">
        <ele>1215.9</ele>
        <time>2015-02-11T09:02:08Z</time>
      </trkpt>
      <trkpt lat="45.63551" lon="6.09881">
        <ele>1216.1</ele>
        <time>2015-02-11T09:02:09Z</time>
      </trkpt>
      <trkpt lat="45.6355" lon="6.09881">
        <ele>1216.1</ele>
        <time>2015-02-11T09:02:10Z</time>
      </trkpt>
      <trkpt lat="45.6355" lon="6.09882">
        <ele>1216.3</ele>
        <time>2015-02-11T09:02:11Z</time>
      </trkpt>
      <trkpt lat="45.6355" lon="6.09882">
        <ele>1216.3</ele>
        <time>2015-02-11T09:02:12Z</time>
      </trkpt>
      <trkpt lat="45.63549" lon="6.09883">
        <ele>1216.4</ele>
        <time>2015-02-11T09:02:13Z</time>
      </trkpt>
      <trkpt lat="45.63548" lon="6.09883">
        <ele>1216.5</ele>
        <time>2015-02-11T09:02:14Z</time>
      </trkpt>
      <trkpt lat="45.63548" lon="6.09883">
        <ele>1216.2</ele>
        <time>2015-02-11T09:02:15Z</time>
      </trkpt>
      <trkpt lat="45.63548" lon="6.09884">
        <ele>1216.5</ele>
        <time>2015-02-11T09:02:16Z</time>
      </trkpt>
      <trkpt lat="45.63548" lon="6.09884">
        <ele>1216.6</ele>
        <time>2015-02-11T09:02:17Z</time>
      </trkpt>
      <trkpt lat="45.63547" lon="6.09885">
        <ele>1216.8</ele>
        <time>2015-02-11T09:02:18Z</time>
      </trkpt>
      <trkpt lat="45.63547" lon="6.09885">
        <ele>1216.8</ele>
        <time>2015-02-11T09:02:19Z</time>
      </trkpt>
      <trkpt lat="45.63546" lon="6.09886">
        <ele>1216.9</ele>
        <time>2015-02-11T09:02:20Z</time>
      </trkpt>
      <trkpt lat="45.63546" lon="6.09886">
        <ele>1217.1</ele>
        <time>2015-02-11T09:02:21Z</time>
      </trkpt>
      <trkpt lat="45.63545" lon="6.09887">
        <ele>1217.2</ele>
        <time>2015-02-11T09:02:22Z</time>
      </trkpt>
      <trkpt lat="45.63545" lon="6.09887">
        <ele>1217.4</ele>
        <time>2015-02-11T09:02:23Z</time>
      </trkpt>
      <trkpt lat="45.63545" lon="6.09888">
        <ele>1217.7</ele>
        <time>2015-02-11T09:02:24Z</time>
      </trkpt>
      <trkpt lat="45.63544" lon="6.09889">
        <ele>1217.8</ele>
        <time>2015-02-11T09:02:25Z</time>
      </trkpt>
      <trkpt lat="45.63544" lon="6.0989">
        <ele>1218.2</ele>
        <time>2015-02-11T09:02:26Z</time>
      </trkpt>
      <trkpt lat="45.63544" lon="6.0989">
        <ele>1218.5</ele>
        <time>2015-02-11T09:02:27Z</time>
      </trkpt>
      <trkpt lat="45.63544" lon="6.09892">
        <ele>1219</ele>
        <time>2015-02-11T09:02:28Z</time>
      </trkpt>
      <trkpt lat="45.63543" lon="6.09892">
        <ele>1219</ele>
        <time>2015-02-11T09:02:29Z</time>
      </trkpt>
      <trkpt lat="45.63543" lon="6.09893">
        <ele>1219.2</ele>
        <time>2015-02-11T09:02:30Z</time>
      </trkpt>
      <trkpt lat="45.63543" lon="6.09893">
        <ele>1219.4</ele>
        <time>2015-02-11T09:02:31Z</time>
      </trkpt>
      <trkpt lat="45.63542" lon="6.09894">
        <ele>1219.8</ele>
        <time>2015-02-11T09:02:32Z</time>
      </trkpt>
      <trkpt lat="45.63542" lon="6.09895">
        <ele>1220</ele>
        <time>2015-02-11T09:02:33Z</time>
      </trkpt>
      <trkpt lat="45.63542" lon="6.09895">
        <ele>1220.1</ele>
        <time>2015-02-11T09:02:34Z</time>
      </trkpt>
      <trkpt lat="45.63542" lon="6.09896">
        <ele>1220.5</ele>
        <time>2015-02-11T09:02:35Z</time>
      </trkpt>
      <trkpt lat="45.63542" lon="6.09897">
        <ele>1220.6</ele>
        <time>2015-02-11T09:02:36Z</time>
      </trkpt>
      <trkpt lat="45.63541" lon="6.09897">
        <ele>1220.8</ele>
        <time>2015-02-11T09:02:37Z</time>
      </trkpt>
      <trkpt lat="45.63541" lon="6.09898">
        <ele>1221</ele>
        <time>2015-02-11T09:02:38Z</time>
      </trkpt>
      <trkpt lat="45.6354" lon="6.09899">
        <ele>1221.1</ele>
        <time>2015-02-11T09:02:39Z</time>
      </trkpt>
      <trkpt lat="45.63541" lon="6.099">
        <ele>1221.8</ele>
        <time>2015-02-11T09:02:40Z</time>
      </trkpt>
      <trkpt lat="45.6354" lon="6.09901">
        <ele>1221.9</ele>
        <time>2015-02-11T09:02:41Z</time>
      </trkpt>
      <trkpt lat="45.6354" lon="6.09902">
        <ele>1222.3</ele>
        <time>2015-02-11T09:02:42Z</time>
      </trkpt>
      <trkpt lat="45.6354" lon="6.09902">
        <ele>1222.5</ele>
        <time>2015-02-11T09:02:43Z</time>
      </trkpt>
      <trkpt lat="45.63539" lon="6.09904">
        <ele>1223</ele>
        <time>2015-02-11T09:02:44Z</time>
      </trkpt>
      <trkpt lat="45.63539" lon="6.09905">
        <ele>1223.5</ele>
        <time>2015-02-11T09:02:45Z</time>
      </trkpt>
      <trkpt lat="45.63539" lon="6.09905">
        <ele>1223.8</ele>
        <time>2015-02-11T09:02:46Z</time>
      </trkpt>
      <trkpt lat="45.63539" lon="6.09906">
        <ele>1224</ele>
        <time>2015-02-11T09:02:47Z</time>
      </trkpt>
      <trkpt lat="45.63539" lon="6.09907">
        <ele>1224.4</ele>
        <time>2015-02-11T09:02:48Z</time>
      </trkpt>
      <trkpt lat="45.63539" lon="6.09908">
        <ele>1224.9</ele>
        <time>2015-02-11T09:02:49Z</time>
      </trkpt>
      <trkpt lat="45.63539" lon="6.09909">
        <ele>1225.2</ele>
        <time>2015-02-11T09:02:50Z</time>
      </trkpt>
      <trkpt lat="45.63539" lon="6.0991">
        <ele>1225.6</ele>
        <time>2015-02-11T09:02:51Z</time>
      </trkpt>
      <trkpt lat="45.63538" lon="6.0991">
        <ele>1225.7</ele>
        <time>2015-02-11T09:02:52Z</time>
      </trkpt>
      <trkpt lat="45.63538" lon="6.09911">
        <ele>1226.1</ele>
        <time>2015-02-11T09:02:53Z</time>
      </trkpt>
      <trkpt lat="45.63538" lon="6.09912">
        <ele>1226.3</ele>
        <time>2015-02-11T09:02:54Z</time>
      </trkpt>
      <trkpt lat="45.63538" lon="6.09913">
        <ele>1226.8</ele>
        <time>2015-02-11T09:02:55Z</time>
      </trkpt>
      <trkpt lat="45.63538" lon="6.09914">
        <ele>1227.1</ele>
        <time>2015-02-11T09:02:56Z</time>
      </trkpt>
      <trkpt lat="45.63538" lon="6.09915">
        <ele>1227.6</ele>
        <time>2015-02-11T09:02:57Z</time>
      </trkpt>
      <trkpt lat="45.63538" lon="6.09915">
        <ele>1228</ele>
        <time>2015-02-11T09:02:58Z</time>
      </trkpt>
      <trkpt lat="45.63538" lon="6.09916">
        <ele>1228</ele>
        <time>2015-02-11T09:02:59Z</time>
      </trkpt>
      <trkpt lat="45.63538" lon="6.09917">
        <ele>1228.5</ele>
        <time>2015-02-11T09:03:00Z</time>
      </trkpt>
      <trkpt lat="45.63537" lon="6.09917">
        <ele>1228.6</ele>
        <time>2015-02-11T09:03:01Z</time>
      </trkpt>
      <trkpt lat="45.63537" lon="6.09918">
        <ele>1228.8</ele>
        <time>2015-02-11T09:03:02Z</time>
      </trkpt>
      <trkpt lat="45.63537" lon="6.09918">
        <ele>1228.9</ele>
        <time>2015-02-11T09:03:03Z</time>
      </trkpt>
      <trkpt lat="45.63537" lon="6.09919">
        <ele>1229.1</ele>
        <time>2015-02-11T09:03:04Z</time>
      </trkpt>
      <trkpt lat="45.63537" lon="6.09919">
        <ele>1229.3</ele>
        <time>2015-02-11T09:03:05Z</time>
      </trkpt>
      <trkpt lat="45.63537" lon="6.0992">
        <ele>1229.6</ele>
        <time>2015-02-11T09:03:06Z</time>
      </trkpt>
      <trkpt lat="45.63537" lon="6.09921">
        <ele>1229.9</ele>
        <time>2015-02-11T09:03:07Z</time>
      </trkpt>
      <trkpt lat="45.63537" lon="6.09921">
        <ele>1230.1</ele>
        <time>2015-02-11T09:03:08Z</time>
      </trkpt>
      <trkpt lat="45.63538" lon="6.09922">
        <ele>1230.6</ele>
        <time>2015-02-11T09:03:09Z</time>
      </trkpt>
      <trkpt lat="45.63538" lon="6.09923">
        <ele>1230.9</ele>
        <time>2015-02-11T09:03:10Z</time>
      </trkpt>
      <trkpt lat="45.63537" lon="6.09924">
        <ele>1231.2</ele>
        <time>2015-02-11T09:03:11Z</time>
      </trkpt>
      <trkpt lat="45.63538" lon="6.09924">
        <ele>1231.4</ele>
        <time>2015-02-11T09:03:12Z</time>
      </trkpt>
      <trkpt lat="45.63538" lon="6.09925">
        <ele>1231.8</ele>
        <time>2015-02-11T09:03:13Z</time>
      </trkpt>
      <trkpt lat="45.63538" lon="6.09926">
        <ele>1232.2</ele>
        <time>2015-02-11T09:03:14Z</time>
      </trkpt>
      <trkpt lat="45.63538" lon="6.09927">
        <ele>1232.6</ele>
        <time>2015-02-11T09:03:15Z</time>
      </trkpt>
      <trkpt lat="45.63538" lon="6.09928">
        <ele>1232.9</ele>
        <time>2015-02-11T09:03:16Z</time>
      </trkpt>
      <trkpt lat="45.63538" lon="6.09929">
        <ele>1233.2</ele>
        <time>2015-02-11T09:03:17Z</time>
      </trkpt>
      <trkpt lat="45.63538" lon="6.09929">
        <ele>1233.5</ele>
        <time>2015-02-11T09:03:18Z</time>
      </trkpt>
      <trkpt lat="45.63538" lon="6.0993">
        <ele>1233.7</ele>
        <time>2015-02-11T09:03:19Z</time>
      </trkpt>
      <trkpt lat="45.63538" lon="6.09931">
        <ele>1233.9</ele>
        <time>2015-02-11T09:03:20Z</time>
      </trkpt>
      <trkpt lat="45.63538" lon="6.09931">
        <ele>1234.1</ele>
        <time>2015-02-11T09:03:21Z</time>
      </trkpt>
      <trkpt lat="45.63538" lon="6.09932">
        <ele>1234.3</ele>
        <time>2015-02-11T09:03:22Z</time>
      </trkpt>
      <trkpt lat="45.63537" lon="6.09933">
        <ele>1234.4</ele>
        <time>2015-02-11T09:03:23Z</time>
      </trkpt>
      <trkpt lat="45.63536" lon="6.09932">
        <ele>1234.1</ele>
        <time>2015-02-11T09:03:24Z</time>
      </trkpt>
      <trkpt lat="45.63535" lon="6.09933">
        <ele>1233.9</ele>
        <time>2015-02-11T09:03:25Z</time>
      </trkpt>
      <trkpt lat="45.63535" lon="6.09933">
        <ele>1233.7</ele>
        <time>2015-02-11T09:03:26Z</time>
      </trkpt>
      <trkpt lat="45.63534" lon="6.09933">
        <ele>1233.7</ele>
        <time>2015-02-11T09:03:27Z</time>
      </trkpt>
      <trkpt lat="45.63534" lon="6.09934">
        <ele>1233.7</ele>
        <time>2015-02-11T09:03:28Z</time>
      </trkpt>
      <trkpt lat="45.63533" lon="6.09934">
        <ele>1233.9</ele>
        <time>2015-02-11T09:03:29Z</time>
      </trkpt>
      <trkpt lat="45.63533" lon="6.09935">
        <ele>1234</ele>
        <time>2015-02-11T09:03:30Z</time>
      </trkpt>
      <trkpt lat="45.63533" lon="6.09935">
        <ele>1234</ele>
        <time>2015-02-11T09:03:31Z</time>
      </trkpt>
      <trkpt lat="45.63532" lon="6.09936">
        <ele>1234</ele>
        <time>2015-02-11T09:03:32Z</time>
      </trkpt>
      <trkpt lat="45.63532" lon="6.09936">
        <ele>1233.8</ele>
        <time>2015-02-11T09:03:33Z</time>
      </trkpt>
      <trkpt lat="45.63531" lon="6.09936">
        <ele>1233.6</ele>
        <time>2015-02-11T09:03:34Z</time>
      </trkpt>
      <trkpt lat="45.63531" lon="6.09936">
        <ele>1233.5</ele>
        <time>2015-02-11T09:03:35Z</time>
      </trkpt>
      <trkpt lat="45.63531" lon="6.09936">
        <ele>1233.5</ele>
        <time>2015-02-11T09:03:36Z</time>
      </trkpt>
      <trkpt lat="45.6353" lon="6.09936">
        <ele>1233.6</ele>
        <time>2015-02-11T09:03:37Z</time>
      </trkpt>
      <trkpt lat="45.6353" lon="6.09936">
        <ele>1233.5</ele>
        <time>2015-02-11T09:03:38Z</time>
      </trkpt>
      <trkpt lat="45.6353" lon="6.09937">
        <ele>1233.8</ele>
        <time>2015-02-11T09:03:39Z</time>
      </trkpt>
      <trkpt lat="45.6353" lon="6.09937">
        <ele>1233.8</ele>
        <time>2015-02-11T09:03:40Z</time>
      </trkpt>
      <trkpt lat="45.63529" lon="6.09938">
        <ele>1233.9</ele>
        <time>2015-02-11T09:03:41Z</time>
      </trkpt>
      <trkpt lat="45.63529" lon="6.09939">
        <ele>1234</ele>
        <time>2015-02-11T09:03:42Z</time>
      </trkpt>
      <trkpt lat="45.63529" lon="6.09939">
        <ele>1234</ele>
        <time>2015-02-11T09:03:43Z</time>
      </trkpt>
      <trkpt lat="45.63528" lon="6.09939">
        <ele>1234.1</ele>
        <time>2015-02-11T09:03:44Z</time>
      </trkpt>
      <trkpt lat="45.63528" lon="6.0994">
        <ele>1234.2</ele>
        <time>2015-02-11T09:03:45Z</time>
      </trkpt>
      <trkpt lat="45.63529" lon="6.09941">
        <ele>1234.7</ele>
        <time>2015-02-11T09:03:46Z</time>
      </trkpt>
      <trkpt lat="45.63528" lon="6.09941">
        <ele>1234.8</ele>
        <time>2015-02-11T09:03:47Z</time>
      </trkpt>
      <trkpt lat="45.63528" lon="6.09942">
        <ele>1235.1</ele>
        <time>2015-02-11T09:03:48Z</time>
      </trkpt>
      <trkpt lat="45.63528" lon="6.09942">
        <ele>1235.3</ele>
        <time>2015-02-11T09:03:49Z</time>
      </trkpt>
      <trkpt lat="45.63528" lon="6.09943">
        <ele>1235.5</ele>
        <time>2015-02-11T09:03:50Z</time>
      </trkpt>
      <trkpt lat="45.63528" lon="6.09943">
        <ele>1235.6</ele>
        <time>2015-02-11T09:03:51Z</time>
      </trkpt>
      <trkpt lat="45.63528" lon="6.09943">
        <ele>1235.6</ele>
        <time>2015-02-11T09:03:52Z</time>
      </trkpt>
      <trkpt lat="45.63528" lon="6.09943">
        <ele>1235.7</ele>
        <time>2015-02-11T09:03:53Z</time>
      </trkpt>
      <trkpt lat="45.63528" lon="6.09944">
        <ele>1235.8</ele>
        <time>2015-02-11T09:03:54Z</time>
      </trkpt>
      <trkpt lat="45.63528" lon="6.09944">
        <ele>1235.9</ele>
        <time>2015-02-11T09:03:55Z</time>
      </trkpt>
      <trkpt lat="45.63528" lon="6.09945">
        <ele>1236.1</ele>
        <time>2015-02-11T09:03:56Z</time>
      </trkpt>
      <trkpt lat="45.63527" lon="6.09945">
        <ele>1236.4</ele>
        <time>2015-02-11T09:03:57Z</time>
      </trkpt>
      <trkpt lat="45.63527" lon="6.09946">
        <ele>1236.8</ele>
        <time>2015-02-11T09:03:58Z</time>
      </trkpt>
      <trkpt lat="45.63527" lon="6.09946">
        <ele>1236.8</ele>
        <time>2015-02-11T09:03:59Z</time>
      </trkpt>
      <trkpt lat="45.63528" lon="6.09947">
        <ele>1236.8</ele>
        <time>2015-02-11T09:04:00Z</time>
      </trkpt>
      <trkpt lat="45.63528" lon="6.09947">
        <ele>1237.2</ele>
        <time>2015-02-11T09:04:01Z</time>
      </trkpt>
      <trkpt lat="45.63529" lon="6.09948">
        <ele>1237.5</ele>
        <time>2015-02-11T09:04:02Z</time>
      </trkpt>
      <trkpt lat="45.63529" lon="6.09948">
        <ele>1237.9</ele>
        <time>2015-02-11T09:04:03Z</time>
      </trkpt>
      <trkpt lat="45.6353" lon="6.09948">
        <ele>1238</ele>
        <time>2015-02-11T09:04:04Z</time>
      </trkpt>
      <trkpt lat="45.6353" lon="6.09949">
        <ele>1238.3</ele>
        <time>2015-02-11T09:04:05Z</time>
      </trkpt>
      <trkpt lat="45.6353" lon="6.09949">
        <ele>1238.7</ele>
        <time>2015-02-11T09:04:06Z</time>
      </trkpt>
      <trkpt lat="45.63531" lon="6.0995">
        <ele>1239</ele>
        <time>2015-02-11T09:04:07Z</time>
      </trkpt>
      <trkpt lat="45.63531" lon="6.09951">
        <ele>1239.4</ele>
        <time>2015-02-11T09:04:08Z</time>
      </trkpt>
      <trkpt lat="45.63531" lon="6.09951">
        <ele>1239.5</ele>
        <time>2015-02-11T09:04:09Z</time>
      </trkpt>
      <trkpt lat="45.63531" lon="6.09952">
        <ele>1239.8</ele>
        <time>2015-02-11T09:04:10Z</time>
      </trkpt>
      <trkpt lat="45.63531" lon="6.09953">
        <ele>1240.2</ele>
        <time>2015-02-11T09:04:11Z</time>
      </trkpt>
      <trkpt lat="45.63531" lon="6.09954">
        <ele>1240.6</ele>
        <time>2015-02-11T09:04:12Z</time>
      </trkpt>
      <trkpt lat="45.63531" lon="6.09955">
        <ele>1241.2</ele>
        <time>2015-02-11T09:04:13Z</time>
      </trkpt>
      <trkpt lat="45.63531" lon="6.09955">
        <ele>1241.3</ele>
        <time>2015-02-11T09:04:14Z</time>
      </trkpt>
      <trkpt lat="45.63531" lon="6.09956">
        <ele>1241.4</ele>
        <time>2015-02-11T09:04:15Z</time>
      </trkpt>
      <trkpt lat="45.63531" lon="6.09956">
        <ele>1241.4</ele>
        <time>2015-02-11T09:04:16Z</time>
      </trkpt>
      <trkpt lat="45.63531" lon="6.09956">
        <ele>1241.5</ele>
        <time>2015-02-11T09:04:17Z</time>
      </trkpt>
      <trkpt lat="45.63532" lon="6.09957">
        <ele>1242.1</ele>
        <time>2015-02-11T09:04:18Z</time>
      </trkpt>
      <trkpt lat="45.63532" lon="6.09958">
        <ele>1242.5</ele>
        <time>2015-02-11T09:04:19Z</time>
      </trkpt>
      <trkpt lat="45.63532" lon="6.09958">
        <ele>1242.6</ele>
        <time>2015-02-11T09:04:20Z</time>
      </trkpt>
      <trkpt lat="45.63532" lon="6.09959">
        <ele>1243</ele>
        <time>2015-02-11T09:04:21Z</time>
      </trkpt>
      <trkpt lat="45.63532" lon="6.09959">
        <ele>1243.1</ele>
        <time>2015-02-11T09:04:22Z</time>
      </trkpt>
      <trkpt lat="45.63532" lon="6.0996">
        <ele>1243.2</ele>
        <time>2015-02-11T09:04:23Z</time>
      </trkpt>
      <trkpt lat="45.63532" lon="6.0996">
        <ele>1243.4</ele>
        <time>2015-02-11T09:04:24Z</time>
      </trkpt>
      <trkpt lat="45.63532" lon="6.0996">
        <ele>1243.5</ele>
        <time>2015-02-11T09:04:25Z</time>
      </trkpt>
      <trkpt lat="45.63533" lon="6.0996">
        <ele>1243.7</ele>
        <time>2015-02-11T09:04:26Z</time>
      </trkpt>
      <trkpt lat="45.63533" lon="6.0996">
        <ele>1243.8</ele>
        <time>2015-02-11T09:04:27Z</time>
      </trkpt>
      <trkpt lat="45.63534" lon="6.09961">
        <ele>1244</ele>
        <time>2015-02-11T09:04:28Z</time>
      </trkpt>
      <trkpt lat="45.63534" lon="6.09961">
        <ele>1244.2</ele>
        <time>2015-02-11T09:04:29Z</time>
      </trkpt>
      <trkpt lat="45.63534" lon="6.09961">
        <ele>1244.1</ele>
        <time>2015-02-11T09:04:30Z</time>
      </trkpt>
      <trkpt lat="45.63534" lon="6.09961">
        <ele>1244.3</ele>
        <time>2015-02-11T09:04:31Z</time>
      </trkpt>
      <trkpt lat="45.63535" lon="6.09961">
        <ele>1244.4</ele>
        <time>2015-02-11T09:04:32Z</time>
      </trkpt>
      <trkpt lat="45.63535" lon="6.09961">
        <ele>1244.4</ele>
        <time>2015-02-11T09:04:33Z</time>
      </trkpt>
      <trkpt lat="45.63536" lon="6.0996">
        <ele>1244.5</ele>
        <time>2015-02-11T09:04:34Z</time>
      </trkpt>
      <trkpt lat="45.63536" lon="6.0996">
        <ele>1244.6</ele>
        <time>2015-02-11T09:04:35Z</time>
      </trkpt>
      <trkpt lat="45.63537" lon="6.0996">
        <ele>1244.7</ele>
        <time>2015-02-11T09:04:36Z</time>
      </trkpt>
      <trkpt lat="45.63538" lon="6.0996">
        <ele>1244.8</ele>
        <time>2015-02-11T09:04:37Z</time>
      </trkpt>
      <trkpt lat="45.63538" lon="6.0996">
        <ele>1244.9</ele>
        <time>2015-02-11T09:04:38Z</time>
      </trkpt>
      <trkpt lat="45.63539" lon="6.09959">
        <ele>1245</ele>
        <time>2015-02-11T09:04:39Z</time>
      </trkpt>
      <trkpt lat="45.6354" lon="6.09959">
        <ele>1245.2</ele>
        <time>2015-02-11T09:04:40Z</time>
      </trkpt>
      <trkpt lat="45.6354" lon="6.0996">
        <ele>1245.5</ele>
        <time>2015-02-11T09:04:41Z</time>
      </trkpt>
      <trkpt lat="45.63541" lon="6.0996">
        <ele>1246</ele>
        <time>2015-02-11T09:04:42Z</time>
      </trkpt>
      <trkpt lat="45.63541" lon="6.09961">
        <ele>1246.2</ele>
        <time>2015-02-11T09:04:43Z</time>
      </trkpt>
      <trkpt lat="45.63542" lon="6.09961">
        <ele>1246.4</ele>
        <time>2015-02-11T09:04:44Z</time>
      </trkpt>
      <trkpt lat="45.63542" lon="6.09961">
        <ele>1246.5</ele>
        <time>2015-02-11T09:04:45Z</time>
      </trkpt>
      <trkpt lat="45.63542" lon="6.09961">
        <ele>1246.5</ele>
        <time>2015-02-11T09:04:46Z</time>
      </trkpt>
      <trkpt lat="45.63543" lon="6.09961">
        <ele>1246.6</ele>
        <time>2015-02-11T09:04:47Z</time>
      </trkpt>
      <trkpt lat="45.63543" lon="6.09961">
        <ele>1246.6</ele>
        <time>2015-02-11T09:04:48Z</time>
      </trkpt>
      <trkpt lat="45.63543" lon="6.09961">
        <ele>1246.7</ele>
        <time>2015-02-11T09:04:49Z</time>
      </trkpt>
      <trkpt lat="45.63544" lon="6.09961">
        <ele>1247</ele>
        <time>2015-02-11T09:04:50Z</time>
      </trkpt>
      <trkpt lat="45.63545" lon="6.09961">
        <ele>1247.2</ele>
        <time>2015-02-11T09:04:51Z</time>
      </trkpt>
      <trkpt lat="45.63545" lon="6.09961">
        <ele>1247.4</ele>
        <time>2015-02-11T09:04:52Z</time>
      </trkpt>
      <trkpt lat="45.63546" lon="6.0996">
        <ele>1247.5</ele>
        <time>2015-02-11T09:04:53Z</time>
      </trkpt>
      <trkpt lat="45.63547" lon="6.0996">
        <ele>1247.5</ele>
        <time>2015-02-11T09:04:54Z</time>
      </trkpt>
      <trkpt lat="45.63547" lon="6.0996">
        <ele>1247.6</ele>
        <time>2015-02-11T09:04:55Z</time>
      </trkpt>
      <trkpt lat="45.63548" lon="6.09959">
        <ele>1247.6</ele>
        <time>2015-02-11T09:04:56Z</time>
      </trkpt>
      <trkpt lat="45.63549" lon="6.09959">
        <ele>1247.6</ele>
        <time>2015-02-11T09:04:57Z</time>
      </trkpt>
      <trkpt lat="45.63549" lon="6.09958">
        <ele>1247.6</ele>
        <time>2015-02-11T09:04:58Z</time>
      </trkpt>
      <trkpt lat="45.6355" lon="6.09958">
        <ele>1247.5</ele>
        <time>2015-02-11T09:04:59Z</time>
      </trkpt>
      <trkpt lat="45.6355" lon="6.09957">
        <ele>1247.5</ele>
        <time>2015-02-11T09:05:00Z</time>
      </trkpt>
      <trkpt lat="45.6355" lon="6.09957">
        <ele>1247.4</ele>
        <time>2015-02-11T09:05:01Z</time>
      </trkpt>
      <trkpt lat="45.63551" lon="6.09956">
        <ele>1247.5</ele>
        <time>2015-02-11T09:05:02Z</time>
      </trkpt>
      <trkpt lat="45.63551" lon="6.09956">
        <ele>1247.6</ele>
        <time>2015-02-11T09:05:03Z</time>
      </trkpt>
      <trkpt lat="45.63552" lon="6.09956">
        <ele>1247.5</ele>
        <time>2015-02-11T09:05:04Z</time>
      </trkpt>
      <trkpt lat="45.63552" lon="6.09956">
        <ele>1247.6</ele>
        <time>2015-02-11T09:05:05Z</time>
      </trkpt>
      <trkpt lat="45.63552" lon="6.09956">
        <ele>1247.6</ele>
        <time>2015-02-11T09:05:06Z</time>
      </trkpt>
      <trkpt lat="45.63553" lon="6.09956">
        <ele>1247.8</ele>
        <time>2015-02-11T09:05:07Z</time>
      </trkpt>
      <trkpt lat="45.63553" lon="6.09955">
        <ele>1247.8</ele>
        <time>2015-02-11T09:05:08Z</time>
      </trkpt>
      <trkpt lat="45.63554" lon="6.09955">
        <ele>1247.9</ele>
        <time>2015-02-11T09:05:09Z</time>
      </trkpt>
      <trkpt lat="45.63554" lon="6.09954">
        <ele>1247.8</ele>
        <time>2015-02-11T09:05:10Z</time>
      </trkpt>
      <trkpt lat="45.63555" lon="6.09954">
        <ele>1247.8</ele>
        <time>2015-02-11T09:05:11Z</time>
      </trkpt>
      <trkpt lat="45.63555" lon="6.09954">
        <ele>1247.9</ele>
        <time>2015-02-11T09:05:12Z</time>
      </trkpt>
      <trkpt lat="45.63555" lon="6.09954">
        <ele>1248</ele>
        <time>2015-02-11T09:05:13Z</time>
      </trkpt>
      <trkpt lat="45.63556" lon="6.09954">
        <ele>1248.1</ele>
        <time>2015-02-11T09:05:14Z</time>
      </trkpt>
      <trkpt lat="45.63556" lon="6.09953">
        <ele>1248.2</ele>
        <time>2015-02-11T09:05:15Z</time>
      </trkpt>
      <trkpt lat="45.63557" lon="6.09953">
        <ele>1248.3</ele>
        <time>2015-02-11T09:05:16Z</time>
      </trkpt>
      <trkpt lat="45.63557" lon="6.09952">
        <ele>1248.1</ele>
        <time>2015-02-11T09:05:17Z</time>
      </trkpt>
      <trkpt lat="45.63557" lon="6.09952">
        <ele>1248.1</ele>
        <time>2015-02-11T09:05:18Z</time>
      </trkpt>
      <trkpt lat="45.63557" lon="6.09951">
        <ele>1248.2</ele>
        <time>2015-02-11T09:05:19Z</time>
      </trkpt>
      <trkpt lat="45.63557" lon="6.09951">
        <ele>1248.3</ele>
        <time>2015-02-11T09:05:20Z</time>
      </trkpt>
      <trkpt lat="45.63558" lon="6.09951">
        <ele>1248.4</ele>
        <time>2015-02-11T09:05:21Z</time>
      </trkpt>
      <trkpt lat="45.63558" lon="6.09951">
        <ele>1248.6</ele>
        <time>2015-02-11T09:05:22Z</time>
      </trkpt>
      <trkpt lat="45.63558" lon="6.09951">
        <ele>1248.8</ele>
        <time>2015-02-11T09:05:23Z</time>
      </trkpt>
      <trkpt lat="45.63559" lon="6.09951">
        <ele>1249.1</ele>
        <time>2015-02-11T09:05:24Z</time>
      </trkpt>
      <trkpt lat="45.6356" lon="6.0995">
        <ele>1249.3</ele>
        <time>2015-02-11T09:05:25Z</time>
      </trkpt>
      <trkpt lat="45.6356" lon="6.0995">
        <ele>1249.5</ele>
        <time>2015-02-11T09:05:26Z</time>
      </trkpt>
      <trkpt lat="45.6356" lon="6.0995">
        <ele>1249.6</ele>
        <time>2015-02-11T09:05:27Z</time>
      </trkpt>
      <trkpt lat="45.63561" lon="6.0995">
        <ele>1250.1</ele>
        <time>2015-02-11T09:05:28Z</time>
      </trkpt>
      <trkpt lat="45.63561" lon="6.0995">
        <ele>1250.4</ele>
        <time>2015-02-11T09:05:29Z</time>
      </trkpt>
      <trkpt lat="45.63562" lon="6.0995">
        <ele>1250.7</ele>
        <time>2015-02-11T09:05:30Z</time>
      </trkpt>
      <trkpt lat="45.63563" lon="6.09951">
        <ele>1251.2</ele>
        <time>2015-02-11T09:05:31Z</time>
      </trkpt>
      <trkpt lat="45.63563" lon="6.09951">
        <ele>1251.5</ele>
        <time>2015-02-11T09:05:32Z</time>
      </trkpt>
      <trkpt lat="45.63564" lon="6.09951">
        <ele>1251.9</ele>
        <time>2015-02-11T09:05:33Z</time>
      </trkpt>
      <trkpt lat="45.63564" lon="6.09951">
        <ele>1252.3</ele>
        <time>2015-02-11T09:05:34Z</time>
      </trkpt>
      <trkpt lat="45.63565" lon="6.09952">
        <ele>1252.7</ele>
        <time>2015-02-11T09:05:35Z</time>
      </trkpt>
      <trkpt lat="45.63566" lon="6.09952">
        <ele>1253.3</ele>
        <time>2015-02-11T09:05:36Z</time>
      </trkpt>
      <trkpt lat="45.63566" lon="6.09952">
        <ele>1253.8</ele>
        <time>2015-02-11T09:05:37Z</time>
      </trkpt>
      <trkpt lat="45.63567" lon="6.09953">
        <ele>1254.1</ele>
        <time>2015-02-11T09:05:38Z</time>
      </trkpt>
      <trkpt lat="45.63567" lon="6.09953">
        <ele>1254.5</ele>
        <time>2015-02-11T09:05:39Z</time>
      </trkpt>
      <trkpt lat="45.63567" lon="6.09953">
        <ele>1254.4</ele>
        <time>2015-02-11T09:05:40Z</time>
      </trkpt>
      <trkpt lat="45.63567" lon="6.09953">
        <ele>1254.7</ele>
        <time>2015-02-11T09:05:41Z</time>
      </trkpt>
      <trkpt lat="45.63568" lon="6.09953">
        <ele>1254.9</ele>
        <time>2015-02-11T09:05:42Z</time>
      </trkpt>
      <trkpt lat="45.63568" lon="6.09953">
        <ele>1254.9</ele>
        <time>2015-02-11T09:05:43Z</time>
      </trkpt>
      <trkpt lat="45.63568" lon="6.09953">
        <ele>1255.1</ele>
        <time>2015-02-11T09:05:44Z</time>
      </trkpt>
      <trkpt lat="45.63568" lon="6.09953">
        <ele>1255.3</ele>
        <time>2015-02-11T09:05:45Z</time>
      </trkpt>
      <trkpt lat="45.63569" lon="6.09953">
        <ele>1255.8</ele>
        <time>2015-02-11T09:05:46Z</time>
      </trkpt>
      <trkpt lat="45.63569" lon="6.09953">
        <ele>1255.9</ele>
        <time>2015-02-11T09:05:47Z</time>
      </trkpt>
      <trkpt lat="45.6357" lon="6.09953">
        <ele>1256</ele>
        <time>2015-02-11T09:05:48Z</time>
      </trkpt>
      <trkpt lat="45.6357" lon="6.09953">
        <ele>1256.1</ele>
        <time>2015-02-11T09:05:49Z</time>
      </trkpt>
      <trkpt lat="45.6357" lon="6.09953">
        <ele>1256.1</ele>
        <time>2015-02-11T09:05:50Z</time>
      </trkpt>
      <trkpt lat="45.6357" lon="6.09953">
        <ele>1256</ele>
        <time>2015-02-11T09:05:51Z</time>
      </trkpt>
      <trkpt lat="45.6357" lon="6.09952">
        <ele>1255.9</ele>
        <time>2015-02-11T09:05:52Z</time>
      </trkpt>
      <trkpt lat="45.6357" lon="6.09952">
        <ele>1255.9</ele>
        <time>2015-02-11T09:05:53Z</time>
      </trkpt>
      <trkpt lat="45.6357" lon="6.09952">
        <ele>1256</ele>
        <time>2015-02-11T09:05:54Z</time>
      </trkpt>
      <trkpt lat="45.6357" lon="6.09952">
        <ele>1256.1</ele>
        <time>2015-02-11T09:05:55Z</time>
      </trkpt>
      <trkpt lat="45.6357" lon="6.09951">
        <ele>1256</ele>
        <time>2015-02-11T09:05:56Z</time>
      </trkpt>
      <trkpt lat="45.63571" lon="6.09951">
        <ele>1256.3</ele>
        <time>2015-02-11T09:05:57Z</time>
      </trkpt>
      <trkpt lat="45.63572" lon="6.09951">
        <ele>1256.7</ele>
        <time>2015-02-11T09:05:58Z</time>
      </trkpt>
      <trkpt lat="45.63573" lon="6.0995">
        <ele>1257</ele>
        <time>2015-02-11T09:05:59Z</time>
      </trkpt>
      <trkpt lat="45.63573" lon="6.0995">
        <ele>1257.5</ele>
        <time>2015-02-11T09:06:00Z</time>
      </trkpt>
      <trkpt lat="45.63574" lon="6.0995">
        <ele>1257.9</ele>
        <time>2015-02-11T09:06:01Z</time>
      </trkpt>
      <trkpt lat="45.63574" lon="6.0995">
        <ele>1257.8</ele>
        <time>2015-02-11T09:06:02Z</time>
      </trkpt>
      <trkpt lat="45.63575" lon="6.0995">
        <ele>1258.3</ele>
        <time>2015-02-11T09:06:03Z</time>
      </trkpt>
      <trkpt lat="45.63575" lon="6.0995">
        <ele>1258.5</ele>
        <time>2015-02-11T09:06:04Z</time>
      </trkpt>
      <trkpt lat="45.63575" lon="6.0995">
        <ele>1258.3</ele>
        <time>2015-02-11T09:06:05Z</time>
      </trkpt>
      <trkpt lat="45.63575" lon="6.09949">
        <ele>1258.4</ele>
        <time>2015-02-11T09:06:06Z</time>
      </trkpt>
      <trkpt lat="45.63575" lon="6.09949">
        <ele>1258.3</ele>
        <time>2015-02-11T09:06:07Z</time>
      </trkpt>
      <trkpt lat="45.63575" lon="6.09949">
        <ele>1258.5</ele>
        <time>2015-02-11T09:06:08Z</time>
      </trkpt>
      <trkpt lat="45.63576" lon="6.09949">
        <ele>1258.6</ele>
        <time>2015-02-11T09:06:09Z</time>
      </trkpt>
      <trkpt lat="45.63576" lon="6.09949">
        <ele>1258.9</ele>
        <time>2015-02-11T09:06:10Z</time>
      </trkpt>
      <trkpt lat="45.63576" lon="6.09949">
        <ele>1259</ele>
        <time>2015-02-11T09:06:11Z</time>
      </trkpt>
      <trkpt lat="45.63577" lon="6.09949">
        <ele>1259.1</ele>
        <time>2015-02-11T09:06:12Z</time>
      </trkpt>
      <trkpt lat="45.63577" lon="6.09949">
        <ele>1259.2</ele>
        <time>2015-02-11T09:06:13Z</time>
      </trkpt>
      <trkpt lat="45.63577" lon="6.09949">
        <ele>1259.6</ele>
        <time>2015-02-11T09:06:14Z</time>
      </trkpt>
      <trkpt lat="45.63578" lon="6.09949">
        <ele>1260</ele>
        <time>2015-02-11T09:06:15Z</time>
      </trkpt>
      <trkpt lat="45.63579" lon="6.09949">
        <ele>1260.3</ele>
        <time>2015-02-11T09:06:16Z</time>
      </trkpt>
      <trkpt lat="45.63579" lon="6.09948">
        <ele>1260.3</ele>
        <time>2015-02-11T09:06:17Z</time>
      </trkpt>
      <trkpt lat="45.63579" lon="6.09949">
        <ele>1260.7</ele>
        <time>2015-02-11T09:06:18Z</time>
      </trkpt>
      <trkpt lat="45.6358" lon="6.09948">
        <ele>1261</ele>
        <time>2015-02-11T09:06:19Z</time>
      </trkpt>
      <trkpt lat="45.63581" lon="6.09948">
        <ele>1261.4</ele>
        <time>2015-02-11T09:06:20Z</time>
      </trkpt>
      <trkpt lat="45.63581" lon="6.09948">
        <ele>1261.6</ele>
        <time>2015-02-11T09:06:21Z</time>
      </trkpt>
      <trkpt lat="45.63582" lon="6.09948">
        <ele>1262</ele>
        <time>2015-02-11T09:06:22Z</time>
      </trkpt>
      <trkpt lat="45.63583" lon="6.09947">
        <ele>1262.3</ele>
        <time>2015-02-11T09:06:23Z</time>
      </trkpt>
      <trkpt lat="45.63583" lon="6.09946">
        <ele>1262.5</ele>
        <time>2015-02-11T09:06:24Z</time>
      </trkpt>
      <trkpt lat="45.63584" lon="6.09946">
        <ele>1262.5</ele>
        <time>2015-02-11T09:06:25Z</time>
      </trkpt>
      <trkpt lat="45.63584" lon="6.09946">
        <ele>1262.6</ele>
        <time>2015-02-11T09:06:26Z</time>
      </trkpt>
      <trkpt lat="45.63585" lon="6.09946">
        <ele>1262.8</ele>
        <time>2015-02-11T09:06:27Z</time>
      </trkpt>
      <trkpt lat="45.63585" lon="6.09946">
        <ele>1262.9</ele>
        <time>2015-02-11T09:06:28Z</time>
      </trkpt>
      <trkpt lat="45.63586" lon="6.09947">
        <ele>1263.1</ele>
        <time>2015-02-11T09:06:29Z</time>
      </trkpt>
      <trkpt lat="45.63586" lon="6.09947">
        <ele>1263.2</ele>
        <time>2015-02-11T09:06:30Z</time>
      </trkpt>
      <trkpt lat="45.63587" lon="6.09947">
        <ele>1263.4</ele>
        <time>2015-02-11T09:06:31Z</time>
      </trkpt>
      <trkpt lat="45.63587" lon="6.09947">
        <ele>1263.5</ele>
        <time>2015-02-11T09:06:32Z</time>
      </trkpt>
      <trkpt lat="45.63588" lon="6.09947">
        <ele>1263.6</ele>
        <time>2015-02-11T09:06:33Z</time>
      </trkpt>
      <trkpt lat="45.63588" lon="6.09947">
        <ele>1263.6</ele>
        <time>2015-02-11T09:06:34Z</time>
      </trkpt>
      <trkpt lat="45.63588" lon="6.09947">
        <ele>1263.8</ele>
        <time>2015-02-11T09:06:35Z</time>
      </trkpt>
      <trkpt lat="45.63589" lon="6.09947">
        <ele>1263.8</ele>
        <time>2015-02-11T09:06:36Z</time>
      </trkpt>
      <trkpt lat="45.63589" lon="6.09947">
        <ele>1264</ele>
        <time>2015-02-11T09:06:37Z</time>
      </trkpt>
      <trkpt lat="45.63589" lon="6.09947">
        <ele>1264</ele>
        <time>2015-02-11T09:06:38Z</time>
      </trkpt>
      <trkpt lat="45.63589" lon="6.09948">
        <ele>1264.1</ele>
        <time>2015-02-11T09:06:39Z</time>
      </trkpt>
      <trkpt lat="45.6359" lon="6.09948">
        <ele>1264.2</ele>
        <time>2015-02-11T09:06:40Z</time>
      </trkpt>
      <trkpt lat="45.6359" lon="6.09948">
        <ele>1264.4</ele>
        <time>2015-02-11T09:06:41Z</time>
      </trkpt>
      <trkpt lat="45.6359" lon="6.09948">
        <ele>1264.4</ele>
        <time>2015-02-11T09:06:42Z</time>
      </trkpt>
      <trkpt lat="45.6359" lon="6.09948">
        <ele>1264.4</ele>
        <time>2015-02-11T09:06:43Z</time>
      </trkpt>
      <trkpt lat="45.63591" lon="6.09948">
        <ele>1264.5</ele>
        <time>2015-02-11T09:06:44Z</time>
      </trkpt>
      <trkpt lat="45.63591" lon="6.09948">
        <ele>1264.5</ele>
        <time>2015-02-11T09:06:45Z</time>
      </trkpt>
      <trkpt lat="45.63591" lon="6.09948">
        <ele>1264.5</ele>
        <time>2015-02-11T09:06:46Z</time>
      </trkpt>
      <trkpt lat="45.63591" lon="6.09948">
        <ele>1264.5</ele>
        <time>2015-02-11T09:06:47Z</time>
      </trkpt>
      <trkpt lat="45.63591" lon="6.09948">
        <ele>1264.5</ele>
        <time>2015-02-11T09:06:48Z</time>
      </trkpt>
      <trkpt lat="45.63591" lon="6.09948">
        <ele>1264.6</ele>
        <time>2015-02-11T09:06:49Z</time>
      </trkpt>
      <trkpt lat="45.63591" lon="6.09948">
        <ele>1264.7</ele>
        <time>2015-02-11T09:06:50Z</time>
      </trkpt>
      <trkpt lat="45.63591" lon="6.09948">
        <ele>1264.7</ele>
        <time>2015-02-11T09:06:51Z</time>
      </trkpt>
      <trkpt lat="45.63592" lon="6.09948">
        <ele>1264.8</ele>
        <time>2015-02-11T09:06:52Z</time>
      </trkpt>
      <trkpt lat="45.63592" lon="6.09948">
        <ele>1264.8</ele>
        <time>2015-02-11T09:06:53Z</time>
      </trkpt>
      <trkpt lat="45.63592" lon="6.09948">
        <ele>1264.8</ele>
        <time>2015-02-11T09:06:54Z</time>
      </trkpt>
      <trkpt lat="45.63592" lon="6.09948">
        <ele>1264.8</ele>
        <time>2015-02-11T09:06:55Z</time>
      </trkpt>
      <trkpt lat="45.63592" lon="6.09948">
        <ele>1264.8</ele>
        <time>2015-02-11T09:06:56Z</time>
      </trkpt>
      <trkpt lat="45.63592" lon="6.09948">
        <ele>1264.7</ele>
        <time>2015-02-11T09:06:57Z</time>
      </trkpt>
      <trkpt lat="45.63592" lon="6.09948">
        <ele>1264.8</ele>
        <time>2015-02-11T09:06:58Z</time>
      </trkpt>
      <trkpt lat="45.63592" lon="6.09948">
        <ele>1264.8</ele>
        <time>2015-02-11T09:06:59Z</time>
      </trkpt>
      <trkpt lat="45.63592" lon="6.09948">
        <ele>1264.8</ele>
        <time>2015-02-11T09:07:00Z</time>
      </trkpt>
      <trkpt lat="45.63592" lon="6.09948">
        <ele>1264.8</ele>
        <time>2015-02-11T09:07:01Z</time>
      </trkpt>
      <trkpt lat="45.63593" lon="6.09948">
        <ele>1265.1</ele>
        <time>2015-02-11T09:07:02Z</time>
      </trkpt>
      <trkpt lat="45.63593" lon="6.09949">
        <ele>1265.2</ele>
        <time>2015-02-11T09:07:03Z</time>
      </trkpt>
      <trkpt lat="45.63593" lon="6.09949">
        <ele>1265.4</ele>
        <time>2015-02-11T09:07:04Z</time>
      </trkpt>
      <trkpt lat="45.63593" lon="6.0995">
        <ele>1265.6</ele>
        <time>2015-02-11T09:07:05Z</time>
      </trkpt>
      <trkpt lat="45.63593" lon="6.0995">
        <ele>1265.7</ele>
        <time>2015-02-11T09:07:06Z</time>
      </trkpt>
      <trkpt lat="45.63594" lon="6.09951">
        <ele>1265.9</ele>
        <time>2015-02-11T09:07:07Z</time>
      </trkpt>
      <trkpt lat="45.63594" lon="6.09951">
        <ele>1266.1</ele>
        <time>2015-02-11T09:07:08Z</time>
      </trkpt>
      <trkpt lat="45.63594" lon="6.09952">
        <ele>1266.4</ele>
        <time>2015-02-11T09:07:09Z</time>
      </trkpt>
      <trkpt lat="45.63594" lon="6.09953">
        <ele>1266.6</ele>
        <time>2015-02-11T09:07:10Z</time>
      </trkpt>
      <trkpt lat="45.63594" lon="6.09954">
        <ele>1266.8</ele>
        <time>2015-02-11T09:07:11Z</time>
      </trkpt>
      <trkpt lat="45.63594" lon="6.09954">
        <ele>1267</ele>
        <time>2015-02-11T09:07:12Z</time>
      </trkpt>
      <trkpt lat="45.63594" lon="6.09955">
        <ele>1267.2</ele>
        <time>2015-02-11T09:07:13Z</time>
      </trkpt>
      <trkpt lat="45.63594" lon="6.09955">
        <ele>1267.4</ele>
        <time>2015-02-11T09:07:14Z</time>
      </trkpt>
      <trkpt lat="45.63594" lon="6.09956">
        <ele>1267.6</ele>
        <time>2015-02-11T09:07:15Z</time>
      </trkpt>
      <trkpt lat="45.63594" lon="6.09957">
        <ele>1267.8</ele>
        <time>2015-02-11T09:07:16Z</time>
      </trkpt>
      <trkpt lat="45.63594" lon="6.09958">
        <ele>1268</ele>
        <time>2015-02-11T09:07:17Z</time>
      </trkpt>
      <trkpt lat="45.63594" lon="6.09958">
        <ele>1268.1</ele>
        <time>2015-02-11T09:07:18Z</time>
      </trkpt>
      <trkpt lat="45.63594" lon="6.09959">
        <ele>1268.2</ele>
        <time>2015-02-11T09:07:19Z</time>
      </trkpt>
      <trkpt lat="45.63594" lon="6.09959">
        <ele>1268.4</ele>
        <time>2015-02-11T09:07:20Z</time>
      </trkpt>
      <trkpt lat="45.63593" lon="6.09959">
        <ele>1268.2</ele>
        <time>2015-02-11T09:07:21Z</time>
      </trkpt>
      <trkpt lat="45.63593" lon="6.09959">
        <ele>1268.3</ele>
        <time>2015-02-11T09:07:22Z</time>
      </trkpt>
      <trkpt lat="45.63593" lon="6.0996">
        <ele>1268.4</ele>
        <time>2015-02-11T09:07:23Z</time>
      </trkpt>
      <trkpt lat="45.63594" lon="6.0996">
        <ele>1268.6</ele>
        <time>2015-02-11T09:07:24Z</time>
      </trkpt>
      <trkpt lat="45.63594" lon="6.09961">
        <ele>1268.8</ele>
        <time>2015-02-11T09:07:25Z</time>
      </trkpt>
      <trkpt lat="45.63594" lon="6.09961">
        <ele>1269</ele>
        <time>2015-02-11T09:07:26Z</time>
      </trkpt>
      <trkpt lat="45.63594" lon="6.09962">
        <ele>1269</ele>
        <time>2015-02-11T09:07:27Z</time>
      </trkpt>
      <trkpt lat="45.63594" lon="6.09963">
        <ele>1269.4</ele>
        <time>2015-02-11T09:07:28Z</time>
      </trkpt>
      <trkpt lat="45.63594" lon="6.09963">
        <ele>1269.4</ele>
        <time>2015-02-11T09:07:29Z</time>
      </trkpt>
      <trkpt lat="45.63593" lon="6.09964">
        <ele>1269.6</ele>
        <time>2015-02-11T09:07:30Z</time>
      </trkpt>
      <trkpt lat="45.63593" lon="6.09965">
        <ele>1269.8</ele>
        <time>2015-02-11T09:07:31Z</time>
      </trkpt>
      <trkpt lat="45.63593" lon="6.09966">
        <ele>1270</ele>
        <time>2015-02-11T09:07:32Z</time>
      </trkpt>
      <trkpt lat="45.63593" lon="6.09967">
        <ele>1270.2</ele>
        <time>2015-02-11T09:07:33Z</time>
      </trkpt>
      <trkpt lat="45.63593" lon="6.09967">
        <ele>1270.3</ele>
        <time>2015-02-11T09:07:34Z</time>
      </trkpt>
      <trkpt lat="45.63593" lon="6.09968">
        <ele>1270.5</ele>
        <time>2015-02-11T09:07:35Z</time>
      </trkpt>
      <trkpt lat="45.63592" lon="6.09969">
        <ele>1270.6</ele>
        <time>2015-02-11T09:07:36Z</time>
      </trkpt>
      <trkpt lat="45.63593" lon="6.0997">
        <ele>1271</ele>
        <time>2015-02-11T09:07:37Z</time>
      </trkpt>
      <trkpt lat="45.63593" lon="6.09971">
        <ele>1271.3</ele>
        <time>2015-02-11T09:07:38Z</time>
      </trkpt>
      <trkpt lat="45.63593" lon="6.09972">
        <ele>1271.6</ele>
        <time>2015-02-11T09:07:39Z</time>
      </trkpt>
      <trkpt lat="45.63593" lon="6.09972">
        <ele>1271.6</ele>
        <time>2015-02-11T09:07:40Z</time>
      </trkpt>
      <trkpt lat="45.63593" lon="6.09972">
        <ele>1271.7</ele>
        <time>2015-02-11T09:07:41Z</time>
      </trkpt>
      <trkpt lat="45.63593" lon="6.09973">
        <ele>1272</ele>
        <time>2015-02-11T09:07:42Z</time>
      </trkpt>
      <trkpt lat="45.63593" lon="6.09974">
        <ele>1272.2</ele>
        <time>2015-02-11T09:07:43Z</time>
      </trkpt>
      <trkpt lat="45.63593" lon="6.09974">
        <ele>1272.3</ele>
        <time>2015-02-11T09:07:44Z</time>
      </trkpt>
      <trkpt lat="45.63594" lon="6.09975">
        <ele>1272.5</ele>
        <time>2015-02-11T09:07:45Z</time>
      </trkpt>
      <trkpt lat="45.63594" lon="6.09976">
        <ele>1272.8</ele>
        <time>2015-02-11T09:07:46Z</time>
      </trkpt>
      <trkpt lat="45.63594" lon="6.09976">
        <ele>1273.1</ele>
        <time>2015-02-11T09:07:47Z</time>
      </trkpt>
      <trkpt lat="45.63595" lon="6.09977">
        <ele>1273.4</ele>
        <time>2015-02-11T09:07:48Z</time>
      </trkpt>
      <trkpt lat="45.63595" lon="6.09977">
        <ele>1273.6</ele>
        <time>2015-02-11T09:07:49Z</time>
      </trkpt>
      <trkpt lat="45.63595" lon="6.09977">
        <ele>1273.5</ele>
        <time>2015-02-11T09:07:50Z</time>
      </trkpt>
      <trkpt lat="45.63596" lon="6.09978">
        <ele>1273.9</ele>
        <time>2015-02-11T09:07:51Z</time>
      </trkpt>
      <trkpt lat="45.63597" lon="6.09978">
        <ele>1274.1</ele>
        <time>2015-02-11T09:07:52Z</time>
      </trkpt>
      <trkpt lat="45.63597" lon="6.09979">
        <ele>1274.3</ele>
        <time>2015-02-11T09:07:53Z</time>
      </trkpt>
      <trkpt lat="45.63597" lon="6.09979">
        <ele>1274.4</ele>
        <time>2015-02-11T09:07:54Z</time>
      </trkpt>
      <trkpt lat="45.63598" lon="6.09979">
        <ele>1274.6</ele>
        <time>2015-02-11T09:07:55Z</time>
      </trkpt>
      <trkpt lat="45.63598" lon="6.09979">
        <ele>1274.7</ele>
        <time>2015-02-11T09:07:56Z</time>
      </trkpt>
      <trkpt lat="45.63599" lon="6.09979">
        <ele>1274.8</ele>
        <time>2015-02-11T09:07:57Z</time>
      </trkpt>
      <trkpt lat="45.63599" lon="6.09979">
        <ele>1275</ele>
        <time>2015-02-11T09:07:58Z</time>
      </trkpt>
      <trkpt lat="45.636" lon="6.0998">
        <ele>1275.2</ele>
        <time>2015-02-11T09:07:59Z</time>
      </trkpt>
      <trkpt lat="45.636" lon="6.0998">
        <ele>1275.5</ele>
        <time>2015-02-11T09:08:00Z</time>
      </trkpt>
      <trkpt lat="45.63601" lon="6.09981">
        <ele>1275.7</ele>
        <time>2015-02-11T09:08:01Z</time>
      </trkpt>
      <trkpt lat="45.63602" lon="6.09981">
        <ele>1276.1</ele>
        <time>2015-02-11T09:08:02Z</time>
      </trkpt>
      <trkpt lat="45.63602" lon="6.09982">
        <ele>1276.3</ele>
        <time>2015-02-11T09:08:03Z</time>
      </trkpt>
      <trkpt lat="45.63603" lon="6.09982">
        <ele>1276.6</ele>
        <time>2015-02-11T09:08:04Z</time>
      </trkpt>
      <trkpt lat="45.63603" lon="6.09983">
        <ele>1276.8</ele>
        <time>2015-02-11T09:08:05Z</time>
      </trkpt>
      <trkpt lat="45.63604" lon="6.09984">
        <ele>1277.1</ele>
        <time>2015-02-11T09:08:06Z</time>
      </trkpt>
      <trkpt lat="45.63604" lon="6.09985">
        <ele>1277.4</ele>
        <time>2015-02-11T09:08:07Z</time>
      </trkpt>
      <trkpt lat="45.63604" lon="6.09986">
        <ele>1277.5</ele>
        <time>2015-02-11T09:08:08Z</time>
      </trkpt>
      <trkpt lat="45.63604" lon="6.09986">
        <ele>1277.6</ele>
        <time>2015-02-11T09:08:09Z</time>
      </trkpt>
      <trkpt lat="45.63603" lon="6.09987">
        <ele>1277.7</ele>
        <time>2015-02-11T09:08:10Z</time>
      </trkpt>
      <trkpt lat="45.63603" lon="6.09988">
        <ele>1277.8</ele>
        <time>2015-02-11T09:08:11Z</time>
      </trkpt>
      <trkpt lat="45.63603" lon="6.09988">
        <ele>1277.8</ele>
        <time>2015-02-11T09:08:12Z</time>
      </trkpt>
      <trkpt lat="45.63602" lon="6.09989">
        <ele>1277.8</ele>
        <time>2015-02-11T09:08:13Z</time>
      </trkpt>
      <trkpt lat="45.63602" lon="6.0999">
        <ele>1277.8</ele>
        <time>2015-02-11T09:08:14Z</time>
      </trkpt>
      <trkpt lat="45.63601" lon="6.0999">
        <ele>1277.8</ele>
        <time>2015-02-11T09:08:15Z</time>
      </trkpt>
      <trkpt lat="45.63601" lon="6.09991">
        <ele>1277.9</ele>
        <time>2015-02-11T09:08:16Z</time>
      </trkpt>
      <trkpt lat="45.63601" lon="6.09992">
        <ele>1278.1</ele>
        <time>2015-02-11T09:08:17Z</time>
      </trkpt>
      <trkpt lat="45.636" lon="6.09993">
        <ele>1278.2</ele>
        <time>2015-02-11T09:08:18Z</time>
      </trkpt>
      <trkpt lat="45.636" lon="6.09994">
        <ele>1278.4</ele>
        <time>2015-02-11T09:08:19Z</time>
      </trkpt>
      <trkpt lat="45.636" lon="6.09996">
        <ele>1278.8</ele>
        <time>2015-02-11T09:08:20Z</time>
      </trkpt>
      <trkpt lat="45.63601" lon="6.09996">
        <ele>1278.9</ele>
        <time>2015-02-11T09:08:21Z</time>
      </trkpt>
      <trkpt lat="45.63601" lon="6.09997">
        <ele>1279.1</ele>
        <time>2015-02-11T09:08:22Z</time>
      </trkpt>
      <trkpt lat="45.63601" lon="6.09997">
        <ele>1279.4</ele>
        <time>2015-02-11T09:08:23Z</time>
      </trkpt>
      <trkpt lat="45.63602" lon="6.09998">
        <ele>1279.6</ele>
        <time>2015-02-11T09:08:24Z</time>
      </trkpt>
      <trkpt lat="45.63602" lon="6.09999">
        <ele>1279.8</ele>
        <time>2015-02-11T09:08:25Z</time>
      </trkpt>
      <trkpt lat="45.63601" lon="6.1">
        <ele>1279.8</ele>
        <time>2015-02-11T09:08:26Z</time>
      </trkpt>
      <trkpt lat="45.63602" lon="6.1">
        <ele>1280</ele>
        <time>2015-02-11T09:08:27Z</time>
      </trkpt>
      <trkpt lat="45.63602" lon="6.10001">
        <ele>1280.3</ele>
        <time>2015-02-11T09:08:28Z</time>
      </trkpt>
      <trkpt lat="45.63602" lon="6.10002">
        <ele>1280.5</ele>
        <time>2015-02-11T09:08:29Z</time>
      </trkpt>
      <trkpt lat="45.63603" lon="6.10003">
        <ele>1280.8</ele>
        <time>2015-02-11T09:08:30Z</time>
      </trkpt>
      <trkpt lat="45.63603" lon="6.10002">
        <ele>1280.8</ele>
        <time>2015-02-11T09:08:31Z</time>
      </trkpt>
      <trkpt lat="45.63603" lon="6.10003">
        <ele>1281</ele>
        <time>2015-02-11T09:08:32Z</time>
      </trkpt>
      <trkpt lat="45.63604" lon="6.10003">
        <ele>1281.2</ele>
        <time>2015-02-11T09:08:33Z</time>
      </trkpt>
      <trkpt lat="45.63604" lon="6.10004">
        <ele>1281.4</ele>
        <time>2015-02-11T09:08:34Z</time>
      </trkpt>
      <trkpt lat="45.63605" lon="6.10004">
        <ele>1281.6</ele>
        <time>2015-02-11T09:08:35Z</time>
      </trkpt>
      <trkpt lat="45.63605" lon="6.10005">
        <ele>1281.8</ele>
        <time>2015-02-11T09:08:36Z</time>
      </trkpt>
      <trkpt lat="45.63605" lon="6.10006">
        <ele>1282</ele>
        <time>2015-02-11T09:08:37Z</time>
      </trkpt>
      <trkpt lat="45.63605" lon="6.10007">
        <ele>1282.2</ele>
        <time>2015-02-11T09:08:38Z</time>
      </trkpt>
      <trkpt lat="45.63605" lon="6.10007">
        <ele>1282.4</ele>
        <time>2015-02-11T09:08:39Z</time>
      </trkpt>
      <trkpt lat="45.63605" lon="6.10008">
        <ele>1282.6</ele>
        <time>2015-02-11T09:08:40Z</time>
      </trkpt>
      <trkpt lat="45.63606" lon="6.10009">
        <ele>1282.8</ele>
        <time>2015-02-11T09:08:41Z</time>
      </trkpt>
      <trkpt lat="45.63606" lon="6.10009">
        <ele>1283.1</ele>
        <time>2015-02-11T09:08:42Z</time>
      </trkpt>
      <trkpt lat="45.63607" lon="6.10011">
        <ele>1283.4</ele>
        <time>2015-02-11T09:08:43Z</time>
      </trkpt>
      <trkpt lat="45.63607" lon="6.10012">
        <ele>1283.7</ele>
        <time>2015-02-11T09:08:44Z</time>
      </trkpt>
      <trkpt lat="45.63607" lon="6.10012">
        <ele>1283.9</ele>
        <time>2015-02-11T09:08:45Z</time>
      </trkpt>
      <trkpt lat="45.63607" lon="6.10013">
        <ele>1284.2</ele>
        <time>2015-02-11T09:08:46Z</time>
      </trkpt>
      <trkpt lat="45.63607" lon="6.10014">
        <ele>1284.4</ele>
        <time>2015-02-11T09:08:47Z</time>
      </trkpt>
      <trkpt lat="45.63608" lon="6.10015">
        <ele>1284.6</ele>
        <time>2015-02-11T09:08:48Z</time>
      </trkpt>
      <trkpt lat="45.63608" lon="6.10016">
        <ele>1284.8</ele>
        <time>2015-02-11T09:08:49Z</time>
      </trkpt>
      <trkpt lat="45.63608" lon="6.10017">
        <ele>1285.1</ele>
        <time>2015-02-11T09:08:50Z</time>
      </trkpt>
      <trkpt lat="45.63608" lon="6.10017">
        <ele>1285.2</ele>
        <time>2015-02-11T09:08:51Z</time>
      </trkpt>
      <trkpt lat="45.63608" lon="6.10018">
        <ele>1285.2</ele>
        <time>2015-02-11T09:08:52Z</time>
      </trkpt>
      <trkpt lat="45.63608" lon="6.10018">
        <ele>1285.4</ele>
        <time>2015-02-11T09:08:53Z</time>
      </trkpt>
      <trkpt lat="45.63608" lon="6.10019">
        <ele>1285.5</ele>
        <time>2015-02-11T09:08:54Z</time>
      </trkpt>
      <trkpt lat="45.63608" lon="6.1002">
        <ele>1285.7</ele>
        <time>2015-02-11T09:08:55Z</time>
      </trkpt>
      <trkpt lat="45.63608" lon="6.1002">
        <ele>1285.8</ele>
        <time>2015-02-11T09:08:56Z</time>
      </trkpt>
      <trkpt lat="45.63607" lon="6.10021">
        <ele>1286</ele>
        <time>2015-02-11T09:08:57Z</time>
      </trkpt>
      <trkpt lat="45.63607" lon="6.10022">
        <ele>1286.1</ele>
        <time>2015-02-11T09:08:58Z</time>
      </trkpt>
      <trkpt lat="45.63607" lon="6.10023">
        <ele>1286.2</ele>
        <time>2015-02-11T09:08:59Z</time>
      </trkpt>
      <trkpt lat="45.63607" lon="6.10023">
        <ele>1286.3</ele>
        <time>2015-02-11T09:09:00Z</time>
      </trkpt>
      <trkpt lat="45.63607" lon="6.10024">
        <ele>1286.5</ele>
        <time>2015-02-11T09:09:01Z</time>
      </trkpt>
      <trkpt lat="45.63608" lon="6.10024">
        <ele>1286.8</ele>
        <time>2015-02-11T09:09:02Z</time>
      </trkpt>
      <trkpt lat="45.63608" lon="6.10025">
        <ele>1286.9</ele>
        <time>2015-02-11T09:09:03Z</time>
      </trkpt>
      <trkpt lat="45.63609" lon="6.10025">
        <ele>1287</ele>
        <time>2015-02-11T09:09:04Z</time>
      </trkpt>
      <trkpt lat="45.63609" lon="6.10026">
        <ele>1287.2</ele>
        <time>2015-02-11T09:09:05Z</time>
      </trkpt>
      <trkpt lat="45.63609" lon="6.10027">
        <ele>1287.4</ele>
        <time>2015-02-11T09:09:06Z</time>
      </trkpt>
      <trkpt lat="45.63609" lon="6.10027">
        <ele>1287.5</ele>
        <time>2015-02-11T09:09:07Z</time>
      </trkpt>
      <trkpt lat="45.63609" lon="6.10028">
        <ele>1287.6</ele>
        <time>2015-02-11T09:09:08Z</time>
      </trkpt>
      <trkpt lat="45.63609" lon="6.10028">
        <ele>1287.8</ele>
        <time>2015-02-11T09:09:09Z</time>
      </trkpt>
      <trkpt lat="45.6361" lon="6.10029">
        <ele>1288</ele>
        <time>2015-02-11T09:09:10Z</time>
      </trkpt>
      <trkpt lat="45.6361" lon="6.10029">
        <ele>1288.2</ele>
        <time>2015-02-11T09:09:11Z</time>
      </trkpt>
      <trkpt lat="45.63611" lon="6.1003">
        <ele>1288.5</ele>
        <time>2015-02-11T09:09:12Z</time>
      </trkpt>
      <trkpt lat="45.63611" lon="6.1003">
        <ele>1288.6</ele>
        <time>2015-02-11T09:09:13Z</time>
      </trkpt>
      <trkpt lat="45.63612" lon="6.1003">
        <ele>1288.7</ele>
        <time>2015-02-11T09:09:14Z</time>
      </trkpt>
      <trkpt lat="45.63613" lon="6.10031">
        <ele>1288.8</ele>
        <time>2015-02-11T09:09:15Z</time>
      </trkpt>
      <trkpt lat="45.63613" lon="6.10031">
        <ele>1289</ele>
        <time>2015-02-11T09:09:16Z</time>
      </trkpt>
      <trkpt lat="45.63614" lon="6.10031">
        <ele>1289.1</ele>
        <time>2015-02-11T09:09:17Z</time>
      </trkpt>
      <trkpt lat="45.63615" lon="6.10032">
        <ele>1289.3</ele>
        <time>2015-02-11T09:09:18Z</time>
      </trkpt>
      <trkpt lat="45.63615" lon="6.10033">
        <ele>1289.5</ele>
        <time>2015-02-11T09:09:19Z</time>
      </trkpt>
      <trkpt lat="45.63616" lon="6.10033">
        <ele>1289.8</ele>
        <time>2015-02-11T09:09:20Z</time>
      </trkpt>
      <trkpt lat="45.63616" lon="6.10035">
        <ele>1290.1</ele>
        <time>2015-02-11T09:09:21Z</time>
      </trkpt>
      <trkpt lat="45.63617" lon="6.10035">
        <ele>1290.3</ele>
        <time>2015-02-11T09:09:22Z</time>
      </trkpt>
      <trkpt lat="45.63617" lon="6.10036">
        <ele>1290.6</ele>
        <time>2015-02-11T09:09:23Z</time>
      </trkpt>
      <trkpt lat="45.63617" lon="6.10037">
        <ele>1290.8</ele>
        <time>2015-02-11T09:09:24Z</time>
      </trkpt>
      <trkpt lat="45.63617" lon="6.10038">
        <ele>1290.9</ele>
        <time>2015-02-11T09:09:25Z</time>
      </trkpt>
      <trkpt lat="45.63616" lon="6.10038">
        <ele>1291</ele>
        <time>2015-02-11T09:09:26Z</time>
      </trkpt>
      <trkpt lat="45.63616" lon="6.10039">
        <ele>1291.2</ele>
        <time>2015-02-11T09:09:27Z</time>
      </trkpt>
      <trkpt lat="45.63616" lon="6.10039">
        <ele>1291.3</ele>
        <time>2015-02-11T09:09:28Z</time>
      </trkpt>
      <trkpt lat="45.63616" lon="6.1004">
        <ele>1291.5</ele>
        <time>2015-02-11T09:09:29Z</time>
      </trkpt>
      <trkpt lat="45.63616" lon="6.10041">
        <ele>1291.6</ele>
        <time>2015-02-11T09:09:30Z</time>
      </trkpt>
      <trkpt lat="45.63616" lon="6.10041">
        <ele>1291.8</ele>
        <time>2015-02-11T09:09:31Z</time>
      </trkpt>
      <trkpt lat="45.63616" lon="6.10042">
        <ele>1291.9</ele>
        <time>2015-02-11T09:09:32Z</time>
      </trkpt>
      <trkpt lat="45.63616" lon="6.10042">
        <ele>1292</ele>
        <time>2015-02-11T09:09:33Z</time>
      </trkpt>
      <trkpt lat="45.63616" lon="6.10042">
        <ele>1292.1</ele>
        <time>2015-02-11T09:09:34Z</time>
      </trkpt>
      <trkpt lat="45.63616" lon="6.10043">
        <ele>1292.2</ele>
        <time>2015-02-11T09:09:35Z</time>
      </trkpt>
      <trkpt lat="45.63616" lon="6.10043">
        <ele>1292.3</ele>
        <time>2015-02-11T09:09:36Z</time>
      </trkpt>
      <trkpt lat="45.63616" lon="6.10044">
        <ele>1292.4</ele>
        <time>2015-02-11T09:09:37Z</time>
      </trkpt>
      <trkpt lat="45.63616" lon="6.10045">
        <ele>1292.6</ele>
        <time>2015-02-11T09:09:38Z</time>
      </trkpt>
      <trkpt lat="45.63616" lon="6.10045">
        <ele>1292.8</ele>
        <time>2015-02-11T09:09:39Z</time>
      </trkpt>
      <trkpt lat="45.63616" lon="6.10046">
        <ele>1293</ele>
        <time>2015-02-11T09:09:40Z</time>
      </trkpt>
      <trkpt lat="45.63616" lon="6.10046">
        <ele>1293.2</ele>
        <time>2015-02-11T09:09:41Z</time>
      </trkpt>
      <trkpt lat="45.63617" lon="6.10047">
        <ele>1293.4</ele>
        <time>2015-02-11T09:09:42Z</time>
      </trkpt>
      <trkpt lat="45.63617" lon="6.10048">
        <ele>1293.5</ele>
        <time>2015-02-11T09:09:43Z</time>
      </trkpt>
      <trkpt lat="45.63617" lon="6.10048">
        <ele>1293.6</ele>
        <time>2015-02-11T09:09:44Z</time>
      </trkpt>
      <trkpt lat="45.63617" lon="6.10048">
        <ele>1293.7</ele>
        <time>2015-02-11T09:09:45Z</time>
      </trkpt>
      <trkpt lat="45.63617" lon="6.10048">
        <ele>1293.8</ele>
        <time>2015-02-11T09:09:46Z</time>
      </trkpt>
      <trkpt lat="45.63618" lon="6.10049">
        <ele>1293.9</ele>
        <time>2015-02-11T09:09:47Z</time>
      </trkpt>
      <trkpt lat="45.63618" lon="6.10049">
        <ele>1294.1</ele>
        <time>2015-02-11T09:09:48Z</time>
      </trkpt>
      <trkpt lat="45.63619" lon="6.1005">
        <ele>1294.3</ele>
        <time>2015-02-11T09:09:49Z</time>
      </trkpt>
      <trkpt lat="45.63618" lon="6.1005">
        <ele>1294.3</ele>
        <time>2015-02-11T09:09:50Z</time>
      </trkpt>
      <trkpt lat="45.63618" lon="6.10051">
        <ele>1294.5</ele>
        <time>2015-02-11T09:09:51Z</time>
      </trkpt>
      <trkpt lat="45.63618" lon="6.10051">
        <ele>1294.6</ele>
        <time>2015-02-11T09:09:52Z</time>
      </trkpt>
      <trkpt lat="45.63619" lon="6.10051">
        <ele>1294.7</ele>
        <time>2015-02-11T09:09:53Z</time>
      </trkpt>
      <trkpt lat="45.63619" lon="6.10052">
        <ele>1294.9</ele>
        <time>2015-02-11T09:09:54Z</time>
      </trkpt>
      <trkpt lat="45.6362" lon="6.10052">
        <ele>1295.1</ele>
        <time>2015-02-11T09:09:55Z</time>
      </trkpt>
      <trkpt lat="45.63621" lon="6.10053">
        <ele>1295.2</ele>
        <time>2015-02-11T09:09:56Z</time>
      </trkpt>
      <trkpt lat="45.63621" lon="6.10053">
        <ele>1295.3</ele>
        <time>2015-02-11T09:09:57Z</time>
      </trkpt>
      <trkpt lat="45.63621" lon="6.10053">
        <ele>1295.4</ele>
        <time>2015-02-11T09:09:58Z</time>
      </trkpt>
      <trkpt lat="45.63621" lon="6.10053">
        <ele>1295.4</ele>
        <time>2015-02-11T09:09:59Z</time>
      </trkpt>
      <trkpt lat="45.63621" lon="6.10053">
        <ele>1295.5</ele>
        <time>2015-02-11T09:10:00Z</time>
      </trkpt>
      <trkpt lat="45.63621" lon="6.10054">
        <ele>1295.6</ele>
        <time>2015-02-11T09:10:01Z</time>
      </trkpt>
      <trkpt lat="45.63622" lon="6.10054">
        <ele>1295.6</ele>
        <time>2015-02-11T09:10:02Z</time>
      </trkpt>
      <trkpt lat="45.63622" lon="6.10054">
        <ele>1295.7</ele>
        <time>2015-02-11T09:10:03Z</time>
      </trkpt>
      <trkpt lat="45.63621" lon="6.10054">
        <ele>1295.7</ele>
        <time>2015-02-11T09:10:04Z</time>
      </trkpt>
      <trkpt lat="45.63622" lon="6.10055">
        <ele>1295.8</ele>
        <time>2015-02-11T09:10:05Z</time>
      </trkpt>
      <trkpt lat="45.63621" lon="6.10055">
        <ele>1295.9</ele>
        <time>2015-02-11T09:10:06Z</time>
      </trkpt>
      <trkpt lat="45.63621" lon="6.10055">
        <ele>1296</ele>
        <time>2015-02-11T09:10:07Z</time>
      </trkpt>
      <trkpt lat="45.63622" lon="6.10055">
        <ele>1296</ele>
        <time>2015-02-11T09:10:08Z</time>
      </trkpt>
      <trkpt lat="45.63622" lon="6.10055">
        <ele>1296.1</ele>
        <time>2015-02-11T09:10:09Z</time>
      </trkpt>
      <trkpt lat="45.63622" lon="6.10056">
        <ele>1296.2</ele>
        <time>2015-02-11T09:10:10Z</time>
      </trkpt>
      <trkpt lat="45.63623" lon="6.10056">
        <ele>1296.4</ele>
        <time>2015-02-11T09:10:11Z</time>
      </trkpt>
      <trkpt lat="45.63623" lon="6.10056">
        <ele>1296.5</ele>
        <time>2015-02-11T09:10:12Z</time>
      </trkpt>
      <trkpt lat="45.63624" lon="6.10057">
        <ele>1296.7</ele>
        <time>2015-02-11T09:10:13Z</time>
      </trkpt>
      <trkpt lat="45.63624" lon="6.10057">
        <ele>1296.8</ele>
        <time>2015-02-11T09:10:14Z</time>
      </trkpt>
      <trkpt lat="45.63624" lon="6.10057">
        <ele>1296.9</ele>
        <time>2015-02-11T09:10:15Z</time>
      </trkpt>
      <trkpt lat="45.63624" lon="6.10058">
        <ele>1297</ele>
        <time>2015-02-11T09:10:16Z</time>
      </trkpt>
      <trkpt lat="45.63624" lon="6.10058">
        <ele>1297.1</ele>
        <time>2015-02-11T09:10:17Z</time>
      </trkpt>
      <trkpt lat="45.63624" lon="6.10058">
        <ele>1297.2</ele>
        <time>2015-02-11T09:10:18Z</time>
      </trkpt>
      <trkpt lat="45.63624" lon="6.10058">
        <ele>1297.1</ele>
        <time>2015-02-11T09:10:19Z</time>
      </trkpt>
      <trkpt lat="45.63624" lon="6.10058">
        <ele>1297.1</ele>
        <time>2015-02-11T09:10:20Z</time>
      </trkpt>
      <trkpt lat="45.63623" lon="6.10058">
        <ele>1296.9</ele>
        <time>2015-02-11T09:10:21Z</time>
      </trkpt>
      <trkpt lat="45.63623" lon="6.10058">
        <ele>1296.8</ele>
        <time>2015-02-11T09:10:22Z</time>
      </trkpt>
      <trkpt lat="45.63623" lon="6.10058">
        <ele>1296.9</ele>
        <time>2015-02-11T09:10:23Z</time>
      </trkpt>
      <trkpt lat="45.63623" lon="6.10058">
        <ele>1296.9</ele>
        <time>2015-02-11T09:10:24Z</time>
      </trkpt>
      <trkpt lat="45.63623" lon="6.10058">
        <ele>1296.9</ele>
        <time>2015-02-11T09:10:25Z</time>
      </trkpt>
      <trkpt lat="45.63623" lon="6.10058">
        <ele>1297</ele>
        <time>2015-02-11T09:10:26Z</time>
      </trkpt>
      <trkpt lat="45.63623" lon="6.10058">
        <ele>1297</ele>
        <time>2015-02-11T09:10:27Z</time>
      </trkpt>
      <trkpt lat="45.63623" lon="6.10058">
        <ele>1297</ele>
        <time>2015-02-11T09:10:28Z</time>
      </trkpt>
      <trkpt lat="45.63623" lon="6.10058">
        <ele>1297</ele>
        <time>2015-02-11T09:10:29Z</time>
      </trkpt>
      <trkpt lat="45.63622" lon="6.10058">
        <ele>1297</ele>
        <time>2015-02-11T09:10:30Z</time>
      </trkpt>
      <trkpt lat="45.63622" lon="6.10058">
        <ele>1296.9</ele>
        <time>2015-02-11T09:10:31Z</time>
      </trkpt>
      <trkpt lat="45.63623" lon="6.10058">
        <ele>1296.9</ele>
        <time>2015-02-11T09:10:32Z</time>
      </trkpt>
      <trkpt lat="45.63623" lon="6.10058">
        <ele>1296.9</ele>
        <time>2015-02-11T09:10:33Z</time>
      </trkpt>
      <trkpt lat="45.63623" lon="6.10058">
        <ele>1296.9</ele>
        <time>2015-02-11T09:10:34Z</time>
      </trkpt>
      <trkpt lat="45.63622" lon="6.10058">
        <ele>1296.9</ele>
        <time>2015-02-11T09:10:35Z</time>
      </trkpt>
      <trkpt lat="45.63622" lon="6.10058">
        <ele>1296.8</ele>
        <time>2015-02-11T09:10:36Z</time>
      </trkpt>
      <trkpt lat="45.63622" lon="6.10058">
        <ele>1296.9</ele>
        <time>2015-02-11T09:10:37Z</time>
      </trkpt>
      <trkpt lat="45.63622" lon="6.10058">
        <ele>1297</ele>
        <time>2015-02-11T09:10:38Z</time>
      </trkpt>
      <trkpt lat="45.63622" lon="6.10059">
        <ele>1297</ele>
        <time>2015-02-11T09:10:39Z</time>
      </trkpt>
      <trkpt lat="45.63621" lon="6.10059">
        <ele>1297.1</ele>
        <time>2015-02-11T09:10:40Z</time>
      </trkpt>
      <trkpt lat="45.63621" lon="6.1006">
        <ele>1297.3</ele>
        <time>2015-02-11T09:10:41Z</time>
      </trkpt>
      <trkpt lat="45.6362" lon="6.10061">
        <ele>1297.5</ele>
        <time>2015-02-11T09:10:42Z</time>
      </trkpt>
      <trkpt lat="45.6362" lon="6.10061">
        <ele>1297.6</ele>
        <time>2015-02-11T09:10:43Z</time>
      </trkpt>
      <trkpt lat="45.6362" lon="6.10062">
        <ele>1297.6</ele>
        <time>2015-02-11T09:10:44Z</time>
      </trkpt>
      <trkpt lat="45.63619" lon="6.10062">
        <ele>1297.7</ele>
        <time>2015-02-11T09:10:45Z</time>
      </trkpt>
      <trkpt lat="45.63619" lon="6.10062">
        <ele>1297.8</ele>
        <time>2015-02-11T09:10:46Z</time>
      </trkpt>
      <trkpt lat="45.63618" lon="6.10062">
        <ele>1297.7</ele>
        <time>2015-02-11T09:10:47Z</time>
      </trkpt>
      <trkpt lat="45.63618" lon="6.10063">
        <ele>1297.8</ele>
        <time>2015-02-11T09:10:48Z</time>
      </trkpt>
      <trkpt lat="45.63617" lon="6.10063">
        <ele>1297.8</ele>
        <time>2015-02-11T09:10:49Z</time>
      </trkpt>
      <trkpt lat="45.63617" lon="6.10064">
        <ele>1298</ele>
        <time>2015-02-11T09:10:50Z</time>
      </trkpt>
      <trkpt lat="45.63616" lon="6.10064">
        <ele>1297.8</ele>
        <time>2015-02-11T09:10:51Z</time>
      </trkpt>
      <trkpt lat="45.63615" lon="6.10064">
        <ele>1297.8</ele>
        <time>2015-02-11T09:10:52Z</time>
      </trkpt>
      <trkpt lat="45.63614" lon="6.10065">
        <ele>1297.9</ele>
        <time>2015-02-11T09:10:53Z</time>
      </trkpt>
      <trkpt lat="45.63613" lon="6.10065">
        <ele>1297.9</ele>
        <time>2015-02-11T09:10:54Z</time>
      </trkpt>
      <trkpt lat="45.63612" lon="6.10065">
        <ele>1298</ele>
        <time>2015-02-11T09:10:55Z</time>
      </trkpt>
      <trkpt lat="45.63612" lon="6.10066">
        <ele>1298.1</ele>
        <time>2015-02-11T09:10:56Z</time>
      </trkpt>
      <trkpt lat="45.63611" lon="6.10067">
        <ele>1298.2</ele>
        <time>2015-02-11T09:10:57Z</time>
      </trkpt>
      <trkpt lat="45.63611" lon="6.10067">
        <ele>1298.3</ele>
        <time>2015-02-11T09:10:58Z</time>
      </trkpt>
      <trkpt lat="45.6361" lon="6.10067">
        <ele>1298.3</ele>
        <time>2015-02-11T09:10:59Z</time>
      </trkpt>
      <trkpt lat="45.63609" lon="6.10068">
        <ele>1298.5</ele>
        <time>2015-02-11T09:11:00Z</time>
      </trkpt>
      <trkpt lat="45.63609" lon="6.10068">
        <ele>1298.6</ele>
        <time>2015-02-11T09:11:01Z</time>
      </trkpt>
      <trkpt lat="45.63608" lon="6.10069">
        <ele>1298.8</ele>
        <time>2015-02-11T09:11:02Z</time>
      </trkpt>
      <trkpt lat="45.63608" lon="6.10069">
        <ele>1298.8</ele>
        <time>2015-02-11T09:11:03Z</time>
      </trkpt>
      <trkpt lat="45.63607" lon="6.10069">
        <ele>1298.9</ele>
        <time>2015-02-11T09:11:04Z</time>
      </trkpt>
      <trkpt lat="45.63607" lon="6.1007">
        <ele>1299</ele>
        <time>2015-02-11T09:11:05Z</time>
      </trkpt>
      <trkpt lat="45.63606" lon="6.1007">
        <ele>1299.2</ele>
        <time>2015-02-11T09:11:06Z</time>
      </trkpt>
      <trkpt lat="45.63605" lon="6.1007">
        <ele>1299.3</ele>
        <time>2015-02-11T09:11:07Z</time>
      </trkpt>
      <trkpt lat="45.63605" lon="6.10071">
        <ele>1299.4</ele>
        <time>2015-02-11T09:11:08Z</time>
      </trkpt>
      <trkpt lat="45.63605" lon="6.10072">
        <ele>1299.7</ele>
        <time>2015-02-11T09:11:09Z</time>
      </trkpt>
      <trkpt lat="45.63605" lon="6.10072">
        <ele>1299.9</ele>
        <time>2015-02-11T09:11:10Z</time>
      </trkpt>
      <trkpt lat="45.63605" lon="6.10074">
        <ele>1300.3</ele>
        <time>2015-02-11T09:11:11Z</time>
      </trkpt>
      <trkpt lat="45.63605" lon="6.10075">
        <ele>1300.5</ele>
        <time>2015-02-11T09:11:12Z</time>
      </trkpt>
      <trkpt lat="45.63605" lon="6.10076">
        <ele>1300.9</ele>
        <time>2015-02-11T09:11:13Z</time>
      </trkpt>
      <trkpt lat="45.63605" lon="6.10075">
        <ele>1300.8</ele>
        <time>2015-02-11T09:11:14Z</time>
      </trkpt>
      <trkpt lat="45.63605" lon="6.10076">
        <ele>1301</ele>
        <time>2015-02-11T09:11:15Z</time>
      </trkpt>
      <trkpt lat="45.63605" lon="6.10076">
        <ele>1301.1</ele>
        <time>2015-02-11T09:11:16Z</time>
      </trkpt>
      <trkpt lat="45.63604" lon="6.10077">
        <ele>1301.2</ele>
        <time>2015-02-11T09:11:17Z</time>
      </trkpt>
      <trkpt lat="45.63604" lon="6.10077">
        <ele>1301.3</ele>
        <time>2015-02-11T09:11:18Z</time>
      </trkpt>
      <trkpt lat="45.63603" lon="6.10078">
        <ele>1301.5</ele>
        <time>2015-02-11T09:11:19Z</time>
      </trkpt>
      <trkpt lat="45.63603" lon="6.10078">
        <ele>1301.7</ele>
        <time>2015-02-11T09:11:20Z</time>
      </trkpt>
      <trkpt lat="45.63603" lon="6.10078">
        <ele>1301.7</ele>
        <time>2015-02-11T09:11:21Z</time>
      </trkpt>
      <trkpt lat="45.63603" lon="6.10079">
        <ele>1301.9</ele>
        <time>2015-02-11T09:11:22Z</time>
      </trkpt>
      <trkpt lat="45.63602" lon="6.10079">
        <ele>1302</ele>
        <time>2015-02-11T09:11:23Z</time>
      </trkpt>
      <trkpt lat="45.63602" lon="6.10079">
        <ele>1302.1</ele>
        <time>2015-02-11T09:11:24Z</time>
      </trkpt>
      <trkpt lat="45.63602" lon="6.1008">
        <ele>1302.1</ele>
        <time>2015-02-11T09:11:25Z</time>
      </trkpt>
      <trkpt lat="45.63602" lon="6.1008">
        <ele>1302.3</ele>
        <time>2015-02-11T09:11:26Z</time>
      </trkpt>
      <trkpt lat="45.63601" lon="6.1008">
        <ele>1302.4</ele>
        <time>2015-02-11T09:11:27Z</time>
      </trkpt>
      <trkpt lat="45.63601" lon="6.10081">
        <ele>1302.6</ele>
        <time>2015-02-11T09:11:28Z</time>
      </trkpt>
      <trkpt lat="45.636" lon="6.10082">
        <ele>1302.8</ele>
        <time>2015-02-11T09:11:29Z</time>
      </trkpt>
      <trkpt lat="45.636" lon="6.10082">
        <ele>1302.9</ele>
        <time>2015-02-11T09:11:30Z</time>
      </trkpt>
      <trkpt lat="45.63599" lon="6.10083">
        <ele>1303.2</ele>
        <time>2015-02-11T09:11:31Z</time>
      </trkpt>
      <trkpt lat="45.63598" lon="6.10083">
        <ele>1303.2</ele>
        <time>2015-02-11T09:11:32Z</time>
      </trkpt>
      <trkpt lat="45.63598" lon="6.10083">
        <ele>1303.4</ele>
        <time>2015-02-11T09:11:33Z</time>
      </trkpt>
      <trkpt lat="45.63597" lon="6.10084">
        <ele>1303.7</ele>
        <time>2015-02-11T09:11:34Z</time>
      </trkpt>
      <trkpt lat="45.63596" lon="6.10085">
        <ele>1304</ele>
        <time>2015-02-11T09:11:35Z</time>
      </trkpt>
      <trkpt lat="45.63596" lon="6.10085">
        <ele>1304.3</ele>
        <time>2015-02-11T09:11:36Z</time>
      </trkpt>
      <trkpt lat="45.63596" lon="6.10086">
        <ele>1304.5</ele>
        <time>2015-02-11T09:11:37Z</time>
      </trkpt>
      <trkpt lat="45.63595" lon="6.10087">
        <ele>1304.8</ele>
        <time>2015-02-11T09:11:38Z</time>
      </trkpt>
      <trkpt lat="45.63594" lon="6.10087">
        <ele>1304.9</ele>
        <time>2015-02-11T09:11:39Z</time>
      </trkpt>
      <trkpt lat="45.63594" lon="6.10087">
        <ele>1305.1</ele>
        <time>2015-02-11T09:11:40Z</time>
      </trkpt>
      <trkpt lat="45.63593" lon="6.10088">
        <ele>1305.4</ele>
        <time>2015-02-11T09:11:41Z</time>
      </trkpt>
      <trkpt lat="45.63593" lon="6.10088">
        <ele>1305.4</ele>
        <time>2015-02-11T09:11:42Z</time>
      </trkpt>
      <trkpt lat="45.63592" lon="6.10088">
        <ele>1305.4</ele>
        <time>2015-02-11T09:11:43Z</time>
      </trkpt>
      <trkpt lat="45.63592" lon="6.10088">
        <ele>1305.5</ele>
        <time>2015-02-11T09:11:44Z</time>
      </trkpt>
      <trkpt lat="45.63591" lon="6.10088">
        <ele>1305.5</ele>
        <time>2015-02-11T09:11:45Z</time>
      </trkpt>
      <trkpt lat="45.63591" lon="6.10089">
        <ele>1305.7</ele>
        <time>2015-02-11T09:11:46Z</time>
      </trkpt>
      <trkpt lat="45.63591" lon="6.10089">
        <ele>1305.8</ele>
        <time>2015-02-11T09:11:47Z</time>
      </trkpt>
      <trkpt lat="45.6359" lon="6.1009">
        <ele>1306.1</ele>
        <time>2015-02-11T09:11:48Z</time>
      </trkpt>
      <trkpt lat="45.6359" lon="6.1009">
        <ele>1306.3</ele>
        <time>2015-02-11T09:11:49Z</time>
      </trkpt>
      <trkpt lat="45.6359" lon="6.10091">
        <ele>1306.7</ele>
        <time>2015-02-11T09:11:50Z</time>
      </trkpt>
      <trkpt lat="45.6359" lon="6.10091">
        <ele>1306.7</ele>
        <time>2015-02-11T09:11:51Z</time>
      </trkpt>
      <trkpt lat="45.6359" lon="6.10092">
        <ele>1307</ele>
        <time>2015-02-11T09:11:52Z</time>
      </trkpt>
      <trkpt lat="45.63589" lon="6.10093">
        <ele>1307.2</ele>
        <time>2015-02-11T09:11:53Z</time>
      </trkpt>
      <trkpt lat="45.63589" lon="6.10094">
        <ele>1307.5</ele>
        <time>2015-02-11T09:11:54Z</time>
      </trkpt>
      <trkpt lat="45.63589" lon="6.10094">
        <ele>1307.8</ele>
        <time>2015-02-11T09:11:55Z</time>
      </trkpt>
      <trkpt lat="45.63588" lon="6.10095">
        <ele>1308</ele>
        <time>2015-02-11T09:11:56Z</time>
      </trkpt>
      <trkpt lat="45.63588" lon="6.10096">
        <ele>1308.3</ele>
        <time>2015-02-11T09:11:57Z</time>
      </trkpt>
      <trkpt lat="45.63587" lon="6.10096">
        <ele>1308.6</ele>
        <time>2015-02-11T09:11:58Z</time>
      </trkpt>
      <trkpt lat="45.63587" lon="6.10097">
        <ele>1308.7</ele>
        <time>2015-02-11T09:11:59Z</time>
      </trkpt>
      <trkpt lat="45.63586" lon="6.10097">
        <ele>1308.7</ele>
        <time>2015-02-11T09:12:00Z</time>
      </trkpt>
      <trkpt lat="45.63586" lon="6.10097">
        <ele>1308.9</ele>
        <time>2015-02-11T09:12:01Z</time>
      </trkpt>
      <trkpt lat="45.63586" lon="6.10098">
        <ele>1309.1</ele>
        <time>2015-02-11T09:12:02Z</time>
      </trkpt>
      <trkpt lat="45.63586" lon="6.10098">
        <ele>1309.3</ele>
        <time>2015-02-11T09:12:03Z</time>
      </trkpt>
      <trkpt lat="45.63586" lon="6.10099">
        <ele>1309.6</ele>
        <time>2015-02-11T09:12:04Z</time>
      </trkpt>
      <trkpt lat="45.63586" lon="6.101">
        <ele>1310</ele>
        <time>2015-02-11T09:12:05Z</time>
      </trkpt>
      <trkpt lat="45.63586" lon="6.10101">
        <ele>1310.3</ele>
        <time>2015-02-11T09:12:06Z</time>
      </trkpt>
      <trkpt lat="45.63586" lon="6.10102">
        <ele>1310.6</ele>
        <time>2015-02-11T09:12:07Z</time>
      </trkpt>
      <trkpt lat="45.63586" lon="6.10103">
        <ele>1310.9</ele>
        <time>2015-02-11T09:12:08Z</time>
      </trkpt>
      <trkpt lat="45.63586" lon="6.10103">
        <ele>1311</ele>
        <time>2015-02-11T09:12:09Z</time>
      </trkpt>
      <trkpt lat="45.63587" lon="6.10103">
        <ele>1311.1</ele>
        <time>2015-02-11T09:12:10Z</time>
      </trkpt>
      <trkpt lat="45.63587" lon="6.10103">
        <ele>1311.2</ele>
        <time>2015-02-11T09:12:11Z</time>
      </trkpt>
      <trkpt lat="45.63587" lon="6.10104">
        <ele>1311.3</ele>
        <time>2015-02-11T09:12:12Z</time>
      </trkpt>
      <trkpt lat="45.63587" lon="6.10104">
        <ele>1311.4</ele>
        <time>2015-02-11T09:12:13Z</time>
      </trkpt>
      <trkpt lat="45.63588" lon="6.10105">
        <ele>1311.6</ele>
        <time>2015-02-11T09:12:14Z</time>
      </trkpt>
      <trkpt lat="45.63589" lon="6.10105">
        <ele>1311.8</ele>
        <time>2015-02-11T09:12:15Z</time>
      </trkpt>
      <trkpt lat="45.63589" lon="6.10106">
        <ele>1312</ele>
        <time>2015-02-11T09:12:16Z</time>
      </trkpt>
      <trkpt lat="45.6359" lon="6.10106">
        <ele>1312</ele>
        <time>2015-02-11T09:12:17Z</time>
      </trkpt>
      <trkpt lat="45.63591" lon="6.10106">
        <ele>1312.2</ele>
        <time>2015-02-11T09:12:18Z</time>
      </trkpt>
      <trkpt lat="45.63591" lon="6.10107">
        <ele>1312.4</ele>
        <time>2015-02-11T09:12:19Z</time>
      </trkpt>
      <trkpt lat="45.63592" lon="6.10107">
        <ele>1312.6</ele>
        <time>2015-02-11T09:12:20Z</time>
      </trkpt>
      <trkpt lat="45.63592" lon="6.10108">
        <ele>1312.8</ele>
        <time>2015-02-11T09:12:21Z</time>
      </trkpt>
      <trkpt lat="45.63593" lon="6.10108">
        <ele>1313</ele>
        <time>2015-02-11T09:12:22Z</time>
      </trkpt>
      <trkpt lat="45.63593" lon="6.10109">
        <ele>1313.1</ele>
        <time>2015-02-11T09:12:23Z</time>
      </trkpt>
      <trkpt lat="45.63594" lon="6.10109">
        <ele>1313.3</ele>
        <time>2015-02-11T09:12:24Z</time>
      </trkpt>
      <trkpt lat="45.63595" lon="6.1011">
        <ele>1313.5</ele>
        <time>2015-02-11T09:12:25Z</time>
      </trkpt>
      <trkpt lat="45.63595" lon="6.10111">
        <ele>1314</ele>
        <time>2015-02-11T09:12:26Z</time>
      </trkpt>
      <trkpt lat="45.63595" lon="6.10112">
        <ele>1314.1</ele>
        <time>2015-02-11T09:12:27Z</time>
      </trkpt>
      <trkpt lat="45.63595" lon="6.10112">
        <ele>1314.4</ele>
        <time>2015-02-11T09:12:28Z</time>
      </trkpt>
      <trkpt lat="45.63596" lon="6.10112">
        <ele>1314.3</ele>
        <time>2015-02-11T09:12:29Z</time>
      </trkpt>
      <trkpt lat="45.63596" lon="6.10112">
        <ele>1314.4</ele>
        <time>2015-02-11T09:12:30Z</time>
      </trkpt>
      <trkpt lat="45.63595" lon="6.10113">
        <ele>1314.7</ele>
        <time>2015-02-11T09:12:31Z</time>
      </trkpt>
      <trkpt lat="45.63595" lon="6.10114">
        <ele>1314.9</ele>
        <time>2015-02-11T09:12:32Z</time>
      </trkpt>
      <trkpt lat="45.63595" lon="6.10114">
        <ele>1315.1</ele>
        <time>2015-02-11T09:12:33Z</time>
      </trkpt>
      <trkpt lat="45.63594" lon="6.10115">
        <ele>1315.4</ele>
        <time>2015-02-11T09:12:34Z</time>
      </trkpt>
      <trkpt lat="45.63594" lon="6.10115">
        <ele>1315.5</ele>
        <time>2015-02-11T09:12:35Z</time>
      </trkpt>
      <trkpt lat="45.63593" lon="6.10116">
        <ele>1315.7</ele>
        <time>2015-02-11T09:12:36Z</time>
      </trkpt>
      <trkpt lat="45.63593" lon="6.10115">
        <ele>1315.5</ele>
        <time>2015-02-11T09:12:37Z</time>
      </trkpt>
      <trkpt lat="45.63592" lon="6.10115">
        <ele>1315.5</ele>
        <time>2015-02-11T09:12:38Z</time>
      </trkpt>
      <trkpt lat="45.63592" lon="6.10116">
        <ele>1315.8</ele>
        <time>2015-02-11T09:12:39Z</time>
      </trkpt>
      <trkpt lat="45.63591" lon="6.10117">
        <ele>1316</ele>
        <time>2015-02-11T09:12:40Z</time>
      </trkpt>
      <trkpt lat="45.63591" lon="6.10117">
        <ele>1316.1</ele>
        <time>2015-02-11T09:12:41Z</time>
      </trkpt>
      <trkpt lat="45.6359" lon="6.10117">
        <ele>1316.2</ele>
        <time>2015-02-11T09:12:42Z</time>
      </trkpt>
      <trkpt lat="45.6359" lon="6.10118">
        <ele>1316.4</ele>
        <time>2015-02-11T09:12:43Z</time>
      </trkpt>
      <trkpt lat="45.6359" lon="6.10119">
        <ele>1316.7</ele>
        <time>2015-02-11T09:12:44Z</time>
      </trkpt>
      <trkpt lat="45.63589" lon="6.10119">
        <ele>1316.7</ele>
        <time>2015-02-11T09:12:45Z</time>
      </trkpt>
      <trkpt lat="45.63588" lon="6.10119">
        <ele>1316.9</ele>
        <time>2015-02-11T09:12:46Z</time>
      </trkpt>
      <trkpt lat="45.63587" lon="6.1012">
        <ele>1317.1</ele>
        <time>2015-02-11T09:12:47Z</time>
      </trkpt>
      <trkpt lat="45.63587" lon="6.10121">
        <ele>1317.4</ele>
        <time>2015-02-11T09:12:48Z</time>
      </trkpt>
      <trkpt lat="45.63586" lon="6.10121">
        <ele>1317.6</ele>
        <time>2015-02-11T09:12:49Z</time>
      </trkpt>
      <trkpt lat="45.63586" lon="6.10122">
        <ele>1317.7</ele>
        <time>2015-02-11T09:12:50Z</time>
      </trkpt>
      <trkpt lat="45.63586" lon="6.10122">
        <ele>1317.9</ele>
        <time>2015-02-11T09:12:51Z</time>
      </trkpt>
      <trkpt lat="45.63585" lon="6.10122">
        <ele>1317.9</ele>
        <time>2015-02-11T09:12:52Z</time>
      </trkpt>
      <trkpt lat="45.63585" lon="6.10122">
        <ele>1317.9</ele>
        <time>2015-02-11T09:12:53Z</time>
      </trkpt>
      <trkpt lat="45.63585" lon="6.10123">
        <ele>1318.1</ele>
        <time>2015-02-11T09:12:54Z</time>
      </trkpt>
      <trkpt lat="45.63585" lon="6.10123">
        <ele>1318.2</ele>
        <time>2015-02-11T09:12:55Z</time>
      </trkpt>
      <trkpt lat="45.63585" lon="6.10123">
        <ele>1318.4</ele>
        <time>2015-02-11T09:12:56Z</time>
      </trkpt>
      <trkpt lat="45.63584" lon="6.10124">
        <ele>1318.5</ele>
        <time>2015-02-11T09:12:57Z</time>
      </trkpt>
      <trkpt lat="45.63584" lon="6.10124">
        <ele>1318.6</ele>
        <time>2015-02-11T09:12:58Z</time>
      </trkpt>
      <trkpt lat="45.63585" lon="6.10125">
        <ele>1319</ele>
        <time>2015-02-11T09:12:59Z</time>
      </trkpt>
      <trkpt lat="45.63585" lon="6.10126">
        <ele>1319.2</ele>
        <time>2015-02-11T09:13:00Z</time>
      </trkpt>
      <trkpt lat="45.63585" lon="6.10126">
        <ele>1319.2</ele>
        <time>2015-02-11T09:13:01Z</time>
      </trkpt>
      <trkpt lat="45.63585" lon="6.10126">
        <ele>1319.3</ele>
        <time>2015-02-11T09:13:02Z</time>
      </trkpt>
      <trkpt lat="45.63585" lon="6.10127">
        <ele>1319.6</ele>
        <time>2015-02-11T09:13:03Z</time>
      </trkpt>
      <trkpt lat="45.63585" lon="6.10127">
        <ele>1319.7</ele>
        <time>2015-02-11T09:13:04Z</time>
      </trkpt>
      <trkpt lat="45.63585" lon="6.10128">
        <ele>1319.9</ele>
        <time>2015-02-11T09:13:05Z</time>
      </trkpt>
      <trkpt lat="45.63586" lon="6.10128">
        <ele>1320.2</ele>
        <time>2015-02-11T09:13:06Z</time>
      </trkpt>
      <trkpt lat="45.63586" lon="6.10129">
        <ele>1320.4</ele>
        <time>2015-02-11T09:13:07Z</time>
      </trkpt>
      <trkpt lat="45.63586" lon="6.10129">
        <ele>1320.6</ele>
        <time>2015-02-11T09:13:08Z</time>
      </trkpt>
      <trkpt lat="45.63586" lon="6.1013">
        <ele>1320.9</ele>
        <time>2015-02-11T09:13:09Z</time>
      </trkpt>
      <trkpt lat="45.63587" lon="6.10131">
        <ele>1321.2</ele>
        <time>2015-02-11T09:13:10Z</time>
      </trkpt>
      <trkpt lat="45.63587" lon="6.10131">
        <ele>1321.3</ele>
        <time>2015-02-11T09:13:11Z</time>
      </trkpt>
      <trkpt lat="45.63587" lon="6.10132">
        <ele>1321.6</ele>
        <time>2015-02-11T09:13:12Z</time>
      </trkpt>
      <trkpt lat="45.63587" lon="6.10132">
        <ele>1321.6</ele>
        <time>2015-02-11T09:13:13Z</time>
      </trkpt>
      <trkpt lat="45.63587" lon="6.10133">
        <ele>1321.7</ele>
        <time>2015-02-11T09:13:14Z</time>
      </trkpt>
      <trkpt lat="45.63587" lon="6.10133">
        <ele>1321.9</ele>
        <time>2015-02-11T09:13:15Z</time>
      </trkpt>
      <trkpt lat="45.63587" lon="6.10134">
        <ele>1322.1</ele>
        <time>2015-02-11T09:13:16Z</time>
      </trkpt>
      <trkpt lat="45.63588" lon="6.10134">
        <ele>1322.3</ele>
        <time>2015-02-11T09:13:17Z</time>
      </trkpt>
      <trkpt lat="45.63588" lon="6.10135">
        <ele>1322.5</ele>
        <time>2015-02-11T09:13:18Z</time>
      </trkpt>
      <trkpt lat="45.63588" lon="6.10135">
        <ele>1322.7</ele>
        <time>2015-02-11T09:13:19Z</time>
      </trkpt>
      <trkpt lat="45.63589" lon="6.10136">
        <ele>1323</ele>
        <time>2015-02-11T09:13:20Z</time>
      </trkpt>
      <trkpt lat="45.63589" lon="6.10137">
        <ele>1323.1</ele>
        <time>2015-02-11T09:13:21Z</time>
      </trkpt>
      <trkpt lat="45.6359" lon="6.10137">
        <ele>1323.2</ele>
        <time>2015-02-11T09:13:22Z</time>
      </trkpt>
      <trkpt lat="45.63591" lon="6.10137">
        <ele>1323.3</ele>
        <time>2015-02-11T09:13:23Z</time>
      </trkpt>
      <trkpt lat="45.63591" lon="6.10137">
        <ele>1323.3</ele>
        <time>2015-02-11T09:13:24Z</time>
      </trkpt>
      <trkpt lat="45.63592" lon="6.10137">
        <ele>1323.3</ele>
        <time>2015-02-11T09:13:25Z</time>
      </trkpt>
      <trkpt lat="45.63592" lon="6.10137">
        <ele>1323.4</ele>
        <time>2015-02-11T09:13:26Z</time>
      </trkpt>
      <trkpt lat="45.63592" lon="6.10137">
        <ele>1323.5</ele>
        <time>2015-02-11T09:13:27Z</time>
      </trkpt>
      <trkpt lat="45.63592" lon="6.10137">
        <ele>1323.4</ele>
        <time>2015-02-11T09:13:28Z</time>
      </trkpt>
      <trkpt lat="45.63592" lon="6.10137">
        <ele>1323.4</ele>
        <time>2015-02-11T09:13:29Z</time>
      </trkpt>
      <trkpt lat="45.63592" lon="6.10138">
        <ele>1323.5</ele>
        <time>2015-02-11T09:13:30Z</time>
      </trkpt>
      <trkpt lat="45.63592" lon="6.10138">
        <ele>1323.6</ele>
        <time>2015-02-11T09:13:31Z</time>
      </trkpt>
      <trkpt lat="45.63591" lon="6.10138">
        <ele>1323.6</ele>
        <time>2015-02-11T09:13:32Z</time>
      </trkpt>
      <trkpt lat="45.63591" lon="6.10138">
        <ele>1323.7</ele>
        <time>2015-02-11T09:13:33Z</time>
      </trkpt>
      <trkpt lat="45.63591" lon="6.10138">
        <ele>1323.8</ele>
        <time>2015-02-11T09:13:34Z</time>
      </trkpt>
      <trkpt lat="45.6359" lon="6.10139">
        <ele>1324</ele>
        <time>2015-02-11T09:13:35Z</time>
      </trkpt>
      <trkpt lat="45.6359" lon="6.10139">
        <ele>1324</ele>
        <time>2015-02-11T09:13:36Z</time>
      </trkpt>
      <trkpt lat="45.63591" lon="6.10139">
        <ele>1323.9</ele>
        <time>2015-02-11T09:13:37Z</time>
      </trkpt>
      <trkpt lat="45.63591" lon="6.10138">
        <ele>1323.8</ele>
        <time>2015-02-11T09:13:38Z</time>
      </trkpt>
      <trkpt lat="45.63591" lon="6.10138">
        <ele>1323.8</ele>
        <time>2015-02-11T09:13:39Z</time>
      </trkpt>
      <trkpt lat="45.63591" lon="6.10138">
        <ele>1323.8</ele>
        <time>2015-02-11T09:13:40Z</time>
      </trkpt>
      <trkpt lat="45.63591" lon="6.10138">
        <ele>1323.8</ele>
        <time>2015-02-11T09:13:41Z</time>
      </trkpt>
      <trkpt lat="45.63591" lon="6.10138">
        <ele>1323.8</ele>
        <time>2015-02-11T09:13:42Z</time>
      </trkpt>
      <trkpt lat="45.6359" lon="6.10138">
        <ele>1323.6</ele>
        <time>2015-02-11T09:13:43Z</time>
      </trkpt>
      <trkpt lat="45.6359" lon="6.10138">
        <ele>1323.5</ele>
        <time>2015-02-11T09:13:44Z</time>
      </trkpt>
      <trkpt lat="45.63589" lon="6.10138">
        <ele>1323.5</ele>
        <time>2015-02-11T09:13:45Z</time>
      </trkpt>
      <trkpt lat="45.63589" lon="6.10138">
        <ele>1323.6</ele>
        <time>2015-02-11T09:13:46Z</time>
      </trkpt>
      <trkpt lat="45.63588" lon="6.10138">
        <ele>1323.7</ele>
        <time>2015-02-11T09:13:47Z</time>
      </trkpt>
      <trkpt lat="45.63588" lon="6.10138">
        <ele>1323.7</ele>
        <time>2015-02-11T09:13:48Z</time>
      </trkpt>
      <trkpt lat="45.63587" lon="6.10138">
        <ele>1323.6</ele>
        <time>2015-02-11T09:13:49Z</time>
      </trkpt>
      <trkpt lat="45.63587" lon="6.10138">
        <ele>1323.6</ele>
        <time>2015-02-11T09:13:50Z</time>
      </trkpt>
      <trkpt lat="45.63587" lon="6.10138">
        <ele>1323.6</ele>
        <time>2015-02-11T09:13:51Z</time>
      </trkpt>
      <trkpt lat="45.63586" lon="6.10138">
        <ele>1323.6</ele>
        <time>2015-02-11T09:13:52Z</time>
      </trkpt>
      <trkpt lat="45.63586" lon="6.10138">
        <ele>1323.6</ele>
        <time>2015-02-11T09:13:53Z</time>
      </trkpt>
      <trkpt lat="45.63586" lon="6.10138">
        <ele>1323.5</ele>
        <time>2015-02-11T09:13:54Z</time>
      </trkpt>
      <trkpt lat="45.63586" lon="6.10138">
        <ele>1323.5</ele>
        <time>2015-02-11T09:13:55Z</time>
      </trkpt>
      <trkpt lat="45.63586" lon="6.10138">
        <ele>1323.6</ele>
        <time>2015-02-11T09:13:56Z</time>
      </trkpt>
      <trkpt lat="45.63585" lon="6.10138">
        <ele>1323.7</ele>
        <time>2015-02-11T09:13:57Z</time>
      </trkpt>
      <trkpt lat="45.63585" lon="6.10138">
        <ele>1323.8</ele>
        <time>2015-02-11T09:13:58Z</time>
      </trkpt>
      <trkpt lat="45.63585" lon="6.10139">
        <ele>1323.9</ele>
        <time>2015-02-11T09:13:59Z</time>
      </trkpt>
      <trkpt lat="45.63585" lon="6.10138">
        <ele>1323.8</ele>
        <time>2015-02-11T09:14:00Z</time>
      </trkpt>
      <trkpt lat="45.63585" lon="6.10139">
        <ele>1323.9</ele>
        <time>2015-02-11T09:14:01Z</time>
      </trkpt>
      <trkpt lat="45.63585" lon="6.10139">
        <ele>1323.9</ele>
        <time>2015-02-11T09:14:02Z</time>
      </trkpt>
      <trkpt lat="45.63585" lon="6.10139">
        <ele>1323.9</ele>
        <time>2015-02-11T09:14:03Z</time>
      </trkpt>
      <trkpt lat="45.63585" lon="6.10139">
        <ele>1324.1</ele>
        <time>2015-02-11T09:14:04Z</time>
      </trkpt>
      <trkpt lat="45.63585" lon="6.1014">
        <ele>1324.3</ele>
        <time>2015-02-11T09:14:05Z</time>
      </trkpt>
      <trkpt lat="45.63585" lon="6.10141">
        <ele>1324.8</ele>
        <time>2015-02-11T09:14:06Z</time>
      </trkpt>
      <trkpt lat="45.63585" lon="6.10141">
        <ele>1325</ele>
        <time>2015-02-11T09:14:07Z</time>
      </trkpt>
      <trkpt lat="45.63585" lon="6.10142">
        <ele>1325.3</ele>
        <time>2015-02-11T09:14:08Z</time>
      </trkpt>
      <trkpt lat="45.63585" lon="6.10142">
        <ele>1325.4</ele>
        <time>2015-02-11T09:14:09Z</time>
      </trkpt>
      <trkpt lat="45.63585" lon="6.10143">
        <ele>1325.6</ele>
        <time>2015-02-11T09:14:10Z</time>
      </trkpt>
      <trkpt lat="45.63585" lon="6.10143">
        <ele>1325.6</ele>
        <time>2015-02-11T09:14:11Z</time>
      </trkpt>
      <trkpt lat="45.63585" lon="6.10143">
        <ele>1325.7</ele>
        <time>2015-02-11T09:14:12Z</time>
      </trkpt>
      <trkpt lat="45.63585" lon="6.10143">
        <ele>1325.9</ele>
        <time>2015-02-11T09:14:13Z</time>
      </trkpt>
      <trkpt lat="45.63586" lon="6.10144">
        <ele>1326.3</ele>
        <time>2015-02-11T09:14:14Z</time>
      </trkpt>
      <trkpt lat="45.63586" lon="6.10145">
        <ele>1326.6</ele>
        <time>2015-02-11T09:14:15Z</time>
      </trkpt>
      <trkpt lat="45.63587" lon="6.10146">
        <ele>1326.9</ele>
        <time>2015-02-11T09:14:16Z</time>
      </trkpt>
      <trkpt lat="45.63587" lon="6.10146">
        <ele>1326.9</ele>
        <time>2015-02-11T09:14:17Z</time>
      </trkpt>
      <trkpt lat="45.63586" lon="6.10146">
        <ele>1327</ele>
        <time>2015-02-11T09:14:18Z</time>
      </trkpt>
      <trkpt lat="45.63586" lon="6.10147">
        <ele>1327.3</ele>
        <time>2015-02-11T09:14:19Z</time>
      </trkpt>
      <trkpt lat="45.63587" lon="6.10147">
        <ele>1327.5</ele>
        <time>2015-02-11T09:14:20Z</time>
      </trkpt>
      <trkpt lat="45.63588" lon="6.10147">
        <ele>1327.6</ele>
        <time>2015-02-11T09:14:21Z</time>
      </trkpt>
      <trkpt lat="45.63588" lon="6.10148">
        <ele>1327.8</ele>
        <time>2015-02-11T09:14:22Z</time>
      </trkpt>
      <trkpt lat="45.63588" lon="6.10148">
        <ele>1328.1</ele>
        <time>2015-02-11T09:14:23Z</time>
      </trkpt>
      <trkpt lat="45.63588" lon="6.10149">
        <ele>1328.2</ele>
        <time>2015-02-11T09:14:24Z</time>
      </trkpt>
      <trkpt lat="45.63588" lon="6.10149">
        <ele>1328.4</ele>
        <time>2015-02-11T09:14:25Z</time>
      </trkpt>
      <trkpt lat="45.63589" lon="6.10149">
        <ele>1328.5</ele>
        <time>2015-02-11T09:14:26Z</time>
      </trkpt>
      <trkpt lat="45.63589" lon="6.1015">
        <ele>1328.6</ele>
        <time>2015-02-11T09:14:27Z</time>
      </trkpt>
      <trkpt lat="45.6359" lon="6.1015">
        <ele>1328.8</ele>
        <time>2015-02-11T09:14:28Z</time>
      </trkpt>
      <trkpt lat="45.63591" lon="6.1015">
        <ele>1328.8</ele>
        <time>2015-02-11T09:14:29Z</time>
      </trkpt>
      <trkpt lat="45.63591" lon="6.1015">
        <ele>1328.8</ele>
        <time>2015-02-11T09:14:30Z</time>
      </trkpt>
      <trkpt lat="45.63591" lon="6.1015">
        <ele>1328.7</ele>
        <time>2015-02-11T09:14:31Z</time>
      </trkpt>
      <trkpt lat="45.63591" lon="6.1015">
        <ele>1328.6</ele>
        <time>2015-02-11T09:14:32Z</time>
      </trkpt>
      <trkpt lat="45.63591" lon="6.10149">
        <ele>1328.5</ele>
        <time>2015-02-11T09:14:33Z</time>
      </trkpt>
      <trkpt lat="45.6359" lon="6.1015">
        <ele>1328.6</ele>
        <time>2015-02-11T09:14:34Z</time>
      </trkpt>
      <trkpt lat="45.6359" lon="6.1015">
        <ele>1328.6</ele>
        <time>2015-02-11T09:14:35Z</time>
      </trkpt>
      <trkpt lat="45.6359" lon="6.1015">
        <ele>1328.7</ele>
        <time>2015-02-11T09:14:36Z</time>
      </trkpt>
      <trkpt lat="45.6359" lon="6.1015">
        <ele>1328.6</ele>
        <time>2015-02-11T09:14:37Z</time>
      </trkpt>
      <trkpt lat="45.6359" lon="6.1015">
        <ele>1328.8</ele>
        <time>2015-02-11T09:14:38Z</time>
      </trkpt>
      <trkpt lat="45.6359" lon="6.1015">
        <ele>1328.9</ele>
        <time>2015-02-11T09:14:39Z</time>
      </trkpt>
      <trkpt lat="45.6359" lon="6.1015">
        <ele>1328.9</ele>
        <time>2015-02-11T09:14:40Z</time>
      </trkpt>
      <trkpt lat="45.6359" lon="6.1015">
        <ele>1329</ele>
        <time>2015-02-11T09:14:41Z</time>
      </trkpt>
      <trkpt lat="45.63589" lon="6.10151">
        <ele>1329</ele>
        <time>2015-02-11T09:14:42Z</time>
      </trkpt>
      <trkpt lat="45.63589" lon="6.1015">
        <ele>1329</ele>
        <time>2015-02-11T09:14:43Z</time>
      </trkpt>
      <trkpt lat="45.63588" lon="6.1015">
        <ele>1328.9</ele>
        <time>2015-02-11T09:14:44Z</time>
      </trkpt>
      <trkpt lat="45.63588" lon="6.1015">
        <ele>1329</ele>
        <time>2015-02-11T09:14:45Z</time>
      </trkpt>
      <trkpt lat="45.63587" lon="6.10151">
        <ele>1329</ele>
        <time>2015-02-11T09:14:46Z</time>
      </trkpt>
      <trkpt lat="45.63586" lon="6.1015">
        <ele>1328.8</ele>
        <time>2015-02-11T09:14:47Z</time>
      </trkpt>
      <trkpt lat="45.63586" lon="6.1015">
        <ele>1328.7</ele>
        <time>2015-02-11T09:14:48Z</time>
      </trkpt>
      <trkpt lat="45.63585" lon="6.1015">
        <ele>1328.7</ele>
        <time>2015-02-11T09:14:49Z</time>
      </trkpt>
      <trkpt lat="45.63585" lon="6.1015">
        <ele>1328.8</ele>
        <time>2015-02-11T09:14:50Z</time>
      </trkpt>
      <trkpt lat="45.63585" lon="6.10151">
        <ele>1329</ele>
        <time>2015-02-11T09:14:51Z</time>
      </trkpt>
      <trkpt lat="45.63584" lon="6.10151">
        <ele>1329.1</ele>
        <time>2015-02-11T09:14:52Z</time>
      </trkpt>
      <trkpt lat="45.63584" lon="6.10151">
        <ele>1329.2</ele>
        <time>2015-02-11T09:14:53Z</time>
      </trkpt>
      <trkpt lat="45.63583" lon="6.10151">
        <ele>1329.2</ele>
        <time>2015-02-11T09:14:54Z</time>
      </trkpt>
      <trkpt lat="45.63582" lon="6.10152">
        <ele>1329.5</ele>
        <time>2015-02-11T09:14:55Z</time>
      </trkpt>
      <trkpt lat="45.63582" lon="6.10152">
        <ele>1329.6</ele>
        <time>2015-02-11T09:14:56Z</time>
      </trkpt>
      <trkpt lat="45.63581" lon="6.10151">
        <ele>1329.4</ele>
        <time>2015-02-11T09:14:57Z</time>
      </trkpt>
      <trkpt lat="45.63582" lon="6.10151">
        <ele>1329.3</ele>
        <time>2015-02-11T09:14:58Z</time>
      </trkpt>
      <trkpt lat="45.63582" lon="6.10152">
        <ele>1329.5</ele>
        <time>2015-02-11T09:14:59Z</time>
      </trkpt>
      <trkpt lat="45.63582" lon="6.10152">
        <ele>1329.5</ele>
        <time>2015-02-11T09:15:00Z</time>
      </trkpt>
      <trkpt lat="45.63582" lon="6.10152">
        <ele>1329.5</ele>
        <time>2015-02-11T09:15:01Z</time>
      </trkpt>
      <trkpt lat="45.63582" lon="6.10151">
        <ele>1329.3</ele>
        <time>2015-02-11T09:15:02Z</time>
      </trkpt>
      <trkpt lat="45.63582" lon="6.10151">
        <ele>1329.1</ele>
        <time>2015-02-11T09:15:03Z</time>
      </trkpt>
      <trkpt lat="45.63581" lon="6.1015">
        <ele>1329</ele>
        <time>2015-02-11T09:15:04Z</time>
      </trkpt>
      <trkpt lat="45.63581" lon="6.10151">
        <ele>1329.1</ele>
        <time>2015-02-11T09:15:05Z</time>
      </trkpt>
      <trkpt lat="45.63581" lon="6.10151">
        <ele>1329.3</ele>
        <time>2015-02-11T09:15:06Z</time>
      </trkpt>
      <trkpt lat="45.63581" lon="6.10151">
        <ele>1329.4</ele>
        <time>2015-02-11T09:15:07Z</time>
      </trkpt>
      <trkpt lat="45.63581" lon="6.10151">
        <ele>1329.4</ele>
        <time>2015-02-11T09:15:08Z</time>
      </trkpt>
      <trkpt lat="45.63581" lon="6.10151">
        <ele>1329.4</ele>
        <time>2015-02-11T09:15:09Z</time>
      </trkpt>
      <trkpt lat="45.63581" lon="6.10151">
        <ele>1329.4</ele>
        <time>2015-02-11T09:15:10Z</time>
      </trkpt>
      <trkpt lat="45.63581" lon="6.10151">
        <ele>1329.4</ele>
        <time>2015-02-11T09:15:11Z</time>
      </trkpt>
      <trkpt lat="45.63581" lon="6.10151">
        <ele>1329.3</ele>
        <time>2015-02-11T09:15:12Z</time>
      </trkpt>
      <trkpt lat="45.63581" lon="6.10151">
        <ele>1329.2</ele>
        <time>2015-02-11T09:15:13Z</time>
      </trkpt>
      <trkpt lat="45.63581" lon="6.10151">
        <ele>1329.3</ele>
        <time>2015-02-11T09:15:14Z</time>
      </trkpt>
      <trkpt lat="45.63581" lon="6.10151">
        <ele>1329.4</ele>
        <time>2015-02-11T09:15:15Z</time>
      </trkpt>
      <trkpt lat="45.63581" lon="6.10151">
        <ele>1329.5</ele>
        <time>2015-02-11T09:15:16Z</time>
      </trkpt>
      <trkpt lat="45.63581" lon="6.10152">
        <ele>1329.5</ele>
        <time>2015-02-11T09:15:17Z</time>
      </trkpt>
      <trkpt lat="45.63581" lon="6.10152">
        <ele>1329.5</ele>
        <time>2015-02-11T09:15:18Z</time>
      </trkpt>
      <trkpt lat="45.63581" lon="6.10151">
        <ele>1329.5</ele>
        <time>2015-02-11T09:15:19Z</time>
      </trkpt>
      <trkpt lat="45.63581" lon="6.10152">
        <ele>1329.5</ele>
        <time>2015-02-11T09:15:20Z</time>
      </trkpt>
      <trkpt lat="45.63581" lon="6.10151">
        <ele>1329.5</ele>
        <time>2015-02-11T09:15:21Z</time>
      </trkpt>
      <trkpt lat="45.63581" lon="6.10151">
        <ele>1329.4</ele>
        <time>2015-02-11T09:15:22Z</time>
      </trkpt>
      <trkpt lat="45.63581" lon="6.10151">
        <ele>1329.4</ele>
        <time>2015-02-11T09:15:23Z</time>
      </trkpt>
      <trkpt lat="45.63581" lon="6.10151">
        <ele>1329.3</ele>
        <time>2015-02-11T09:15:24Z</time>
      </trkpt>
      <trkpt lat="45.6358" lon="6.10151">
        <ele>1329.3</ele>
        <time>2015-02-11T09:15:25Z</time>
      </trkpt>
      <trkpt lat="45.6358" lon="6.10151">
        <ele>1329.3</ele>
        <time>2015-02-11T09:15:26Z</time>
      </trkpt>
      <trkpt lat="45.6358" lon="6.10151">
        <ele>1329.2</ele>
        <time>2015-02-11T09:15:27Z</time>
      </trkpt>
      <trkpt lat="45.6358" lon="6.10151">
        <ele>1329.2</ele>
        <time>2015-02-11T09:15:28Z</time>
      </trkpt>
      <trkpt lat="45.6358" lon="6.10151">
        <ele>1329.1</ele>
        <time>2015-02-11T09:15:29Z</time>
      </trkpt>
      <trkpt lat="45.6358" lon="6.1015">
        <ele>1329.1</ele>
        <time>2015-02-11T09:15:30Z</time>
      </trkpt>
      <trkpt lat="45.6358" lon="6.1015">
        <ele>1329</ele>
        <time>2015-02-11T09:15:31Z</time>
      </trkpt>
      <trkpt lat="45.6358" lon="6.1015">
        <ele>1329</ele>
        <time>2015-02-11T09:15:32Z</time>
      </trkpt>
      <trkpt lat="45.6358" lon="6.1015">
        <ele>1329</ele>
        <time>2015-02-11T09:15:33Z</time>
      </trkpt>
      <trkpt lat="45.6358" lon="6.1015">
        <ele>1329</ele>
        <time>2015-02-11T09:15:34Z</time>
      </trkpt>
      <trkpt lat="45.6358" lon="6.1015">
        <ele>1329.1</ele>
        <time>2015-02-11T09:15:35Z</time>
      </trkpt>
      <trkpt lat="45.6358" lon="6.10151">
        <ele>1329.1</ele>
        <time>2015-02-11T09:15:36Z</time>
      </trkpt>
      <trkpt lat="45.6358" lon="6.10151">
        <ele>1329.1</ele>
        <time>2015-02-11T09:15:37Z</time>
      </trkpt>
      <trkpt lat="45.6358" lon="6.10151">
        <ele>1329.2</ele>
        <time>2015-02-11T09:15:38Z</time>
      </trkpt>
      <trkpt lat="45.6358" lon="6.10151">
        <ele>1329.2</ele>
        <time>2015-02-11T09:15:39Z</time>
      </trkpt>
      <trkpt lat="45.6358" lon="6.1015">
        <ele>1329.1</ele>
        <time>2015-02-11T09:15:40Z</time>
      </trkpt>
      <trkpt lat="45.6358" lon="6.1015">
        <ele>1329.1</ele>
        <time>2015-02-11T09:15:41Z</time>
      </trkpt>
      <trkpt lat="45.6358" lon="6.10151">
        <ele>1329.2</ele>
        <time>2015-02-11T09:15:42Z</time>
      </trkpt>
      <trkpt lat="45.6358" lon="6.10151">
        <ele>1329.3</ele>
        <time>2015-02-11T09:15:43Z</time>
      </trkpt>
      <trkpt lat="45.6358" lon="6.10151">
        <ele>1329.3</ele>
        <time>2015-02-11T09:15:44Z</time>
      </trkpt>
      <trkpt lat="45.6358" lon="6.10151">
        <ele>1329.4</ele>
        <time>2015-02-11T09:15:45Z</time>
      </trkpt>
      <trkpt lat="45.6358" lon="6.10152">
        <ele>1329.6</ele>
        <time>2015-02-11T09:15:46Z</time>
      </trkpt>
      <trkpt lat="45.63581" lon="6.10152">
        <ele>1329.9</ele>
        <time>2015-02-11T09:15:47Z</time>
      </trkpt>
      <trkpt lat="45.63581" lon="6.10153">
        <ele>1330.1</ele>
        <time>2015-02-11T09:15:48Z</time>
      </trkpt>
      <trkpt lat="45.63581" lon="6.10154">
        <ele>1330.4</ele>
        <time>2015-02-11T09:15:49Z</time>
      </trkpt>
      <trkpt lat="45.63581" lon="6.10154">
        <ele>1330.7</ele>
        <time>2015-02-11T09:15:50Z</time>
      </trkpt>
      <trkpt lat="45.63582" lon="6.10155">
        <ele>1331</ele>
        <time>2015-02-11T09:15:51Z</time>
      </trkpt>
      <trkpt lat="45.63582" lon="6.10156">
        <ele>1331.3</ele>
        <time>2015-02-11T09:15:52Z</time>
      </trkpt>
      <trkpt lat="45.63582" lon="6.10156">
        <ele>1331.5</ele>
        <time>2015-02-11T09:15:53Z</time>
      </trkpt>
      <trkpt lat="45.63582" lon="6.10156">
        <ele>1331.5</ele>
        <time>2015-02-11T09:15:54Z</time>
      </trkpt>
      <trkpt lat="45.63582" lon="6.10156">
        <ele>1331.4</ele>
        <time>2015-02-11T09:15:55Z</time>
      </trkpt>
      <trkpt lat="45.63582" lon="6.10156">
        <ele>1331.5</ele>
        <time>2015-02-11T09:15:56Z</time>
      </trkpt>
      <trkpt lat="45.63582" lon="6.10156">
        <ele>1331.4</ele>
        <time>2015-02-11T09:15:57Z</time>
      </trkpt>
      <trkpt lat="45.63582" lon="6.10156">
        <ele>1331.2</ele>
        <time>2015-02-11T09:15:58Z</time>
      </trkpt>
      <trkpt lat="45.63582" lon="6.10156">
        <ele>1331.3</ele>
        <time>2015-02-11T09:15:59Z</time>
      </trkpt>
      <trkpt lat="45.63582" lon="6.10156">
        <ele>1331.3</ele>
        <time>2015-02-11T09:16:00Z</time>
      </trkpt>
      <trkpt lat="45.63582" lon="6.10156">
        <ele>1331.3</ele>
        <time>2015-02-11T09:16:01Z</time>
      </trkpt>
      <trkpt lat="45.63583" lon="6.10156">
        <ele>1331.4</ele>
        <time>2015-02-11T09:16:02Z</time>
      </trkpt>
      <trkpt lat="45.63583" lon="6.10156">
        <ele>1331.5</ele>
        <time>2015-02-11T09:16:03Z</time>
      </trkpt>
      <trkpt lat="45.63583" lon="6.10156">
        <ele>1331.5</ele>
        <time>2015-02-11T09:16:04Z</time>
      </trkpt>
      <trkpt lat="45.63583" lon="6.10157">
        <ele>1331.6</ele>
        <time>2015-02-11T09:16:05Z</time>
      </trkpt>
      <trkpt lat="45.63583" lon="6.10157">
        <ele>1331.7</ele>
        <time>2015-02-11T09:16:06Z</time>
      </trkpt>
      <trkpt lat="45.63583" lon="6.10157">
        <ele>1331.8</ele>
        <time>2015-02-11T09:16:07Z</time>
      </trkpt>
      <trkpt lat="45.63583" lon="6.10157">
        <ele>1332</ele>
        <time>2015-02-11T09:16:08Z</time>
      </trkpt>
      <trkpt lat="45.63582" lon="6.10158">
        <ele>1332.5</ele>
        <time>2015-02-11T09:16:09Z</time>
      </trkpt>
      <trkpt lat="45.63582" lon="6.10159">
        <ele>1332.8</ele>
        <time>2015-02-11T09:16:10Z</time>
      </trkpt>
      <trkpt lat="45.63581" lon="6.1016">
        <ele>1333.3</ele>
        <time>2015-02-11T09:16:11Z</time>
      </trkpt>
      <trkpt lat="45.63581" lon="6.1016">
        <ele>1333.4</ele>
        <time>2015-02-11T09:16:12Z</time>
      </trkpt>
      <trkpt lat="45.63581" lon="6.10161">
        <ele>1333.4</ele>
        <time>2015-02-11T09:16:13Z</time>
      </trkpt>
      <trkpt lat="45.63581" lon="6.10161">
        <ele>1333.6</ele>
        <time>2015-02-11T09:16:14Z</time>
      </trkpt>
      <trkpt lat="45.6358" lon="6.10161">
        <ele>1333.7</ele>
        <time>2015-02-11T09:16:15Z</time>
      </trkpt>
      <trkpt lat="45.63581" lon="6.10162">
        <ele>1333.9</ele>
        <time>2015-02-11T09:16:16Z</time>
      </trkpt>
      <trkpt lat="45.6358" lon="6.10162">
        <ele>1334</ele>
        <time>2015-02-11T09:16:17Z</time>
      </trkpt>
      <trkpt lat="45.6358" lon="6.10162">
        <ele>1333.9</ele>
        <time>2015-02-11T09:16:18Z</time>
      </trkpt>
      <trkpt lat="45.6358" lon="6.10162">
        <ele>1334.1</ele>
        <time>2015-02-11T09:16:19Z</time>
      </trkpt>
      <trkpt lat="45.6358" lon="6.10162">
        <ele>1334.1</ele>
        <time>2015-02-11T09:16:20Z</time>
      </trkpt>
      <trkpt lat="45.6358" lon="6.10162">
        <ele>1334.2</ele>
        <time>2015-02-11T09:16:21Z</time>
      </trkpt>
      <trkpt lat="45.63579" lon="6.10162">
        <ele>1334.2</ele>
        <time>2015-02-11T09:16:22Z</time>
      </trkpt>
      <trkpt lat="45.63579" lon="6.10162">
        <ele>1334.2</ele>
        <time>2015-02-11T09:16:23Z</time>
      </trkpt>
      <trkpt lat="45.63579" lon="6.10162">
        <ele>1334.3</ele>
        <time>2015-02-11T09:16:24Z</time>
      </trkpt>
      <trkpt lat="45.63579" lon="6.10163">
        <ele>1334.6</ele>
        <time>2015-02-11T09:16:25Z</time>
      </trkpt>
      <trkpt lat="45.63579" lon="6.10163">
        <ele>1334.7</ele>
        <time>2015-02-11T09:16:26Z</time>
      </trkpt>
      <trkpt lat="45.63579" lon="6.10163">
        <ele>1334.7</ele>
        <time>2015-02-11T09:16:27Z</time>
      </trkpt>
      <trkpt lat="45.63579" lon="6.10163">
        <ele>1334.7</ele>
        <time>2015-02-11T09:16:28Z</time>
      </trkpt>
      <trkpt lat="45.63579" lon="6.10164">
        <ele>1334.8</ele>
        <time>2015-02-11T09:16:29Z</time>
      </trkpt>
      <trkpt lat="45.63579" lon="6.10164">
        <ele>1335</ele>
        <time>2015-02-11T09:16:30Z</time>
      </trkpt>
      <trkpt lat="45.6358" lon="6.10165">
        <ele>1335.2</ele>
        <time>2015-02-11T09:16:31Z</time>
      </trkpt>
      <trkpt lat="45.6358" lon="6.10165">
        <ele>1335.5</ele>
        <time>2015-02-11T09:16:32Z</time>
      </trkpt>
      <trkpt lat="45.6358" lon="6.10166">
        <ele>1335.8</ele>
        <time>2015-02-11T09:16:33Z</time>
      </trkpt>
      <trkpt lat="45.6358" lon="6.10167">
        <ele>1336.1</ele>
        <time>2015-02-11T09:16:34Z</time>
      </trkpt>
      <trkpt lat="45.6358" lon="6.10168">
        <ele>1336.5</ele>
        <time>2015-02-11T09:16:35Z</time>
      </trkpt>
      <trkpt lat="45.6358" lon="6.10168">
        <ele>1336.7</ele>
        <time>2015-02-11T09:16:36Z</time>
      </trkpt>
      <trkpt lat="45.6358" lon="6.10169">
        <ele>1337.1</ele>
        <time>2015-02-11T09:16:37Z</time>
      </trkpt>
      <trkpt lat="45.63581" lon="6.10169">
        <ele>1337.2</ele>
        <time>2015-02-11T09:16:38Z</time>
      </trkpt>
      <trkpt lat="45.63581" lon="6.1017">
        <ele>1337.3</ele>
        <time>2015-02-11T09:16:39Z</time>
      </trkpt>
      <trkpt lat="45.63582" lon="6.1017">
        <ele>1337.4</ele>
        <time>2015-02-11T09:16:40Z</time>
      </trkpt>
      <trkpt lat="45.63582" lon="6.1017">
        <ele>1337.6</ele>
        <time>2015-02-11T09:16:41Z</time>
      </trkpt>
      <trkpt lat="45.63582" lon="6.10171">
        <ele>1337.8</ele>
        <time>2015-02-11T09:16:42Z</time>
      </trkpt>
      <trkpt lat="45.63583" lon="6.10171">
        <ele>1337.7</ele>
        <time>2015-02-11T09:16:43Z</time>
      </trkpt>
      <trkpt lat="45.63583" lon="6.10171">
        <ele>1337.9</ele>
        <time>2015-02-11T09:16:44Z</time>
      </trkpt>
      <trkpt lat="45.63584" lon="6.10172">
        <ele>1338.4</ele>
        <time>2015-02-11T09:16:46Z</time>
      </trkpt>
      <trkpt lat="45.63585" lon="6.10173">
        <ele>1338.7</ele>
        <time>2015-02-11T09:16:47Z</time>
      </trkpt>
      <trkpt lat="45.63585" lon="6.10174">
        <ele>1338.9</ele>
        <time>2015-02-11T09:16:48Z</time>
      </trkpt>
      <trkpt lat="45.63585" lon="6.10174">
        <ele>1339</ele>
        <time>2015-02-11T09:16:49Z</time>
      </trkpt>
      <trkpt lat="45.63586" lon="6.10175">
        <ele>1339.5</ele>
        <time>2015-02-11T09:16:50Z</time>
      </trkpt>
      <trkpt lat="45.63586" lon="6.10175">
        <ele>1339.7</ele>
        <time>2015-02-11T09:16:51Z</time>
      </trkpt>
      <trkpt lat="45.63586" lon="6.10176">
        <ele>1340.1</ele>
        <time>2015-02-11T09:16:52Z</time>
      </trkpt>
      <trkpt lat="45.63586" lon="6.10176">
        <ele>1340.1</ele>
        <time>2015-02-11T09:16:53Z</time>
      </trkpt>
      <trkpt lat="45.63587" lon="6.10177">
        <ele>1340.3</ele>
        <time>2015-02-11T09:16:54Z</time>
      </trkpt>
      <trkpt lat="45.63587" lon="6.10177">
        <ele>1340.4</ele>
        <time>2015-02-11T09:16:55Z</time>
      </trkpt>
      <trkpt lat="45.63588" lon="6.10178">
        <ele>1340.7</ele>
        <time>2015-02-11T09:16:56Z</time>
      </trkpt>
      <trkpt lat="45.63588" lon="6.10178">
        <ele>1340.7</ele>
        <time>2015-02-11T09:16:57Z</time>
      </trkpt>
      <trkpt lat="45.63589" lon="6.10178">
        <ele>1340.9</ele>
        <time>2015-02-11T09:16:58Z</time>
      </trkpt>
      <trkpt lat="45.63589" lon="6.10178">
        <ele>1341</ele>
        <time>2015-02-11T09:16:59Z</time>
      </trkpt>
      <trkpt lat="45.63589" lon="6.10179">
        <ele>1341.1</ele>
        <time>2015-02-11T09:17:00Z</time>
      </trkpt>
      <trkpt lat="45.63589" lon="6.10179">
        <ele>1341.1</ele>
        <time>2015-02-11T09:17:01Z</time>
      </trkpt>
      <trkpt lat="45.63589" lon="6.10178">
        <ele>1340.9</ele>
        <time>2015-02-11T09:17:02Z</time>
      </trkpt>
      <trkpt lat="45.63589" lon="6.10178">
        <ele>1340.6</ele>
        <time>2015-02-11T09:17:03Z</time>
      </trkpt>
      <trkpt lat="45.63589" lon="6.10178">
        <ele>1340.6</ele>
        <time>2015-02-11T09:17:04Z</time>
      </trkpt>
      <trkpt lat="45.63589" lon="6.10178">
        <ele>1340.6</ele>
        <time>2015-02-11T09:17:05Z</time>
      </trkpt>
      <trkpt lat="45.63589" lon="6.10178">
        <ele>1340.6</ele>
        <time>2015-02-11T09:17:06Z</time>
      </trkpt>
      <trkpt lat="45.63589" lon="6.10178">
        <ele>1340.8</ele>
        <time>2015-02-11T09:17:07Z</time>
      </trkpt>
      <trkpt lat="45.63588" lon="6.10178">
        <ele>1341</ele>
        <time>2015-02-11T09:17:08Z</time>
      </trkpt>
      <trkpt lat="45.63588" lon="6.10179">
        <ele>1341.1</ele>
        <time>2015-02-11T09:17:09Z</time>
      </trkpt>
      <trkpt lat="45.63587" lon="6.10179">
        <ele>1341.3</ele>
        <time>2015-02-11T09:17:10Z</time>
      </trkpt>
      <trkpt lat="45.63587" lon="6.10179">
        <ele>1341.4</ele>
        <time>2015-02-11T09:17:11Z</time>
      </trkpt>
      <trkpt lat="45.63586" lon="6.1018">
        <ele>1341.6</ele>
        <time>2015-02-11T09:17:12Z</time>
      </trkpt>
      <trkpt lat="45.63585" lon="6.1018">
        <ele>1341.7</ele>
        <time>2015-02-11T09:17:13Z</time>
      </trkpt>
      <trkpt lat="45.63585" lon="6.10181">
        <ele>1342</ele>
        <time>2015-02-11T09:17:14Z</time>
      </trkpt>
      <trkpt lat="45.63584" lon="6.10181">
        <ele>1342.1</ele>
        <time>2015-02-11T09:17:15Z</time>
      </trkpt>
      <trkpt lat="45.63583" lon="6.10181">
        <ele>1342.3</ele>
        <time>2015-02-11T09:17:17Z</time>
      </trkpt>
      <trkpt lat="45.63582" lon="6.10182">
        <ele>1342.6</ele>
        <time>2015-02-11T09:17:18Z</time>
      </trkpt>
      <trkpt lat="45.63582" lon="6.10183">
        <ele>1343</ele>
        <time>2015-02-11T09:17:19Z</time>
      </trkpt>
      <trkpt lat="45.63582" lon="6.10183">
        <ele>1343.2</ele>
        <time>2015-02-11T09:17:20Z</time>
      </trkpt>
      <trkpt lat="45.63582" lon="6.10184">
        <ele>1343.5</ele>
        <time>2015-02-11T09:17:21Z</time>
      </trkpt>
      <trkpt lat="45.63582" lon="6.10184">
        <ele>1343.8</ele>
        <time>2015-02-11T09:17:22Z</time>
      </trkpt>
      <trkpt lat="45.63581" lon="6.10185">
        <ele>1344</ele>
        <time>2015-02-11T09:17:23Z</time>
      </trkpt>
      <trkpt lat="45.63581" lon="6.10185">
        <ele>1344.2</ele>
        <time>2015-02-11T09:17:24Z</time>
      </trkpt>
      <trkpt lat="45.6358" lon="6.10186">
        <ele>1344.5</ele>
        <time>2015-02-11T09:17:25Z</time>
      </trkpt>
      <trkpt lat="45.63579" lon="6.10186">
        <ele>1344.5</ele>
        <time>2015-02-11T09:17:26Z</time>
      </trkpt>
      <trkpt lat="45.63579" lon="6.10186">
        <ele>1344.7</ele>
        <time>2015-02-11T09:17:27Z</time>
      </trkpt>
      <trkpt lat="45.63578" lon="6.10186">
        <ele>1344.8</ele>
        <time>2015-02-11T09:17:28Z</time>
      </trkpt>
      <trkpt lat="45.63578" lon="6.10187">
        <ele>1344.9</ele>
        <time>2015-02-11T09:17:29Z</time>
      </trkpt>
      <trkpt lat="45.63577" lon="6.10187">
        <ele>1344.9</ele>
        <time>2015-02-11T09:17:30Z</time>
      </trkpt>
      <trkpt lat="45.63577" lon="6.10187">
        <ele>1345.1</ele>
        <time>2015-02-11T09:17:31Z</time>
      </trkpt>
      <trkpt lat="45.63577" lon="6.10187">
        <ele>1345.1</ele>
        <time>2015-02-11T09:17:32Z</time>
      </trkpt>
      <trkpt lat="45.63576" lon="6.10187">
        <ele>1345.2</ele>
        <time>2015-02-11T09:17:33Z</time>
      </trkpt>
      <trkpt lat="45.63576" lon="6.10187">
        <ele>1345.3</ele>
        <time>2015-02-11T09:17:34Z</time>
      </trkpt>
      <trkpt lat="45.63575" lon="6.10187">
        <ele>1345.4</ele>
        <time>2015-02-11T09:17:35Z</time>
      </trkpt>
      <trkpt lat="45.63575" lon="6.10188">
        <ele>1345.6</ele>
        <time>2015-02-11T09:17:36Z</time>
      </trkpt>
      <trkpt lat="45.63575" lon="6.10188">
        <ele>1345.6</ele>
        <time>2015-02-11T09:17:37Z</time>
      </trkpt>
      <trkpt lat="45.63575" lon="6.10188">
        <ele>1345.6</ele>
        <time>2015-02-11T09:17:38Z</time>
      </trkpt>
      <trkpt lat="45.63575" lon="6.10188">
        <ele>1345.6</ele>
        <time>2015-02-11T09:17:39Z</time>
      </trkpt>
      <trkpt lat="45.63576" lon="6.10188">
        <ele>1345.7</ele>
        <time>2015-02-11T09:17:40Z</time>
      </trkpt>
      <trkpt lat="45.63576" lon="6.10188">
        <ele>1345.6</ele>
        <time>2015-02-11T09:17:41Z</time>
      </trkpt>
      <trkpt lat="45.63576" lon="6.10188">
        <ele>1345.7</ele>
        <time>2015-02-11T09:17:42Z</time>
      </trkpt>
      <trkpt lat="45.63576" lon="6.10188">
        <ele>1345.8</ele>
        <time>2015-02-11T09:17:43Z</time>
      </trkpt>
      <trkpt lat="45.63577" lon="6.10189">
        <ele>1346</ele>
        <time>2015-02-11T09:17:44Z</time>
      </trkpt>
      <trkpt lat="45.63577" lon="6.10189">
        <ele>1346.1</ele>
        <time>2015-02-11T09:17:45Z</time>
      </trkpt>
      <trkpt lat="45.63577" lon="6.1019">
        <ele>1346.5</ele>
        <time>2015-02-11T09:17:46Z</time>
      </trkpt>
      <trkpt lat="45.63578" lon="6.1019">
        <ele>1346.5</ele>
        <time>2015-02-11T09:17:47Z</time>
      </trkpt>
      <trkpt lat="45.63578" lon="6.10191">
        <ele>1346.7</ele>
        <time>2015-02-11T09:17:48Z</time>
      </trkpt>
      <trkpt lat="45.63579" lon="6.10191">
        <ele>1346.8</ele>
        <time>2015-02-11T09:17:49Z</time>
      </trkpt>
      <trkpt lat="45.63579" lon="6.10191">
        <ele>1346.9</ele>
        <time>2015-02-11T09:17:50Z</time>
      </trkpt>
      <trkpt lat="45.6358" lon="6.10192">
        <ele>1347</ele>
        <time>2015-02-11T09:17:51Z</time>
      </trkpt>
      <trkpt lat="45.6358" lon="6.10192">
        <ele>1347.2</ele>
        <time>2015-02-11T09:17:52Z</time>
      </trkpt>
      <trkpt lat="45.6358" lon="6.10193">
        <ele>1347.4</ele>
        <time>2015-02-11T09:17:53Z</time>
      </trkpt>
      <trkpt lat="45.63581" lon="6.10193">
        <ele>1347.6</ele>
        <time>2015-02-11T09:17:54Z</time>
      </trkpt>
      <trkpt lat="45.63582" lon="6.10194">
        <ele>1347.7</ele>
        <time>2015-02-11T09:17:55Z</time>
      </trkpt>
      <trkpt lat="45.63583" lon="6.10194">
        <ele>1347.8</ele>
        <time>2015-02-11T09:17:56Z</time>
      </trkpt>
      <trkpt lat="45.63583" lon="6.10194">
        <ele>1347.9</ele>
        <time>2015-02-11T09:17:57Z</time>
      </trkpt>
      <trkpt lat="45.63583" lon="6.10195">
        <ele>1348.2</ele>
        <time>2015-02-11T09:17:58Z</time>
      </trkpt>
      <trkpt lat="45.63584" lon="6.10195">
        <ele>1348.4</ele>
        <time>2015-02-11T09:17:59Z</time>
      </trkpt>
      <trkpt lat="45.63584" lon="6.10196">
        <ele>1348.6</ele>
        <time>2015-02-11T09:18:00Z</time>
      </trkpt>
      <trkpt lat="45.63584" lon="6.10196">
        <ele>1348.7</ele>
        <time>2015-02-11T09:18:01Z</time>
      </trkpt>
      <trkpt lat="45.63584" lon="6.10196">
        <ele>1348.9</ele>
        <time>2015-02-11T09:18:02Z</time>
      </trkpt>
      <trkpt lat="45.63585" lon="6.10197">
        <ele>1349</ele>
        <time>2015-02-11T09:18:03Z</time>
      </trkpt>
      <trkpt lat="45.63585" lon="6.10198">
        <ele>1349.4</ele>
        <time>2015-02-11T09:18:04Z</time>
      </trkpt>
      <trkpt lat="45.63586" lon="6.10198">
        <ele>1349.6</ele>
        <time>2015-02-11T09:18:05Z</time>
      </trkpt>
      <trkpt lat="45.63586" lon="6.10199">
        <ele>1349.9</ele>
        <time>2015-02-11T09:18:06Z</time>
      </trkpt>
      <trkpt lat="45.63587" lon="6.10199">
        <ele>1350.2</ele>
        <time>2015-02-11T09:18:07Z</time>
      </trkpt>
      <trkpt lat="45.63587" lon="6.102">
        <ele>1350.4</ele>
        <time>2015-02-11T09:18:08Z</time>
      </trkpt>
      <trkpt lat="45.63588" lon="6.102">
        <ele>1350.5</ele>
        <time>2015-02-11T09:18:09Z</time>
      </trkpt>
      <trkpt lat="45.63589" lon="6.10201">
        <ele>1350.8</ele>
        <time>2015-02-11T09:18:10Z</time>
      </trkpt>
      <trkpt lat="45.63589" lon="6.10202">
        <ele>1351</ele>
        <time>2015-02-11T09:18:11Z</time>
      </trkpt>
      <trkpt lat="45.6359" lon="6.10202">
        <ele>1351.2</ele>
        <time>2015-02-11T09:18:12Z</time>
      </trkpt>
      <trkpt lat="45.6359" lon="6.10203">
        <ele>1351.4</ele>
        <time>2015-02-11T09:18:13Z</time>
      </trkpt>
      <trkpt lat="45.63591" lon="6.10203">
        <ele>1351.7</ele>
        <time>2015-02-11T09:18:14Z</time>
      </trkpt>
      <trkpt lat="45.63591" lon="6.10204">
        <ele>1351.9</ele>
        <time>2015-02-11T09:18:15Z</time>
      </trkpt>
      <trkpt lat="45.63592" lon="6.10204">
        <ele>1352.1</ele>
        <time>2015-02-11T09:18:16Z</time>
      </trkpt>
      <trkpt lat="45.63592" lon="6.10204">
        <ele>1352.2</ele>
        <time>2015-02-11T09:18:17Z</time>
      </trkpt>
      <trkpt lat="45.63593" lon="6.10205">
        <ele>1352.4</ele>
        <time>2015-02-11T09:18:18Z</time>
      </trkpt>
      <trkpt lat="45.63594" lon="6.10205">
        <ele>1352.6</ele>
        <time>2015-02-11T09:18:19Z</time>
      </trkpt>
      <trkpt lat="45.63594" lon="6.10206">
        <ele>1352.7</ele>
        <time>2015-02-11T09:18:20Z</time>
      </trkpt>
      <trkpt lat="45.63595" lon="6.10206">
        <ele>1352.8</ele>
        <time>2015-02-11T09:18:21Z</time>
      </trkpt>
      <trkpt lat="45.63595" lon="6.10206">
        <ele>1352.9</ele>
        <time>2015-02-11T09:18:22Z</time>
      </trkpt>
      <trkpt lat="45.63596" lon="6.10207">
        <ele>1353</ele>
        <time>2015-02-11T09:18:23Z</time>
      </trkpt>
      <trkpt lat="45.63596" lon="6.10207">
        <ele>1353.2</ele>
        <time>2015-02-11T09:18:24Z</time>
      </trkpt>
      <trkpt lat="45.63597" lon="6.10207">
        <ele>1353.2</ele>
        <time>2015-02-11T09:18:25Z</time>
      </trkpt>
      <trkpt lat="45.63597" lon="6.10207">
        <ele>1353.3</ele>
        <time>2015-02-11T09:18:26Z</time>
      </trkpt>
      <trkpt lat="45.63598" lon="6.10208">
        <ele>1353.5</ele>
        <time>2015-02-11T09:18:27Z</time>
      </trkpt>
      <trkpt lat="45.63598" lon="6.10208">
        <ele>1353.6</ele>
        <time>2015-02-11T09:18:28Z</time>
      </trkpt>
      <trkpt lat="45.63599" lon="6.10209">
        <ele>1353.8</ele>
        <time>2015-02-11T09:18:29Z</time>
      </trkpt>
      <trkpt lat="45.63599" lon="6.10209">
        <ele>1353.9</ele>
        <time>2015-02-11T09:18:30Z</time>
      </trkpt>
      <trkpt lat="45.636" lon="6.10209">
        <ele>1354.1</ele>
        <time>2015-02-11T09:18:31Z</time>
      </trkpt>
      <trkpt lat="45.636" lon="6.1021">
        <ele>1354.2</ele>
        <time>2015-02-11T09:18:32Z</time>
      </trkpt>
      <trkpt lat="45.63601" lon="6.1021">
        <ele>1354.4</ele>
        <time>2015-02-11T09:18:33Z</time>
      </trkpt>
      <trkpt lat="45.63601" lon="6.10211">
        <ele>1354.5</ele>
        <time>2015-02-11T09:18:34Z</time>
      </trkpt>
      <trkpt lat="45.63601" lon="6.10211">
        <ele>1354.7</ele>
        <time>2015-02-11T09:18:35Z</time>
      </trkpt>
      <trkpt lat="45.63602" lon="6.10211">
        <ele>1354.8</ele>
        <time>2015-02-11T09:18:36Z</time>
      </trkpt>
      <trkpt lat="45.63602" lon="6.10212">
        <ele>1355</ele>
        <time>2015-02-11T09:18:37Z</time>
      </trkpt>
      <trkpt lat="45.63603" lon="6.10212">
        <ele>1355.2</ele>
        <time>2015-02-11T09:18:38Z</time>
      </trkpt>
      <trkpt lat="45.63604" lon="6.10213">
        <ele>1355.3</ele>
        <time>2015-02-11T09:18:39Z</time>
      </trkpt>
      <trkpt lat="45.63604" lon="6.10213">
        <ele>1355.4</ele>
        <time>2015-02-11T09:18:40Z</time>
      </trkpt>
      <trkpt lat="45.63605" lon="6.10213">
        <ele>1355.4</ele>
        <time>2015-02-11T09:18:41Z</time>
      </trkpt>
      <trkpt lat="45.63605" lon="6.10213">
        <ele>1355.4</ele>
        <time>2015-02-11T09:18:42Z</time>
      </trkpt>
      <trkpt lat="45.63604" lon="6.10214">
        <ele>1355.6</ele>
        <time>2015-02-11T09:18:43Z</time>
      </trkpt>
      <trkpt lat="45.63604" lon="6.10214">
        <ele>1355.9</ele>
        <time>2015-02-11T09:18:44Z</time>
      </trkpt>
      <trkpt lat="45.63604" lon="6.10214">
        <ele>1355.9</ele>
        <time>2015-02-11T09:18:45Z</time>
      </trkpt>
      <trkpt lat="45.63604" lon="6.10214">
        <ele>1355.9</ele>
        <time>2015-02-11T09:18:46Z</time>
      </trkpt>
      <trkpt lat="45.63604" lon="6.10214">
        <ele>1356.1</ele>
        <time>2015-02-11T09:18:47Z</time>
      </trkpt>
      <trkpt lat="45.63604" lon="6.10215">
        <ele>1356.2</ele>
        <time>2015-02-11T09:18:48Z</time>
      </trkpt>
      <trkpt lat="45.63604" lon="6.10215">
        <ele>1356.4</ele>
        <time>2015-02-11T09:18:49Z</time>
      </trkpt>
      <trkpt lat="45.63603" lon="6.10216">
        <ele>1356.6</ele>
        <time>2015-02-11T09:18:50Z</time>
      </trkpt>
      <trkpt lat="45.63603" lon="6.10215">
        <ele>1356.2</ele>
        <time>2015-02-11T09:18:51Z</time>
      </trkpt>
      <trkpt lat="45.63603" lon="6.10215">
        <ele>1356.4</ele>
        <time>2015-02-11T09:18:52Z</time>
      </trkpt>
      <trkpt lat="45.63602" lon="6.10215">
        <ele>1356.2</ele>
        <time>2015-02-11T09:18:53Z</time>
      </trkpt>
      <trkpt lat="45.63601" lon="6.10215">
        <ele>1356.5</ele>
        <time>2015-02-11T09:18:54Z</time>
      </trkpt>
      <trkpt lat="45.63601" lon="6.10215">
        <ele>1356.6</ele>
        <time>2015-02-11T09:18:55Z</time>
      </trkpt>
      <trkpt lat="45.636" lon="6.10216">
        <ele>1356.8</ele>
        <time>2015-02-11T09:18:56Z</time>
      </trkpt>
      <trkpt lat="45.636" lon="6.10216">
        <ele>1357.2</ele>
        <time>2015-02-11T09:18:57Z</time>
      </trkpt>
      <trkpt lat="45.63599" lon="6.10217">
        <ele>1357.5</ele>
        <time>2015-02-11T09:18:58Z</time>
      </trkpt>
      <trkpt lat="45.63599" lon="6.10217">
        <ele>1357.6</ele>
        <time>2015-02-11T09:18:59Z</time>
      </trkpt>
      <trkpt lat="45.63598" lon="6.10217">
        <ele>1357.8</ele>
        <time>2015-02-11T09:19:00Z</time>
      </trkpt>
      <trkpt lat="45.63597" lon="6.10218">
        <ele>1358.1</ele>
        <time>2015-02-11T09:19:01Z</time>
      </trkpt>
      <trkpt lat="45.63597" lon="6.10218">
        <ele>1358.3</ele>
        <time>2015-02-11T09:19:02Z</time>
      </trkpt>
      <trkpt lat="45.63596" lon="6.10219">
        <ele>1358.4</ele>
        <time>2015-02-11T09:19:03Z</time>
      </trkpt>
      <trkpt lat="45.63596" lon="6.10219">
        <ele>1358.5</ele>
        <time>2015-02-11T09:19:04Z</time>
      </trkpt>
      <trkpt lat="45.63595" lon="6.10219">
        <ele>1358.8</ele>
        <time>2015-02-11T09:19:05Z</time>
      </trkpt>
      <trkpt lat="45.63595" lon="6.1022">
        <ele>1359.1</ele>
        <time>2015-02-11T09:19:06Z</time>
      </trkpt>
      <trkpt lat="45.63594" lon="6.1022">
        <ele>1359.4</ele>
        <time>2015-02-11T09:19:07Z</time>
      </trkpt>
      <trkpt lat="45.63594" lon="6.10221">
        <ele>1359.6</ele>
        <time>2015-02-11T09:19:08Z</time>
      </trkpt>
      <trkpt lat="45.63593" lon="6.10221">
        <ele>1359.8</ele>
        <time>2015-02-11T09:19:09Z</time>
      </trkpt>
      <trkpt lat="45.63593" lon="6.10221">
        <ele>1359.9</ele>
        <time>2015-02-11T09:19:10Z</time>
      </trkpt>
      <trkpt lat="45.63592" lon="6.10222">
        <ele>1360.2</ele>
        <time>2015-02-11T09:19:11Z</time>
      </trkpt>
      <trkpt lat="45.63592" lon="6.10222">
        <ele>1360.4</ele>
        <time>2015-02-11T09:19:12Z</time>
      </trkpt>
      <trkpt lat="45.63592" lon="6.10223">
        <ele>1360.5</ele>
        <time>2015-02-11T09:19:13Z</time>
      </trkpt>
      <trkpt lat="45.63591" lon="6.10223">
        <ele>1360.8</ele>
        <time>2015-02-11T09:19:14Z</time>
      </trkpt>
      <trkpt lat="45.63591" lon="6.10224">
        <ele>1361</ele>
        <time>2015-02-11T09:19:15Z</time>
      </trkpt>
      <trkpt lat="45.63591" lon="6.10224">
        <ele>1361.3</ele>
        <time>2015-02-11T09:19:16Z</time>
      </trkpt>
      <trkpt lat="45.6359" lon="6.10225">
        <ele>1361.6</ele>
        <time>2015-02-11T09:19:17Z</time>
      </trkpt>
      <trkpt lat="45.6359" lon="6.10226">
        <ele>1361.9</ele>
        <time>2015-02-11T09:19:18Z</time>
      </trkpt>
      <trkpt lat="45.6359" lon="6.10226">
        <ele>1362.2</ele>
        <time>2015-02-11T09:19:19Z</time>
      </trkpt>
      <trkpt lat="45.63589" lon="6.10227">
        <ele>1362.4</ele>
        <time>2015-02-11T09:19:20Z</time>
      </trkpt>
      <trkpt lat="45.63589" lon="6.10226">
        <ele>1362.1</ele>
        <time>2015-02-11T09:19:21Z</time>
      </trkpt>
      <trkpt lat="45.63589" lon="6.10225">
        <ele>1361.8</ele>
        <time>2015-02-11T09:19:22Z</time>
      </trkpt>
      <trkpt lat="45.63589" lon="6.10225">
        <ele>1361.7</ele>
        <time>2015-02-11T09:19:23Z</time>
      </trkpt>
      <trkpt lat="45.6359" lon="6.10226">
        <ele>1362</ele>
        <time>2015-02-11T09:19:24Z</time>
      </trkpt>
      <trkpt lat="45.6359" lon="6.10226">
        <ele>1362.1</ele>
        <time>2015-02-11T09:19:25Z</time>
      </trkpt>
      <trkpt lat="45.63589" lon="6.10226">
        <ele>1362</ele>
        <time>2015-02-11T09:19:26Z</time>
      </trkpt>
      <trkpt lat="45.63589" lon="6.10225">
        <ele>1361.9</ele>
        <time>2015-02-11T09:19:27Z</time>
      </trkpt>
      <trkpt lat="45.63589" lon="6.10225">
        <ele>1361.8</ele>
        <time>2015-02-11T09:19:28Z</time>
      </trkpt>
      <trkpt lat="45.63589" lon="6.10225">
        <ele>1361.9</ele>
        <time>2015-02-11T09:19:29Z</time>
      </trkpt>
      <trkpt lat="45.63589" lon="6.10225">
        <ele>1362</ele>
        <time>2015-02-11T09:19:30Z</time>
      </trkpt>
      <trkpt lat="45.63589" lon="6.10225">
        <ele>1361.9</ele>
        <time>2015-02-11T09:19:31Z</time>
      </trkpt>
      <trkpt lat="45.63589" lon="6.10225">
        <ele>1361.9</ele>
        <time>2015-02-11T09:19:32Z</time>
      </trkpt>
      <trkpt lat="45.63589" lon="6.10225">
        <ele>1361.8</ele>
        <time>2015-02-11T09:19:33Z</time>
      </trkpt>
      <trkpt lat="45.63588" lon="6.10225">
        <ele>1361.8</ele>
        <time>2015-02-11T09:19:34Z</time>
      </trkpt>
      <trkpt lat="45.63588" lon="6.10225">
        <ele>1361.7</ele>
        <time>2015-02-11T09:19:35Z</time>
      </trkpt>
      <trkpt lat="45.63588" lon="6.10225">
        <ele>1361.8</ele>
        <time>2015-02-11T09:19:36Z</time>
      </trkpt>
      <trkpt lat="45.63588" lon="6.10225">
        <ele>1361.8</ele>
        <time>2015-02-11T09:19:37Z</time>
      </trkpt>
      <trkpt lat="45.63588" lon="6.10225">
        <ele>1361.9</ele>
        <time>2015-02-11T09:19:38Z</time>
      </trkpt>
      <trkpt lat="45.63588" lon="6.10225">
        <ele>1361.9</ele>
        <time>2015-02-11T09:19:39Z</time>
      </trkpt>
      <trkpt lat="45.63588" lon="6.10225">
        <ele>1362</ele>
        <time>2015-02-11T09:19:40Z</time>
      </trkpt>
      <trkpt lat="45.63588" lon="6.10225">
        <ele>1362</ele>
        <time>2015-02-11T09:19:41Z</time>
      </trkpt>
      <trkpt lat="45.63588" lon="6.10225">
        <ele>1362</ele>
        <time>2015-02-11T09:19:42Z</time>
      </trkpt>
      <trkpt lat="45.63588" lon="6.10225">
        <ele>1362.1</ele>
        <time>2015-02-11T09:19:43Z</time>
      </trkpt>
      <trkpt lat="45.63587" lon="6.10226">
        <ele>1362.1</ele>
        <time>2015-02-11T09:19:44Z</time>
      </trkpt>
      <trkpt lat="45.63587" lon="6.10226">
        <ele>1362.1</ele>
        <time>2015-02-11T09:19:45Z</time>
      </trkpt>
      <trkpt lat="45.63587" lon="6.10226">
        <ele>1362.2</ele>
        <time>2015-02-11T09:19:46Z</time>
      </trkpt>
      <trkpt lat="45.63587" lon="6.10226">
        <ele>1362.1</ele>
        <time>2015-02-11T09:19:47Z</time>
      </trkpt>
      <trkpt lat="45.63587" lon="6.10226">
        <ele>1362.1</ele>
        <time>2015-02-11T09:19:48Z</time>
      </trkpt>
      <trkpt lat="45.63587" lon="6.10225">
        <ele>1362.1</ele>
        <time>2015-02-11T09:19:49Z</time>
      </trkpt>
      <trkpt lat="45.63587" lon="6.10225">
        <ele>1362.1</ele>
        <time>2015-02-11T09:19:50Z</time>
      </trkpt>
      <trkpt lat="45.63587" lon="6.10225">
        <ele>1362.1</ele>
        <time>2015-02-11T09:19:51Z</time>
      </trkpt>
      <trkpt lat="45.63587" lon="6.10225">
        <ele>1362.1</ele>
        <time>2015-02-11T09:19:52Z</time>
      </trkpt>
      <trkpt lat="45.63587" lon="6.10225">
        <ele>1362</ele>
        <time>2015-02-11T09:19:53Z</time>
      </trkpt>
      <trkpt lat="45.63587" lon="6.10225">
        <ele>1362</ele>
        <time>2015-02-11T09:19:54Z</time>
      </trkpt>
      <trkpt lat="45.63587" lon="6.10225">
        <ele>1362</ele>
        <time>2015-02-11T09:19:55Z</time>
      </trkpt>
      <trkpt lat="45.63587" lon="6.10225">
        <ele>1362</ele>
        <time>2015-02-11T09:19:56Z</time>
      </trkpt>
      <trkpt lat="45.63587" lon="6.10225">
        <ele>1362</ele>
        <time>2015-02-11T09:19:57Z</time>
      </trkpt>
      <trkpt lat="45.63587" lon="6.10225">
        <ele>1362</ele>
        <time>2015-02-11T09:19:58Z</time>
      </trkpt>
      <trkpt lat="45.63587" lon="6.10225">
        <ele>1362</ele>
        <time>2015-02-11T09:19:59Z</time>
      </trkpt>
      <trkpt lat="45.63587" lon="6.10225">
        <ele>1362</ele>
        <time>2015-02-11T09:20:00Z</time>
      </trkpt>
      <trkpt lat="45.63587" lon="6.10225">
        <ele>1362.1</ele>
        <time>2015-02-11T09:20:01Z</time>
      </trkpt>
      <trkpt lat="45.63587" lon="6.10226">
        <ele>1362.2</ele>
        <time>2015-02-11T09:20:02Z</time>
      </trkpt>
      <trkpt lat="45.63587" lon="6.10226">
        <ele>1362.2</ele>
        <time>2015-02-11T09:20:03Z</time>
      </trkpt>
      <trkpt lat="45.63587" lon="6.10226">
        <ele>1362.2</ele>
        <time>2015-02-11T09:20:04Z</time>
      </trkpt>
      <trkpt lat="45.63587" lon="6.10226">
        <ele>1362.2</ele>
        <time>2015-02-11T09:20:05Z</time>
      </trkpt>
      <trkpt lat="45.63587" lon="6.10226">
        <ele>1362.2</ele>
        <time>2015-02-11T09:20:06Z</time>
      </trkpt>
      <trkpt lat="45.63587" lon="6.10226">
        <ele>1362.2</ele>
        <time>2015-02-11T09:20:07Z</time>
      </trkpt>
      <trkpt lat="45.63587" lon="6.10226">
        <ele>1362.2</ele>
        <time>2015-02-11T09:20:08Z</time>
      </trkpt>
      <trkpt lat="45.63587" lon="6.10226">
        <ele>1362.2</ele>
        <time>2015-02-11T09:20:09Z</time>
      </trkpt>
      <trkpt lat="45.63587" lon="6.10226">
        <ele>1362.2</ele>
        <time>2015-02-11T09:20:10Z</time>
      </trkpt>
      <trkpt lat="45.63587" lon="6.10226">
        <ele>1362.2</ele>
        <time>2015-02-11T09:20:11Z</time>
      </trkpt>
      <trkpt lat="45.63587" lon="6.10226">
        <ele>1362.2</ele>
        <time>2015-02-11T09:20:12Z</time>
      </trkpt>
      <trkpt lat="45.63587" lon="6.10226">
        <ele>1362.2</ele>
        <time>2015-02-11T09:20:13Z</time>
      </trkpt>
      <trkpt lat="45.63587" lon="6.10226">
        <ele>1362.2</ele>
        <time>2015-02-11T09:20:14Z</time>
      </trkpt>
      <trkpt lat="45.63587" lon="6.10226">
        <ele>1362.2</ele>
        <time>2015-02-11T09:20:15Z</time>
      </trkpt>
      <trkpt lat="45.63587" lon="6.10226">
        <ele>1362.2</ele>
        <time>2015-02-11T09:20:16Z</time>
      </trkpt>
      <trkpt lat="45.63587" lon="6.10226">
        <ele>1362.2</ele>
        <time>2015-02-11T09:20:17Z</time>
      </trkpt>
      <trkpt lat="45.63587" lon="6.10226">
        <ele>1362.2</ele>
        <time>2015-02-11T09:20:18Z</time>
      </trkpt>
      <trkpt lat="45.63587" lon="6.10226">
        <ele>1362.2</ele>
        <time>2015-02-11T09:20:19Z</time>
      </trkpt>
      <trkpt lat="45.63587" lon="6.10226">
        <ele>1362.2</ele>
        <time>2015-02-11T09:20:20Z</time>
      </trkpt>
      <trkpt lat="45.63587" lon="6.10226">
        <ele>1362.2</ele>
        <time>2015-02-11T09:20:21Z</time>
      </trkpt>
      <trkpt lat="45.63587" lon="6.10226">
        <ele>1362.2</ele>
        <time>2015-02-11T09:20:22Z</time>
      </trkpt>
      <trkpt lat="45.63587" lon="6.10226">
        <ele>1362.2</ele>
        <time>2015-02-11T09:20:23Z</time>
      </trkpt>
      <trkpt lat="45.63587" lon="6.10226">
        <ele>1362.2</ele>
        <time>2015-02-11T09:20:24Z</time>
      </trkpt>
      <trkpt lat="45.63587" lon="6.10226">
        <ele>1362.2</ele>
        <time>2015-02-11T09:20:25Z</time>
      </trkpt>
      <trkpt lat="45.63587" lon="6.10226">
        <ele>1362.2</ele>
        <time>2015-02-11T09:20:26Z</time>
      </trkpt>
      <trkpt lat="45.63587" lon="6.10226">
        <ele>1362.2</ele>
        <time>2015-02-11T09:20:27Z</time>
      </trkpt>
      <trkpt lat="45.63587" lon="6.10226">
        <ele>1362.2</ele>
        <time>2015-02-11T09:20:28Z</time>
      </trkpt>
      <trkpt lat="45.63587" lon="6.10226">
        <ele>1362.2</ele>
        <time>2015-02-11T09:20:29Z</time>
      </trkpt>
      <trkpt lat="45.63587" lon="6.10226">
        <ele>1362.2</ele>
        <time>2015-02-11T09:20:30Z</time>
      </trkpt>
      <trkpt lat="45.63587" lon="6.10226">
        <ele>1362.2</ele>
        <time>2015-02-11T09:20:31Z</time>
      </trkpt>
      <trkpt lat="45.63587" lon="6.10226">
        <ele>1362.2</ele>
        <time>2015-02-11T09:20:32Z</time>
      </trkpt>
      <trkpt lat="45.63587" lon="6.10226">
        <ele>1362.2</ele>
        <time>2015-02-11T09:20:33Z</time>
      </trkpt>
      <trkpt lat="45.63587" lon="6.10226">
        <ele>1362.2</ele>
        <time>2015-02-11T09:20:34Z</time>
      </trkpt>
      <trkpt lat="45.63587" lon="6.10226">
        <ele>1362.2</ele>
        <time>2015-02-11T09:20:35Z</time>
      </trkpt>
      <trkpt lat="45.63587" lon="6.10226">
        <ele>1362.2</ele>
        <time>2015-02-11T09:20:36Z</time>
      </trkpt>
      <trkpt lat="45.63587" lon="6.10226">
        <ele>1362.2</ele>
        <time>2015-02-11T09:20:37Z</time>
      </trkpt>
      <trkpt lat="45.63587" lon="6.10226">
        <ele>1362.2</ele>
        <time>2015-02-11T09:20:38Z</time>
      </trkpt>
      <trkpt lat="45.63587" lon="6.10226">
        <ele>1362.2</ele>
        <time>2015-02-11T09:20:39Z</time>
      </trkpt>
      <trkpt lat="45.63587" lon="6.10226">
        <ele>1362.2</ele>
        <time>2015-02-11T09:20:40Z</time>
      </trkpt>
      <trkpt lat="45.63587" lon="6.10226">
        <ele>1362.2</ele>
        <time>2015-02-11T09:20:41Z</time>
      </trkpt>
      <trkpt lat="45.63587" lon="6.10226">
        <ele>1362.2</ele>
        <time>2015-02-11T09:20:42Z</time>
      </trkpt>
      <trkpt lat="45.63587" lon="6.10226">
        <ele>1362.2</ele>
        <time>2015-02-11T09:20:43Z</time>
      </trkpt>
      <trkpt lat="45.63587" lon="6.10226">
        <ele>1362.2</ele>
        <time>2015-02-11T09:20:44Z</time>
      </trkpt>
      <trkpt lat="45.63587" lon="6.10226">
        <ele>1362.2</ele>
        <time>2015-02-11T09:20:45Z</time>
      </trkpt>
      <trkpt lat="45.63587" lon="6.10226">
        <ele>1362.2</ele>
        <time>2015-02-11T09:20:46Z</time>
      </trkpt>
      <trkpt lat="45.63587" lon="6.10226">
        <ele>1362.2</ele>
        <time>2015-02-11T09:20:47Z</time>
      </trkpt>
      <trkpt lat="45.63587" lon="6.10226">
        <ele>1362.2</ele>
        <time>2015-02-11T09:20:48Z</time>
      </trkpt>
      <trkpt lat="45.63587" lon="6.10226">
        <ele>1362.2</ele>
        <time>2015-02-11T09:20:49Z</time>
      </trkpt>
      <trkpt lat="45.63587" lon="6.10226">
        <ele>1362.2</ele>
        <time>2015-02-11T09:20:50Z</time>
      </trkpt>
      <trkpt lat="45.63587" lon="6.10226">
        <ele>1362.2</ele>
        <time>2015-02-11T09:20:51Z</time>
      </trkpt>
      <trkpt lat="45.63587" lon="6.10226">
        <ele>1362.2</ele>
        <time>2015-02-11T09:20:52Z</time>
      </trkpt>
      <trkpt lat="45.63587" lon="6.10226">
        <ele>1362.3</ele>
        <time>2015-02-11T09:20:53Z</time>
      </trkpt>
      <trkpt lat="45.63587" lon="6.10226">
        <ele>1362.3</ele>
        <time>2015-02-11T09:20:54Z</time>
      </trkpt>
      <trkpt lat="45.63587" lon="6.10226">
        <ele>1362.3</ele>
        <time>2015-02-11T09:20:55Z</time>
      </trkpt>
      <trkpt lat="45.63587" lon="6.10226">
        <ele>1362.3</ele>
        <time>2015-02-11T09:20:56Z</time>
      </trkpt>
      <trkpt lat="45.63587" lon="6.10226">
        <ele>1362.3</ele>
        <time>2015-02-11T09:20:57Z</time>
      </trkpt>
      <trkpt lat="45.63587" lon="6.10226">
        <ele>1362.2</ele>
        <time>2015-02-11T09:20:58Z</time>
      </trkpt>
      <trkpt lat="45.63588" lon="6.10226">
        <ele>1362.4</ele>
        <time>2015-02-11T09:20:59Z</time>
      </trkpt>
      <trkpt lat="45.63588" lon="6.10227">
        <ele>1362.6</ele>
        <time>2015-02-11T09:21:00Z</time>
      </trkpt>
      <trkpt lat="45.63589" lon="6.10227">
        <ele>1362.8</ele>
        <time>2015-02-11T09:21:01Z</time>
      </trkpt>
      <trkpt lat="45.6359" lon="6.10229">
        <ele>1363.3</ele>
        <time>2015-02-11T09:21:03Z</time>
      </trkpt>
      <trkpt lat="45.6359" lon="6.1023">
        <ele>1364</ele>
        <time>2015-02-11T09:21:04Z</time>
      </trkpt>
      <trkpt lat="45.6359" lon="6.10231">
        <ele>1364.3</ele>
        <time>2015-02-11T09:21:05Z</time>
      </trkpt>
      <trkpt lat="45.63591" lon="6.10232">
        <ele>1364.5</ele>
        <time>2015-02-11T09:21:06Z</time>
      </trkpt>
      <trkpt lat="45.63591" lon="6.10232">
        <ele>1364.7</ele>
        <time>2015-02-11T09:21:07Z</time>
      </trkpt>
      <trkpt lat="45.63592" lon="6.10233">
        <ele>1364.9</ele>
        <time>2015-02-11T09:21:08Z</time>
      </trkpt>
      <trkpt lat="45.63592" lon="6.10234">
        <ele>1365.1</ele>
        <time>2015-02-11T09:21:09Z</time>
      </trkpt>
      <trkpt lat="45.63593" lon="6.10234">
        <ele>1365.1</ele>
        <time>2015-02-11T09:21:10Z</time>
      </trkpt>
      <trkpt lat="45.63593" lon="6.10234">
        <ele>1365.3</ele>
        <time>2015-02-11T09:21:11Z</time>
      </trkpt>
      <trkpt lat="45.63594" lon="6.10235">
        <ele>1365.6</ele>
        <time>2015-02-11T09:21:12Z</time>
      </trkpt>
      <trkpt lat="45.63594" lon="6.10236">
        <ele>1365.8</ele>
        <time>2015-02-11T09:21:13Z</time>
      </trkpt>
      <trkpt lat="45.63595" lon="6.10236">
        <ele>1366.1</ele>
        <time>2015-02-11T09:21:14Z</time>
      </trkpt>
      <trkpt lat="45.63596" lon="6.10237">
        <ele>1366.2</ele>
        <time>2015-02-11T09:21:15Z</time>
      </trkpt>
      <trkpt lat="45.63596" lon="6.10238">
        <ele>1366.4</ele>
        <time>2015-02-11T09:21:16Z</time>
      </trkpt>
      <trkpt lat="45.63597" lon="6.10238">
        <ele>1366.5</ele>
        <time>2015-02-11T09:21:17Z</time>
      </trkpt>
      <trkpt lat="45.63598" lon="6.10238">
        <ele>1366.6</ele>
        <time>2015-02-11T09:21:18Z</time>
      </trkpt>
      <trkpt lat="45.63598" lon="6.10239">
        <ele>1366.8</ele>
        <time>2015-02-11T09:21:19Z</time>
      </trkpt>
      <trkpt lat="45.63599" lon="6.10239">
        <ele>1366.9</ele>
        <time>2015-02-11T09:21:20Z</time>
      </trkpt>
      <trkpt lat="45.636" lon="6.1024">
        <ele>1367</ele>
        <time>2015-02-11T09:21:21Z</time>
      </trkpt>
      <trkpt lat="45.636" lon="6.1024">
        <ele>1367.1</ele>
        <time>2015-02-11T09:21:22Z</time>
      </trkpt>
      <trkpt lat="45.63601" lon="6.10241">
        <ele>1367.3</ele>
        <time>2015-02-11T09:21:23Z</time>
      </trkpt>
      <trkpt lat="45.63601" lon="6.10241">
        <ele>1367.6</ele>
        <time>2015-02-11T09:21:24Z</time>
      </trkpt>
      <trkpt lat="45.63601" lon="6.10242">
        <ele>1367.7</ele>
        <time>2015-02-11T09:21:25Z</time>
      </trkpt>
      <trkpt lat="45.636" lon="6.10242">
        <ele>1367.9</ele>
        <time>2015-02-11T09:21:26Z</time>
      </trkpt>
      <trkpt lat="45.636" lon="6.10242">
        <ele>1368</ele>
        <time>2015-02-11T09:21:27Z</time>
      </trkpt>
      <trkpt lat="45.63599" lon="6.10243">
        <ele>1368.3</ele>
        <time>2015-02-11T09:21:28Z</time>
      </trkpt>
      <trkpt lat="45.63599" lon="6.10243">
        <ele>1368.4</ele>
        <time>2015-02-11T09:21:29Z</time>
      </trkpt>
      <trkpt lat="45.63598" lon="6.10243">
        <ele>1368.5</ele>
        <time>2015-02-11T09:21:30Z</time>
      </trkpt>
      <trkpt lat="45.63598" lon="6.10243">
        <ele>1368.6</ele>
        <time>2015-02-11T09:21:31Z</time>
      </trkpt>
      <trkpt lat="45.63598" lon="6.10243">
        <ele>1368.7</ele>
        <time>2015-02-11T09:21:32Z</time>
      </trkpt>
      <trkpt lat="45.63597" lon="6.10244">
        <ele>1369</ele>
        <time>2015-02-11T09:21:33Z</time>
      </trkpt>
      <trkpt lat="45.63596" lon="6.10244">
        <ele>1369</ele>
        <time>2015-02-11T09:21:34Z</time>
      </trkpt>
      <trkpt lat="45.63596" lon="6.10244">
        <ele>1369.1</ele>
        <time>2015-02-11T09:21:35Z</time>
      </trkpt>
      <trkpt lat="45.63596" lon="6.10244">
        <ele>1369.1</ele>
        <time>2015-02-11T09:21:36Z</time>
      </trkpt>
      <trkpt lat="45.63596" lon="6.10244">
        <ele>1369</ele>
        <time>2015-02-11T09:21:37Z</time>
      </trkpt>
      <trkpt lat="45.63596" lon="6.10243">
        <ele>1368.9</ele>
        <time>2015-02-11T09:21:38Z</time>
      </trkpt>
      <trkpt lat="45.63596" lon="6.10244">
        <ele>1368.9</ele>
        <time>2015-02-11T09:21:39Z</time>
      </trkpt>
      <trkpt lat="45.63597" lon="6.10244">
        <ele>1368.9</ele>
        <time>2015-02-11T09:21:40Z</time>
      </trkpt>
      <trkpt lat="45.63597" lon="6.10244">
        <ele>1369</ele>
        <time>2015-02-11T09:21:41Z</time>
      </trkpt>
      <trkpt lat="45.63597" lon="6.10244">
        <ele>1369.1</ele>
        <time>2015-02-11T09:21:42Z</time>
      </trkpt>
      <trkpt lat="45.63598" lon="6.10244">
        <ele>1369.1</ele>
        <time>2015-02-11T09:21:43Z</time>
      </trkpt>
      <trkpt lat="45.63598" lon="6.10245">
        <ele>1369.3</ele>
        <time>2015-02-11T09:21:44Z</time>
      </trkpt>
      <trkpt lat="45.63599" lon="6.10246">
        <ele>1369.5</ele>
        <time>2015-02-11T09:21:45Z</time>
      </trkpt>
      <trkpt lat="45.63599" lon="6.10246">
        <ele>1369.7</ele>
        <time>2015-02-11T09:21:46Z</time>
      </trkpt>
      <trkpt lat="45.636" lon="6.10247">
        <ele>1369.9</ele>
        <time>2015-02-11T09:21:47Z</time>
      </trkpt>
      <trkpt lat="45.636" lon="6.10247">
        <ele>1370.1</ele>
        <time>2015-02-11T09:21:48Z</time>
      </trkpt>
      <trkpt lat="45.636" lon="6.10248">
        <ele>1370.3</ele>
        <time>2015-02-11T09:21:49Z</time>
      </trkpt>
      <trkpt lat="45.63601" lon="6.10249">
        <ele>1370.7</ele>
        <time>2015-02-11T09:21:50Z</time>
      </trkpt>
      <trkpt lat="45.63601" lon="6.10249">
        <ele>1370.7</ele>
        <time>2015-02-11T09:21:51Z</time>
      </trkpt>
      <trkpt lat="45.63601" lon="6.1025">
        <ele>1371</ele>
        <time>2015-02-11T09:21:52Z</time>
      </trkpt>
      <trkpt lat="45.63601" lon="6.1025">
        <ele>1371.2</ele>
        <time>2015-02-11T09:21:53Z</time>
      </trkpt>
      <trkpt lat="45.63602" lon="6.10251">
        <ele>1371.5</ele>
        <time>2015-02-11T09:21:54Z</time>
      </trkpt>
      <trkpt lat="45.63602" lon="6.10252">
        <ele>1371.9</ele>
        <time>2015-02-11T09:21:55Z</time>
      </trkpt>
      <trkpt lat="45.63602" lon="6.10252">
        <ele>1372</ele>
        <time>2015-02-11T09:21:56Z</time>
      </trkpt>
      <trkpt lat="45.63602" lon="6.10253">
        <ele>1372.2</ele>
        <time>2015-02-11T09:21:57Z</time>
      </trkpt>
      <trkpt lat="45.63602" lon="6.10253">
        <ele>1372.2</ele>
        <time>2015-02-11T09:21:58Z</time>
      </trkpt>
      <trkpt lat="45.63602" lon="6.10253">
        <ele>1372.2</ele>
        <time>2015-02-11T09:21:59Z</time>
      </trkpt>
      <trkpt lat="45.63602" lon="6.10253">
        <ele>1372.2</ele>
        <time>2015-02-11T09:22:00Z</time>
      </trkpt>
      <trkpt lat="45.63602" lon="6.10253">
        <ele>1372.3</ele>
        <time>2015-02-11T09:22:01Z</time>
      </trkpt>
      <trkpt lat="45.63603" lon="6.10254">
        <ele>1372.5</ele>
        <time>2015-02-11T09:22:02Z</time>
      </trkpt>
      <trkpt lat="45.63604" lon="6.10255">
        <ele>1372.8</ele>
        <time>2015-02-11T09:22:03Z</time>
      </trkpt>
      <trkpt lat="45.63604" lon="6.10256">
        <ele>1373.2</ele>
        <time>2015-02-11T09:22:04Z</time>
      </trkpt>
      <trkpt lat="45.63604" lon="6.10256">
        <ele>1373.4</ele>
        <time>2015-02-11T09:22:05Z</time>
      </trkpt>
      <trkpt lat="45.63605" lon="6.10257">
        <ele>1373.4</ele>
        <time>2015-02-11T09:22:06Z</time>
      </trkpt>
      <trkpt lat="45.63605" lon="6.10257">
        <ele>1373.6</ele>
        <time>2015-02-11T09:22:07Z</time>
      </trkpt>
      <trkpt lat="45.63606" lon="6.10257">
        <ele>1373.6</ele>
        <time>2015-02-11T09:22:08Z</time>
      </trkpt>
      <trkpt lat="45.63606" lon="6.10257">
        <ele>1373.6</ele>
        <time>2015-02-11T09:22:09Z</time>
      </trkpt>
      <trkpt lat="45.63606" lon="6.10257">
        <ele>1373.5</ele>
        <time>2015-02-11T09:22:10Z</time>
      </trkpt>
      <trkpt lat="45.63606" lon="6.10258">
        <ele>1373.6</ele>
        <time>2015-02-11T09:22:11Z</time>
      </trkpt>
      <trkpt lat="45.63607" lon="6.10258">
        <ele>1373.5</ele>
        <time>2015-02-11T09:22:12Z</time>
      </trkpt>
      <trkpt lat="45.63607" lon="6.10258">
        <ele>1373.6</ele>
        <time>2015-02-11T09:22:13Z</time>
      </trkpt>
      <trkpt lat="45.63607" lon="6.10258">
        <ele>1373.8</ele>
        <time>2015-02-11T09:22:14Z</time>
      </trkpt>
      <trkpt lat="45.63608" lon="6.10259">
        <ele>1374</ele>
        <time>2015-02-11T09:22:15Z</time>
      </trkpt>
      <trkpt lat="45.63608" lon="6.10259">
        <ele>1374.1</ele>
        <time>2015-02-11T09:22:16Z</time>
      </trkpt>
      <trkpt lat="45.63608" lon="6.1026">
        <ele>1374.5</ele>
        <time>2015-02-11T09:22:17Z</time>
      </trkpt>
      <trkpt lat="45.63608" lon="6.10261">
        <ele>1374.6</ele>
        <time>2015-02-11T09:22:18Z</time>
      </trkpt>
      <trkpt lat="45.63609" lon="6.10262">
        <ele>1374.9</ele>
        <time>2015-02-11T09:22:19Z</time>
      </trkpt>
      <trkpt lat="45.63609" lon="6.10263">
        <ele>1375.3</ele>
        <time>2015-02-11T09:22:20Z</time>
      </trkpt>
      <trkpt lat="45.63609" lon="6.10263">
        <ele>1375.5</ele>
        <time>2015-02-11T09:22:21Z</time>
      </trkpt>
      <trkpt lat="45.63609" lon="6.10264">
        <ele>1375.9</ele>
        <time>2015-02-11T09:22:22Z</time>
      </trkpt>
      <trkpt lat="45.63609" lon="6.10264">
        <ele>1376</ele>
        <time>2015-02-11T09:22:23Z</time>
      </trkpt>
      <trkpt lat="45.63609" lon="6.10265">
        <ele>1376.4</ele>
        <time>2015-02-11T09:22:24Z</time>
      </trkpt>
      <trkpt lat="45.63609" lon="6.10266">
        <ele>1376.6</ele>
        <time>2015-02-11T09:22:25Z</time>
      </trkpt>
      <trkpt lat="45.63609" lon="6.10267">
        <ele>1376.9</ele>
        <time>2015-02-11T09:22:26Z</time>
      </trkpt>
      <trkpt lat="45.6361" lon="6.10267">
        <ele>1377</ele>
        <time>2015-02-11T09:22:27Z</time>
      </trkpt>
      <trkpt lat="45.6361" lon="6.10268">
        <ele>1377.2</ele>
        <time>2015-02-11T09:22:28Z</time>
      </trkpt>
      <trkpt lat="45.6361" lon="6.10268">
        <ele>1377.4</ele>
        <time>2015-02-11T09:22:29Z</time>
      </trkpt>
      <trkpt lat="45.63611" lon="6.10269">
        <ele>1377.8</ele>
        <time>2015-02-11T09:22:30Z</time>
      </trkpt>
      <trkpt lat="45.63611" lon="6.1027">
        <ele>1377.9</ele>
        <time>2015-02-11T09:22:31Z</time>
      </trkpt>
      <trkpt lat="45.63612" lon="6.10271">
        <ele>1378.1</ele>
        <time>2015-02-11T09:22:32Z</time>
      </trkpt>
      <trkpt lat="45.63612" lon="6.10271">
        <ele>1378.1</ele>
        <time>2015-02-11T09:22:33Z</time>
      </trkpt>
      <trkpt lat="45.63612" lon="6.10272">
        <ele>1378.3</ele>
        <time>2015-02-11T09:22:34Z</time>
      </trkpt>
      <trkpt lat="45.63613" lon="6.10273">
        <ele>1378.4</ele>
        <time>2015-02-11T09:22:35Z</time>
      </trkpt>
      <trkpt lat="45.63613" lon="6.10273">
        <ele>1378.4</ele>
        <time>2015-02-11T09:22:36Z</time>
      </trkpt>
      <trkpt lat="45.63614" lon="6.10273">
        <ele>1378.5</ele>
        <time>2015-02-11T09:22:37Z</time>
      </trkpt>
      <trkpt lat="45.63614" lon="6.10273">
        <ele>1378.4</ele>
        <time>2015-02-11T09:22:38Z</time>
      </trkpt>
      <trkpt lat="45.63615" lon="6.10274">
        <ele>1378.6</ele>
        <time>2015-02-11T09:22:39Z</time>
      </trkpt>
      <trkpt lat="45.63615" lon="6.10275">
        <ele>1378.7</ele>
        <time>2015-02-11T09:22:40Z</time>
      </trkpt>
      <trkpt lat="45.63615" lon="6.10275">
        <ele>1378.9</ele>
        <time>2015-02-11T09:22:41Z</time>
      </trkpt>
      <trkpt lat="45.63616" lon="6.10276">
        <ele>1379.1</ele>
        <time>2015-02-11T09:22:42Z</time>
      </trkpt>
      <trkpt lat="45.63616" lon="6.10277">
        <ele>1379.2</ele>
        <time>2015-02-11T09:22:43Z</time>
      </trkpt>
      <trkpt lat="45.63616" lon="6.10277">
        <ele>1379.4</ele>
        <time>2015-02-11T09:22:44Z</time>
      </trkpt>
      <trkpt lat="45.63616" lon="6.10278">
        <ele>1379.8</ele>
        <time>2015-02-11T09:22:45Z</time>
      </trkpt>
      <trkpt lat="45.63616" lon="6.10279">
        <ele>1380</ele>
        <time>2015-02-11T09:22:46Z</time>
      </trkpt>
      <trkpt lat="45.63617" lon="6.1028">
        <ele>1380.2</ele>
        <time>2015-02-11T09:22:47Z</time>
      </trkpt>
      <trkpt lat="45.63617" lon="6.10281">
        <ele>1380.6</ele>
        <time>2015-02-11T09:22:48Z</time>
      </trkpt>
      <trkpt lat="45.63617" lon="6.10282">
        <ele>1380.8</ele>
        <time>2015-02-11T09:22:49Z</time>
      </trkpt>
      <trkpt lat="45.63617" lon="6.10282">
        <ele>1380.9</ele>
        <time>2015-02-11T09:22:50Z</time>
      </trkpt>
      <trkpt lat="45.63618" lon="6.10284">
        <ele>1381.2</ele>
        <time>2015-02-11T09:22:51Z</time>
      </trkpt>
      <trkpt lat="45.63618" lon="6.10285">
        <ele>1381.5</ele>
        <time>2015-02-11T09:22:52Z</time>
      </trkpt>
      <trkpt lat="45.63619" lon="6.10286">
        <ele>1381.8</ele>
        <time>2015-02-11T09:22:53Z</time>
      </trkpt>
      <trkpt lat="45.63619" lon="6.10286">
        <ele>1381.9</ele>
        <time>2015-02-11T09:22:54Z</time>
      </trkpt>
      <trkpt lat="45.63619" lon="6.10288">
        <ele>1382.2</ele>
        <time>2015-02-11T09:22:55Z</time>
      </trkpt>
      <trkpt lat="45.63619" lon="6.10288">
        <ele>1382.5</ele>
        <time>2015-02-11T09:22:56Z</time>
      </trkpt>
      <trkpt lat="45.63619" lon="6.10289">
        <ele>1382.8</ele>
        <time>2015-02-11T09:22:57Z</time>
      </trkpt>
      <trkpt lat="45.63619" lon="6.1029">
        <ele>1382.9</ele>
        <time>2015-02-11T09:22:58Z</time>
      </trkpt>
      <trkpt lat="45.63619" lon="6.10291">
        <ele>1383.1</ele>
        <time>2015-02-11T09:22:59Z</time>
      </trkpt>
      <trkpt lat="45.63619" lon="6.10291">
        <ele>1383.3</ele>
        <time>2015-02-11T09:23:00Z</time>
      </trkpt>
      <trkpt lat="45.6362" lon="6.10292">
        <ele>1383.5</ele>
        <time>2015-02-11T09:23:01Z</time>
      </trkpt>
      <trkpt lat="45.6362" lon="6.10293">
        <ele>1383.7</ele>
        <time>2015-02-11T09:23:02Z</time>
      </trkpt>
      <trkpt lat="45.6362" lon="6.10294">
        <ele>1384</ele>
        <time>2015-02-11T09:23:03Z</time>
      </trkpt>
      <trkpt lat="45.63621" lon="6.10295">
        <ele>1384.1</ele>
        <time>2015-02-11T09:23:04Z</time>
      </trkpt>
      <trkpt lat="45.63621" lon="6.10295">
        <ele>1384.2</ele>
        <time>2015-02-11T09:23:05Z</time>
      </trkpt>
      <trkpt lat="45.63621" lon="6.10296">
        <ele>1384.5</ele>
        <time>2015-02-11T09:23:06Z</time>
      </trkpt>
      <trkpt lat="45.63621" lon="6.10296">
        <ele>1384.7</ele>
        <time>2015-02-11T09:23:07Z</time>
      </trkpt>
      <trkpt lat="45.6362" lon="6.10297">
        <ele>1384.9</ele>
        <time>2015-02-11T09:23:08Z</time>
      </trkpt>
      <trkpt lat="45.6362" lon="6.10297">
        <ele>1385.1</ele>
        <time>2015-02-11T09:23:09Z</time>
      </trkpt>
      <trkpt lat="45.6362" lon="6.10298">
        <ele>1385.4</ele>
        <time>2015-02-11T09:23:10Z</time>
      </trkpt>
      <trkpt lat="45.6362" lon="6.10298">
        <ele>1385.6</ele>
        <time>2015-02-11T09:23:11Z</time>
      </trkpt>
      <trkpt lat="45.6362" lon="6.10299">
        <ele>1385.9</ele>
        <time>2015-02-11T09:23:12Z</time>
      </trkpt>
      <trkpt lat="45.63619" lon="6.10299">
        <ele>1386</ele>
        <time>2015-02-11T09:23:13Z</time>
      </trkpt>
      <trkpt lat="45.63619" lon="6.10299">
        <ele>1386.2</ele>
        <time>2015-02-11T09:23:14Z</time>
      </trkpt>
      <trkpt lat="45.63619" lon="6.103">
        <ele>1386.4</ele>
        <time>2015-02-11T09:23:15Z</time>
      </trkpt>
      <trkpt lat="45.63619" lon="6.10301">
        <ele>1386.6</ele>
        <time>2015-02-11T09:23:16Z</time>
      </trkpt>
      <trkpt lat="45.63619" lon="6.10301">
        <ele>1386.8</ele>
        <time>2015-02-11T09:23:17Z</time>
      </trkpt>
      <trkpt lat="45.63619" lon="6.10302">
        <ele>1387.1</ele>
        <time>2015-02-11T09:23:18Z</time>
      </trkpt>
      <trkpt lat="45.63619" lon="6.10302">
        <ele>1387.3</ele>
        <time>2015-02-11T09:23:19Z</time>
      </trkpt>
      <trkpt lat="45.63618" lon="6.10302">
        <ele>1387.5</ele>
        <time>2015-02-11T09:23:20Z</time>
      </trkpt>
      <trkpt lat="45.63617" lon="6.10301">
        <ele>1387.6</ele>
        <time>2015-02-11T09:23:21Z</time>
      </trkpt>
      <trkpt lat="45.63617" lon="6.10301">
        <ele>1387.6</ele>
        <time>2015-02-11T09:23:22Z</time>
      </trkpt>
      <trkpt lat="45.63617" lon="6.10301">
        <ele>1387.7</ele>
        <time>2015-02-11T09:23:23Z</time>
      </trkpt>
      <trkpt lat="45.63616" lon="6.10302">
        <ele>1388</ele>
        <time>2015-02-11T09:23:24Z</time>
      </trkpt>
      <trkpt lat="45.63616" lon="6.10302">
        <ele>1388.4</ele>
        <time>2015-02-11T09:23:25Z</time>
      </trkpt>
      <trkpt lat="45.63615" lon="6.10303">
        <ele>1388.8</ele>
        <time>2015-02-11T09:23:26Z</time>
      </trkpt>
      <trkpt lat="45.63615" lon="6.10303">
        <ele>1389.1</ele>
        <time>2015-02-11T09:23:27Z</time>
      </trkpt>
      <trkpt lat="45.63614" lon="6.10304">
        <ele>1389.3</ele>
        <time>2015-02-11T09:23:28Z</time>
      </trkpt>
      <trkpt lat="45.63614" lon="6.10304">
        <ele>1389.4</ele>
        <time>2015-02-11T09:23:29Z</time>
      </trkpt>
      <trkpt lat="45.63614" lon="6.10304">
        <ele>1389.5</ele>
        <time>2015-02-11T09:23:30Z</time>
      </trkpt>
      <trkpt lat="45.63614" lon="6.10304">
        <ele>1389.6</ele>
        <time>2015-02-11T09:23:31Z</time>
      </trkpt>
      <trkpt lat="45.63613" lon="6.10304">
        <ele>1390</ele>
        <time>2015-02-11T09:23:32Z</time>
      </trkpt>
      <trkpt lat="45.63612" lon="6.10305">
        <ele>1390.3</ele>
        <time>2015-02-11T09:23:33Z</time>
      </trkpt>
      <trkpt lat="45.63612" lon="6.10305">
        <ele>1390.6</ele>
        <time>2015-02-11T09:23:34Z</time>
      </trkpt>
      <trkpt lat="45.63611" lon="6.10305">
        <ele>1390.8</ele>
        <time>2015-02-11T09:23:35Z</time>
      </trkpt>
      <trkpt lat="45.63611" lon="6.10305">
        <ele>1391</ele>
        <time>2015-02-11T09:23:36Z</time>
      </trkpt>
      <trkpt lat="45.6361" lon="6.10306">
        <ele>1391.3</ele>
        <time>2015-02-11T09:23:37Z</time>
      </trkpt>
      <trkpt lat="45.6361" lon="6.10306">
        <ele>1391.5</ele>
        <time>2015-02-11T09:23:38Z</time>
      </trkpt>
      <trkpt lat="45.63609" lon="6.10306">
        <ele>1391.8</ele>
        <time>2015-02-11T09:23:39Z</time>
      </trkpt>
      <trkpt lat="45.63609" lon="6.10307">
        <ele>1391.9</ele>
        <time>2015-02-11T09:23:40Z</time>
      </trkpt>
      <trkpt lat="45.63609" lon="6.10307">
        <ele>1392.2</ele>
        <time>2015-02-11T09:23:41Z</time>
      </trkpt>
      <trkpt lat="45.63608" lon="6.10307">
        <ele>1392.3</ele>
        <time>2015-02-11T09:23:42Z</time>
      </trkpt>
      <trkpt lat="45.63608" lon="6.10307">
        <ele>1392.6</ele>
        <time>2015-02-11T09:23:43Z</time>
      </trkpt>
      <trkpt lat="45.63607" lon="6.10307">
        <ele>1392.7</ele>
        <time>2015-02-11T09:23:44Z</time>
      </trkpt>
      <trkpt lat="45.63607" lon="6.10308">
        <ele>1393</ele>
        <time>2015-02-11T09:23:45Z</time>
      </trkpt>
      <trkpt lat="45.63606" lon="6.10308">
        <ele>1393.2</ele>
        <time>2015-02-11T09:23:46Z</time>
      </trkpt>
      <trkpt lat="45.63606" lon="6.10308">
        <ele>1393.5</ele>
        <time>2015-02-11T09:23:47Z</time>
      </trkpt>
      <trkpt lat="45.63605" lon="6.10308">
        <ele>1393.7</ele>
        <time>2015-02-11T09:23:48Z</time>
      </trkpt>
      <trkpt lat="45.63605" lon="6.10309">
        <ele>1393.8</ele>
        <time>2015-02-11T09:23:49Z</time>
      </trkpt>
      <trkpt lat="45.63604" lon="6.10308">
        <ele>1393.9</ele>
        <time>2015-02-11T09:23:50Z</time>
      </trkpt>
      <trkpt lat="45.63603" lon="6.10308">
        <ele>1394.1</ele>
        <time>2015-02-11T09:23:51Z</time>
      </trkpt>
      <trkpt lat="45.63603" lon="6.10308">
        <ele>1394.2</ele>
        <time>2015-02-11T09:23:52Z</time>
      </trkpt>
      <trkpt lat="45.63602" lon="6.10308">
        <ele>1394.2</ele>
        <time>2015-02-11T09:23:53Z</time>
      </trkpt>
      <trkpt lat="45.63603" lon="6.10307">
        <ele>1393.9</ele>
        <time>2015-02-11T09:23:54Z</time>
      </trkpt>
      <trkpt lat="45.63602" lon="6.10307">
        <ele>1393.7</ele>
        <time>2015-02-11T09:23:55Z</time>
      </trkpt>
      <trkpt lat="45.63602" lon="6.10307">
        <ele>1393.8</ele>
        <time>2015-02-11T09:23:56Z</time>
      </trkpt>
      <trkpt lat="45.63602" lon="6.10307">
        <ele>1393.8</ele>
        <time>2015-02-11T09:23:57Z</time>
      </trkpt>
      <trkpt lat="45.63601" lon="6.10307">
        <ele>1393.9</ele>
        <time>2015-02-11T09:23:58Z</time>
      </trkpt>
      <trkpt lat="45.63601" lon="6.10307">
        <ele>1394</ele>
        <time>2015-02-11T09:23:59Z</time>
      </trkpt>
      <trkpt lat="45.636" lon="6.10307">
        <ele>1394.4</ele>
        <time>2015-02-11T09:24:00Z</time>
      </trkpt>
      <trkpt lat="45.63599" lon="6.10307">
        <ele>1394.9</ele>
        <time>2015-02-11T09:24:01Z</time>
      </trkpt>
      <trkpt lat="45.63598" lon="6.10308">
        <ele>1395.2</ele>
        <time>2015-02-11T09:24:02Z</time>
      </trkpt>
      <trkpt lat="45.63597" lon="6.10308">
        <ele>1395.6</ele>
        <time>2015-02-11T09:24:03Z</time>
      </trkpt>
      <trkpt lat="45.63596" lon="6.10309">
        <ele>1396</ele>
        <time>2015-02-11T09:24:04Z</time>
      </trkpt>
      <trkpt lat="45.63596" lon="6.10309">
        <ele>1396.2</ele>
        <time>2015-02-11T09:24:05Z</time>
      </trkpt>
      <trkpt lat="45.63595" lon="6.10309">
        <ele>1396.4</ele>
        <time>2015-02-11T09:24:06Z</time>
      </trkpt>
      <trkpt lat="45.63595" lon="6.10309">
        <ele>1396.5</ele>
        <time>2015-02-11T09:24:07Z</time>
      </trkpt>
      <trkpt lat="45.63595" lon="6.10309">
        <ele>1396.6</ele>
        <time>2015-02-11T09:24:08Z</time>
      </trkpt>
      <trkpt lat="45.63594" lon="6.1031">
        <ele>1397.1</ele>
        <time>2015-02-11T09:24:09Z</time>
      </trkpt>
      <trkpt lat="45.63593" lon="6.1031">
        <ele>1397.3</ele>
        <time>2015-02-11T09:24:10Z</time>
      </trkpt>
      <trkpt lat="45.63593" lon="6.1031">
        <ele>1397.6</ele>
        <time>2015-02-11T09:24:11Z</time>
      </trkpt>
      <trkpt lat="45.63592" lon="6.10311">
        <ele>1397.9</ele>
        <time>2015-02-11T09:24:12Z</time>
      </trkpt>
      <trkpt lat="45.63592" lon="6.10311">
        <ele>1398.1</ele>
        <time>2015-02-11T09:24:13Z</time>
      </trkpt>
      <trkpt lat="45.63592" lon="6.10311">
        <ele>1398.3</ele>
        <time>2015-02-11T09:24:14Z</time>
      </trkpt>
      <trkpt lat="45.63591" lon="6.10311">
        <ele>1398.6</ele>
        <time>2015-02-11T09:24:15Z</time>
      </trkpt>
      <trkpt lat="45.6359" lon="6.10311">
        <ele>1398.8</ele>
        <time>2015-02-11T09:24:16Z</time>
      </trkpt>
      <trkpt lat="45.6359" lon="6.10312">
        <ele>1398.9</ele>
        <time>2015-02-11T09:24:17Z</time>
      </trkpt>
      <trkpt lat="45.6359" lon="6.10312">
        <ele>1399.3</ele>
        <time>2015-02-11T09:24:18Z</time>
      </trkpt>
      <trkpt lat="45.63589" lon="6.10313">
        <ele>1399.5</ele>
        <time>2015-02-11T09:24:19Z</time>
      </trkpt>
      <trkpt lat="45.63589" lon="6.10313">
        <ele>1399.8</ele>
        <time>2015-02-11T09:24:20Z</time>
      </trkpt>
      <trkpt lat="45.63588" lon="6.10313">
        <ele>1400</ele>
        <time>2015-02-11T09:24:21Z</time>
      </trkpt>
      <trkpt lat="45.63588" lon="6.10314">
        <ele>1400.4</ele>
        <time>2015-02-11T09:24:22Z</time>
      </trkpt>
      <trkpt lat="45.63587" lon="6.10314">
        <ele>1400.5</ele>
        <time>2015-02-11T09:24:23Z</time>
      </trkpt>
      <trkpt lat="45.63587" lon="6.10315">
        <ele>1400.9</ele>
        <time>2015-02-11T09:24:24Z</time>
      </trkpt>
      <trkpt lat="45.63587" lon="6.10315">
        <ele>1401.2</ele>
        <time>2015-02-11T09:24:25Z</time>
      </trkpt>
      <trkpt lat="45.63586" lon="6.10316">
        <ele>1401.5</ele>
        <time>2015-02-11T09:24:26Z</time>
      </trkpt>
      <trkpt lat="45.63586" lon="6.10316">
        <ele>1401.8</ele>
        <time>2015-02-11T09:24:27Z</time>
      </trkpt>
      <trkpt lat="45.63585" lon="6.10317">
        <ele>1402.2</ele>
        <time>2015-02-11T09:24:28Z</time>
      </trkpt>
      <trkpt lat="45.63585" lon="6.10317">
        <ele>1402.7</ele>
        <time>2015-02-11T09:24:29Z</time>
      </trkpt>
      <trkpt lat="45.63584" lon="6.10318">
        <ele>1403.1</ele>
        <time>2015-02-11T09:24:30Z</time>
      </trkpt>
      <trkpt lat="45.63583" lon="6.10318">
        <ele>1403.5</ele>
        <time>2015-02-11T09:24:31Z</time>
      </trkpt>
      <trkpt lat="45.63583" lon="6.10319">
        <ele>1403.8</ele>
        <time>2015-02-11T09:24:32Z</time>
      </trkpt>
      <trkpt lat="45.63582" lon="6.10319">
        <ele>1404</ele>
        <time>2015-02-11T09:24:33Z</time>
      </trkpt>
      <trkpt lat="45.63582" lon="6.10319">
        <ele>1404.1</ele>
        <time>2015-02-11T09:24:34Z</time>
      </trkpt>
      <trkpt lat="45.63581" lon="6.10319">
        <ele>1404.4</ele>
        <time>2015-02-11T09:24:35Z</time>
      </trkpt>
      <trkpt lat="45.6358" lon="6.1032">
        <ele>1404.6</ele>
        <time>2015-02-11T09:24:36Z</time>
      </trkpt>
      <trkpt lat="45.6358" lon="6.1032">
        <ele>1404.9</ele>
        <time>2015-02-11T09:24:37Z</time>
      </trkpt>
      <trkpt lat="45.63579" lon="6.10321">
        <ele>1405.2</ele>
        <time>2015-02-11T09:24:38Z</time>
      </trkpt>
      <trkpt lat="45.63579" lon="6.10321">
        <ele>1405.3</ele>
        <time>2015-02-11T09:24:39Z</time>
      </trkpt>
      <trkpt lat="45.63578" lon="6.10321">
        <ele>1405.7</ele>
        <time>2015-02-11T09:24:40Z</time>
      </trkpt>
      <trkpt lat="45.63579" lon="6.10322">
        <ele>1405.9</ele>
        <time>2015-02-11T09:24:41Z</time>
      </trkpt>
      <trkpt lat="45.63578" lon="6.10322">
        <ele>1406.2</ele>
        <time>2015-02-11T09:24:42Z</time>
      </trkpt>
      <trkpt lat="45.63578" lon="6.10323">
        <ele>1406.6</ele>
        <time>2015-02-11T09:24:43Z</time>
      </trkpt>
      <trkpt lat="45.63577" lon="6.10323">
        <ele>1406.5</ele>
        <time>2015-02-11T09:24:44Z</time>
      </trkpt>
      <trkpt lat="45.63577" lon="6.10323">
        <ele>1406.6</ele>
        <time>2015-02-11T09:24:45Z</time>
      </trkpt>
      <trkpt lat="45.63576" lon="6.10323">
        <ele>1406.8</ele>
        <time>2015-02-11T09:24:46Z</time>
      </trkpt>
      <trkpt lat="45.63576" lon="6.10323">
        <ele>1407.1</ele>
        <time>2015-02-11T09:24:47Z</time>
      </trkpt>
      <trkpt lat="45.63575" lon="6.10323">
        <ele>1407.1</ele>
        <time>2015-02-11T09:24:48Z</time>
      </trkpt>
      <trkpt lat="45.63575" lon="6.10324">
        <ele>1407.3</ele>
        <time>2015-02-11T09:24:49Z</time>
      </trkpt>
      <trkpt lat="45.63574" lon="6.10324">
        <ele>1407.5</ele>
        <time>2015-02-11T09:24:50Z</time>
      </trkpt>
      <trkpt lat="45.63574" lon="6.10324">
        <ele>1407.7</ele>
        <time>2015-02-11T09:24:51Z</time>
      </trkpt>
      <trkpt lat="45.63574" lon="6.10324">
        <ele>1407.7</ele>
        <time>2015-02-11T09:24:52Z</time>
      </trkpt>
      <trkpt lat="45.63574" lon="6.10324">
        <ele>1407.7</ele>
        <time>2015-02-11T09:24:53Z</time>
      </trkpt>
      <trkpt lat="45.63574" lon="6.10324">
        <ele>1407.6</ele>
        <time>2015-02-11T09:24:54Z</time>
      </trkpt>
      <trkpt lat="45.63574" lon="6.10324">
        <ele>1407.6</ele>
        <time>2015-02-11T09:24:55Z</time>
      </trkpt>
      <trkpt lat="45.63573" lon="6.10324">
        <ele>1407.7</ele>
        <time>2015-02-11T09:24:56Z</time>
      </trkpt>
      <trkpt lat="45.63573" lon="6.10324">
        <ele>1407.7</ele>
        <time>2015-02-11T09:24:57Z</time>
      </trkpt>
      <trkpt lat="45.63573" lon="6.10324">
        <ele>1407.9</ele>
        <time>2015-02-11T09:24:58Z</time>
      </trkpt>
      <trkpt lat="45.63572" lon="6.10324">
        <ele>1407.8</ele>
        <time>2015-02-11T09:24:59Z</time>
      </trkpt>
      <trkpt lat="45.63572" lon="6.10323">
        <ele>1407.6</ele>
        <time>2015-02-11T09:25:00Z</time>
      </trkpt>
      <trkpt lat="45.63572" lon="6.10323">
        <ele>1407.6</ele>
        <time>2015-02-11T09:25:01Z</time>
      </trkpt>
      <trkpt lat="45.63571" lon="6.10323">
        <ele>1407.5</ele>
        <time>2015-02-11T09:25:02Z</time>
      </trkpt>
      <trkpt lat="45.63571" lon="6.10323">
        <ele>1407.6</ele>
        <time>2015-02-11T09:25:03Z</time>
      </trkpt>
      <trkpt lat="45.63571" lon="6.10322">
        <ele>1407.5</ele>
        <time>2015-02-11T09:25:04Z</time>
      </trkpt>
      <trkpt lat="45.63571" lon="6.10323">
        <ele>1407.9</ele>
        <time>2015-02-11T09:25:05Z</time>
      </trkpt>
      <trkpt lat="45.63571" lon="6.10324">
        <ele>1408</ele>
        <time>2015-02-11T09:25:06Z</time>
      </trkpt>
      <trkpt lat="45.6357" lon="6.10324">
        <ele>1408.2</ele>
        <time>2015-02-11T09:25:07Z</time>
      </trkpt>
      <trkpt lat="45.6357" lon="6.10324">
        <ele>1408.6</ele>
        <time>2015-02-11T09:25:08Z</time>
      </trkpt>
      <trkpt lat="45.63569" lon="6.10324">
        <ele>1408.6</ele>
        <time>2015-02-11T09:25:09Z</time>
      </trkpt>
      <trkpt lat="45.63568" lon="6.10324">
        <ele>1408.6</ele>
        <time>2015-02-11T09:25:10Z</time>
      </trkpt>
      <trkpt lat="45.63568" lon="6.10324">
        <ele>1408.7</ele>
        <time>2015-02-11T09:25:11Z</time>
      </trkpt>
      <trkpt lat="45.63567" lon="6.10324">
        <ele>1408.8</ele>
        <time>2015-02-11T09:25:12Z</time>
      </trkpt>
      <trkpt lat="45.63567" lon="6.10323">
        <ele>1408.5</ele>
        <time>2015-02-11T09:25:13Z</time>
      </trkpt>
      <trkpt lat="45.63566" lon="6.10323">
        <ele>1408.6</ele>
        <time>2015-02-11T09:25:14Z</time>
      </trkpt>
      <trkpt lat="45.63566" lon="6.10323">
        <ele>1408.6</ele>
        <time>2015-02-11T09:25:15Z</time>
      </trkpt>
      <trkpt lat="45.63565" lon="6.10323">
        <ele>1408.8</ele>
        <time>2015-02-11T09:25:16Z</time>
      </trkpt>
      <trkpt lat="45.63565" lon="6.10323">
        <ele>1408.8</ele>
        <time>2015-02-11T09:25:17Z</time>
      </trkpt>
      <trkpt lat="45.63564" lon="6.10323">
        <ele>1408.9</ele>
        <time>2015-02-11T09:25:18Z</time>
      </trkpt>
      <trkpt lat="45.63563" lon="6.10323">
        <ele>1409.3</ele>
        <time>2015-02-11T09:25:19Z</time>
      </trkpt>
      <trkpt lat="45.63563" lon="6.10324">
        <ele>1409.4</ele>
        <time>2015-02-11T09:25:20Z</time>
      </trkpt>
      <trkpt lat="45.63562" lon="6.10324">
        <ele>1409.6</ele>
        <time>2015-02-11T09:25:21Z</time>
      </trkpt>
      <trkpt lat="45.63562" lon="6.10324">
        <ele>1409.6</ele>
        <time>2015-02-11T09:25:22Z</time>
      </trkpt>
      <trkpt lat="45.63561" lon="6.10324">
        <ele>1409.9</ele>
        <time>2015-02-11T09:25:23Z</time>
      </trkpt>
      <trkpt lat="45.63561" lon="6.10324">
        <ele>1410.2</ele>
        <time>2015-02-11T09:25:24Z</time>
      </trkpt>
      <trkpt lat="45.6356" lon="6.10325">
        <ele>1410.5</ele>
        <time>2015-02-11T09:25:25Z</time>
      </trkpt>
      <trkpt lat="45.63559" lon="6.10325">
        <ele>1410.9</ele>
        <time>2015-02-11T09:25:26Z</time>
      </trkpt>
      <trkpt lat="45.63559" lon="6.10326">
        <ele>1411.3</ele>
        <time>2015-02-11T09:25:27Z</time>
      </trkpt>
      <trkpt lat="45.63558" lon="6.10327">
        <ele>1411.7</ele>
        <time>2015-02-11T09:25:28Z</time>
      </trkpt>
      <trkpt lat="45.63557" lon="6.10327">
        <ele>1412</ele>
        <time>2015-02-11T09:25:29Z</time>
      </trkpt>
      <trkpt lat="45.63557" lon="6.10328">
        <ele>1412.4</ele>
        <time>2015-02-11T09:25:30Z</time>
      </trkpt>
      <trkpt lat="45.63556" lon="6.10328">
        <ele>1412.8</ele>
        <time>2015-02-11T09:25:31Z</time>
      </trkpt>
      <trkpt lat="45.63555" lon="6.1033">
        <ele>1413.4</ele>
        <time>2015-02-11T09:25:32Z</time>
      </trkpt>
      <trkpt lat="45.63555" lon="6.1033">
        <ele>1413.8</ele>
        <time>2015-02-11T09:25:33Z</time>
      </trkpt>
      <trkpt lat="45.63555" lon="6.10331">
        <ele>1414.1</ele>
        <time>2015-02-11T09:25:34Z</time>
      </trkpt>
      <trkpt lat="45.63554" lon="6.10332">
        <ele>1414.3</ele>
        <time>2015-02-11T09:25:35Z</time>
      </trkpt>
      <trkpt lat="45.63554" lon="6.10332">
        <ele>1414.5</ele>
        <time>2015-02-11T09:25:36Z</time>
      </trkpt>
      <trkpt lat="45.63554" lon="6.10332">
        <ele>1414.6</ele>
        <time>2015-02-11T09:25:37Z</time>
      </trkpt>
      <trkpt lat="45.63553" lon="6.10332">
        <ele>1414.7</ele>
        <time>2015-02-11T09:25:38Z</time>
      </trkpt>
      <trkpt lat="45.63553" lon="6.10333">
        <ele>1414.9</ele>
        <time>2015-02-11T09:25:39Z</time>
      </trkpt>
      <trkpt lat="45.63553" lon="6.10333">
        <ele>1415</ele>
        <time>2015-02-11T09:25:40Z</time>
      </trkpt>
      <trkpt lat="45.63553" lon="6.10334">
        <ele>1415.3</ele>
        <time>2015-02-11T09:25:41Z</time>
      </trkpt>
      <trkpt lat="45.63552" lon="6.10334">
        <ele>1415.6</ele>
        <time>2015-02-11T09:25:42Z</time>
      </trkpt>
      <trkpt lat="45.63551" lon="6.10335">
        <ele>1415.8</ele>
        <time>2015-02-11T09:25:43Z</time>
      </trkpt>
      <trkpt lat="45.63551" lon="6.10335">
        <ele>1415.9</ele>
        <time>2015-02-11T09:25:44Z</time>
      </trkpt>
      <trkpt lat="45.6355" lon="6.10335">
        <ele>1416.1</ele>
        <time>2015-02-11T09:25:45Z</time>
      </trkpt>
      <trkpt lat="45.63549" lon="6.10336">
        <ele>1416.4</ele>
        <time>2015-02-11T09:25:46Z</time>
      </trkpt>
      <trkpt lat="45.63549" lon="6.10336">
        <ele>1416.6</ele>
        <time>2015-02-11T09:25:47Z</time>
      </trkpt>
      <trkpt lat="45.63548" lon="6.10337">
        <ele>1416.8</ele>
        <time>2015-02-11T09:25:48Z</time>
      </trkpt>
      <trkpt lat="45.63548" lon="6.10337">
        <ele>1417.1</ele>
        <time>2015-02-11T09:25:49Z</time>
      </trkpt>
      <trkpt lat="45.63547" lon="6.10338">
        <ele>1417.2</ele>
        <time>2015-02-11T09:25:50Z</time>
      </trkpt>
      <trkpt lat="45.63546" lon="6.10338">
        <ele>1417.3</ele>
        <time>2015-02-11T09:25:51Z</time>
      </trkpt>
      <trkpt lat="45.63546" lon="6.10338">
        <ele>1417.4</ele>
        <time>2015-02-11T09:25:52Z</time>
      </trkpt>
      <trkpt lat="45.63545" lon="6.10338">
        <ele>1417.5</ele>
        <time>2015-02-11T09:25:53Z</time>
      </trkpt>
      <trkpt lat="45.63545" lon="6.10338">
        <ele>1417.6</ele>
        <time>2015-02-11T09:25:54Z</time>
      </trkpt>
      <trkpt lat="45.63544" lon="6.10338">
        <ele>1417.6</ele>
        <time>2015-02-11T09:25:55Z</time>
      </trkpt>
      <trkpt lat="45.63544" lon="6.10339">
        <ele>1417.8</ele>
        <time>2015-02-11T09:25:56Z</time>
      </trkpt>
      <trkpt lat="45.63543" lon="6.10339">
        <ele>1417.8</ele>
        <time>2015-02-11T09:25:57Z</time>
      </trkpt>
      <trkpt lat="45.63543" lon="6.10339">
        <ele>1417.9</ele>
        <time>2015-02-11T09:25:58Z</time>
      </trkpt>
      <trkpt lat="45.63542" lon="6.10339">
        <ele>1417.9</ele>
        <time>2015-02-11T09:25:59Z</time>
      </trkpt>
      <trkpt lat="45.63542" lon="6.10339">
        <ele>1418</ele>
        <time>2015-02-11T09:26:00Z</time>
      </trkpt>
      <trkpt lat="45.63541" lon="6.10339">
        <ele>1418.2</ele>
        <time>2015-02-11T09:26:01Z</time>
      </trkpt>
      <trkpt lat="45.63541" lon="6.1034">
        <ele>1418.3</ele>
        <time>2015-02-11T09:26:02Z</time>
      </trkpt>
      <trkpt lat="45.6354" lon="6.1034">
        <ele>1418.5</ele>
        <time>2015-02-11T09:26:03Z</time>
      </trkpt>
      <trkpt lat="45.6354" lon="6.1034">
        <ele>1418.5</ele>
        <time>2015-02-11T09:26:04Z</time>
      </trkpt>
      <trkpt lat="45.63539" lon="6.1034">
        <ele>1418.5</ele>
        <time>2015-02-11T09:26:05Z</time>
      </trkpt>
      <trkpt lat="45.63539" lon="6.1034">
        <ele>1418.4</ele>
        <time>2015-02-11T09:26:06Z</time>
      </trkpt>
      <trkpt lat="45.63539" lon="6.1034">
        <ele>1418.5</ele>
        <time>2015-02-11T09:26:07Z</time>
      </trkpt>
      <trkpt lat="45.63539" lon="6.1034">
        <ele>1418.6</ele>
        <time>2015-02-11T09:26:08Z</time>
      </trkpt>
      <trkpt lat="45.63538" lon="6.1034">
        <ele>1418.8</ele>
        <time>2015-02-11T09:26:09Z</time>
      </trkpt>
      <trkpt lat="45.63538" lon="6.10341">
        <ele>1418.8</ele>
        <time>2015-02-11T09:26:10Z</time>
      </trkpt>
      <trkpt lat="45.63537" lon="6.10341">
        <ele>1419.1</ele>
        <time>2015-02-11T09:26:11Z</time>
      </trkpt>
      <trkpt lat="45.63537" lon="6.10342">
        <ele>1419.3</ele>
        <time>2015-02-11T09:26:12Z</time>
      </trkpt>
      <trkpt lat="45.63536" lon="6.10342">
        <ele>1419.7</ele>
        <time>2015-02-11T09:26:13Z</time>
      </trkpt>
      <trkpt lat="45.63536" lon="6.10343">
        <ele>1419.9</ele>
        <time>2015-02-11T09:26:14Z</time>
      </trkpt>
      <trkpt lat="45.63536" lon="6.10343">
        <ele>1419.9</ele>
        <time>2015-02-11T09:26:15Z</time>
      </trkpt>
      <trkpt lat="45.63535" lon="6.10343">
        <ele>1420.2</ele>
        <time>2015-02-11T09:26:16Z</time>
      </trkpt>
      <trkpt lat="45.63535" lon="6.10343">
        <ele>1420.2</ele>
        <time>2015-02-11T09:26:17Z</time>
      </trkpt>
      <trkpt lat="45.63535" lon="6.10344">
        <ele>1420.5</ele>
        <time>2015-02-11T09:26:18Z</time>
      </trkpt>
      <trkpt lat="45.63535" lon="6.10344">
        <ele>1420.5</ele>
        <time>2015-02-11T09:26:19Z</time>
      </trkpt>
      <trkpt lat="45.63534" lon="6.10345">
        <ele>1420.7</ele>
        <time>2015-02-11T09:26:20Z</time>
      </trkpt>
      <trkpt lat="45.63534" lon="6.10345">
        <ele>1420.9</ele>
        <time>2015-02-11T09:26:21Z</time>
      </trkpt>
      <trkpt lat="45.63533" lon="6.10345">
        <ele>1421.1</ele>
        <time>2015-02-11T09:26:22Z</time>
      </trkpt>
      <trkpt lat="45.63533" lon="6.10346">
        <ele>1421.3</ele>
        <time>2015-02-11T09:26:23Z</time>
      </trkpt>
      <trkpt lat="45.63533" lon="6.10346">
        <ele>1421.6</ele>
        <time>2015-02-11T09:26:24Z</time>
      </trkpt>
      <trkpt lat="45.63532" lon="6.10347">
        <ele>1421.7</ele>
        <time>2015-02-11T09:26:25Z</time>
      </trkpt>
      <trkpt lat="45.63532" lon="6.10347">
        <ele>1422</ele>
        <time>2015-02-11T09:26:26Z</time>
      </trkpt>
      <trkpt lat="45.63531" lon="6.10348">
        <ele>1422.1</ele>
        <time>2015-02-11T09:26:27Z</time>
      </trkpt>
      <trkpt lat="45.63531" lon="6.10348">
        <ele>1422.4</ele>
        <time>2015-02-11T09:26:28Z</time>
      </trkpt>
      <trkpt lat="45.6353" lon="6.10349">
        <ele>1422.6</ele>
        <time>2015-02-11T09:26:29Z</time>
      </trkpt>
      <trkpt lat="45.6353" lon="6.10349">
        <ele>1422.8</ele>
        <time>2015-02-11T09:26:30Z</time>
      </trkpt>
      <trkpt lat="45.6353" lon="6.1035">
        <ele>1423</ele>
        <time>2015-02-11T09:26:31Z</time>
      </trkpt>
      <trkpt lat="45.63529" lon="6.1035">
        <ele>1423.2</ele>
        <time>2015-02-11T09:26:32Z</time>
      </trkpt>
      <trkpt lat="45.63529" lon="6.1035">
        <ele>1423.2</ele>
        <time>2015-02-11T09:26:33Z</time>
      </trkpt>
      <trkpt lat="45.63529" lon="6.1035">
        <ele>1423.2</ele>
        <time>2015-02-11T09:26:34Z</time>
      </trkpt>
      <trkpt lat="45.63529" lon="6.1035">
        <ele>1423.1</ele>
        <time>2015-02-11T09:26:35Z</time>
      </trkpt>
      <trkpt lat="45.63528" lon="6.10351">
        <ele>1423.5</ele>
        <time>2015-02-11T09:26:36Z</time>
      </trkpt>
      <trkpt lat="45.63528" lon="6.10351">
        <ele>1423.6</ele>
        <time>2015-02-11T09:26:37Z</time>
      </trkpt>
      <trkpt lat="45.63527" lon="6.10351">
        <ele>1423.8</ele>
        <time>2015-02-11T09:26:38Z</time>
      </trkpt>
      <trkpt lat="45.63527" lon="6.10351">
        <ele>1423.8</ele>
        <time>2015-02-11T09:26:39Z</time>
      </trkpt>
      <trkpt lat="45.63526" lon="6.10352">
        <ele>1424</ele>
        <time>2015-02-11T09:26:40Z</time>
      </trkpt>
      <trkpt lat="45.63526" lon="6.10352">
        <ele>1424.2</ele>
        <time>2015-02-11T09:26:41Z</time>
      </trkpt>
      <trkpt lat="45.63526" lon="6.10353">
        <ele>1424.5</ele>
        <time>2015-02-11T09:26:42Z</time>
      </trkpt>
      <trkpt lat="45.63525" lon="6.10353">
        <ele>1424.5</ele>
        <time>2015-02-11T09:26:43Z</time>
      </trkpt>
      <trkpt lat="45.63525" lon="6.10354">
        <ele>1424.8</ele>
        <time>2015-02-11T09:26:44Z</time>
      </trkpt>
      <trkpt lat="45.63525" lon="6.10354">
        <ele>1424.9</ele>
        <time>2015-02-11T09:26:45Z</time>
      </trkpt>
      <trkpt lat="45.63524" lon="6.10355">
        <ele>1425.1</ele>
        <time>2015-02-11T09:26:46Z</time>
      </trkpt>
      <trkpt lat="45.63524" lon="6.10355">
        <ele>1425.2</ele>
        <time>2015-02-11T09:26:47Z</time>
      </trkpt>
      <trkpt lat="45.63524" lon="6.10356">
        <ele>1425.5</ele>
        <time>2015-02-11T09:26:48Z</time>
      </trkpt>
      <trkpt lat="45.63524" lon="6.10356">
        <ele>1425.9</ele>
        <time>2015-02-11T09:26:49Z</time>
      </trkpt>
      <trkpt lat="45.63524" lon="6.10357">
        <ele>1426.2</ele>
        <time>2015-02-11T09:26:50Z</time>
      </trkpt>
      <trkpt lat="45.63523" lon="6.10358">
        <ele>1426.4</ele>
        <time>2015-02-11T09:26:51Z</time>
      </trkpt>
      <trkpt lat="45.63523" lon="6.10358">
        <ele>1426.7</ele>
        <time>2015-02-11T09:26:52Z</time>
      </trkpt>
      <trkpt lat="45.63523" lon="6.10359">
        <ele>1427</ele>
        <time>2015-02-11T09:26:53Z</time>
      </trkpt>
      <trkpt lat="45.63523" lon="6.10359">
        <ele>1427.1</ele>
        <time>2015-02-11T09:26:54Z</time>
      </trkpt>
      <trkpt lat="45.63522" lon="6.1036">
        <ele>1427.5</ele>
        <time>2015-02-11T09:26:55Z</time>
      </trkpt>
      <trkpt lat="45.63522" lon="6.10361">
        <ele>1427.7</ele>
        <time>2015-02-11T09:26:56Z</time>
      </trkpt>
      <trkpt lat="45.63522" lon="6.10363">
        <ele>1428.4</ele>
        <time>2015-02-11T09:26:58Z</time>
      </trkpt>
      <trkpt lat="45.63521" lon="6.10363">
        <ele>1428.5</ele>
        <time>2015-02-11T09:26:59Z</time>
      </trkpt>
      <trkpt lat="45.63521" lon="6.10363">
        <ele>1428.5</ele>
        <time>2015-02-11T09:27:00Z</time>
      </trkpt>
      <trkpt lat="45.63521" lon="6.10364">
        <ele>1428.6</ele>
        <time>2015-02-11T09:27:01Z</time>
      </trkpt>
      <trkpt lat="45.63521" lon="6.10363">
        <ele>1428.6</ele>
        <time>2015-02-11T09:27:02Z</time>
      </trkpt>
      <trkpt lat="45.63522" lon="6.10363">
        <ele>1428.6</ele>
        <time>2015-02-11T09:27:03Z</time>
      </trkpt>
      <trkpt lat="45.63522" lon="6.10364">
        <ele>1428.8</ele>
        <time>2015-02-11T09:27:04Z</time>
      </trkpt>
      <trkpt lat="45.63522" lon="6.10364">
        <ele>1428.9</ele>
        <time>2015-02-11T09:27:05Z</time>
      </trkpt>
      <trkpt lat="45.63521" lon="6.10365">
        <ele>1429</ele>
        <time>2015-02-11T09:27:06Z</time>
      </trkpt>
      <trkpt lat="45.63521" lon="6.10365">
        <ele>1429</ele>
        <time>2015-02-11T09:27:07Z</time>
      </trkpt>
      <trkpt lat="45.63521" lon="6.10364">
        <ele>1428.9</ele>
        <time>2015-02-11T09:27:08Z</time>
      </trkpt>
      <trkpt lat="45.63521" lon="6.10365">
        <ele>1429</ele>
        <time>2015-02-11T09:27:09Z</time>
      </trkpt>
      <trkpt lat="45.63521" lon="6.10365">
        <ele>1429.2</ele>
        <time>2015-02-11T09:27:10Z</time>
      </trkpt>
      <trkpt lat="45.63521" lon="6.10366">
        <ele>1429.4</ele>
        <time>2015-02-11T09:27:11Z</time>
      </trkpt>
      <trkpt lat="45.6352" lon="6.10366">
        <ele>1429.4</ele>
        <time>2015-02-11T09:27:12Z</time>
      </trkpt>
      <trkpt lat="45.6352" lon="6.10367">
        <ele>1429.6</ele>
        <time>2015-02-11T09:27:13Z</time>
      </trkpt>
      <trkpt lat="45.63519" lon="6.10367">
        <ele>1429.7</ele>
        <time>2015-02-11T09:27:14Z</time>
      </trkpt>
      <trkpt lat="45.63519" lon="6.10368">
        <ele>1430</ele>
        <time>2015-02-11T09:27:15Z</time>
      </trkpt>
      <trkpt lat="45.63518" lon="6.10369">
        <ele>1430.2</ele>
        <time>2015-02-11T09:27:16Z</time>
      </trkpt>
      <trkpt lat="45.63518" lon="6.10369">
        <ele>1430.4</ele>
        <time>2015-02-11T09:27:17Z</time>
      </trkpt>
      <trkpt lat="45.63518" lon="6.10369">
        <ele>1430.5</ele>
        <time>2015-02-11T09:27:18Z</time>
      </trkpt>
      <trkpt lat="45.63517" lon="6.10369">
        <ele>1430.5</ele>
        <time>2015-02-11T09:27:19Z</time>
      </trkpt>
      <trkpt lat="45.63517" lon="6.1037">
        <ele>1430.5</ele>
        <time>2015-02-11T09:27:20Z</time>
      </trkpt>
      <trkpt lat="45.63517" lon="6.1037">
        <ele>1430.5</ele>
        <time>2015-02-11T09:27:21Z</time>
      </trkpt>
      <trkpt lat="45.63516" lon="6.10369">
        <ele>1430.4</ele>
        <time>2015-02-11T09:27:22Z</time>
      </trkpt>
      <trkpt lat="45.63516" lon="6.10369">
        <ele>1430.4</ele>
        <time>2015-02-11T09:27:23Z</time>
      </trkpt>
      <trkpt lat="45.63516" lon="6.1037">
        <ele>1430.5</ele>
        <time>2015-02-11T09:27:24Z</time>
      </trkpt>
      <trkpt lat="45.63515" lon="6.1037">
        <ele>1430.5</ele>
        <time>2015-02-11T09:27:25Z</time>
      </trkpt>
      <trkpt lat="45.63515" lon="6.1037">
        <ele>1430.5</ele>
        <time>2015-02-11T09:27:26Z</time>
      </trkpt>
      <trkpt lat="45.63514" lon="6.1037">
        <ele>1430.5</ele>
        <time>2015-02-11T09:27:27Z</time>
      </trkpt>
      <trkpt lat="45.63514" lon="6.1037">
        <ele>1430.4</ele>
        <time>2015-02-11T09:27:28Z</time>
      </trkpt>
      <trkpt lat="45.63514" lon="6.10369">
        <ele>1430.3</ele>
        <time>2015-02-11T09:27:29Z</time>
      </trkpt>
      <trkpt lat="45.63514" lon="6.10369">
        <ele>1430.3</ele>
        <time>2015-02-11T09:27:30Z</time>
      </trkpt>
      <trkpt lat="45.63514" lon="6.10369">
        <ele>1430.3</ele>
        <time>2015-02-11T09:27:31Z</time>
      </trkpt>
      <trkpt lat="45.63514" lon="6.10369">
        <ele>1430.3</ele>
        <time>2015-02-11T09:27:32Z</time>
      </trkpt>
      <trkpt lat="45.63514" lon="6.10369">
        <ele>1430.2</ele>
        <time>2015-02-11T09:27:33Z</time>
      </trkpt>
      <trkpt lat="45.63514" lon="6.10369">
        <ele>1430.2</ele>
        <time>2015-02-11T09:27:34Z</time>
      </trkpt>
      <trkpt lat="45.63514" lon="6.10369">
        <ele>1430.3</ele>
        <time>2015-02-11T09:27:35Z</time>
      </trkpt>
      <trkpt lat="45.63514" lon="6.1037">
        <ele>1430.5</ele>
        <time>2015-02-11T09:27:36Z</time>
      </trkpt>
      <trkpt lat="45.63514" lon="6.1037">
        <ele>1430.6</ele>
        <time>2015-02-11T09:27:37Z</time>
      </trkpt>
      <trkpt lat="45.63515" lon="6.1037">
        <ele>1430.7</ele>
        <time>2015-02-11T09:27:38Z</time>
      </trkpt>
      <trkpt lat="45.63515" lon="6.10371">
        <ele>1430.9</ele>
        <time>2015-02-11T09:27:39Z</time>
      </trkpt>
      <trkpt lat="45.63515" lon="6.10371">
        <ele>1431.1</ele>
        <time>2015-02-11T09:27:40Z</time>
      </trkpt>
      <trkpt lat="45.63515" lon="6.10372">
        <ele>1431.3</ele>
        <time>2015-02-11T09:27:41Z</time>
      </trkpt>
      <trkpt lat="45.63515" lon="6.10372">
        <ele>1431.4</ele>
        <time>2015-02-11T09:27:42Z</time>
      </trkpt>
      <trkpt lat="45.63516" lon="6.10373">
        <ele>1431.6</ele>
        <time>2015-02-11T09:27:43Z</time>
      </trkpt>
      <trkpt lat="45.63516" lon="6.10374">
        <ele>1431.9</ele>
        <time>2015-02-11T09:27:44Z</time>
      </trkpt>
      <trkpt lat="45.63517" lon="6.10374">
        <ele>1432.1</ele>
        <time>2015-02-11T09:27:45Z</time>
      </trkpt>
      <trkpt lat="45.63517" lon="6.10375">
        <ele>1432.3</ele>
        <time>2015-02-11T09:27:46Z</time>
      </trkpt>
      <trkpt lat="45.63518" lon="6.10375">
        <ele>1432.5</ele>
        <time>2015-02-11T09:27:47Z</time>
      </trkpt>
      <trkpt lat="45.63518" lon="6.10376">
        <ele>1432.7</ele>
        <time>2015-02-11T09:27:48Z</time>
      </trkpt>
      <trkpt lat="45.63519" lon="6.10376">
        <ele>1432.9</ele>
        <time>2015-02-11T09:27:49Z</time>
      </trkpt>
      <trkpt lat="45.6352" lon="6.10377">
        <ele>1433.1</ele>
        <time>2015-02-11T09:27:50Z</time>
      </trkpt>
      <trkpt lat="45.63521" lon="6.10377">
        <ele>1433.4</ele>
        <time>2015-02-11T09:27:51Z</time>
      </trkpt>
      <trkpt lat="45.63521" lon="6.10377">
        <ele>1433.4</ele>
        <time>2015-02-11T09:27:52Z</time>
      </trkpt>
      <trkpt lat="45.63521" lon="6.10377">
        <ele>1433.4</ele>
        <time>2015-02-11T09:27:53Z</time>
      </trkpt>
      <trkpt lat="45.63522" lon="6.10378">
        <ele>1433.5</ele>
        <time>2015-02-11T09:27:54Z</time>
      </trkpt>
      <trkpt lat="45.63522" lon="6.10378">
        <ele>1433.6</ele>
        <time>2015-02-11T09:27:55Z</time>
      </trkpt>
      <trkpt lat="45.63523" lon="6.10378">
        <ele>1433.7</ele>
        <time>2015-02-11T09:27:56Z</time>
      </trkpt>
      <trkpt lat="45.63523" lon="6.10378">
        <ele>1433.7</ele>
        <time>2015-02-11T09:27:57Z</time>
      </trkpt>
      <trkpt lat="45.63524" lon="6.10378">
        <ele>1433.8</ele>
        <time>2015-02-11T09:27:58Z</time>
      </trkpt>
      <trkpt lat="45.63524" lon="6.10378">
        <ele>1434</ele>
        <time>2015-02-11T09:27:59Z</time>
      </trkpt>
      <trkpt lat="45.63525" lon="6.10379">
        <ele>1434.1</ele>
        <time>2015-02-11T09:28:00Z</time>
      </trkpt>
      <trkpt lat="45.63526" lon="6.10379">
        <ele>1434.2</ele>
        <time>2015-02-11T09:28:01Z</time>
      </trkpt>
      <trkpt lat="45.63526" lon="6.10379">
        <ele>1434.4</ele>
        <time>2015-02-11T09:28:02Z</time>
      </trkpt>
      <trkpt lat="45.63527" lon="6.1038">
        <ele>1434.6</ele>
        <time>2015-02-11T09:28:03Z</time>
      </trkpt>
      <trkpt lat="45.63527" lon="6.1038">
        <ele>1434.7</ele>
        <time>2015-02-11T09:28:04Z</time>
      </trkpt>
      <trkpt lat="45.63528" lon="6.1038">
        <ele>1434.9</ele>
        <time>2015-02-11T09:28:05Z</time>
      </trkpt>
      <trkpt lat="45.63528" lon="6.10381">
        <ele>1435.1</ele>
        <time>2015-02-11T09:28:06Z</time>
      </trkpt>
      <trkpt lat="45.63529" lon="6.10381">
        <ele>1435.3</ele>
        <time>2015-02-11T09:28:07Z</time>
      </trkpt>
      <trkpt lat="45.63529" lon="6.10381">
        <ele>1435.3</ele>
        <time>2015-02-11T09:28:08Z</time>
      </trkpt>
      <trkpt lat="45.6353" lon="6.10382">
        <ele>1435.4</ele>
        <time>2015-02-11T09:28:09Z</time>
      </trkpt>
      <trkpt lat="45.6353" lon="6.10382">
        <ele>1435.5</ele>
        <time>2015-02-11T09:28:10Z</time>
      </trkpt>
      <trkpt lat="45.63531" lon="6.10382">
        <ele>1435.7</ele>
        <time>2015-02-11T09:28:11Z</time>
      </trkpt>
      <trkpt lat="45.63531" lon="6.10383">
        <ele>1435.8</ele>
        <time>2015-02-11T09:28:12Z</time>
      </trkpt>
      <trkpt lat="45.63531" lon="6.10383">
        <ele>1435.9</ele>
        <time>2015-02-11T09:28:13Z</time>
      </trkpt>
      <trkpt lat="45.63531" lon="6.10383">
        <ele>1436</ele>
        <time>2015-02-11T09:28:14Z</time>
      </trkpt>
      <trkpt lat="45.63532" lon="6.10383">
        <ele>1436.1</ele>
        <time>2015-02-11T09:28:15Z</time>
      </trkpt>
      <trkpt lat="45.63532" lon="6.10384">
        <ele>1436.2</ele>
        <time>2015-02-11T09:28:16Z</time>
      </trkpt>
      <trkpt lat="45.63533" lon="6.10384">
        <ele>1436.4</ele>
        <time>2015-02-11T09:28:17Z</time>
      </trkpt>
      <trkpt lat="45.63533" lon="6.10384">
        <ele>1436.5</ele>
        <time>2015-02-11T09:28:18Z</time>
      </trkpt>
      <trkpt lat="45.63534" lon="6.10385">
        <ele>1436.6</ele>
        <time>2015-02-11T09:28:19Z</time>
      </trkpt>
      <trkpt lat="45.63534" lon="6.10385">
        <ele>1436.8</ele>
        <time>2015-02-11T09:28:20Z</time>
      </trkpt>
      <trkpt lat="45.63534" lon="6.10386">
        <ele>1437</ele>
        <time>2015-02-11T09:28:21Z</time>
      </trkpt>
      <trkpt lat="45.63535" lon="6.10386">
        <ele>1437.1</ele>
        <time>2015-02-11T09:28:22Z</time>
      </trkpt>
      <trkpt lat="45.63535" lon="6.10386">
        <ele>1437.3</ele>
        <time>2015-02-11T09:28:23Z</time>
      </trkpt>
      <trkpt lat="45.63535" lon="6.10387">
        <ele>1437.5</ele>
        <time>2015-02-11T09:28:24Z</time>
      </trkpt>
      <trkpt lat="45.63536" lon="6.10387">
        <ele>1437.5</ele>
        <time>2015-02-11T09:28:25Z</time>
      </trkpt>
      <trkpt lat="45.63536" lon="6.10387">
        <ele>1437.6</ele>
        <time>2015-02-11T09:28:26Z</time>
      </trkpt>
      <trkpt lat="45.63536" lon="6.10388">
        <ele>1437.8</ele>
        <time>2015-02-11T09:28:27Z</time>
      </trkpt>
      <trkpt lat="45.63537" lon="6.10388">
        <ele>1438</ele>
        <time>2015-02-11T09:28:28Z</time>
      </trkpt>
      <trkpt lat="45.63537" lon="6.10389">
        <ele>1438.2</ele>
        <time>2015-02-11T09:28:29Z</time>
      </trkpt>
      <trkpt lat="45.63537" lon="6.10389">
        <ele>1438.3</ele>
        <time>2015-02-11T09:28:30Z</time>
      </trkpt>
      <trkpt lat="45.63538" lon="6.10389">
        <ele>1438.4</ele>
        <time>2015-02-11T09:28:31Z</time>
      </trkpt>
      <trkpt lat="45.63538" lon="6.10389">
        <ele>1438.5</ele>
        <time>2015-02-11T09:28:32Z</time>
      </trkpt>
      <trkpt lat="45.63538" lon="6.1039">
        <ele>1438.7</ele>
        <time>2015-02-11T09:28:33Z</time>
      </trkpt>
      <trkpt lat="45.63539" lon="6.1039">
        <ele>1438.8</ele>
        <time>2015-02-11T09:28:34Z</time>
      </trkpt>
      <trkpt lat="45.63539" lon="6.10391">
        <ele>1439</ele>
        <time>2015-02-11T09:28:35Z</time>
      </trkpt>
      <trkpt lat="45.63539" lon="6.10391">
        <ele>1439.2</ele>
        <time>2015-02-11T09:28:36Z</time>
      </trkpt>
      <trkpt lat="45.63539" lon="6.10392">
        <ele>1439.3</ele>
        <time>2015-02-11T09:28:37Z</time>
      </trkpt>
      <trkpt lat="45.6354" lon="6.10392">
        <ele>1439.5</ele>
        <time>2015-02-11T09:28:38Z</time>
      </trkpt>
      <trkpt lat="45.6354" lon="6.10392">
        <ele>1439.6</ele>
        <time>2015-02-11T09:28:39Z</time>
      </trkpt>
      <trkpt lat="45.63541" lon="6.10393">
        <ele>1439.8</ele>
        <time>2015-02-11T09:28:40Z</time>
      </trkpt>
      <trkpt lat="45.63541" lon="6.10393">
        <ele>1440</ele>
        <time>2015-02-11T09:28:41Z</time>
      </trkpt>
      <trkpt lat="45.63541" lon="6.10393">
        <ele>1440</ele>
        <time>2015-02-11T09:28:42Z</time>
      </trkpt>
      <trkpt lat="45.6354" lon="6.10394">
        <ele>1440</ele>
        <time>2015-02-11T09:28:43Z</time>
      </trkpt>
      <trkpt lat="45.6354" lon="6.10394">
        <ele>1440</ele>
        <time>2015-02-11T09:28:44Z</time>
      </trkpt>
      <trkpt lat="45.63541" lon="6.10394">
        <ele>1440.2</ele>
        <time>2015-02-11T09:28:45Z</time>
      </trkpt>
      <trkpt lat="45.63541" lon="6.10395">
        <ele>1440.5</ele>
        <time>2015-02-11T09:28:46Z</time>
      </trkpt>
      <trkpt lat="45.63541" lon="6.10396">
        <ele>1440.7</ele>
        <time>2015-02-11T09:28:47Z</time>
      </trkpt>
      <trkpt lat="45.63541" lon="6.10396">
        <ele>1441</ele>
        <time>2015-02-11T09:28:48Z</time>
      </trkpt>
      <trkpt lat="45.63542" lon="6.10397">
        <ele>1441.2</ele>
        <time>2015-02-11T09:28:49Z</time>
      </trkpt>
      <trkpt lat="45.63542" lon="6.10398">
        <ele>1441.7</ele>
        <time>2015-02-11T09:28:50Z</time>
      </trkpt>
      <trkpt lat="45.63542" lon="6.10399">
        <ele>1441.9</ele>
        <time>2015-02-11T09:28:51Z</time>
      </trkpt>
      <trkpt lat="45.63543" lon="6.104">
        <ele>1442.3</ele>
        <time>2015-02-11T09:28:52Z</time>
      </trkpt>
      <trkpt lat="45.63543" lon="6.104">
        <ele>1442.2</ele>
        <time>2015-02-11T09:28:53Z</time>
      </trkpt>
      <trkpt lat="45.63544" lon="6.104">
        <ele>1442.3</ele>
        <time>2015-02-11T09:28:54Z</time>
      </trkpt>
      <trkpt lat="45.63544" lon="6.104">
        <ele>1442.5</ele>
        <time>2015-02-11T09:28:55Z</time>
      </trkpt>
      <trkpt lat="45.63544" lon="6.10401">
        <ele>1442.6</ele>
        <time>2015-02-11T09:28:56Z</time>
      </trkpt>
      <trkpt lat="45.63545" lon="6.10401">
        <ele>1442.8</ele>
        <time>2015-02-11T09:28:57Z</time>
      </trkpt>
      <trkpt lat="45.63545" lon="6.10401">
        <ele>1443</ele>
        <time>2015-02-11T09:28:58Z</time>
      </trkpt>
      <trkpt lat="45.63546" lon="6.10402">
        <ele>1443.2</ele>
        <time>2015-02-11T09:28:59Z</time>
      </trkpt>
      <trkpt lat="45.63546" lon="6.10402">
        <ele>1443.3</ele>
        <time>2015-02-11T09:29:00Z</time>
      </trkpt>
      <trkpt lat="45.63546" lon="6.10403">
        <ele>1443.4</ele>
        <time>2015-02-11T09:29:01Z</time>
      </trkpt>
      <trkpt lat="45.63547" lon="6.10403">
        <ele>1443.7</ele>
        <time>2015-02-11T09:29:02Z</time>
      </trkpt>
      <trkpt lat="45.63547" lon="6.10403">
        <ele>1443.7</ele>
        <time>2015-02-11T09:29:03Z</time>
      </trkpt>
      <trkpt lat="45.63547" lon="6.10403">
        <ele>1443.8</ele>
        <time>2015-02-11T09:29:04Z</time>
      </trkpt>
      <trkpt lat="45.63548" lon="6.10404">
        <ele>1443.8</ele>
        <time>2015-02-11T09:29:05Z</time>
      </trkpt>
      <trkpt lat="45.63548" lon="6.10404">
        <ele>1443.9</ele>
        <time>2015-02-11T09:29:06Z</time>
      </trkpt>
      <trkpt lat="45.63548" lon="6.10404">
        <ele>1444.2</ele>
        <time>2015-02-11T09:29:07Z</time>
      </trkpt>
      <trkpt lat="45.63549" lon="6.10405">
        <ele>1444.4</ele>
        <time>2015-02-11T09:29:08Z</time>
      </trkpt>
      <trkpt lat="45.63549" lon="6.10405">
        <ele>1444.4</ele>
        <time>2015-02-11T09:29:09Z</time>
      </trkpt>
      <trkpt lat="45.63549" lon="6.10406">
        <ele>1444.7</ele>
        <time>2015-02-11T09:29:10Z</time>
      </trkpt>
      <trkpt lat="45.63549" lon="6.10406">
        <ele>1444.8</ele>
        <time>2015-02-11T09:29:11Z</time>
      </trkpt>
      <trkpt lat="45.63549" lon="6.10407">
        <ele>1445.2</ele>
        <time>2015-02-11T09:29:12Z</time>
      </trkpt>
      <trkpt lat="45.6355" lon="6.10408">
        <ele>1445.4</ele>
        <time>2015-02-11T09:29:13Z</time>
      </trkpt>
      <trkpt lat="45.63551" lon="6.10408">
        <ele>1445.6</ele>
        <time>2015-02-11T09:29:14Z</time>
      </trkpt>
      <trkpt lat="45.63551" lon="6.10409">
        <ele>1445.9</ele>
        <time>2015-02-11T09:29:15Z</time>
      </trkpt>
      <trkpt lat="45.63552" lon="6.10409">
        <ele>1446.1</ele>
        <time>2015-02-11T09:29:16Z</time>
      </trkpt>
      <trkpt lat="45.63552" lon="6.10409">
        <ele>1446</ele>
        <time>2015-02-11T09:29:17Z</time>
      </trkpt>
      <trkpt lat="45.63552" lon="6.10409">
        <ele>1446</ele>
        <time>2015-02-11T09:29:18Z</time>
      </trkpt>
      <trkpt lat="45.63552" lon="6.1041">
        <ele>1446.3</ele>
        <time>2015-02-11T09:29:19Z</time>
      </trkpt>
      <trkpt lat="45.63553" lon="6.1041">
        <ele>1446.5</ele>
        <time>2015-02-11T09:29:20Z</time>
      </trkpt>
      <trkpt lat="45.63553" lon="6.10411">
        <ele>1446.7</ele>
        <time>2015-02-11T09:29:21Z</time>
      </trkpt>
      <trkpt lat="45.63553" lon="6.10411">
        <ele>1446.9</ele>
        <time>2015-02-11T09:29:22Z</time>
      </trkpt>
      <trkpt lat="45.63554" lon="6.10412">
        <ele>1447.1</ele>
        <time>2015-02-11T09:29:23Z</time>
      </trkpt>
      <trkpt lat="45.63554" lon="6.10412">
        <ele>1447.3</ele>
        <time>2015-02-11T09:29:24Z</time>
      </trkpt>
      <trkpt lat="45.63555" lon="6.10413">
        <ele>1447.5</ele>
        <time>2015-02-11T09:29:25Z</time>
      </trkpt>
      <trkpt lat="45.63555" lon="6.10413">
        <ele>1447.7</ele>
        <time>2015-02-11T09:29:26Z</time>
      </trkpt>
      <trkpt lat="45.63556" lon="6.10414">
        <ele>1447.9</ele>
        <time>2015-02-11T09:29:27Z</time>
      </trkpt>
      <trkpt lat="45.63556" lon="6.10414">
        <ele>1447.9</ele>
        <time>2015-02-11T09:29:28Z</time>
      </trkpt>
      <trkpt lat="45.63556" lon="6.10415">
        <ele>1448</ele>
        <time>2015-02-11T09:29:29Z</time>
      </trkpt>
      <trkpt lat="45.63557" lon="6.10415">
        <ele>1448</ele>
        <time>2015-02-11T09:29:30Z</time>
      </trkpt>
      <trkpt lat="45.63557" lon="6.10415">
        <ele>1448</ele>
        <time>2015-02-11T09:29:31Z</time>
      </trkpt>
      <trkpt lat="45.63558" lon="6.10416">
        <ele>1447.9</ele>
        <time>2015-02-11T09:29:32Z</time>
      </trkpt>
      <trkpt lat="45.63558" lon="6.10416">
        <ele>1448</ele>
        <time>2015-02-11T09:29:33Z</time>
      </trkpt>
      <trkpt lat="45.63559" lon="6.10417">
        <ele>1448</ele>
        <time>2015-02-11T09:29:34Z</time>
      </trkpt>
      <trkpt lat="45.63559" lon="6.10418">
        <ele>1448</ele>
        <time>2015-02-11T09:29:35Z</time>
      </trkpt>
      <trkpt lat="45.6356" lon="6.10418">
        <ele>1448</ele>
        <time>2015-02-11T09:29:36Z</time>
      </trkpt>
      <trkpt lat="45.6356" lon="6.10419">
        <ele>1448</ele>
        <time>2015-02-11T09:29:37Z</time>
      </trkpt>
      <trkpt lat="45.63561" lon="6.10419">
        <ele>1448.1</ele>
        <time>2015-02-11T09:29:38Z</time>
      </trkpt>
      <trkpt lat="45.63561" lon="6.1042">
        <ele>1448.2</ele>
        <time>2015-02-11T09:29:39Z</time>
      </trkpt>
      <trkpt lat="45.63561" lon="6.10421">
        <ele>1448.2</ele>
        <time>2015-02-11T09:29:40Z</time>
      </trkpt>
      <trkpt lat="45.63562" lon="6.10421">
        <ele>1448.3</ele>
        <time>2015-02-11T09:29:41Z</time>
      </trkpt>
      <trkpt lat="45.63562" lon="6.10422">
        <ele>1448.4</ele>
        <time>2015-02-11T09:29:42Z</time>
      </trkpt>
      <trkpt lat="45.63562" lon="6.10422">
        <ele>1448.4</ele>
        <time>2015-02-11T09:29:43Z</time>
      </trkpt>
      <trkpt lat="45.63563" lon="6.10423">
        <ele>1448.6</ele>
        <time>2015-02-11T09:29:44Z</time>
      </trkpt>
      <trkpt lat="45.63563" lon="6.10423">
        <ele>1448.6</ele>
        <time>2015-02-11T09:29:45Z</time>
      </trkpt>
      <trkpt lat="45.63563" lon="6.10424">
        <ele>1448.8</ele>
        <time>2015-02-11T09:29:46Z</time>
      </trkpt>
      <trkpt lat="45.63563" lon="6.10424">
        <ele>1449</ele>
        <time>2015-02-11T09:29:47Z</time>
      </trkpt>
      <trkpt lat="45.63563" lon="6.10424">
        <ele>1448.9</ele>
        <time>2015-02-11T09:29:48Z</time>
      </trkpt>
      <trkpt lat="45.63563" lon="6.10424">
        <ele>1448.8</ele>
        <time>2015-02-11T09:29:49Z</time>
      </trkpt>
      <trkpt lat="45.63563" lon="6.10424">
        <ele>1448.7</ele>
        <time>2015-02-11T09:29:50Z</time>
      </trkpt>
      <trkpt lat="45.63563" lon="6.10424">
        <ele>1448.5</ele>
        <time>2015-02-11T09:29:51Z</time>
      </trkpt>
      <trkpt lat="45.63564" lon="6.10423">
        <ele>1448.5</ele>
        <time>2015-02-11T09:29:52Z</time>
      </trkpt>
      <trkpt lat="45.63564" lon="6.10424">
        <ele>1448.5</ele>
        <time>2015-02-11T09:29:53Z</time>
      </trkpt>
      <trkpt lat="45.63564" lon="6.10424">
        <ele>1448.5</ele>
        <time>2015-02-11T09:29:54Z</time>
      </trkpt>
      <trkpt lat="45.63564" lon="6.10424">
        <ele>1448.5</ele>
        <time>2015-02-11T09:29:55Z</time>
      </trkpt>
      <trkpt lat="45.63564" lon="6.10424">
        <ele>1448.4</ele>
        <time>2015-02-11T09:29:56Z</time>
      </trkpt>
      <trkpt lat="45.63564" lon="6.10424">
        <ele>1448.3</ele>
        <time>2015-02-11T09:29:57Z</time>
      </trkpt>
      <trkpt lat="45.63564" lon="6.10424">
        <ele>1448.3</ele>
        <time>2015-02-11T09:29:58Z</time>
      </trkpt>
      <trkpt lat="45.63564" lon="6.10423">
        <ele>1448.2</ele>
        <time>2015-02-11T09:29:59Z</time>
      </trkpt>
      <trkpt lat="45.63564" lon="6.10423">
        <ele>1448.1</ele>
        <time>2015-02-11T09:30:00Z</time>
      </trkpt>
      <trkpt lat="45.63564" lon="6.10423">
        <ele>1448.1</ele>
        <time>2015-02-11T09:30:01Z</time>
      </trkpt>
      <trkpt lat="45.63564" lon="6.10423">
        <ele>1448.2</ele>
        <time>2015-02-11T09:30:02Z</time>
      </trkpt>
      <trkpt lat="45.63565" lon="6.10423">
        <ele>1448.1</ele>
        <time>2015-02-11T09:30:03Z</time>
      </trkpt>
      <trkpt lat="45.63565" lon="6.10423">
        <ele>1448.1</ele>
        <time>2015-02-11T09:30:04Z</time>
      </trkpt>
      <trkpt lat="45.63565" lon="6.10424">
        <ele>1448.2</ele>
        <time>2015-02-11T09:30:05Z</time>
      </trkpt>
      <trkpt lat="45.63565" lon="6.10424">
        <ele>1448.2</ele>
        <time>2015-02-11T09:30:06Z</time>
      </trkpt>
      <trkpt lat="45.63565" lon="6.10424">
        <ele>1448.2</ele>
        <time>2015-02-11T09:30:07Z</time>
      </trkpt>
      <trkpt lat="45.63565" lon="6.10423">
        <ele>1448.1</ele>
        <time>2015-02-11T09:30:08Z</time>
      </trkpt>
      <trkpt lat="45.63565" lon="6.10423">
        <ele>1448.1</ele>
        <time>2015-02-11T09:30:09Z</time>
      </trkpt>
      <trkpt lat="45.63565" lon="6.10423">
        <ele>1448.1</ele>
        <time>2015-02-11T09:30:10Z</time>
      </trkpt>
      <trkpt lat="45.63565" lon="6.10423">
        <ele>1448.1</ele>
        <time>2015-02-11T09:30:11Z</time>
      </trkpt>
      <trkpt lat="45.63565" lon="6.10424">
        <ele>1448.1</ele>
        <time>2015-02-11T09:30:12Z</time>
      </trkpt>
      <trkpt lat="45.63564" lon="6.10424">
        <ele>1448.2</ele>
        <time>2015-02-11T09:30:13Z</time>
      </trkpt>
      <trkpt lat="45.63564" lon="6.10424">
        <ele>1448.3</ele>
        <time>2015-02-11T09:30:14Z</time>
      </trkpt>
      <trkpt lat="45.63564" lon="6.10424">
        <ele>1448.3</ele>
        <time>2015-02-11T09:30:15Z</time>
      </trkpt>
      <trkpt lat="45.63564" lon="6.10424">
        <ele>1448.3</ele>
        <time>2015-02-11T09:30:16Z</time>
      </trkpt>
      <trkpt lat="45.63564" lon="6.10424">
        <ele>1448.3</ele>
        <time>2015-02-11T09:30:17Z</time>
      </trkpt>
      <trkpt lat="45.63564" lon="6.10424">
        <ele>1448.3</ele>
        <time>2015-02-11T09:30:18Z</time>
      </trkpt>
      <trkpt lat="45.63564" lon="6.10424">
        <ele>1448.4</ele>
        <time>2015-02-11T09:30:19Z</time>
      </trkpt>
      <trkpt lat="45.63564" lon="6.10424">
        <ele>1448.3</ele>
        <time>2015-02-11T09:30:20Z</time>
      </trkpt>
      <trkpt lat="45.63564" lon="6.10424">
        <ele>1448.3</ele>
        <time>2015-02-11T09:30:21Z</time>
      </trkpt>
      <trkpt lat="45.63564" lon="6.10424">
        <ele>1448.3</ele>
        <time>2015-02-11T09:30:22Z</time>
      </trkpt>
      <trkpt lat="45.63564" lon="6.10424">
        <ele>1448.3</ele>
        <time>2015-02-11T09:30:23Z</time>
      </trkpt>
      <trkpt lat="45.63564" lon="6.10424">
        <ele>1448.3</ele>
        <time>2015-02-11T09:30:24Z</time>
      </trkpt>
      <trkpt lat="45.63564" lon="6.10424">
        <ele>1448.3</ele>
        <time>2015-02-11T09:30:25Z</time>
      </trkpt>
      <trkpt lat="45.63564" lon="6.10424">
        <ele>1448.3</ele>
        <time>2015-02-11T09:30:26Z</time>
      </trkpt>
      <trkpt lat="45.63564" lon="6.10424">
        <ele>1448.3</ele>
        <time>2015-02-11T09:30:27Z</time>
      </trkpt>
      <trkpt lat="45.63564" lon="6.10424">
        <ele>1448.4</ele>
        <time>2015-02-11T09:30:28Z</time>
      </trkpt>
      <trkpt lat="45.63564" lon="6.10424">
        <ele>1448.3</ele>
        <time>2015-02-11T09:30:29Z</time>
      </trkpt>
      <trkpt lat="45.63564" lon="6.10424">
        <ele>1448.3</ele>
        <time>2015-02-11T09:30:30Z</time>
      </trkpt>
      <trkpt lat="45.63564" lon="6.10424">
        <ele>1448.4</ele>
        <time>2015-02-11T09:30:31Z</time>
      </trkpt>
      <trkpt lat="45.63564" lon="6.10425">
        <ele>1448.5</ele>
        <time>2015-02-11T09:30:32Z</time>
      </trkpt>
      <trkpt lat="45.63565" lon="6.10425">
        <ele>1448.8</ele>
        <time>2015-02-11T09:30:33Z</time>
      </trkpt>
      <trkpt lat="45.63565" lon="6.10426">
        <ele>1448.8</ele>
        <time>2015-02-11T09:30:34Z</time>
      </trkpt>
      <trkpt lat="45.63565" lon="6.10426">
        <ele>1449</ele>
        <time>2015-02-11T09:30:35Z</time>
      </trkpt>
      <trkpt lat="45.63564" lon="6.10426">
        <ele>1449</ele>
        <time>2015-02-11T09:30:36Z</time>
      </trkpt>
      <trkpt lat="45.63564" lon="6.10426">
        <ele>1449.1</ele>
        <time>2015-02-11T09:30:37Z</time>
      </trkpt>
      <trkpt lat="45.63564" lon="6.10426">
        <ele>1449.1</ele>
        <time>2015-02-11T09:30:38Z</time>
      </trkpt>
      <trkpt lat="45.63564" lon="6.10426">
        <ele>1449</ele>
        <time>2015-02-11T09:30:39Z</time>
      </trkpt>
      <trkpt lat="45.63564" lon="6.10426">
        <ele>1449</ele>
        <time>2015-02-11T09:30:40Z</time>
      </trkpt>
      <trkpt lat="45.63564" lon="6.10426">
        <ele>1449</ele>
        <time>2015-02-11T09:30:41Z</time>
      </trkpt>
      <trkpt lat="45.63564" lon="6.10426">
        <ele>1449</ele>
        <time>2015-02-11T09:30:42Z</time>
      </trkpt>
      <trkpt lat="45.63564" lon="6.10426">
        <ele>1449</ele>
        <time>2015-02-11T09:30:43Z</time>
      </trkpt>
      <trkpt lat="45.63564" lon="6.10426">
        <ele>1449.1</ele>
        <time>2015-02-11T09:30:44Z</time>
      </trkpt>
      <trkpt lat="45.63564" lon="6.10426">
        <ele>1449.1</ele>
        <time>2015-02-11T09:30:45Z</time>
      </trkpt>
      <trkpt lat="45.63564" lon="6.10426">
        <ele>1449.1</ele>
        <time>2015-02-11T09:30:46Z</time>
      </trkpt>
      <trkpt lat="45.63564" lon="6.10426">
        <ele>1449.1</ele>
        <time>2015-02-11T09:30:47Z</time>
      </trkpt>
      <trkpt lat="45.63564" lon="6.10426">
        <ele>1449.1</ele>
        <time>2015-02-11T09:30:48Z</time>
      </trkpt>
      <trkpt lat="45.63564" lon="6.10426">
        <ele>1449.1</ele>
        <time>2015-02-11T09:30:49Z</time>
      </trkpt>
      <trkpt lat="45.63564" lon="6.10426">
        <ele>1449.1</ele>
        <time>2015-02-11T09:30:50Z</time>
      </trkpt>
      <trkpt lat="45.63564" lon="6.10426">
        <ele>1449.1</ele>
        <time>2015-02-11T09:30:51Z</time>
      </trkpt>
      <trkpt lat="45.63564" lon="6.10426">
        <ele>1449.1</ele>
        <time>2015-02-11T09:30:52Z</time>
      </trkpt>
      <trkpt lat="45.63564" lon="6.10426">
        <ele>1449.1</ele>
        <time>2015-02-11T09:30:53Z</time>
      </trkpt>
      <trkpt lat="45.63564" lon="6.10426">
        <ele>1449.1</ele>
        <time>2015-02-11T09:30:54Z</time>
      </trkpt>
      <trkpt lat="45.63564" lon="6.10426">
        <ele>1449.1</ele>
        <time>2015-02-11T09:30:55Z</time>
      </trkpt>
      <trkpt lat="45.63564" lon="6.10426">
        <ele>1449.1</ele>
        <time>2015-02-11T09:30:56Z</time>
      </trkpt>
      <trkpt lat="45.63564" lon="6.10426">
        <ele>1449.1</ele>
        <time>2015-02-11T09:30:57Z</time>
      </trkpt>
      <trkpt lat="45.63564" lon="6.10426">
        <ele>1449.1</ele>
        <time>2015-02-11T09:30:58Z</time>
      </trkpt>
      <trkpt lat="45.63564" lon="6.10426">
        <ele>1449.1</ele>
        <time>2015-02-11T09:30:59Z</time>
      </trkpt>
      <trkpt lat="45.63564" lon="6.10426">
        <ele>1449.1</ele>
        <time>2015-02-11T09:31:00Z</time>
      </trkpt>
      <trkpt lat="45.63564" lon="6.10426">
        <ele>1449.1</ele>
        <time>2015-02-11T09:31:01Z</time>
      </trkpt>
      <trkpt lat="45.63564" lon="6.10426">
        <ele>1449.1</ele>
        <time>2015-02-11T09:31:02Z</time>
      </trkpt>
      <trkpt lat="45.63564" lon="6.10426">
        <ele>1449.1</ele>
        <time>2015-02-11T09:31:03Z</time>
      </trkpt>
      <trkpt lat="45.63564" lon="6.10426">
        <ele>1449.1</ele>
        <time>2015-02-11T09:31:04Z</time>
      </trkpt>
      <trkpt lat="45.63564" lon="6.10426">
        <ele>1449.1</ele>
        <time>2015-02-11T09:31:05Z</time>
      </trkpt>
      <trkpt lat="45.63564" lon="6.10426">
        <ele>1449.1</ele>
        <time>2015-02-11T09:31:06Z</time>
      </trkpt>
      <trkpt lat="45.63564" lon="6.10426">
        <ele>1449.1</ele>
        <time>2015-02-11T09:31:07Z</time>
      </trkpt>
      <trkpt lat="45.63564" lon="6.10426">
        <ele>1449.1</ele>
        <time>2015-02-11T09:31:08Z</time>
      </trkpt>
      <trkpt lat="45.63564" lon="6.10426">
        <ele>1449.1</ele>
        <time>2015-02-11T09:31:09Z</time>
      </trkpt>
      <trkpt lat="45.63564" lon="6.10426">
        <ele>1449.1</ele>
        <time>2015-02-11T09:31:10Z</time>
      </trkpt>
      <trkpt lat="45.63564" lon="6.10426">
        <ele>1449.1</ele>
        <time>2015-02-11T09:31:11Z</time>
      </trkpt>
      <trkpt lat="45.63564" lon="6.10426">
        <ele>1449.1</ele>
        <time>2015-02-11T09:31:12Z</time>
      </trkpt>
      <trkpt lat="45.63564" lon="6.10426">
        <ele>1449.1</ele>
        <time>2015-02-11T09:31:13Z</time>
      </trkpt>
      <trkpt lat="45.63564" lon="6.10426">
        <ele>1449.2</ele>
        <time>2015-02-11T09:31:14Z</time>
      </trkpt>
      <trkpt lat="45.63564" lon="6.10426">
        <ele>1449.2</ele>
        <time>2015-02-11T09:31:15Z</time>
      </trkpt>
      <trkpt lat="45.63564" lon="6.10426">
        <ele>1449.2</ele>
        <time>2015-02-11T09:31:16Z</time>
      </trkpt>
      <trkpt lat="45.63564" lon="6.10426">
        <ele>1449.1</ele>
        <time>2015-02-11T09:31:17Z</time>
      </trkpt>
      <trkpt lat="45.63564" lon="6.10426">
        <ele>1449.2</ele>
        <time>2015-02-11T09:31:18Z</time>
      </trkpt>
      <trkpt lat="45.63564" lon="6.10426">
        <ele>1449.1</ele>
        <time>2015-02-11T09:31:19Z</time>
      </trkpt>
      <trkpt lat="45.63564" lon="6.10426">
        <ele>1449.3</ele>
        <time>2015-02-11T09:31:20Z</time>
      </trkpt>
      <trkpt lat="45.63564" lon="6.10427">
        <ele>1449.4</ele>
        <time>2015-02-11T09:31:21Z</time>
      </trkpt>
      <trkpt lat="45.63564" lon="6.10427">
        <ele>1449.5</ele>
        <time>2015-02-11T09:31:22Z</time>
      </trkpt>
      <trkpt lat="45.63564" lon="6.10427">
        <ele>1449.6</ele>
        <time>2015-02-11T09:31:23Z</time>
      </trkpt>
      <trkpt lat="45.63563" lon="6.10427">
        <ele>1449.8</ele>
        <time>2015-02-11T09:31:24Z</time>
      </trkpt>
      <trkpt lat="45.63562" lon="6.10427">
        <ele>1450.1</ele>
        <time>2015-02-11T09:31:25Z</time>
      </trkpt>
      <trkpt lat="45.63562" lon="6.10427">
        <ele>1450.3</ele>
        <time>2015-02-11T09:31:26Z</time>
      </trkpt>
      <trkpt lat="45.63562" lon="6.10427">
        <ele>1450.1</ele>
        <time>2015-02-11T09:31:27Z</time>
      </trkpt>
      <trkpt lat="45.63562" lon="6.10427">
        <ele>1449.9</ele>
        <time>2015-02-11T09:31:28Z</time>
      </trkpt>
      <trkpt lat="45.63562" lon="6.10427">
        <ele>1450</ele>
        <time>2015-02-11T09:31:29Z</time>
      </trkpt>
      <trkpt lat="45.63562" lon="6.10427">
        <ele>1450</ele>
        <time>2015-02-11T09:31:30Z</time>
      </trkpt>
      <trkpt lat="45.63562" lon="6.10427">
        <ele>1450.1</ele>
        <time>2015-02-11T09:31:31Z</time>
      </trkpt>
      <trkpt lat="45.63562" lon="6.10427">
        <ele>1450.1</ele>
        <time>2015-02-11T09:31:32Z</time>
      </trkpt>
      <trkpt lat="45.63562" lon="6.10427">
        <ele>1450.1</ele>
        <time>2015-02-11T09:31:33Z</time>
      </trkpt>
      <trkpt lat="45.63563" lon="6.10427">
        <ele>1450.1</ele>
        <time>2015-02-11T09:31:34Z</time>
      </trkpt>
      <trkpt lat="45.63563" lon="6.10427">
        <ele>1450.1</ele>
        <time>2015-02-11T09:31:35Z</time>
      </trkpt>
      <trkpt lat="45.63563" lon="6.10428">
        <ele>1450.2</ele>
        <time>2015-02-11T09:31:36Z</time>
      </trkpt>
      <trkpt lat="45.63563" lon="6.10428">
        <ele>1450.3</ele>
        <time>2015-02-11T09:31:37Z</time>
      </trkpt>
      <trkpt lat="45.63562" lon="6.10428">
        <ele>1450.4</ele>
        <time>2015-02-11T09:31:38Z</time>
      </trkpt>
      <trkpt lat="45.63562" lon="6.10428">
        <ele>1450.4</ele>
        <time>2015-02-11T09:31:39Z</time>
      </trkpt>
      <trkpt lat="45.63562" lon="6.10428">
        <ele>1450.5</ele>
        <time>2015-02-11T09:31:40Z</time>
      </trkpt>
      <trkpt lat="45.63562" lon="6.10428">
        <ele>1450.6</ele>
        <time>2015-02-11T09:31:41Z</time>
      </trkpt>
      <trkpt lat="45.63562" lon="6.10428">
        <ele>1450.7</ele>
        <time>2015-02-11T09:31:42Z</time>
      </trkpt>
      <trkpt lat="45.63562" lon="6.10428">
        <ele>1450.8</ele>
        <time>2015-02-11T09:31:43Z</time>
      </trkpt>
      <trkpt lat="45.63561" lon="6.10428">
        <ele>1450.8</ele>
        <time>2015-02-11T09:31:44Z</time>
      </trkpt>
      <trkpt lat="45.63561" lon="6.10428">
        <ele>1450.9</ele>
        <time>2015-02-11T09:31:45Z</time>
      </trkpt>
      <trkpt lat="45.63561" lon="6.10428">
        <ele>1451</ele>
        <time>2015-02-11T09:31:46Z</time>
      </trkpt>
      <trkpt lat="45.63561" lon="6.10428">
        <ele>1451</ele>
        <time>2015-02-11T09:31:47Z</time>
      </trkpt>
      <trkpt lat="45.63561" lon="6.10428">
        <ele>1451</ele>
        <time>2015-02-11T09:31:48Z</time>
      </trkpt>
      <trkpt lat="45.63561" lon="6.10428">
        <ele>1451</ele>
        <time>2015-02-11T09:31:49Z</time>
      </trkpt>
      <trkpt lat="45.63561" lon="6.10428">
        <ele>1451</ele>
        <time>2015-02-11T09:31:50Z</time>
      </trkpt>
      <trkpt lat="45.63561" lon="6.10428">
        <ele>1451</ele>
        <time>2015-02-11T09:31:51Z</time>
      </trkpt>
      <trkpt lat="45.63561" lon="6.10428">
        <ele>1450.9</ele>
        <time>2015-02-11T09:31:52Z</time>
      </trkpt>
      <trkpt lat="45.63561" lon="6.10428">
        <ele>1450.9</ele>
        <time>2015-02-11T09:31:53Z</time>
      </trkpt>
      <trkpt lat="45.63561" lon="6.10428">
        <ele>1450.8</ele>
        <time>2015-02-11T09:31:54Z</time>
      </trkpt>
      <trkpt lat="45.63561" lon="6.10428">
        <ele>1450.8</ele>
        <time>2015-02-11T09:31:55Z</time>
      </trkpt>
      <trkpt lat="45.63562" lon="6.10428">
        <ele>1450.8</ele>
        <time>2015-02-11T09:31:56Z</time>
      </trkpt>
      <trkpt lat="45.63562" lon="6.10428">
        <ele>1450.8</ele>
        <time>2015-02-11T09:31:57Z</time>
      </trkpt>
      <trkpt lat="45.63562" lon="6.10428">
        <ele>1450.8</ele>
        <time>2015-02-11T09:31:58Z</time>
      </trkpt>
      <trkpt lat="45.63562" lon="6.10428">
        <ele>1450.8</ele>
        <time>2015-02-11T09:31:59Z</time>
      </trkpt>
      <trkpt lat="45.63562" lon="6.10428">
        <ele>1450.8</ele>
        <time>2015-02-11T09:32:00Z</time>
      </trkpt>
      <trkpt lat="45.63562" lon="6.10428">
        <ele>1450.8</ele>
        <time>2015-02-11T09:32:01Z</time>
      </trkpt>
      <trkpt lat="45.63561" lon="6.10428">
        <ele>1450.8</ele>
        <time>2015-02-11T09:32:02Z</time>
      </trkpt>
      <trkpt lat="45.63561" lon="6.10428">
        <ele>1450.7</ele>
        <time>2015-02-11T09:32:03Z</time>
      </trkpt>
      <trkpt lat="45.63562" lon="6.10428">
        <ele>1450.7</ele>
        <time>2015-02-11T09:32:04Z</time>
      </trkpt>
      <trkpt lat="45.63562" lon="6.10428">
        <ele>1450.6</ele>
        <time>2015-02-11T09:32:05Z</time>
      </trkpt>
      <trkpt lat="45.63562" lon="6.10428">
        <ele>1450.6</ele>
        <time>2015-02-11T09:32:06Z</time>
      </trkpt>
      <trkpt lat="45.63562" lon="6.10428">
        <ele>1450.6</ele>
        <time>2015-02-11T09:32:07Z</time>
      </trkpt>
      <trkpt lat="45.63562" lon="6.10428">
        <ele>1450.5</ele>
        <time>2015-02-11T09:32:08Z</time>
      </trkpt>
      <trkpt lat="45.63562" lon="6.10428">
        <ele>1450.5</ele>
        <time>2015-02-11T09:32:09Z</time>
      </trkpt>
      <trkpt lat="45.63562" lon="6.10428">
        <ele>1450.5</ele>
        <time>2015-02-11T09:32:10Z</time>
      </trkpt>
      <trkpt lat="45.63562" lon="6.10427">
        <ele>1450.4</ele>
        <time>2015-02-11T09:32:11Z</time>
      </trkpt>
      <trkpt lat="45.63562" lon="6.10427">
        <ele>1450.4</ele>
        <time>2015-02-11T09:32:12Z</time>
      </trkpt>
      <trkpt lat="45.63562" lon="6.10427">
        <ele>1450.4</ele>
        <time>2015-02-11T09:32:13Z</time>
      </trkpt>
      <trkpt lat="45.63562" lon="6.10427">
        <ele>1450.4</ele>
        <time>2015-02-11T09:32:14Z</time>
      </trkpt>
      <trkpt lat="45.63562" lon="6.10427">
        <ele>1450.4</ele>
        <time>2015-02-11T09:32:15Z</time>
      </trkpt>
      <trkpt lat="45.63562" lon="6.10428">
        <ele>1450.5</ele>
        <time>2015-02-11T09:32:16Z</time>
      </trkpt>
      <trkpt lat="45.63562" lon="6.10428">
        <ele>1450.6</ele>
        <time>2015-02-11T09:32:17Z</time>
      </trkpt>
      <trkpt lat="45.63562" lon="6.10428">
        <ele>1450.4</ele>
        <time>2015-02-11T09:32:18Z</time>
      </trkpt>
      <trkpt lat="45.63562" lon="6.10427">
        <ele>1450.3</ele>
        <time>2015-02-11T09:32:19Z</time>
      </trkpt>
      <trkpt lat="45.63562" lon="6.10427">
        <ele>1450.3</ele>
        <time>2015-02-11T09:32:20Z</time>
      </trkpt>
      <trkpt lat="45.63562" lon="6.10427">
        <ele>1450.3</ele>
        <time>2015-02-11T09:32:21Z</time>
      </trkpt>
      <trkpt lat="45.63562" lon="6.10427">
        <ele>1450.4</ele>
        <time>2015-02-11T09:32:22Z</time>
      </trkpt>
      <trkpt lat="45.63562" lon="6.10427">
        <ele>1450.4</ele>
        <time>2015-02-11T09:32:23Z</time>
      </trkpt>
      <trkpt lat="45.63562" lon="6.10428">
        <ele>1450.4</ele>
        <time>2015-02-11T09:32:24Z</time>
      </trkpt>
      <trkpt lat="45.63562" lon="6.10428">
        <ele>1450.4</ele>
        <time>2015-02-11T09:32:25Z</time>
      </trkpt>
      <trkpt lat="45.63562" lon="6.10428">
        <ele>1450.4</ele>
        <time>2015-02-11T09:32:26Z</time>
      </trkpt>
      <trkpt lat="45.63562" lon="6.10428">
        <ele>1450.4</ele>
        <time>2015-02-11T09:32:27Z</time>
      </trkpt>
      <trkpt lat="45.63562" lon="6.10427">
        <ele>1450.3</ele>
        <time>2015-02-11T09:32:28Z</time>
      </trkpt>
      <trkpt lat="45.63562" lon="6.10427">
        <ele>1450</ele>
        <time>2015-02-11T09:32:29Z</time>
      </trkpt>
      <trkpt lat="45.63562" lon="6.10426">
        <ele>1449.9</ele>
        <time>2015-02-11T09:32:30Z</time>
      </trkpt>
      <trkpt lat="45.63562" lon="6.10426">
        <ele>1449.8</ele>
        <time>2015-02-11T09:32:31Z</time>
      </trkpt>
      <trkpt lat="45.63563" lon="6.10426">
        <ele>1449.7</ele>
        <time>2015-02-11T09:32:32Z</time>
      </trkpt>
      <trkpt lat="45.63563" lon="6.10426">
        <ele>1449.6</ele>
        <time>2015-02-11T09:32:33Z</time>
      </trkpt>
      <trkpt lat="45.63563" lon="6.10426">
        <ele>1449.5</ele>
        <time>2015-02-11T09:32:34Z</time>
      </trkpt>
      <trkpt lat="45.63563" lon="6.10426">
        <ele>1449.4</ele>
        <time>2015-02-11T09:32:35Z</time>
      </trkpt>
      <trkpt lat="45.63563" lon="6.10426">
        <ele>1449.4</ele>
        <time>2015-02-11T09:32:36Z</time>
      </trkpt>
      <trkpt lat="45.63563" lon="6.10426">
        <ele>1449.3</ele>
        <time>2015-02-11T09:32:37Z</time>
      </trkpt>
      <trkpt lat="45.63563" lon="6.10426">
        <ele>1449.4</ele>
        <time>2015-02-11T09:32:38Z</time>
      </trkpt>
      <trkpt lat="45.63563" lon="6.10426">
        <ele>1449.4</ele>
        <time>2015-02-11T09:32:39Z</time>
      </trkpt>
      <trkpt lat="45.63563" lon="6.10426">
        <ele>1449.4</ele>
        <time>2015-02-11T09:32:40Z</time>
      </trkpt>
      <trkpt lat="45.63563" lon="6.10426">
        <ele>1449.4</ele>
        <time>2015-02-11T09:32:41Z</time>
      </trkpt>
      <trkpt lat="45.63563" lon="6.10426">
        <ele>1449.4</ele>
        <time>2015-02-11T09:32:42Z</time>
      </trkpt>
      <trkpt lat="45.63563" lon="6.10426">
        <ele>1449.4</ele>
        <time>2015-02-11T09:32:43Z</time>
      </trkpt>
      <trkpt lat="45.63563" lon="6.10426">
        <ele>1449.4</ele>
        <time>2015-02-11T09:32:44Z</time>
      </trkpt>
      <trkpt lat="45.63563" lon="6.10426">
        <ele>1449.4</ele>
        <time>2015-02-11T09:32:45Z</time>
      </trkpt>
      <trkpt lat="45.63563" lon="6.10426">
        <ele>1449.4</ele>
        <time>2015-02-11T09:32:46Z</time>
      </trkpt>
      <trkpt lat="45.63563" lon="6.10426">
        <ele>1449.3</ele>
        <time>2015-02-11T09:32:47Z</time>
      </trkpt>
      <trkpt lat="45.63563" lon="6.10425">
        <ele>1449.3</ele>
        <time>2015-02-11T09:32:48Z</time>
      </trkpt>
      <trkpt lat="45.63563" lon="6.10425">
        <ele>1449.3</ele>
        <time>2015-02-11T09:32:49Z</time>
      </trkpt>
      <trkpt lat="45.63563" lon="6.10425">
        <ele>1449.3</ele>
        <time>2015-02-11T09:32:50Z</time>
      </trkpt>
      <trkpt lat="45.63563" lon="6.10425">
        <ele>1449.3</ele>
        <time>2015-02-11T09:32:51Z</time>
      </trkpt>
      <trkpt lat="45.63563" lon="6.10425">
        <ele>1449.3</ele>
        <time>2015-02-11T09:32:52Z</time>
      </trkpt>
      <trkpt lat="45.63563" lon="6.10425">
        <ele>1449.3</ele>
        <time>2015-02-11T09:32:53Z</time>
      </trkpt>
      <trkpt lat="45.63563" lon="6.10426">
        <ele>1449.3</ele>
        <time>2015-02-11T09:32:54Z</time>
      </trkpt>
      <trkpt lat="45.63564" lon="6.10426">
        <ele>1449.2</ele>
        <time>2015-02-11T09:32:55Z</time>
      </trkpt>
      <trkpt lat="45.63565" lon="6.10427">
        <ele>1449.1</ele>
        <time>2015-02-11T09:32:57Z</time>
      </trkpt>
      <trkpt lat="45.63566" lon="6.10428">
        <ele>1448.9</ele>
        <time>2015-02-11T09:32:58Z</time>
      </trkpt>
      <trkpt lat="45.63567" lon="6.10428">
        <ele>1448.9</ele>
        <time>2015-02-11T09:32:59Z</time>
      </trkpt>
      <trkpt lat="45.63568" lon="6.10429">
        <ele>1448.8</ele>
        <time>2015-02-11T09:33:00Z</time>
      </trkpt>
      <trkpt lat="45.63569" lon="6.1043">
        <ele>1448.8</ele>
        <time>2015-02-11T09:33:01Z</time>
      </trkpt>
      <trkpt lat="45.6357" lon="6.1043">
        <ele>1448.7</ele>
        <time>2015-02-11T09:33:02Z</time>
      </trkpt>
      <trkpt lat="45.6357" lon="6.1043">
        <ele>1448.7</ele>
        <time>2015-02-11T09:33:03Z</time>
      </trkpt>
      <trkpt lat="45.6357" lon="6.1043">
        <ele>1448.7</ele>
        <time>2015-02-11T09:33:04Z</time>
      </trkpt>
      <trkpt lat="45.63571" lon="6.1043">
        <ele>1448.6</ele>
        <time>2015-02-11T09:33:05Z</time>
      </trkpt>
      <trkpt lat="45.63571" lon="6.10431">
        <ele>1448.7</ele>
        <time>2015-02-11T09:33:06Z</time>
      </trkpt>
      <trkpt lat="45.63572" lon="6.10431">
        <ele>1448.6</ele>
        <time>2015-02-11T09:33:07Z</time>
      </trkpt>
      <trkpt lat="45.63572" lon="6.10432">
        <ele>1448.7</ele>
        <time>2015-02-11T09:33:08Z</time>
      </trkpt>
      <trkpt lat="45.63573" lon="6.10433">
        <ele>1448.8</ele>
        <time>2015-02-11T09:33:09Z</time>
      </trkpt>
      <trkpt lat="45.63573" lon="6.10434">
        <ele>1448.9</ele>
        <time>2015-02-11T09:33:10Z</time>
      </trkpt>
      <trkpt lat="45.63574" lon="6.10435">
        <ele>1449</ele>
        <time>2015-02-11T09:33:11Z</time>
      </trkpt>
      <trkpt lat="45.63575" lon="6.10435">
        <ele>1449.1</ele>
        <time>2015-02-11T09:33:12Z</time>
      </trkpt>
      <trkpt lat="45.63575" lon="6.10436">
        <ele>1449.2</ele>
        <time>2015-02-11T09:33:13Z</time>
      </trkpt>
      <trkpt lat="45.63575" lon="6.10437">
        <ele>1449.4</ele>
        <time>2015-02-11T09:33:14Z</time>
      </trkpt>
      <trkpt lat="45.63576" lon="6.10437">
        <ele>1449.4</ele>
        <time>2015-02-11T09:33:15Z</time>
      </trkpt>
      <trkpt lat="45.63576" lon="6.10438">
        <ele>1449.5</ele>
        <time>2015-02-11T09:33:16Z</time>
      </trkpt>
      <trkpt lat="45.63577" lon="6.10438">
        <ele>1449.5</ele>
        <time>2015-02-11T09:33:17Z</time>
      </trkpt>
      <trkpt lat="45.63577" lon="6.10438">
        <ele>1449.4</ele>
        <time>2015-02-11T09:33:18Z</time>
      </trkpt>
      <trkpt lat="45.63578" lon="6.10439">
        <ele>1449.4</ele>
        <time>2015-02-11T09:33:19Z</time>
      </trkpt>
      <trkpt lat="45.63578" lon="6.10439">
        <ele>1449.4</ele>
        <time>2015-02-11T09:33:20Z</time>
      </trkpt>
      <trkpt lat="45.63579" lon="6.1044">
        <ele>1449.4</ele>
        <time>2015-02-11T09:33:21Z</time>
      </trkpt>
      <trkpt lat="45.6358" lon="6.1044">
        <ele>1449.5</ele>
        <time>2015-02-11T09:33:22Z</time>
      </trkpt>
      <trkpt lat="45.63581" lon="6.10441">
        <ele>1449.5</ele>
        <time>2015-02-11T09:33:23Z</time>
      </trkpt>
      <trkpt lat="45.63581" lon="6.10442">
        <ele>1449.5</ele>
        <time>2015-02-11T09:33:24Z</time>
      </trkpt>
      <trkpt lat="45.63582" lon="6.10442">
        <ele>1449.5</ele>
        <time>2015-02-11T09:33:25Z</time>
      </trkpt>
      <trkpt lat="45.63583" lon="6.10443">
        <ele>1449.4</ele>
        <time>2015-02-11T09:33:26Z</time>
      </trkpt>
      <trkpt lat="45.63583" lon="6.10443">
        <ele>1449.4</ele>
        <time>2015-02-11T09:33:27Z</time>
      </trkpt>
      <trkpt lat="45.63584" lon="6.10443">
        <ele>1449.3</ele>
        <time>2015-02-11T09:33:28Z</time>
      </trkpt>
      <trkpt lat="45.63584" lon="6.10444">
        <ele>1449.2</ele>
        <time>2015-02-11T09:33:29Z</time>
      </trkpt>
      <trkpt lat="45.63585" lon="6.10444">
        <ele>1449.2</ele>
        <time>2015-02-11T09:33:30Z</time>
      </trkpt>
      <trkpt lat="45.63586" lon="6.10445">
        <ele>1449</ele>
        <time>2015-02-11T09:33:31Z</time>
      </trkpt>
      <trkpt lat="45.63588" lon="6.10446">
        <ele>1448.4</ele>
        <time>2015-02-11T09:33:33Z</time>
      </trkpt>
      <trkpt lat="45.63589" lon="6.10447">
        <ele>1448</ele>
        <time>2015-02-11T09:33:34Z</time>
      </trkpt>
      <trkpt lat="45.6359" lon="6.10448">
        <ele>1447.6</ele>
        <time>2015-02-11T09:33:35Z</time>
      </trkpt>
      <trkpt lat="45.63591" lon="6.10448">
        <ele>1447.1</ele>
        <time>2015-02-11T09:33:36Z</time>
      </trkpt>
      <trkpt lat="45.63592" lon="6.10449">
        <ele>1446.7</ele>
        <time>2015-02-11T09:33:37Z</time>
      </trkpt>
      <trkpt lat="45.63593" lon="6.10449">
        <ele>1446.3</ele>
        <time>2015-02-11T09:33:38Z</time>
      </trkpt>
      <trkpt lat="45.63595" lon="6.1045">
        <ele>1445.8</ele>
        <time>2015-02-11T09:33:39Z</time>
      </trkpt>
      <trkpt lat="45.63596" lon="6.10451">
        <ele>1445.4</ele>
        <time>2015-02-11T09:33:40Z</time>
      </trkpt>
      <trkpt lat="45.63596" lon="6.10451">
        <ele>1445.3</ele>
        <time>2015-02-11T09:33:41Z</time>
      </trkpt>
      <trkpt lat="45.63597" lon="6.10452">
        <ele>1445.1</ele>
        <time>2015-02-11T09:33:42Z</time>
      </trkpt>
      <trkpt lat="45.63597" lon="6.10453">
        <ele>1445.1</ele>
        <time>2015-02-11T09:33:43Z</time>
      </trkpt>
      <trkpt lat="45.63598" lon="6.10453">
        <ele>1444.9</ele>
        <time>2015-02-11T09:33:44Z</time>
      </trkpt>
      <trkpt lat="45.63599" lon="6.10455">
        <ele>1444.9</ele>
        <time>2015-02-11T09:33:46Z</time>
      </trkpt>
      <trkpt lat="45.63599" lon="6.10456">
        <ele>1445</ele>
        <time>2015-02-11T09:33:47Z</time>
      </trkpt>
      <trkpt lat="45.63599" lon="6.10457">
        <ele>1445</ele>
        <time>2015-02-11T09:33:48Z</time>
      </trkpt>
      <trkpt lat="45.63601" lon="6.1046">
        <ele>1445.1</ele>
        <time>2015-02-11T09:33:50Z</time>
      </trkpt>
      <trkpt lat="45.63601" lon="6.10462">
        <ele>1445.2</ele>
        <time>2015-02-11T09:33:51Z</time>
      </trkpt>
      <trkpt lat="45.63602" lon="6.10464">
        <ele>1445.1</ele>
        <time>2015-02-11T09:33:52Z</time>
      </trkpt>
      <trkpt lat="45.63603" lon="6.10465">
        <ele>1445.1</ele>
        <time>2015-02-11T09:33:53Z</time>
      </trkpt>
      <trkpt lat="45.63603" lon="6.10465">
        <ele>1444.9</ele>
        <time>2015-02-11T09:33:54Z</time>
      </trkpt>
      <trkpt lat="45.63604" lon="6.10466">
        <ele>1444.8</ele>
        <time>2015-02-11T09:33:55Z</time>
      </trkpt>
      <trkpt lat="45.63605" lon="6.10467">
        <ele>1444.7</ele>
        <time>2015-02-11T09:33:56Z</time>
      </trkpt>
      <trkpt lat="45.63605" lon="6.10468">
        <ele>1444.7</ele>
        <time>2015-02-11T09:33:57Z</time>
      </trkpt>
      <trkpt lat="45.63605" lon="6.10469">
        <ele>1444.8</ele>
        <time>2015-02-11T09:33:58Z</time>
      </trkpt>
      <trkpt lat="45.63606" lon="6.1047">
        <ele>1444.9</ele>
        <time>2015-02-11T09:33:59Z</time>
      </trkpt>
      <trkpt lat="45.63606" lon="6.10471">
        <ele>1445</ele>
        <time>2015-02-11T09:34:00Z</time>
      </trkpt>
      <trkpt lat="45.63606" lon="6.10472">
        <ele>1445.1</ele>
        <time>2015-02-11T09:34:01Z</time>
      </trkpt>
      <trkpt lat="45.63607" lon="6.10473">
        <ele>1445.2</ele>
        <time>2015-02-11T09:34:02Z</time>
      </trkpt>
      <trkpt lat="45.63607" lon="6.10475">
        <ele>1445.4</ele>
        <time>2015-02-11T09:34:03Z</time>
      </trkpt>
      <trkpt lat="45.63607" lon="6.10476">
        <ele>1445.8</ele>
        <time>2015-02-11T09:34:04Z</time>
      </trkpt>
      <trkpt lat="45.63607" lon="6.10477">
        <ele>1445.9</ele>
        <time>2015-02-11T09:34:05Z</time>
      </trkpt>
      <trkpt lat="45.63608" lon="6.10477">
        <ele>1446</ele>
        <time>2015-02-11T09:34:06Z</time>
      </trkpt>
      <trkpt lat="45.63608" lon="6.10478">
        <ele>1446.1</ele>
        <time>2015-02-11T09:34:07Z</time>
      </trkpt>
      <trkpt lat="45.63609" lon="6.10479">
        <ele>1446</ele>
        <time>2015-02-11T09:34:08Z</time>
      </trkpt>
      <trkpt lat="45.6361" lon="6.10479">
        <ele>1445.7</ele>
        <time>2015-02-11T09:34:09Z</time>
      </trkpt>
      <trkpt lat="45.63611" lon="6.1048">
        <ele>1445.3</ele>
        <time>2015-02-11T09:34:10Z</time>
      </trkpt>
      <trkpt lat="45.63612" lon="6.1048">
        <ele>1444.9</ele>
        <time>2015-02-11T09:34:11Z</time>
      </trkpt>
      <trkpt lat="45.63613" lon="6.1048">
        <ele>1444.5</ele>
        <time>2015-02-11T09:34:12Z</time>
      </trkpt>
      <trkpt lat="45.63614" lon="6.1048">
        <ele>1444.3</ele>
        <time>2015-02-11T09:34:13Z</time>
      </trkpt>
      <trkpt lat="45.63614" lon="6.1048">
        <ele>1444.1</ele>
        <time>2015-02-11T09:34:14Z</time>
      </trkpt>
      <trkpt lat="45.63615" lon="6.1048">
        <ele>1443.9</ele>
        <time>2015-02-11T09:34:15Z</time>
      </trkpt>
      <trkpt lat="45.63615" lon="6.1048">
        <ele>1443.7</ele>
        <time>2015-02-11T09:34:16Z</time>
      </trkpt>
      <trkpt lat="45.63615" lon="6.1048">
        <ele>1443.7</ele>
        <time>2015-02-11T09:34:17Z</time>
      </trkpt>
      <trkpt lat="45.63616" lon="6.1048">
        <ele>1443.6</ele>
        <time>2015-02-11T09:34:18Z</time>
      </trkpt>
      <trkpt lat="45.63617" lon="6.10481">
        <ele>1443.3</ele>
        <time>2015-02-11T09:34:19Z</time>
      </trkpt>
      <trkpt lat="45.63617" lon="6.10482">
        <ele>1443.4</ele>
        <time>2015-02-11T09:34:20Z</time>
      </trkpt>
      <trkpt lat="45.63617" lon="6.10482">
        <ele>1443.4</ele>
        <time>2015-02-11T09:34:21Z</time>
      </trkpt>
      <trkpt lat="45.63618" lon="6.10483">
        <ele>1443.5</ele>
        <time>2015-02-11T09:34:22Z</time>
      </trkpt>
      <trkpt lat="45.63618" lon="6.10484">
        <ele>1443.6</ele>
        <time>2015-02-11T09:34:23Z</time>
      </trkpt>
      <trkpt lat="45.63619" lon="6.10484">
        <ele>1443.7</ele>
        <time>2015-02-11T09:34:24Z</time>
      </trkpt>
      <trkpt lat="45.63619" lon="6.10485">
        <ele>1443.8</ele>
        <time>2015-02-11T09:34:25Z</time>
      </trkpt>
      <trkpt lat="45.63619" lon="6.10486">
        <ele>1443.9</ele>
        <time>2015-02-11T09:34:26Z</time>
      </trkpt>
      <trkpt lat="45.6362" lon="6.10487">
        <ele>1444.1</ele>
        <time>2015-02-11T09:34:27Z</time>
      </trkpt>
      <trkpt lat="45.6362" lon="6.10488">
        <ele>1444.2</ele>
        <time>2015-02-11T09:34:28Z</time>
      </trkpt>
      <trkpt lat="45.63621" lon="6.10488">
        <ele>1444.3</ele>
        <time>2015-02-11T09:34:29Z</time>
      </trkpt>
      <trkpt lat="45.63622" lon="6.1049">
        <ele>1444.3</ele>
        <time>2015-02-11T09:34:31Z</time>
      </trkpt>
      <trkpt lat="45.63622" lon="6.10491">
        <ele>1444.5</ele>
        <time>2015-02-11T09:34:32Z</time>
      </trkpt>
      <trkpt lat="45.63623" lon="6.10492">
        <ele>1444.5</ele>
        <time>2015-02-11T09:34:33Z</time>
      </trkpt>
      <trkpt lat="45.63624" lon="6.10493">
        <ele>1444.6</ele>
        <time>2015-02-11T09:34:34Z</time>
      </trkpt>
      <trkpt lat="45.63624" lon="6.10494">
        <ele>1444.9</ele>
        <time>2015-02-11T09:34:35Z</time>
      </trkpt>
      <trkpt lat="45.63625" lon="6.10496">
        <ele>1445.4</ele>
        <time>2015-02-11T09:34:36Z</time>
      </trkpt>
      <trkpt lat="45.63625" lon="6.10497">
        <ele>1445.7</ele>
        <time>2015-02-11T09:34:37Z</time>
      </trkpt>
      <trkpt lat="45.63625" lon="6.10498">
        <ele>1446.1</ele>
        <time>2015-02-11T09:34:38Z</time>
      </trkpt>
      <trkpt lat="45.63625" lon="6.10499">
        <ele>1446.5</ele>
        <time>2015-02-11T09:34:39Z</time>
      </trkpt>
      <trkpt lat="45.63626" lon="6.105">
        <ele>1446.7</ele>
        <time>2015-02-11T09:34:40Z</time>
      </trkpt>
      <trkpt lat="45.63626" lon="6.10502">
        <ele>1447</ele>
        <time>2015-02-11T09:34:41Z</time>
      </trkpt>
      <trkpt lat="45.63626" lon="6.10502">
        <ele>1447.2</ele>
        <time>2015-02-11T09:34:42Z</time>
      </trkpt>
      <trkpt lat="45.63626" lon="6.10504">
        <ele>1447.4</ele>
        <time>2015-02-11T09:34:43Z</time>
      </trkpt>
      <trkpt lat="45.63627" lon="6.10505">
        <ele>1447.4</ele>
        <time>2015-02-11T09:34:44Z</time>
      </trkpt>
      <trkpt lat="45.63627" lon="6.10506">
        <ele>1447.5</ele>
        <time>2015-02-11T09:34:45Z</time>
      </trkpt>
      <trkpt lat="45.63628" lon="6.10507">
        <ele>1447.4</ele>
        <time>2015-02-11T09:34:46Z</time>
      </trkpt>
      <trkpt lat="45.63629" lon="6.10507">
        <ele>1447.4</ele>
        <time>2015-02-11T09:34:47Z</time>
      </trkpt>
      <trkpt lat="45.63629" lon="6.10508">
        <ele>1447.3</ele>
        <time>2015-02-11T09:34:48Z</time>
      </trkpt>
      <trkpt lat="45.6363" lon="6.10509">
        <ele>1447.6</ele>
        <time>2015-02-11T09:34:49Z</time>
      </trkpt>
      <trkpt lat="45.6363" lon="6.1051">
        <ele>1447.4</ele>
        <time>2015-02-11T09:34:50Z</time>
      </trkpt>
      <trkpt lat="45.63631" lon="6.10511">
        <ele>1447.5</ele>
        <time>2015-02-11T09:34:51Z</time>
      </trkpt>
      <trkpt lat="45.63631" lon="6.10512">
        <ele>1447.6</ele>
        <time>2015-02-11T09:34:52Z</time>
      </trkpt>
      <trkpt lat="45.63632" lon="6.10513">
        <ele>1447.7</ele>
        <time>2015-02-11T09:34:53Z</time>
      </trkpt>
      <trkpt lat="45.63632" lon="6.10514">
        <ele>1447.8</ele>
        <time>2015-02-11T09:34:54Z</time>
      </trkpt>
      <trkpt lat="45.63633" lon="6.10515">
        <ele>1448</ele>
        <time>2015-02-11T09:34:55Z</time>
      </trkpt>
      <trkpt lat="45.63633" lon="6.10516">
        <ele>1448</ele>
        <time>2015-02-11T09:34:56Z</time>
      </trkpt>
      <trkpt lat="45.63633" lon="6.10517">
        <ele>1448.2</ele>
        <time>2015-02-11T09:34:57Z</time>
      </trkpt>
      <trkpt lat="45.63634" lon="6.10518">
        <ele>1448.2</ele>
        <time>2015-02-11T09:34:58Z</time>
      </trkpt>
      <trkpt lat="45.63634" lon="6.10518">
        <ele>1448.3</ele>
        <time>2015-02-11T09:34:59Z</time>
      </trkpt>
      <trkpt lat="45.63634" lon="6.10518">
        <ele>1448.4</ele>
        <time>2015-02-11T09:35:00Z</time>
      </trkpt>
      <trkpt lat="45.63634" lon="6.10519">
        <ele>1448.4</ele>
        <time>2015-02-11T09:35:01Z</time>
      </trkpt>
      <trkpt lat="45.63634" lon="6.10518">
        <ele>1448.3</ele>
        <time>2015-02-11T09:35:02Z</time>
      </trkpt>
      <trkpt lat="45.63641" lon="6.10517">
        <ele>1459.42</ele>
        <time>2015-02-11T09:35:07Z</time>
      </trkpt>
      <trkpt lat="45.63654" lon="6.10528">
        <ele>1368.57</ele>
        <time>2015-02-11T09:35:39Z</time>
      </trkpt>
      <trkpt lat="45.63663" lon="6.10528">
        <ele>1370.02</ele>
        <time>2015-02-11T09:35:51Z</time>
      </trkpt>
      <trkpt lat="45.63679" lon="6.10532">
        <ele>1371.46</ele>
        <time>2015-02-11T09:36:07Z</time>
      </trkpt>
      <trkpt lat="45.63691" lon="6.10533">
        <ele>1372.42</ele>
        <time>2015-02-11T09:36:20Z</time>
      </trkpt>
      <trkpt lat="45.63704" lon="6.10545">
        <ele>1371.46</ele>
        <time>2015-02-11T09:36:31Z</time>
      </trkpt>
      <trkpt lat="45.63709" lon="6.10552">
        <ele>1370.02</ele>
        <time>2015-02-11T09:36:36Z</time>
      </trkpt>
      <trkpt lat="45.63729" lon="6.10566">
        <ele>1366.65</ele>
        <time>2015-02-11T09:36:45Z</time>
      </trkpt>
      <trkpt lat="45.63735" lon="6.10577">
        <ele>1367.13</ele>
        <time>2015-02-11T09:36:56Z</time>
      </trkpt>
      <trkpt lat="45.63756" lon="6.10596">
        <ele>1369.05</ele>
        <time>2015-02-11T09:37:20Z</time>
      </trkpt>
      <trkpt lat="45.63762" lon="6.10596">
        <ele>1369.54</ele>
        <time>2015-02-11T09:37:33Z</time>
      </trkpt>
      <trkpt lat="45.63783" lon="6.1062">
        <ele>1370.98</ele>
        <time>2015-02-11T09:37:59Z</time>
      </trkpt>
      <trkpt lat="45.63799" lon="6.10656">
        <ele>1372.42</ele>
        <time>2015-02-11T09:38:27Z</time>
      </trkpt>
      <trkpt lat="45.63809" lon="6.10672">
        <ele>1375.3</ele>
        <time>2015-02-11T09:38:49Z</time>
      </trkpt>
      <trkpt lat="45.63821" lon="6.10684">
        <ele>1374.34</ele>
        <time>2015-02-11T09:39:05Z</time>
      </trkpt>
      <trkpt lat="45.63845" lon="6.10708">
        <ele>1374.34</ele>
        <time>2015-02-11T09:39:27Z</time>
      </trkpt>
      <trkpt lat="45.6386" lon="6.10715">
        <ele>1372.42</ele>
        <time>2015-02-11T09:39:31Z</time>
      </trkpt>
      <trkpt lat="45.63866" lon="6.10716">
        <ele>1370.98</ele>
        <time>2015-02-11T09:39:42Z</time>
      </trkpt>
      <trkpt lat="45.63867" lon="6.10717">
        <ele>1374.34</ele>
        <time>2015-02-11T09:39:57Z</time>
      </trkpt>
      <trkpt lat="45.63867" lon="6.10717">
        <ele>1377.23</ele>
        <time>2015-02-11T09:40:09Z</time>
      </trkpt>
      <trkpt lat="45.63867" lon="6.10717">
        <ele>1380.59</ele>
        <time>2015-02-11T09:40:22Z</time>
      </trkpt>
      <trkpt lat="45.63867" lon="6.10717">
        <ele>1383.47</ele>
        <time>2015-02-11T09:40:36Z</time>
      </trkpt>
      <trkpt lat="45.63867" lon="6.10717">
        <ele>1386.84</ele>
        <time>2015-02-11T09:40:47Z</time>
      </trkpt>
      <trkpt lat="45.63867" lon="6.10717">
        <ele>1389.72</ele>
        <time>2015-02-11T09:41:02Z</time>
      </trkpt>
      <trkpt lat="45.63867" lon="6.10718">
        <ele>1393.09</ele>
        <time>2015-02-11T09:41:16Z</time>
      </trkpt>
      <trkpt lat="45.63867" lon="6.10718">
        <ele>1395.97</ele>
        <time>2015-02-11T09:41:31Z</time>
      </trkpt>
      <trkpt lat="45.63867" lon="6.10718">
        <ele>1398.86</ele>
        <time>2015-02-11T09:41:45Z</time>
      </trkpt>
      <trkpt lat="45.63867" lon="6.10718">
        <ele>1402.22</ele>
        <time>2015-02-11T09:42:05Z</time>
      </trkpt>
      <trkpt lat="45.63867" lon="6.10718">
        <ele>1405.1</ele>
        <time>2015-02-11T09:42:22Z</time>
      </trkpt>
      <trkpt lat="45.63867" lon="6.10718">
        <ele>1408.47</ele>
        <time>2015-02-11T09:42:37Z</time>
      </trkpt>
      <trkpt lat="45.63867" lon="6.10719">
        <ele>1411.35</ele>
        <time>2015-02-11T09:42:51Z</time>
      </trkpt>
      <trkpt lat="45.63867" lon="6.1072">
        <ele>1414.24</ele>
        <time>2015-02-11T09:43:06Z</time>
      </trkpt>
      <trkpt lat="45.63867" lon="6.1072">
        <ele>1417.6</ele>
        <time>2015-02-11T09:43:20Z</time>
      </trkpt>
      <trkpt lat="45.63867" lon="6.1072">
        <ele>1420.49</ele>
        <time>2015-02-11T09:43:36Z</time>
      </trkpt>
      <trkpt lat="45.6387" lon="6.10759">
        <ele>1423.85</ele>
        <time>2015-02-11T09:43:51Z</time>
      </trkpt>
      <trkpt lat="45.63872" lon="6.10784">
        <ele>1426.73</ele>
        <time>2015-02-11T09:44:07Z</time>
      </trkpt>
      <trkpt lat="45.63863" lon="6.10823">
        <ele>1428.66</ele>
        <time>2015-02-11T09:44:25Z</time>
      </trkpt>
      <trkpt lat="45.63857" lon="6.10851">
        <ele>1432.02</ele>
        <time>2015-02-11T09:44:41Z</time>
      </trkpt>
      <trkpt lat="45.63862" lon="6.10875">
        <ele>1434.91</ele>
        <time>2015-02-11T09:44:58Z</time>
      </trkpt>
      <trkpt lat="45.63865" lon="6.10888">
        <ele>1438.27</ele>
        <time>2015-02-11T09:45:13Z</time>
      </trkpt>
      <trkpt lat="45.63861" lon="6.10896">
        <ele>1441.15</ele>
        <time>2015-02-11T09:45:28Z</time>
      </trkpt>
      <trkpt lat="45.63856" lon="6.10906">
        <ele>1444.52</ele>
        <time>2015-02-11T09:45:44Z</time>
      </trkpt>
      <trkpt lat="45.6385" lon="6.10913">
        <ele>1447.4</ele>
        <time>2015-02-11T09:46:01Z</time>
      </trkpt>
      <trkpt lat="45.63845" lon="6.10916">
        <ele>1450.77</ele>
        <time>2015-02-11T09:46:22Z</time>
      </trkpt>
      <trkpt lat="45.63836" lon="6.10918">
        <ele>1454.13</ele>
        <time>2015-02-11T09:46:40Z</time>
      </trkpt>
      <trkpt lat="45.63829" lon="6.10914">
        <ele>1457.02</ele>
        <time>2015-02-11T09:46:54Z</time>
      </trkpt>
      <trkpt lat="45.63817" lon="6.1091">
        <ele>1459.9</ele>
        <time>2015-02-11T09:47:12Z</time>
      </trkpt>
      <trkpt lat="45.6381" lon="6.10912">
        <ele>1463.26</ele>
        <time>2015-02-11T09:47:27Z</time>
      </trkpt>
      <trkpt lat="45.63798" lon="6.10905">
        <ele>1466.15</ele>
        <time>2015-02-11T09:47:44Z</time>
      </trkpt>
      <trkpt lat="45.63793" lon="6.10898">
        <ele>1469.51</ele>
        <time>2015-02-11T09:48:04Z</time>
      </trkpt>
      <trkpt lat="45.63783" lon="6.10894">
        <ele>1472.4</ele>
        <time>2015-02-11T09:48:25Z</time>
      </trkpt>
      <trkpt lat="45.6378" lon="6.10892">
        <ele>1475.76</ele>
        <time>2015-02-11T09:48:40Z</time>
      </trkpt>
      <trkpt lat="45.63773" lon="6.10895">
        <ele>1478.65</ele>
        <time>2015-02-11T09:48:58Z</time>
      </trkpt>
      <trkpt lat="45.63771" lon="6.10906">
        <ele>1481.53</ele>
        <time>2015-02-11T09:49:15Z</time>
      </trkpt>
      <trkpt lat="45.63764" lon="6.10909">
        <ele>1484.89</ele>
        <time>2015-02-11T09:49:34Z</time>
      </trkpt>
      <trkpt lat="45.63762" lon="6.1091">
        <ele>1487.78</ele>
        <time>2015-02-11T09:49:48Z</time>
      </trkpt>
      <trkpt lat="45.6376" lon="6.10919">
        <ele>1491.14</ele>
        <time>2015-02-11T09:50:05Z</time>
      </trkpt>
      <trkpt lat="45.63755" lon="6.10928">
        <ele>1494.03</ele>
        <time>2015-02-11T09:50:23Z</time>
      </trkpt>
      <trkpt lat="45.63757" lon="6.10932">
        <ele>1496.91</ele>
        <time>2015-02-11T09:50:38Z</time>
      </trkpt>
      <trkpt lat="45.63761" lon="6.10938">
        <ele>1500.27</ele>
        <time>2015-02-11T09:50:55Z</time>
      </trkpt>
      <trkpt lat="45.63775" lon="6.10955">
        <ele>1501.72</ele>
        <time>2015-02-11T09:51:14Z</time>
      </trkpt>
      <trkpt lat="45.63783" lon="6.10958">
        <ele>1503.64</ele>
        <time>2015-02-11T09:51:24Z</time>
      </trkpt>
      <trkpt lat="45.63787" lon="6.10961">
        <ele>1504.12</ele>
        <time>2015-02-11T09:51:30Z</time>
      </trkpt>
      <trkpt lat="45.63794" lon="6.10971">
        <ele>1504.6</ele>
        <time>2015-02-11T09:51:40Z</time>
      </trkpt>
      <trkpt lat="45.63803" lon="6.10977">
        <ele>1505.56</ele>
        <time>2015-02-11T09:51:54Z</time>
      </trkpt>
      <trkpt lat="45.63808" lon="6.10986">
        <ele>1507</ele>
        <time>2015-02-11T09:52:05Z</time>
      </trkpt>
      <trkpt lat="45.63811" lon="6.1099">
        <ele>1507.97</ele>
        <time>2015-02-11T09:52:11Z</time>
      </trkpt>
      <trkpt lat="45.63819" lon="6.10992">
        <ele>1507.97</ele>
        <time>2015-02-11T09:52:25Z</time>
      </trkpt>
      <trkpt lat="45.63819" lon="6.10993">
        <ele>1508.45</ele>
        <time>2015-02-11T09:52:47Z</time>
      </trkpt>
      <trkpt lat="45.63819" lon="6.10994">
        <ele>1509.41</ele>
        <time>2015-02-11T09:53:17Z</time>
      </trkpt>
      <trkpt lat="45.63819" lon="6.10996">
        <ele>1510.37</ele>
        <time>2015-02-11T09:54:00Z</time>
      </trkpt>
      <trkpt lat="45.63819" lon="6.10997">
        <ele>1511.81</ele>
        <time>2015-02-11T09:55:05Z</time>
      </trkpt>
      <trkpt lat="45.6382" lon="6.10997">
        <ele>1512.29</ele>
        <time>2015-02-11T09:55:23Z</time>
      </trkpt>
      <trkpt lat="45.63819" lon="6.11001">
        <ele>1512.77</ele>
        <time>2015-02-11T09:56:09Z</time>
      </trkpt>
      <trkpt lat="45.63818" lon="6.11002">
        <ele>1513.25</ele>
        <time>2015-02-11T09:56:24Z</time>
      </trkpt>
      <trkpt lat="45.63818" lon="6.10998">
        <ele>1513.73</ele>
        <time>2015-02-11T09:56:44Z</time>
      </trkpt>
      <trkpt lat="45.63822" lon="6.10998">
        <ele>1514.21</ele>
        <time>2015-02-11T09:57:17Z</time>
      </trkpt>
      <trkpt lat="45.63826" lon="6.10999">
        <ele>1514.69</ele>
        <time>2015-02-11T09:57:21Z</time>
      </trkpt>
      <trkpt lat="45.63844" lon="6.10998">
        <ele>1513.25</ele>
        <time>2015-02-11T09:57:36Z</time>
      </trkpt>
      <trkpt lat="45.63857" lon="6.11001">
        <ele>1512.29</ele>
        <time>2015-02-11T09:57:49Z</time>
      </trkpt>
      <trkpt lat="45.63862" lon="6.11004">
        <ele>1512.29</ele>
        <time>2015-02-11T09:57:55Z</time>
      </trkpt>
      <trkpt lat="45.63874" lon="6.11001">
        <ele>1512.29</ele>
        <time>2015-02-11T09:58:06Z</time>
      </trkpt>
      <trkpt lat="45.63887" lon="6.10997">
        <ele>1510.85</ele>
        <time>2015-02-11T09:58:18Z</time>
      </trkpt>
      <trkpt lat="45.639" lon="6.10995">
        <ele>1510.85</ele>
        <time>2015-02-11T09:58:30Z</time>
      </trkpt>
      <trkpt lat="45.63916" lon="6.10998">
        <ele>1510.37</ele>
        <time>2015-02-11T09:58:41Z</time>
      </trkpt>
      <trkpt lat="45.63926" lon="6.10997">
        <ele>1507.97</ele>
        <time>2015-02-11T09:58:52Z</time>
      </trkpt>
      <trkpt lat="45.63934" lon="6.10993">
        <ele>1508.45</ele>
        <time>2015-02-11T09:59:03Z</time>
      </trkpt>
      <trkpt lat="45.63935" lon="6.10993">
        <ele>1508.45</ele>
        <time>2015-02-11T09:59:04Z</time>
      </trkpt>
      <trkpt lat="45.63946" lon="6.11002">
        <ele>1509.41</ele>
        <time>2015-02-11T09:59:18Z</time>
      </trkpt>
      <trkpt lat="45.63951" lon="6.11007">
        <ele>1512.29</ele>
        <time>2015-02-11T09:59:31Z</time>
      </trkpt>
      <trkpt lat="45.63953" lon="6.11001">
        <ele>1513.73</ele>
        <time>2015-02-11T09:59:42Z</time>
      </trkpt>
      <trkpt lat="45.63955" lon="6.10992">
        <ele>1516.14</ele>
        <time>2015-02-11T09:59:54Z</time>
      </trkpt>
      <trkpt lat="45.63955" lon="6.1099">
        <ele>1516.14</ele>
        <time>2015-02-11T09:59:57Z</time>
      </trkpt>
      <trkpt lat="45.63962" lon="6.10985">
        <ele>1518.06</ele>
        <time>2015-02-11T10:00:09Z</time>
      </trkpt>
      <trkpt lat="45.63967" lon="6.10984">
        <ele>1519.02</ele>
        <time>2015-02-11T10:00:16Z</time>
      </trkpt>
      <trkpt lat="45.63973" lon="6.10988">
        <ele>1520.46</ele>
        <time>2015-02-11T10:00:26Z</time>
      </trkpt>
      <trkpt lat="45.63979" lon="6.10994">
        <ele>1521.9</ele>
        <time>2015-02-11T10:00:37Z</time>
      </trkpt>
      <trkpt lat="45.6398" lon="6.10995">
        <ele>1521.9</ele>
        <time>2015-02-11T10:00:39Z</time>
      </trkpt>
      <trkpt lat="45.63987" lon="6.11002">
        <ele>1523.83</ele>
        <time>2015-02-11T10:00:51Z</time>
      </trkpt>
      <trkpt lat="45.63994" lon="6.11008">
        <ele>1525.27</ele>
        <time>2015-02-11T10:01:03Z</time>
      </trkpt>
      <trkpt lat="45.64" lon="6.11009">
        <ele>1526.71</ele>
        <time>2015-02-11T10:01:12Z</time>
      </trkpt>
      <trkpt lat="45.64004" lon="6.11011">
        <ele>1527.19</ele>
        <time>2015-02-11T10:01:17Z</time>
      </trkpt>
      <trkpt lat="45.64009" lon="6.11014">
        <ele>1527.67</ele>
        <time>2015-02-11T10:01:27Z</time>
      </trkpt>
      <trkpt lat="45.64013" lon="6.11013">
        <ele>1528.15</ele>
        <time>2015-02-11T10:01:32Z</time>
      </trkpt>
      <trkpt lat="45.64022" lon="6.1101">
        <ele>1529.59</ele>
        <time>2015-02-11T10:01:43Z</time>
      </trkpt>
      <trkpt lat="45.64027" lon="6.11006">
        <ele>1531.04</ele>
        <time>2015-02-11T10:01:52Z</time>
      </trkpt>
      <trkpt lat="45.64031" lon="6.11003">
        <ele>1532.96</ele>
        <time>2015-02-11T10:02:02Z</time>
      </trkpt>
      <trkpt lat="45.64034" lon="6.11003">
        <ele>1534.4</ele>
        <time>2015-02-11T10:02:07Z</time>
      </trkpt>
      <trkpt lat="45.6404" lon="6.11006">
        <ele>1536.32</ele>
        <time>2015-02-11T10:02:17Z</time>
      </trkpt>
      <trkpt lat="45.64044" lon="6.11009">
        <ele>1537.77</ele>
        <time>2015-02-11T10:02:27Z</time>
      </trkpt>
      <trkpt lat="45.64049" lon="6.11011">
        <ele>1538.73</ele>
        <time>2015-02-11T10:02:35Z</time>
      </trkpt>
      <trkpt lat="45.64051" lon="6.11012">
        <ele>1539.69</ele>
        <time>2015-02-11T10:02:37Z</time>
      </trkpt>
      <trkpt lat="45.64058" lon="6.11015">
        <ele>1541.61</ele>
        <time>2015-02-11T10:02:50Z</time>
      </trkpt>
      <trkpt lat="45.64064" lon="6.11017">
        <ele>1543.53</ele>
        <time>2015-02-11T10:03:00Z</time>
      </trkpt>
      <trkpt lat="45.64065" lon="6.11018">
        <ele>1543.53</ele>
        <time>2015-02-11T10:03:02Z</time>
      </trkpt>
      <trkpt lat="45.64072" lon="6.11022">
        <ele>1544.98</ele>
        <time>2015-02-11T10:03:13Z</time>
      </trkpt>
      <trkpt lat="45.64079" lon="6.11024">
        <ele>1546.42</ele>
        <time>2015-02-11T10:03:25Z</time>
      </trkpt>
      <trkpt lat="45.64086" lon="6.11025">
        <ele>1548.82</ele>
        <time>2015-02-11T10:03:36Z</time>
      </trkpt>
      <trkpt lat="45.64088" lon="6.11024">
        <ele>1549.3</ele>
        <time>2015-02-11T10:03:39Z</time>
      </trkpt>
      <trkpt lat="45.64099" lon="6.11017">
        <ele>1549.3</ele>
        <time>2015-02-11T10:03:53Z</time>
      </trkpt>
      <trkpt lat="45.64106" lon="6.11014">
        <ele>1550.26</ele>
        <time>2015-02-11T10:04:03Z</time>
      </trkpt>
      <trkpt lat="45.64112" lon="6.1101">
        <ele>1552.19</ele>
        <time>2015-02-11T10:04:12Z</time>
      </trkpt>
      <trkpt lat="45.64115" lon="6.11013">
        <ele>1553.15</ele>
        <time>2015-02-11T10:04:20Z</time>
      </trkpt>
      <trkpt lat="45.64118" lon="6.11016">
        <ele>1555.07</ele>
        <time>2015-02-11T10:04:32Z</time>
      </trkpt>
      <trkpt lat="45.64129" lon="6.11023">
        <ele>1557.95</ele>
        <time>2015-02-11T10:04:50Z</time>
      </trkpt>
      <trkpt lat="45.64133" lon="6.11026">
        <ele>1558.92</ele>
        <time>2015-02-11T10:04:59Z</time>
      </trkpt>
      <trkpt lat="45.64134" lon="6.11027">
        <ele>1559.88</ele>
        <time>2015-02-11T10:05:02Z</time>
      </trkpt>
      <trkpt lat="45.64135" lon="6.11028">
        <ele>1559.88</ele>
        <time>2015-02-11T10:05:04Z</time>
      </trkpt>
      <trkpt lat="45.64142" lon="6.11034">
        <ele>1562.76</ele>
        <time>2015-02-11T10:05:17Z</time>
      </trkpt>
      <trkpt lat="45.64146" lon="6.11038">
        <ele>1565.16</ele>
        <time>2015-02-11T10:05:29Z</time>
      </trkpt>
      <trkpt lat="45.64152" lon="6.11041">
        <ele>1566.61</ele>
        <time>2015-02-11T10:05:39Z</time>
      </trkpt>
      <trkpt lat="45.64157" lon="6.11046">
        <ele>1568.53</ele>
        <time>2015-02-11T10:05:49Z</time>
      </trkpt>
      <trkpt lat="45.64162" lon="6.11051">
        <ele>1570.93</ele>
        <time>2015-02-11T10:06:02Z</time>
      </trkpt>
      <trkpt lat="45.64166" lon="6.11057">
        <ele>1573.82</ele>
        <time>2015-02-11T10:06:16Z</time>
      </trkpt>
      <trkpt lat="45.64169" lon="6.11064">
        <ele>1575.74</ele>
        <time>2015-02-11T10:06:28Z</time>
      </trkpt>
      <trkpt lat="45.64171" lon="6.11068">
        <ele>1578.62</ele>
        <time>2015-02-11T10:06:40Z</time>
      </trkpt>
      <trkpt lat="45.64175" lon="6.11076">
        <ele>1580.54</ele>
        <time>2015-02-11T10:06:51Z</time>
      </trkpt>
      <trkpt lat="45.64181" lon="6.11081">
        <ele>1581.99</ele>
        <time>2015-02-11T10:07:01Z</time>
      </trkpt>
      <trkpt lat="45.64184" lon="6.11083">
        <ele>1583.43</ele>
        <time>2015-02-11T10:07:19Z</time>
      </trkpt>
      <trkpt lat="45.64188" lon="6.1109">
        <ele>1586.31</ele>
        <time>2015-02-11T10:07:48Z</time>
      </trkpt>
      <trkpt lat="45.64192" lon="6.11097">
        <ele>1588.72</ele>
        <time>2015-02-11T10:08:00Z</time>
      </trkpt>
      <trkpt lat="45.64196" lon="6.11104">
        <ele>1590.64</ele>
        <time>2015-02-11T10:08:12Z</time>
      </trkpt>
      <trkpt lat="45.64204" lon="6.11109">
        <ele>1592.56</ele>
        <time>2015-02-11T10:08:24Z</time>
      </trkpt>
      <trkpt lat="45.64212" lon="6.11109">
        <ele>1594.96</ele>
        <time>2015-02-11T10:08:36Z</time>
      </trkpt>
      <trkpt lat="45.64217" lon="6.11107">
        <ele>1596.41</ele>
        <time>2015-02-11T10:08:46Z</time>
      </trkpt>
      <trkpt lat="45.64223" lon="6.11104">
        <ele>1599.29</ele>
        <time>2015-02-11T10:08:59Z</time>
      </trkpt>
      <trkpt lat="45.64224" lon="6.11104">
        <ele>1599.77</ele>
        <time>2015-02-11T10:09:01Z</time>
      </trkpt>
      <trkpt lat="45.6423" lon="6.11109">
        <ele>1602.17</ele>
        <time>2015-02-11T10:09:14Z</time>
      </trkpt>
      <trkpt lat="45.64235" lon="6.11115">
        <ele>1604.1</ele>
        <time>2015-02-11T10:09:25Z</time>
      </trkpt>
      <trkpt lat="45.64237" lon="6.11116">
        <ele>1605.06</ele>
        <time>2015-02-11T10:09:29Z</time>
      </trkpt>
      <trkpt lat="45.64244" lon="6.11115">
        <ele>1606.98</ele>
        <time>2015-02-11T10:09:38Z</time>
      </trkpt>
      <trkpt lat="45.64249" lon="6.11113">
        <ele>1608.42</ele>
        <time>2015-02-11T10:09:48Z</time>
      </trkpt>
      <trkpt lat="45.64255" lon="6.11115">
        <ele>1610.35</ele>
        <time>2015-02-11T10:09:58Z</time>
      </trkpt>
      <trkpt lat="45.64261" lon="6.11119">
        <ele>1612.27</ele>
        <time>2015-02-11T10:10:07Z</time>
      </trkpt>
      <trkpt lat="45.64262" lon="6.11121">
        <ele>1612.75</ele>
        <time>2015-02-11T10:10:10Z</time>
      </trkpt>
      <trkpt lat="45.64269" lon="6.11125">
        <ele>1614.19</ele>
        <time>2015-02-11T10:10:22Z</time>
      </trkpt>
      <trkpt lat="45.6427" lon="6.11125">
        <ele>1615.15</ele>
        <time>2015-02-11T10:10:25Z</time>
      </trkpt>
      <trkpt lat="45.64274" lon="6.11122">
        <ele>1616.59</ele>
        <time>2015-02-11T10:10:33Z</time>
      </trkpt>
      <trkpt lat="45.64279" lon="6.11116">
        <ele>1618.52</ele>
        <time>2015-02-11T10:10:44Z</time>
      </trkpt>
      <trkpt lat="45.64285" lon="6.11111">
        <ele>1619.96</ele>
        <time>2015-02-11T10:10:54Z</time>
      </trkpt>
      <trkpt lat="45.64292" lon="6.11103">
        <ele>1622.36</ele>
        <time>2015-02-11T10:11:05Z</time>
      </trkpt>
      <trkpt lat="45.64299" lon="6.11109">
        <ele>1624.28</ele>
        <time>2015-02-11T10:11:16Z</time>
      </trkpt>
      <trkpt lat="45.64303" lon="6.11114">
        <ele>1626.69</ele>
        <time>2015-02-11T10:11:29Z</time>
      </trkpt>
      <trkpt lat="45.64309" lon="6.11118">
        <ele>1628.61</ele>
        <time>2015-02-11T10:11:41Z</time>
      </trkpt>
      <trkpt lat="45.64313" lon="6.11121">
        <ele>1630.05</ele>
        <time>2015-02-11T10:11:49Z</time>
      </trkpt>
      <trkpt lat="45.64324" lon="6.11118">
        <ele>1631.49</ele>
        <time>2015-02-11T10:11:59Z</time>
      </trkpt>
      <trkpt lat="45.64329" lon="6.11112">
        <ele>1632.94</ele>
        <time>2015-02-11T10:12:09Z</time>
      </trkpt>
      <trkpt lat="45.64334" lon="6.11106">
        <ele>1635.34</ele>
        <time>2015-02-11T10:12:22Z</time>
      </trkpt>
      <trkpt lat="45.64338" lon="6.11103">
        <ele>1637.26</ele>
        <time>2015-02-11T10:12:32Z</time>
      </trkpt>
      <trkpt lat="45.64343" lon="6.11098">
        <ele>1639.67</ele>
        <time>2015-02-11T10:12:45Z</time>
      </trkpt>
      <trkpt lat="45.64348" lon="6.11096">
        <ele>1642.07</ele>
        <time>2015-02-11T10:12:56Z</time>
      </trkpt>
      <trkpt lat="45.64354" lon="6.11094">
        <ele>1644.47</ele>
        <time>2015-02-11T10:13:08Z</time>
      </trkpt>
      <trkpt lat="45.64361" lon="6.11092">
        <ele>1646.88</ele>
        <time>2015-02-11T10:13:20Z</time>
      </trkpt>
      <trkpt lat="45.64367" lon="6.1109">
        <ele>1649.28</ele>
        <time>2015-02-11T10:13:31Z</time>
      </trkpt>
      <trkpt lat="45.64372" lon="6.1109">
        <ele>1650.72</ele>
        <time>2015-02-11T10:13:40Z</time>
      </trkpt>
      <trkpt lat="45.64379" lon="6.11087">
        <ele>1653.6</ele>
        <time>2015-02-11T10:13:52Z</time>
      </trkpt>
      <trkpt lat="45.64384" lon="6.11085">
        <ele>1656.01</ele>
        <time>2015-02-11T10:14:05Z</time>
      </trkpt>
      <trkpt lat="45.64391" lon="6.11085">
        <ele>1658.89</ele>
        <time>2015-02-11T10:14:17Z</time>
      </trkpt>
      <trkpt lat="45.64397" lon="6.11087">
        <ele>1661.3</ele>
        <time>2015-02-11T10:14:30Z</time>
      </trkpt>
      <trkpt lat="45.64405" lon="6.11091">
        <ele>1663.22</ele>
        <time>2015-02-11T10:14:43Z</time>
      </trkpt>
      <trkpt lat="45.6441" lon="6.11093">
        <ele>1664.66</ele>
        <time>2015-02-11T10:14:56Z</time>
      </trkpt>
      <trkpt lat="45.64413" lon="6.11094">
        <ele>1665.14</ele>
        <time>2015-02-11T10:15:00Z</time>
      </trkpt>
      <trkpt lat="45.6442" lon="6.11099">
        <ele>1667.06</ele>
        <time>2015-02-11T10:15:12Z</time>
      </trkpt>
      <trkpt lat="45.64427" lon="6.11105">
        <ele>1669.47</ele>
        <time>2015-02-11T10:15:24Z</time>
      </trkpt>
      <trkpt lat="45.64434" lon="6.11108">
        <ele>1671.39</ele>
        <time>2015-02-11T10:15:36Z</time>
      </trkpt>
      <trkpt lat="45.6444" lon="6.11108">
        <ele>1673.79</ele>
        <time>2015-02-11T10:15:48Z</time>
      </trkpt>
      <trkpt lat="45.64446" lon="6.11108">
        <ele>1675.72</ele>
        <time>2015-02-11T10:15:59Z</time>
      </trkpt>
      <trkpt lat="45.64453" lon="6.11111">
        <ele>1678.6</ele>
        <time>2015-02-11T10:16:12Z</time>
      </trkpt>
      <trkpt lat="45.6446" lon="6.11113">
        <ele>1680.52</ele>
        <time>2015-02-11T10:16:23Z</time>
      </trkpt>
      <trkpt lat="45.64467" lon="6.11119">
        <ele>1682.44</ele>
        <time>2015-02-11T10:16:35Z</time>
      </trkpt>
      <trkpt lat="45.64475" lon="6.11125">
        <ele>1685.33</ele>
        <time>2015-02-11T10:16:49Z</time>
      </trkpt>
      <trkpt lat="45.64481" lon="6.11131">
        <ele>1687.25</ele>
        <time>2015-02-11T10:17:00Z</time>
      </trkpt>
      <trkpt lat="45.64488" lon="6.11135">
        <ele>1689.65</ele>
        <time>2015-02-11T10:17:12Z</time>
      </trkpt>
      <trkpt lat="45.64493" lon="6.1114">
        <ele>1692.06</ele>
        <time>2015-02-11T10:17:24Z</time>
      </trkpt>
      <trkpt lat="45.64497" lon="6.11144">
        <ele>1694.46</ele>
        <time>2015-02-11T10:17:35Z</time>
      </trkpt>
      <trkpt lat="45.64503" lon="6.11151">
        <ele>1695.9</ele>
        <time>2015-02-11T10:17:46Z</time>
      </trkpt>
      <trkpt lat="45.64508" lon="6.11156">
        <ele>1698.31</ele>
        <time>2015-02-11T10:17:57Z</time>
      </trkpt>
      <trkpt lat="45.64513" lon="6.11161">
        <ele>1699.75</ele>
        <time>2015-02-11T10:18:08Z</time>
      </trkpt>
      <trkpt lat="45.6452" lon="6.11167">
        <ele>1702.15</ele>
        <time>2015-02-11T10:18:21Z</time>
      </trkpt>
      <trkpt lat="45.6452" lon="6.11168">
        <ele>1702.63</ele>
        <time>2015-02-11T10:18:22Z</time>
      </trkpt>
      <trkpt lat="45.64524" lon="6.11167">
        <ele>1704.07</ele>
        <time>2015-02-11T10:18:33Z</time>
      </trkpt>
      <trkpt lat="45.64526" lon="6.11164">
        <ele>1705.04</ele>
        <time>2015-02-11T10:18:38Z</time>
      </trkpt>
      <trkpt lat="45.6453" lon="6.11161">
        <ele>1706</ele>
        <time>2015-02-11T10:18:44Z</time>
      </trkpt>
      <trkpt lat="45.64536" lon="6.11158">
        <ele>1707.92</ele>
        <time>2015-02-11T10:18:54Z</time>
      </trkpt>
      <trkpt lat="45.64538" lon="6.11157">
        <ele>1708.4</ele>
        <time>2015-02-11T10:18:58Z</time>
      </trkpt>
      <trkpt lat="45.64542" lon="6.11161">
        <ele>1709.84</ele>
        <time>2015-02-11T10:19:08Z</time>
      </trkpt>
      <trkpt lat="45.64541" lon="6.11161">
        <ele>1710.8</ele>
        <time>2015-02-11T10:19:46Z</time>
      </trkpt>
      <trkpt lat="45.64544" lon="6.1117">
        <ele>1712.25</ele>
        <time>2015-02-11T10:19:59Z</time>
      </trkpt>
      <trkpt lat="45.64548" lon="6.1118">
        <ele>1714.17</ele>
        <time>2015-02-11T10:20:12Z</time>
      </trkpt>
      <trkpt lat="45.6455" lon="6.11183">
        <ele>1714.65</ele>
        <time>2015-02-11T10:20:16Z</time>
      </trkpt>
      <trkpt lat="45.64554" lon="6.11192">
        <ele>1716.57</ele>
        <time>2015-02-11T10:20:30Z</time>
      </trkpt>
      <trkpt lat="45.6456" lon="6.11195">
        <ele>1718.01</ele>
        <time>2015-02-11T10:20:43Z</time>
      </trkpt>
      <trkpt lat="45.64566" lon="6.11199">
        <ele>1719.46</ele>
        <time>2015-02-11T10:20:54Z</time>
      </trkpt>
      <trkpt lat="45.64573" lon="6.11196">
        <ele>1721.86</ele>
        <time>2015-02-11T10:21:07Z</time>
      </trkpt>
      <trkpt lat="45.6458" lon="6.11194">
        <ele>1724.26</ele>
        <time>2015-02-11T10:21:19Z</time>
      </trkpt>
      <trkpt lat="45.64587" lon="6.11193">
        <ele>1726.67</ele>
        <time>2015-02-11T10:21:30Z</time>
      </trkpt>
      <trkpt lat="45.64592" lon="6.11198">
        <ele>1729.07</ele>
        <time>2015-02-11T10:21:41Z</time>
      </trkpt>
      <trkpt lat="45.64597" lon="6.11204">
        <ele>1730.99</ele>
        <time>2015-02-11T10:21:51Z</time>
      </trkpt>
      <trkpt lat="45.64598" lon="6.11206">
        <ele>1730.99</ele>
        <time>2015-02-11T10:21:53Z</time>
      </trkpt>
      <trkpt lat="45.64603" lon="6.11216">
        <ele>1733.39</ele>
        <time>2015-02-11T10:22:06Z</time>
      </trkpt>
      <trkpt lat="45.64609" lon="6.1122">
        <ele>1735.8</ele>
        <time>2015-02-11T10:22:17Z</time>
      </trkpt>
      <trkpt lat="45.64615" lon="6.11229">
        <ele>1738.2</ele>
        <time>2015-02-11T10:22:30Z</time>
      </trkpt>
      <trkpt lat="45.64615" lon="6.11242">
        <ele>1739.16</ele>
        <time>2015-02-11T10:22:45Z</time>
      </trkpt>
      <trkpt lat="45.64613" lon="6.11245">
        <ele>1739.64</ele>
        <time>2015-02-11T10:23:39Z</time>
      </trkpt>
      <trkpt lat="45.64614" lon="6.11246">
        <ele>1741.57</ele>
        <time>2015-02-11T10:26:26Z</time>
      </trkpt>
      <trkpt lat="45.64616" lon="6.11249">
        <ele>1741.57</ele>
        <time>2015-02-11T10:26:49Z</time>
      </trkpt>
      <trkpt lat="45.64618" lon="6.11251">
        <ele>1743.01</ele>
        <time>2015-02-11T10:27:00Z</time>
      </trkpt>
      <trkpt lat="45.64613" lon="6.11262">
        <ele>1744.93</ele>
        <time>2015-02-11T10:27:23Z</time>
      </trkpt>
      <trkpt lat="45.64608" lon="6.11273">
        <ele>1746.85</ele>
        <time>2015-02-11T10:27:36Z</time>
      </trkpt>
      <trkpt lat="45.64602" lon="6.11282">
        <ele>1748.78</ele>
        <time>2015-02-11T10:27:50Z</time>
      </trkpt>
      <trkpt lat="45.64597" lon="6.11289">
        <ele>1750.7</ele>
        <time>2015-02-11T10:28:01Z</time>
      </trkpt>
      <trkpt lat="45.64593" lon="6.11298">
        <ele>1752.14</ele>
        <time>2015-02-11T10:28:13Z</time>
      </trkpt>
      <trkpt lat="45.64587" lon="6.11305">
        <ele>1754.06</ele>
        <time>2015-02-11T10:28:27Z</time>
      </trkpt>
      <trkpt lat="45.64582" lon="6.11312">
        <ele>1755.99</ele>
        <time>2015-02-11T10:28:38Z</time>
      </trkpt>
      <trkpt lat="45.64577" lon="6.11315">
        <ele>1757.91</ele>
        <time>2015-02-11T10:28:50Z</time>
      </trkpt>
      <trkpt lat="45.64571" lon="6.11321">
        <ele>1759.35</ele>
        <time>2015-02-11T10:29:01Z</time>
      </trkpt>
      <trkpt lat="45.64568" lon="6.11325">
        <ele>1760.79</ele>
        <time>2015-02-11T10:29:09Z</time>
      </trkpt>
      <trkpt lat="45.64563" lon="6.1133">
        <ele>1762.71</ele>
        <time>2015-02-11T10:29:21Z</time>
      </trkpt>
      <trkpt lat="45.64558" lon="6.11337">
        <ele>1764.64</ele>
        <time>2015-02-11T10:29:33Z</time>
      </trkpt>
      <trkpt lat="45.64554" lon="6.11341">
        <ele>1765.6</ele>
        <time>2015-02-11T10:29:43Z</time>
      </trkpt>
      <trkpt lat="45.64548" lon="6.11347">
        <ele>1767.52</ele>
        <time>2015-02-11T10:29:55Z</time>
      </trkpt>
      <trkpt lat="45.64543" lon="6.11355">
        <ele>1769.44</ele>
        <time>2015-02-11T10:30:09Z</time>
      </trkpt>
      <trkpt lat="45.64538" lon="6.1136">
        <ele>1771.85</ele>
        <time>2015-02-11T10:30:20Z</time>
      </trkpt>
      <trkpt lat="45.64532" lon="6.11365">
        <ele>1773.29</ele>
        <time>2015-02-11T10:30:31Z</time>
      </trkpt>
      <trkpt lat="45.64527" lon="6.11371">
        <ele>1775.21</ele>
        <time>2015-02-11T10:30:44Z</time>
      </trkpt>
      <trkpt lat="45.6452" lon="6.11377">
        <ele>1777.13</ele>
        <time>2015-02-11T10:30:57Z</time>
      </trkpt>
      <trkpt lat="45.64514" lon="6.11386">
        <ele>1779.54</ele>
        <time>2015-02-11T10:31:10Z</time>
      </trkpt>
      <trkpt lat="45.64508" lon="6.11391">
        <ele>1780.98</ele>
        <time>2015-02-11T10:31:22Z</time>
      </trkpt>
      <trkpt lat="45.64501" lon="6.11396">
        <ele>1782.9</ele>
        <time>2015-02-11T10:31:36Z</time>
      </trkpt>
      <trkpt lat="45.64495" lon="6.11402">
        <ele>1784.34</ele>
        <time>2015-02-11T10:31:47Z</time>
      </trkpt>
      <trkpt lat="45.64489" lon="6.11407">
        <ele>1786.27</ele>
        <time>2015-02-11T10:31:59Z</time>
      </trkpt>
      <trkpt lat="45.64482" lon="6.11413">
        <ele>1788.67</ele>
        <time>2015-02-11T10:32:13Z</time>
      </trkpt>
      <trkpt lat="45.64476" lon="6.11417">
        <ele>1789.63</ele>
        <time>2015-02-11T10:32:24Z</time>
      </trkpt>
      <trkpt lat="45.64469" lon="6.11424">
        <ele>1791.55</ele>
        <time>2015-02-11T10:32:38Z</time>
      </trkpt>
      <trkpt lat="45.64464" lon="6.11428">
        <ele>1792.52</ele>
        <time>2015-02-11T10:32:47Z</time>
      </trkpt>
      <trkpt lat="45.64458" lon="6.11434">
        <ele>1794.44</ele>
        <time>2015-02-11T10:33:01Z</time>
      </trkpt>
      <trkpt lat="45.64451" lon="6.11439">
        <ele>1795.88</ele>
        <time>2015-02-11T10:33:14Z</time>
      </trkpt>
      <trkpt lat="45.64445" lon="6.11443">
        <ele>1797.8</ele>
        <time>2015-02-11T10:33:27Z</time>
      </trkpt>
      <trkpt lat="45.64439" lon="6.11446">
        <ele>1799.73</ele>
        <time>2015-02-11T10:33:37Z</time>
      </trkpt>
      <trkpt lat="45.64431" lon="6.11451">
        <ele>1801.65</ele>
        <time>2015-02-11T10:33:52Z</time>
      </trkpt>
      <trkpt lat="45.64421" lon="6.11456">
        <ele>1803.57</ele>
        <time>2015-02-11T10:34:06Z</time>
      </trkpt>
      <trkpt lat="45.64413" lon="6.11463">
        <ele>1805.49</ele>
        <time>2015-02-11T10:34:21Z</time>
      </trkpt>
      <trkpt lat="45.64407" lon="6.11468">
        <ele>1807.42</ele>
        <time>2015-02-11T10:34:33Z</time>
      </trkpt>
      <trkpt lat="45.64411" lon="6.11469">
        <ele>1807.9</ele>
        <time>2015-02-11T10:34:47Z</time>
      </trkpt>
      <trkpt lat="45.64416" lon="6.1147">
        <ele>1809.82</ele>
        <time>2015-02-11T10:34:58Z</time>
      </trkpt>
      <trkpt lat="45.64422" lon="6.11471">
        <ele>1811.26</ele>
        <time>2015-02-11T10:35:09Z</time>
      </trkpt>
      <trkpt lat="45.64428" lon="6.11471">
        <ele>1812.22</ele>
        <time>2015-02-11T10:35:19Z</time>
      </trkpt>
      <trkpt lat="45.64433" lon="6.11474">
        <ele>1813.66</ele>
        <time>2015-02-11T10:35:30Z</time>
      </trkpt>
      <trkpt lat="45.64439" lon="6.11476">
        <ele>1816.07</ele>
        <time>2015-02-11T10:35:43Z</time>
      </trkpt>
      <trkpt lat="45.64434" lon="6.11482">
        <ele>1817.03</ele>
        <time>2015-02-11T10:35:57Z</time>
      </trkpt>
      <trkpt lat="45.64427" lon="6.11489">
        <ele>1819.91</ele>
        <time>2015-02-11T10:36:13Z</time>
      </trkpt>
      <trkpt lat="45.64424" lon="6.11493">
        <ele>1820.87</ele>
        <time>2015-02-11T10:36:23Z</time>
      </trkpt>
      <trkpt lat="45.64418" lon="6.11499">
        <ele>1823.28</ele>
        <time>2015-02-11T10:36:37Z</time>
      </trkpt>
      <trkpt lat="45.64413" lon="6.11505">
        <ele>1824.72</ele>
        <time>2015-02-11T10:36:48Z</time>
      </trkpt>
      <trkpt lat="45.64407" lon="6.11511">
        <ele>1826.64</ele>
        <time>2015-02-11T10:37:02Z</time>
      </trkpt>
      <trkpt lat="45.64406" lon="6.11513">
        <ele>1827.6</ele>
        <time>2015-02-11T10:37:13Z</time>
      </trkpt>
      <trkpt lat="45.64411" lon="6.11515">
        <ele>1829.53</ele>
        <time>2015-02-11T10:37:24Z</time>
      </trkpt>
      <trkpt lat="45.64416" lon="6.11516">
        <ele>1830.97</ele>
        <time>2015-02-11T10:37:33Z</time>
      </trkpt>
      <trkpt lat="45.64423" lon="6.11518">
        <ele>1832.89</ele>
        <time>2015-02-11T10:37:46Z</time>
      </trkpt>
      <trkpt lat="45.64428" lon="6.11519">
        <ele>1834.33</ele>
        <time>2015-02-11T10:37:56Z</time>
      </trkpt>
      <trkpt lat="45.64427" lon="6.11524">
        <ele>1835.77</ele>
        <time>2015-02-11T10:38:07Z</time>
      </trkpt>
      <trkpt lat="45.64421" lon="6.11529">
        <ele>1838.18</ele>
        <time>2015-02-11T10:38:20Z</time>
      </trkpt>
      <trkpt lat="45.64416" lon="6.11535">
        <ele>1839.14</ele>
        <time>2015-02-11T10:38:31Z</time>
      </trkpt>
      <trkpt lat="45.64413" lon="6.11538">
        <ele>1840.1</ele>
        <time>2015-02-11T10:38:38Z</time>
      </trkpt>
      <trkpt lat="45.64409" lon="6.11542">
        <ele>1841.54</ele>
        <time>2015-02-11T10:38:48Z</time>
      </trkpt>
      <trkpt lat="45.64403" lon="6.11548">
        <ele>1842.5</ele>
        <time>2015-02-11T10:39:01Z</time>
      </trkpt>
      <trkpt lat="45.64395" lon="6.11554">
        <ele>1844.91</ele>
        <time>2015-02-11T10:39:15Z</time>
      </trkpt>
      <trkpt lat="45.64388" lon="6.11561">
        <ele>1846.83</ele>
        <time>2015-02-11T10:39:29Z</time>
      </trkpt>
      <trkpt lat="45.64382" lon="6.11566">
        <ele>1848.75</ele>
        <time>2015-02-11T10:39:42Z</time>
      </trkpt>
      <trkpt lat="45.64377" lon="6.1157">
        <ele>1849.71</ele>
        <time>2015-02-11T10:39:52Z</time>
      </trkpt>
      <trkpt lat="45.6437" lon="6.11575">
        <ele>1851.64</ele>
        <time>2015-02-11T10:40:04Z</time>
      </trkpt>
      <trkpt lat="45.64365" lon="6.11579">
        <ele>1853.08</ele>
        <time>2015-02-11T10:40:15Z</time>
      </trkpt>
      <trkpt lat="45.64359" lon="6.11583">
        <ele>1854.52</ele>
        <time>2015-02-11T10:40:27Z</time>
      </trkpt>
      <trkpt lat="45.64354" lon="6.11587">
        <ele>1856.44</ele>
        <time>2015-02-11T10:40:38Z</time>
      </trkpt>
      <trkpt lat="45.64347" lon="6.11593">
        <ele>1857.89</ele>
        <time>2015-02-11T10:40:51Z</time>
      </trkpt>
      <trkpt lat="45.64344" lon="6.11594">
        <ele>1859.33</ele>
        <time>2015-02-11T10:41:04Z</time>
      </trkpt>
      <trkpt lat="45.64348" lon="6.11596">
        <ele>1860.29</ele>
        <time>2015-02-11T10:41:21Z</time>
      </trkpt>
      <trkpt lat="45.64354" lon="6.11599">
        <ele>1862.21</ele>
        <time>2015-02-11T10:41:31Z</time>
      </trkpt>
      <trkpt lat="45.6436" lon="6.11602">
        <ele>1864.13</ele>
        <time>2015-02-11T10:41:44Z</time>
      </trkpt>
      <trkpt lat="45.64366" lon="6.11604">
        <ele>1865.58</ele>
        <time>2015-02-11T10:41:56Z</time>
      </trkpt>
      <trkpt lat="45.64371" lon="6.11607">
        <ele>1867.5</ele>
        <time>2015-02-11T10:42:06Z</time>
      </trkpt>
      <trkpt lat="45.64376" lon="6.11608">
        <ele>1869.42</ele>
        <time>2015-02-11T10:42:18Z</time>
      </trkpt>
      <trkpt lat="45.6438" lon="6.11608">
        <ele>1870.38</ele>
        <time>2015-02-11T10:42:26Z</time>
      </trkpt>
      <trkpt lat="45.64383" lon="6.11607">
        <ele>1871.82</ele>
        <time>2015-02-11T10:42:34Z</time>
      </trkpt>
      <trkpt lat="45.64382" lon="6.11614">
        <ele>1874.23</ele>
        <time>2015-02-11T10:42:46Z</time>
      </trkpt>
      <trkpt lat="45.64378" lon="6.11619">
        <ele>1875.67</ele>
        <time>2015-02-11T10:42:59Z</time>
      </trkpt>
      <trkpt lat="45.64372" lon="6.11624">
        <ele>1877.59</ele>
        <time>2015-02-11T10:43:10Z</time>
      </trkpt>
      <trkpt lat="45.64366" lon="6.11629">
        <ele>1879.51</ele>
        <time>2015-02-11T10:43:23Z</time>
      </trkpt>
      <trkpt lat="45.64362" lon="6.11634">
        <ele>1880.48</ele>
        <time>2015-02-11T10:43:33Z</time>
      </trkpt>
      <trkpt lat="45.64356" lon="6.11637">
        <ele>1881.92</ele>
        <time>2015-02-11T10:43:44Z</time>
      </trkpt>
      <trkpt lat="45.64349" lon="6.11641">
        <ele>1883.84</ele>
        <time>2015-02-11T10:43:57Z</time>
      </trkpt>
      <trkpt lat="45.64344" lon="6.11642">
        <ele>1885.28</ele>
        <time>2015-02-11T10:44:07Z</time>
      </trkpt>
      <trkpt lat="45.64338" lon="6.11645">
        <ele>1886.72</ele>
        <time>2015-02-11T10:44:19Z</time>
      </trkpt>
      <trkpt lat="45.64331" lon="6.11648">
        <ele>1888.17</ele>
        <time>2015-02-11T10:44:31Z</time>
      </trkpt>
      <trkpt lat="45.64324" lon="6.11653">
        <ele>1890.09</ele>
        <time>2015-02-11T10:44:46Z</time>
      </trkpt>
      <trkpt lat="45.64319" lon="6.11657">
        <ele>1891.53</ele>
        <time>2015-02-11T10:44:57Z</time>
      </trkpt>
      <trkpt lat="45.64314" lon="6.1166">
        <ele>1892.97</ele>
        <time>2015-02-11T10:45:07Z</time>
      </trkpt>
      <trkpt lat="45.64307" lon="6.11665">
        <ele>1894.42</ele>
        <time>2015-02-11T10:45:21Z</time>
      </trkpt>
      <trkpt lat="45.64303" lon="6.11668">
        <ele>1896.34</ele>
        <time>2015-02-11T10:45:32Z</time>
      </trkpt>
      <trkpt lat="45.64295" lon="6.11673">
        <ele>1898.26</ele>
        <time>2015-02-11T10:45:48Z</time>
      </trkpt>
      <trkpt lat="45.6429" lon="6.11676">
        <ele>1900.18</ele>
        <time>2015-02-11T10:45:58Z</time>
      </trkpt>
      <trkpt lat="45.64288" lon="6.11677">
        <ele>1901.14</ele>
        <time>2015-02-11T10:46:11Z</time>
      </trkpt>
      <trkpt lat="45.64294" lon="6.11679">
        <ele>1902.11</ele>
        <time>2015-02-11T10:46:24Z</time>
      </trkpt>
      <trkpt lat="45.64301" lon="6.11682">
        <ele>1904.03</ele>
        <time>2015-02-11T10:46:36Z</time>
      </trkpt>
      <trkpt lat="45.64307" lon="6.11685">
        <ele>1904.99</ele>
        <time>2015-02-11T10:46:46Z</time>
      </trkpt>
      <trkpt lat="45.64312" lon="6.11687">
        <ele>1906.91</ele>
        <time>2015-02-11T10:46:57Z</time>
      </trkpt>
      <trkpt lat="45.64318" lon="6.11689">
        <ele>1908.83</ele>
        <time>2015-02-11T10:47:09Z</time>
      </trkpt>
      <trkpt lat="45.64323" lon="6.1169">
        <ele>1910.28</ele>
        <time>2015-02-11T10:47:19Z</time>
      </trkpt>
      <trkpt lat="45.64327" lon="6.11692">
        <ele>1911.24</ele>
        <time>2015-02-11T10:47:28Z</time>
      </trkpt>
      <trkpt lat="45.64334" lon="6.11695">
        <ele>1913.16</ele>
        <time>2015-02-11T10:47:40Z</time>
      </trkpt>
      <trkpt lat="45.64341" lon="6.11697">
        <ele>1914.6</ele>
        <time>2015-02-11T10:47:53Z</time>
      </trkpt>
      <trkpt lat="45.64348" lon="6.11699">
        <ele>1916.53</ele>
        <time>2015-02-11T10:48:05Z</time>
      </trkpt>
      <trkpt lat="45.64353" lon="6.11701">
        <ele>1917.49</ele>
        <time>2015-02-11T10:48:15Z</time>
      </trkpt>
      <trkpt lat="45.64357" lon="6.11704">
        <ele>1918.45</ele>
        <time>2015-02-11T10:48:25Z</time>
      </trkpt>
      <trkpt lat="45.64364" lon="6.11706">
        <ele>1920.37</ele>
        <time>2015-02-11T10:48:36Z</time>
      </trkpt>
      <trkpt lat="45.64369" lon="6.11709">
        <ele>1921.81</ele>
        <time>2015-02-11T10:48:48Z</time>
      </trkpt>
      <trkpt lat="45.64373" lon="6.11712">
        <ele>1923.74</ele>
        <time>2015-02-11T10:48:58Z</time>
      </trkpt>
      <trkpt lat="45.64379" lon="6.11715">
        <ele>1925.66</ele>
        <time>2015-02-11T10:49:10Z</time>
      </trkpt>
      <trkpt lat="45.64383" lon="6.11717">
        <ele>1926.62</ele>
        <time>2015-02-11T10:49:21Z</time>
      </trkpt>
      <trkpt lat="45.64388" lon="6.1172">
        <ele>1928.06</ele>
        <time>2015-02-11T10:49:32Z</time>
      </trkpt>
      <trkpt lat="45.64394" lon="6.11722">
        <ele>1929.98</ele>
        <time>2015-02-11T10:49:44Z</time>
      </trkpt>
      <trkpt lat="45.64401" lon="6.11724">
        <ele>1931.43</ele>
        <time>2015-02-11T10:49:55Z</time>
      </trkpt>
      <trkpt lat="45.64406" lon="6.11726">
        <ele>1932.39</ele>
        <time>2015-02-11T10:50:04Z</time>
      </trkpt>
      <trkpt lat="45.64413" lon="6.11727">
        <ele>1933.35</ele>
        <time>2015-02-11T10:50:15Z</time>
      </trkpt>
      <trkpt lat="45.64419" lon="6.11728">
        <ele>1934.79</ele>
        <time>2015-02-11T10:50:26Z</time>
      </trkpt>
      <trkpt lat="45.64426" lon="6.11729">
        <ele>1936.71</ele>
        <time>2015-02-11T10:50:39Z</time>
      </trkpt>
      <trkpt lat="45.6443" lon="6.11731">
        <ele>1937.67</ele>
        <time>2015-02-11T10:50:47Z</time>
      </trkpt>
      <trkpt lat="45.64437" lon="6.11732">
        <ele>1939.6</ele>
        <time>2015-02-11T10:51:00Z</time>
      </trkpt>
      <trkpt lat="45.64443" lon="6.11732">
        <ele>1941.52</ele>
        <time>2015-02-11T10:51:11Z</time>
      </trkpt>
      <trkpt lat="45.64448" lon="6.11732">
        <ele>1942</ele>
        <time>2015-02-11T10:51:20Z</time>
      </trkpt>
      <trkpt lat="45.64453" lon="6.11732">
        <ele>1943.92</ele>
        <time>2015-02-11T10:51:30Z</time>
      </trkpt>
      <trkpt lat="45.6446" lon="6.11732">
        <ele>1945.36</ele>
        <time>2015-02-11T10:51:41Z</time>
      </trkpt>
      <trkpt lat="45.64465" lon="6.11728">
        <ele>1946.33</ele>
        <time>2015-02-11T10:51:52Z</time>
      </trkpt>
      <trkpt lat="45.64468" lon="6.11727">
        <ele>1947.77</ele>
        <time>2015-02-11T10:51:58Z</time>
      </trkpt>
      <trkpt lat="45.64473" lon="6.11725">
        <ele>1948.73</ele>
        <time>2015-02-11T10:52:08Z</time>
      </trkpt>
      <trkpt lat="45.64478" lon="6.11729">
        <ele>1951.13</ele>
        <time>2015-02-11T10:52:22Z</time>
      </trkpt>
      <trkpt lat="45.64482" lon="6.11731">
        <ele>1952.57</ele>
        <time>2015-02-11T10:52:31Z</time>
      </trkpt>
      <trkpt lat="45.64486" lon="6.11733">
        <ele>1954.02</ele>
        <time>2015-02-11T10:52:41Z</time>
      </trkpt>
      <trkpt lat="45.6449" lon="6.11735">
        <ele>1956.42</ele>
        <time>2015-02-11T10:52:54Z</time>
      </trkpt>
      <trkpt lat="45.64493" lon="6.11736">
        <ele>1958.82</ele>
        <time>2015-02-11T10:53:06Z</time>
      </trkpt>
      <trkpt lat="45.64493" lon="6.11736">
        <ele>1958.34</ele>
        <time>2015-02-11T10:54:30Z</time>
      </trkpt>
      <trkpt lat="45.64494" lon="6.11736">
        <ele>1958.34</ele>
        <time>2015-02-11T10:55:38Z</time>
      </trkpt>
      <trkpt lat="45.64495" lon="6.11735">
        <ele>1958.34</ele>
        <time>2015-02-11T10:56:32Z</time>
      </trkpt>
      <trkpt lat="45.64492" lon="6.11739">
        <ele>1959.78</ele>
        <time>2015-02-11T10:56:48Z</time>
      </trkpt>
      <trkpt lat="45.64487" lon="6.11746">
        <ele>1962.19</ele>
        <time>2015-02-11T10:57:02Z</time>
      </trkpt>
      <trkpt lat="45.64482" lon="6.11752">
        <ele>1963.63</ele>
        <time>2015-02-11T10:57:13Z</time>
      </trkpt>
      <trkpt lat="45.64477" lon="6.11761">
        <ele>1964.59</ele>
        <time>2015-02-11T10:57:27Z</time>
      </trkpt>
      <trkpt lat="45.64473" lon="6.11765">
        <ele>1966.03</ele>
        <time>2015-02-11T10:57:39Z</time>
      </trkpt>
      <trkpt lat="45.64475" lon="6.11763">
        <ele>1966.03</ele>
        <time>2015-02-11T10:57:49Z</time>
      </trkpt>
      <trkpt lat="45.64482" lon="6.11763">
        <ele>1966.99</ele>
        <time>2015-02-11T10:58:01Z</time>
      </trkpt>
      <trkpt lat="45.64483" lon="6.11767">
        <ele>1967.96</ele>
        <time>2015-02-11T10:58:08Z</time>
      </trkpt>
      <trkpt lat="45.6448" lon="6.11775">
        <ele>1970.84</ele>
        <time>2015-02-11T10:58:21Z</time>
      </trkpt>
      <trkpt lat="45.64482" lon="6.11781">
        <ele>1972.76</ele>
        <time>2015-02-11T10:58:33Z</time>
      </trkpt>
      <trkpt lat="45.64481" lon="6.11787">
        <ele>1975.17</ele>
        <time>2015-02-11T10:58:47Z</time>
      </trkpt>
      <trkpt lat="45.64477" lon="6.11792">
        <ele>1977.09</ele>
        <time>2015-02-11T10:59:00Z</time>
      </trkpt>
      <trkpt lat="45.64475" lon="6.11796">
        <ele>1978.53</ele>
        <time>2015-02-11T10:59:09Z</time>
      </trkpt>
      <trkpt lat="45.64471" lon="6.11802">
        <ele>1980.93</ele>
        <time>2015-02-11T10:59:24Z</time>
      </trkpt>
      <trkpt lat="45.64468" lon="6.11808">
        <ele>1982.86</ele>
        <time>2015-02-11T10:59:38Z</time>
      </trkpt>
      <trkpt lat="45.64463" lon="6.11815">
        <ele>1985.74</ele>
        <time>2015-02-11T10:59:54Z</time>
      </trkpt>
      <trkpt lat="45.64466" lon="6.11816">
        <ele>1986.22</ele>
        <time>2015-02-11T11:00:08Z</time>
      </trkpt>
      <trkpt lat="45.6447" lon="6.11822">
        <ele>1988.14</ele>
        <time>2015-02-11T11:00:20Z</time>
      </trkpt>
      <trkpt lat="45.64471" lon="6.11822">
        <ele>1989.1</ele>
        <time>2015-02-11T11:00:24Z</time>
      </trkpt>
      <trkpt lat="45.64471" lon="6.11828">
        <ele>1990.55</ele>
        <time>2015-02-11T11:00:32Z</time>
      </trkpt>
      <trkpt lat="45.64465" lon="6.11831">
        <ele>1992.95</ele>
        <time>2015-02-11T11:00:45Z</time>
      </trkpt>
      <trkpt lat="45.64462" lon="6.11833">
        <ele>1994.39</ele>
        <time>2015-02-11T11:00:59Z</time>
      </trkpt>
      <trkpt lat="45.64458" lon="6.11838">
        <ele>1995.35</ele>
        <time>2015-02-11T11:01:12Z</time>
      </trkpt>
      <trkpt lat="45.64455" lon="6.11843">
        <ele>1997.76</ele>
        <time>2015-02-11T11:01:27Z</time>
      </trkpt>
      <trkpt lat="45.64457" lon="6.11846">
        <ele>1998.72</ele>
        <time>2015-02-11T11:01:38Z</time>
      </trkpt>
      <trkpt lat="45.64461" lon="6.11848">
        <ele>2000.16</ele>
        <time>2015-02-11T11:01:48Z</time>
      </trkpt>
      <trkpt lat="45.64464" lon="6.11853">
        <ele>2001.6</ele>
        <time>2015-02-11T11:02:00Z</time>
      </trkpt>
      <trkpt lat="45.6446" lon="6.11857">
        <ele>2003.52</ele>
        <time>2015-02-11T11:02:13Z</time>
      </trkpt>
      <trkpt lat="45.64458" lon="6.11862">
        <ele>2005.45</ele>
        <time>2015-02-11T11:02:28Z</time>
      </trkpt>
      <trkpt lat="45.64462" lon="6.11868">
        <ele>2006.89</ele>
        <time>2015-02-11T11:02:40Z</time>
      </trkpt>
      <trkpt lat="45.64463" lon="6.11871">
        <ele>2007.85</ele>
        <time>2015-02-11T11:02:46Z</time>
      </trkpt>
      <trkpt lat="45.64464" lon="6.11873">
        <ele>2009.29</ele>
        <time>2015-02-11T11:02:55Z</time>
      </trkpt>
      <trkpt lat="45.64465" lon="6.1188">
        <ele>2010.73</ele>
        <time>2015-02-11T11:03:04Z</time>
      </trkpt>
      <trkpt lat="45.64463" lon="6.11884">
        <ele>2012.18</ele>
        <time>2015-02-11T11:03:14Z</time>
      </trkpt>
      <trkpt lat="45.64461" lon="6.11887">
        <ele>2013.62</ele>
        <time>2015-02-11T11:03:27Z</time>
      </trkpt>
      <trkpt lat="45.64458" lon="6.1189">
        <ele>2015.06</ele>
        <time>2015-02-11T11:03:36Z</time>
      </trkpt>
      <trkpt lat="45.64455" lon="6.11893">
        <ele>2016.5</ele>
        <time>2015-02-11T11:03:47Z</time>
      </trkpt>
      <trkpt lat="45.64451" lon="6.11897">
        <ele>2017.94</ele>
        <time>2015-02-11T11:04:00Z</time>
      </trkpt>
      <trkpt lat="45.64448" lon="6.11901">
        <ele>2018.91</ele>
        <time>2015-02-11T11:04:12Z</time>
      </trkpt>
      <trkpt lat="45.64443" lon="6.11904">
        <ele>2020.83</ele>
        <time>2015-02-11T11:04:25Z</time>
      </trkpt>
      <trkpt lat="45.64438" lon="6.11907">
        <ele>2021.79</ele>
        <time>2015-02-11T11:04:38Z</time>
      </trkpt>
      <trkpt lat="45.64435" lon="6.11911">
        <ele>2023.23</ele>
        <time>2015-02-11T11:04:51Z</time>
      </trkpt>
      <trkpt lat="45.6444" lon="6.11915">
        <ele>2024.67</ele>
        <time>2015-02-11T11:05:03Z</time>
      </trkpt>
      <trkpt lat="45.64444" lon="6.11918">
        <ele>2026.12</ele>
        <time>2015-02-11T11:05:13Z</time>
      </trkpt>
      <trkpt lat="45.64447" lon="6.11922">
        <ele>2027.56</ele>
        <time>2015-02-11T11:05:22Z</time>
      </trkpt>
      <trkpt lat="45.6445" lon="6.11927">
        <ele>2029</ele>
        <time>2015-02-11T11:05:32Z</time>
      </trkpt>
      <trkpt lat="45.64454" lon="6.11933">
        <ele>2029.96</ele>
        <time>2015-02-11T11:05:44Z</time>
      </trkpt>
      <trkpt lat="45.64457" lon="6.11938">
        <ele>2031.4</ele>
        <time>2015-02-11T11:05:56Z</time>
      </trkpt>
      <trkpt lat="45.64457" lon="6.11943">
        <ele>2032.84</ele>
        <time>2015-02-11T11:06:06Z</time>
      </trkpt>
      <trkpt lat="45.64456" lon="6.11945">
        <ele>2033.81</ele>
        <time>2015-02-11T11:06:22Z</time>
      </trkpt>
      <trkpt lat="45.64456" lon="6.11944">
        <ele>2033.81</ele>
        <time>2015-02-11T11:06:40Z</time>
      </trkpt>
      <trkpt lat="45.64454" lon="6.11945">
        <ele>2033.81</ele>
        <time>2015-02-11T11:06:57Z</time>
      </trkpt>
      <trkpt lat="45.64453" lon="6.11944">
        <ele>2035.25</ele>
        <time>2015-02-11T11:07:40Z</time>
      </trkpt>
      <trkpt lat="45.64454" lon="6.11944">
        <ele>2034.77</ele>
        <time>2015-02-11T11:08:00Z</time>
      </trkpt>
      <trkpt lat="45.64454" lon="6.11944">
        <ele>2035.73</ele>
        <time>2015-02-11T11:08:31Z</time>
      </trkpt>
      <trkpt lat="45.64454" lon="6.11944">
        <ele>2035.25</ele>
        <time>2015-02-11T11:10:12Z</time>
      </trkpt>
      <trkpt lat="45.64455" lon="6.11943">
        <ele>2036.21</ele>
        <time>2015-02-11T11:12:29Z</time>
      </trkpt>
      <trkpt lat="45.64454" lon="6.11939">
        <ele>2036.21</ele>
        <time>2015-02-11T11:13:27Z</time>
      </trkpt>
      <trkpt lat="45.64454" lon="6.11936">
        <ele>2035.73</ele>
        <time>2015-02-11T11:14:07Z</time>
      </trkpt>
      <trkpt lat="45.64452" lon="6.11935">
        <ele>2036.21</ele>
        <time>2015-02-11T11:14:55Z</time>
      </trkpt>
      <trkpt lat="45.64451" lon="6.11937">
        <ele>2036.21</ele>
        <time>2015-02-11T11:15:40Z</time>
      </trkpt>
      <trkpt lat="45.64454" lon="6.11937">
        <ele>2035.73</ele>
        <time>2015-02-11T11:17:09Z</time>
      </trkpt>
      <trkpt lat="45.64455" lon="6.11938">
        <ele>2035.25</ele>
        <time>2015-02-11T11:17:59Z</time>
      </trkpt>
      <trkpt lat="45.64455" lon="6.1194">
        <ele>2035.25</ele>
        <time>2015-02-11T11:18:48Z</time>
      </trkpt>
      <trkpt lat="45.64455" lon="6.1194">
        <ele>2035.73</ele>
        <time>2015-02-11T11:19:17Z</time>
      </trkpt>
      <trkpt lat="45.64455" lon="6.1194">
        <ele>2035.73</ele>
        <time>2015-02-11T11:19:55Z</time>
      </trkpt>
      <trkpt lat="45.64457" lon="6.11942">
        <ele>2035.73</ele>
        <time>2015-02-11T11:20:19Z</time>
      </trkpt>
      <trkpt lat="45.64458" lon="6.11942">
        <ele>2035.25</ele>
        <time>2015-02-11T11:20:33Z</time>
      </trkpt>
      <trkpt lat="45.64457" lon="6.11944">
        <ele>2035.25</ele>
        <time>2015-02-11T11:21:03Z</time>
      </trkpt>
      <trkpt lat="45.64457" lon="6.11944">
        <ele>2034.77</ele>
        <time>2015-02-11T11:21:19Z</time>
      </trkpt>
      <trkpt lat="45.64457" lon="6.11944">
        <ele>2034.77</ele>
        <time>2015-02-11T11:21:41Z</time>
      </trkpt>
      <trkpt lat="45.64456" lon="6.11943">
        <ele>2035.25</ele>
        <time>2015-02-11T11:22:02Z</time>
      </trkpt>
      <trkpt lat="45.64453" lon="6.11942">
        <ele>2035.25</ele>
        <time>2015-02-11T11:22:40Z</time>
      </trkpt>
      <trkpt lat="45.64455" lon="6.11943">
        <ele>2035.25</ele>
        <time>2015-02-11T11:22:55Z</time>
      </trkpt>
      <trkpt lat="45.64452" lon="6.11939">
        <ele>2035.73</ele>
        <time>2015-02-11T11:24:30Z</time>
      </trkpt>
      <trkpt lat="45.64452" lon="6.11941">
        <ele>2036.21</ele>
        <time>2015-02-11T11:25:38Z</time>
      </trkpt>
      <trkpt lat="45.64454" lon="6.11942">
        <ele>2036.69</ele>
        <time>2015-02-11T11:29:09Z</time>
      </trkpt>
      <trkpt lat="45.64453" lon="6.11942">
        <ele>2037.17</ele>
        <time>2015-02-11T11:29:44Z</time>
      </trkpt>
      <trkpt lat="45.64453" lon="6.11942">
        <ele>2036.69</ele>
        <time>2015-02-11T11:31:06Z</time>
      </trkpt>
      <trkpt lat="45.64454" lon="6.11942">
        <ele>2037.17</ele>
        <time>2015-02-11T11:32:31Z</time>
      </trkpt>
      <trkpt lat="45.64453" lon="6.11942">
        <ele>2037.65</ele>
        <time>2015-02-11T11:32:53Z</time>
      </trkpt>
      <trkpt lat="45.64454" lon="6.11942">
        <ele>2038.13</ele>
        <time>2015-02-11T11:34:02Z</time>
      </trkpt>
      <trkpt lat="45.64453" lon="6.1194">
        <ele>2037.65</ele>
        <time>2015-02-11T11:34:29Z</time>
      </trkpt>
      <trkpt lat="45.64453" lon="6.1194">
        <ele>2037.65</ele>
        <time>2015-02-11T11:34:54Z</time>
      </trkpt>
      <trkpt lat="45.64454" lon="6.11941">
        <ele>2038.13</ele>
        <time>2015-02-11T11:35:04Z</time>
      </trkpt>
      <trkpt lat="45.64455" lon="6.11941">
        <ele>2038.61</ele>
        <time>2015-02-11T11:35:32Z</time>
      </trkpt>
      <trkpt lat="45.64455" lon="6.11942">
        <ele>2038.61</ele>
        <time>2015-02-11T11:36:14Z</time>
      </trkpt>
      <trkpt lat="45.64455" lon="6.11943">
        <ele>2037.65</ele>
        <time>2015-02-11T11:36:35Z</time>
      </trkpt>
      <trkpt lat="45.64455" lon="6.11944">
        <ele>2037.65</ele>
        <time>2015-02-11T11:37:28Z</time>
      </trkpt>
      <trkpt lat="45.64458" lon="6.11945">
        <ele>2038.61</ele>
        <time>2015-02-11T11:38:30Z</time>
      </trkpt>
      <trkpt lat="45.64457" lon="6.11944">
        <ele>2037.65</ele>
        <time>2015-02-11T11:38:54Z</time>
      </trkpt>
      <trkpt lat="45.64456" lon="6.11945">
        <ele>2038.13</ele>
        <time>2015-02-11T11:39:18Z</time>
      </trkpt>
      <trkpt lat="45.64454" lon="6.11946">
        <ele>2038.61</ele>
        <time>2015-02-11T11:42:36Z</time>
      </trkpt>
      <trkpt lat="45.64455" lon="6.11945">
        <ele>2038.61</ele>
        <time>2015-02-11T11:43:21Z</time>
      </trkpt>
      <trkpt lat="45.64457" lon="6.11946">
        <ele>2038.61</ele>
        <time>2015-02-11T11:44:55Z</time>
      </trkpt>
      <trkpt lat="45.64464" lon="6.1195">
        <ele>2037.65</ele>
        <time>2015-02-11T11:45:11Z</time>
      </trkpt>
      <trkpt lat="45.64463" lon="6.11949">
        <ele>2037.17</ele>
        <time>2015-02-11T11:45:16Z</time>
      </trkpt>
      <trkpt lat="45.64458" lon="6.11941">
        <ele>2036.21</ele>
        <time>2015-02-11T11:45:29Z</time>
      </trkpt>
      <trkpt lat="45.64457" lon="6.11939">
        <ele>2035.25</ele>
        <time>2015-02-11T11:45:44Z</time>
      </trkpt>
      <trkpt lat="45.64457" lon="6.11935">
        <ele>2034.29</ele>
        <time>2015-02-11T11:45:58Z</time>
      </trkpt>
      <trkpt lat="45.64456" lon="6.11932">
        <ele>2032.84</ele>
        <time>2015-02-11T11:46:11Z</time>
      </trkpt>
      <trkpt lat="45.64452" lon="6.11917">
        <ele>2030.92</ele>
        <time>2015-02-11T11:46:29Z</time>
      </trkpt>
      <trkpt lat="45.6446" lon="6.11914">
        <ele>2028.52</ele>
        <time>2015-02-11T11:46:33Z</time>
      </trkpt>
      <trkpt lat="45.64466" lon="6.11915">
        <ele>2025.15</ele>
        <time>2015-02-11T11:46:37Z</time>
      </trkpt>
      <trkpt lat="45.64467" lon="6.11916">
        <ele>2025.15</ele>
        <time>2015-02-11T11:46:38Z</time>
      </trkpt>
      <trkpt lat="45.64474" lon="6.11921">
        <ele>2023.71</ele>
        <time>2015-02-11T11:46:52Z</time>
      </trkpt>
      <trkpt lat="45.6448" lon="6.11926">
        <ele>2021.79</ele>
        <time>2015-02-11T11:47:02Z</time>
      </trkpt>
      <trkpt lat="45.64492" lon="6.11946">
        <ele>2019.39</ele>
        <time>2015-02-11T11:47:16Z</time>
      </trkpt>
      <trkpt lat="45.64495" lon="6.11949">
        <ele>2018.91</ele>
        <time>2015-02-11T11:47:18Z</time>
      </trkpt>
      <trkpt lat="45.64494" lon="6.11944">
        <ele>2018.43</ele>
        <time>2015-02-11T11:47:20Z</time>
      </trkpt>
      <trkpt lat="45.64497" lon="6.11937">
        <ele>2014.1</ele>
        <time>2015-02-11T11:47:24Z</time>
      </trkpt>
      <trkpt lat="45.64501" lon="6.11937">
        <ele>2011.22</ele>
        <time>2015-02-11T11:47:27Z</time>
      </trkpt>
      <trkpt lat="45.64501" lon="6.11934">
        <ele>2008.81</ele>
        <time>2015-02-11T11:47:31Z</time>
      </trkpt>
      <trkpt lat="45.64503" lon="6.11934">
        <ele>2007.85</ele>
        <time>2015-02-11T11:47:34Z</time>
      </trkpt>
      <trkpt lat="45.64507" lon="6.11936">
        <ele>2005.93</ele>
        <time>2015-02-11T11:47:39Z</time>
      </trkpt>
      <trkpt lat="45.64508" lon="6.11938">
        <ele>2005.45</ele>
        <time>2015-02-11T11:48:01Z</time>
      </trkpt>
      <trkpt lat="45.6451" lon="6.1194">
        <ele>2003.52</ele>
        <time>2015-02-11T11:48:18Z</time>
      </trkpt>
      <trkpt lat="45.64512" lon="6.11939">
        <ele>2001.12</ele>
        <time>2015-02-11T11:48:37Z</time>
      </trkpt>
      <trkpt lat="45.64513" lon="6.11934">
        <ele>1998.72</ele>
        <time>2015-02-11T11:48:43Z</time>
      </trkpt>
      <trkpt lat="45.64518" lon="6.11935">
        <ele>1996.8</ele>
        <time>2015-02-11T11:48:45Z</time>
      </trkpt>
      <trkpt lat="45.64527" lon="6.11939">
        <ele>1991.99</ele>
        <time>2015-02-11T11:48:49Z</time>
      </trkpt>
      <trkpt lat="45.64531" lon="6.11942">
        <ele>1991.99</ele>
        <time>2015-02-11T11:48:50Z</time>
      </trkpt>
      <trkpt lat="45.64533" lon="6.11944">
        <ele>1991.03</ele>
        <time>2015-02-11T11:48:51Z</time>
      </trkpt>
      <trkpt lat="45.64532" lon="6.11948">
        <ele>1987.18</ele>
        <time>2015-02-11T11:49:08Z</time>
      </trkpt>
      <trkpt lat="45.6453" lon="6.11947">
        <ele>1988.14</ele>
        <time>2015-02-11T11:49:36Z</time>
      </trkpt>
      <trkpt lat="45.64531" lon="6.11947">
        <ele>1987.66</ele>
        <time>2015-02-11T11:50:40Z</time>
      </trkpt>
      <trkpt lat="45.64531" lon="6.11947">
        <ele>1987.66</ele>
        <time>2015-02-11T11:50:57Z</time>
      </trkpt>
      <trkpt lat="45.64538" lon="6.11939">
        <ele>1982.86</ele>
        <time>2015-02-11T11:51:01Z</time>
      </trkpt>
      <trkpt lat="45.64541" lon="6.11935">
        <ele>1978.05</ele>
        <time>2015-02-11T11:51:03Z</time>
      </trkpt>
      <trkpt lat="45.64543" lon="6.11931">
        <ele>1976.13</ele>
        <time>2015-02-11T11:51:05Z</time>
      </trkpt>
      <trkpt lat="45.64543" lon="6.11924">
        <ele>1972.28</ele>
        <time>2015-02-11T11:51:07Z</time>
      </trkpt>
      <trkpt lat="45.64545" lon="6.11923">
        <ele>1969.4</ele>
        <time>2015-02-11T11:51:09Z</time>
      </trkpt>
      <trkpt lat="45.64548" lon="6.11918">
        <ele>1966.51</ele>
        <time>2015-02-11T11:51:11Z</time>
      </trkpt>
      <trkpt lat="45.6456" lon="6.11924">
        <ele>1962.67</ele>
        <time>2015-02-11T11:51:14Z</time>
      </trkpt>
      <trkpt lat="45.64561" lon="6.11925">
        <ele>1961.23</ele>
        <time>2015-02-11T11:51:15Z</time>
      </trkpt>
      <trkpt lat="45.64564" lon="6.11916">
        <ele>1956.9</ele>
        <time>2015-02-11T11:51:18Z</time>
      </trkpt>
      <trkpt lat="45.64568" lon="6.11918">
        <ele>1953.54</ele>
        <time>2015-02-11T11:51:20Z</time>
      </trkpt>
      <trkpt lat="45.6457" lon="6.1191">
        <ele>1950.17</ele>
        <time>2015-02-11T11:51:23Z</time>
      </trkpt>
      <trkpt lat="45.64571" lon="6.11907">
        <ele>1948.73</ele>
        <time>2015-02-11T11:51:24Z</time>
      </trkpt>
      <trkpt lat="45.64577" lon="6.11904">
        <ele>1943.44</ele>
        <time>2015-02-11T11:51:27Z</time>
      </trkpt>
      <trkpt lat="45.64583" lon="6.119">
        <ele>1938.64</ele>
        <time>2015-02-11T11:51:29Z</time>
      </trkpt>
      <trkpt lat="45.64587" lon="6.11898">
        <ele>1936.23</ele>
        <time>2015-02-11T11:51:30Z</time>
      </trkpt>
      <trkpt lat="45.64597" lon="6.11896">
        <ele>1933.83</ele>
        <time>2015-02-11T11:51:32Z</time>
      </trkpt>
      <trkpt lat="45.64601" lon="6.11898">
        <ele>1930.46</ele>
        <time>2015-02-11T11:51:33Z</time>
      </trkpt>
      <trkpt lat="45.64603" lon="6.1189">
        <ele>1922.29</ele>
        <time>2015-02-11T11:51:36Z</time>
      </trkpt>
      <trkpt lat="45.64604" lon="6.11889">
        <ele>1919.89</ele>
        <time>2015-02-11T11:51:37Z</time>
      </trkpt>
      <trkpt lat="45.64612" lon="6.11898">
        <ele>1914.6</ele>
        <time>2015-02-11T11:51:40Z</time>
      </trkpt>
      <trkpt lat="45.64618" lon="6.11905">
        <ele>1913.16</ele>
        <time>2015-02-11T11:51:42Z</time>
      </trkpt>
      <trkpt lat="45.64628" lon="6.11906">
        <ele>1907.87</ele>
        <time>2015-02-11T11:51:45Z</time>
      </trkpt>
      <trkpt lat="45.6464" lon="6.11913">
        <ele>1903.55</ele>
        <time>2015-02-11T11:51:47Z</time>
      </trkpt>
      <trkpt lat="45.6465" lon="6.11913">
        <ele>1897.78</ele>
        <time>2015-02-11T11:51:49Z</time>
      </trkpt>
      <trkpt lat="45.64655" lon="6.11913">
        <ele>1897.78</ele>
        <time>2015-02-11T11:51:50Z</time>
      </trkpt>
      <trkpt lat="45.64663" lon="6.11907">
        <ele>1892.49</ele>
        <time>2015-02-11T11:51:52Z</time>
      </trkpt>
      <trkpt lat="45.64667" lon="6.11908">
        <ele>1889.13</ele>
        <time>2015-02-11T11:51:53Z</time>
      </trkpt>
      <trkpt lat="45.64671" lon="6.11906">
        <ele>1884.8</ele>
        <time>2015-02-11T11:51:54Z</time>
      </trkpt>
      <trkpt lat="45.64676" lon="6.11905">
        <ele>1881.44</ele>
        <time>2015-02-11T11:51:55Z</time>
      </trkpt>
      <trkpt lat="45.64682" lon="6.11906">
        <ele>1877.59</ele>
        <time>2015-02-11T11:51:56Z</time>
      </trkpt>
      <trkpt lat="45.64687" lon="6.11906">
        <ele>1873.27</ele>
        <time>2015-02-11T11:51:57Z</time>
      </trkpt>
      <trkpt lat="45.64695" lon="6.11907">
        <ele>1869.9</ele>
        <time>2015-02-11T11:51:58Z</time>
      </trkpt>
      <trkpt lat="45.64708" lon="6.11901">
        <ele>1863.17</ele>
        <time>2015-02-11T11:52:01Z</time>
      </trkpt>
      <trkpt lat="45.64712" lon="6.11901">
        <ele>1860.29</ele>
        <time>2015-02-11T11:52:02Z</time>
      </trkpt>
      <trkpt lat="45.64716" lon="6.11899">
        <ele>1856.92</ele>
        <time>2015-02-11T11:52:03Z</time>
      </trkpt>
      <trkpt lat="45.64724" lon="6.11895">
        <ele>1851.16</ele>
        <time>2015-02-11T11:52:05Z</time>
      </trkpt>
      <trkpt lat="45.64726" lon="6.11893">
        <ele>1847.79</ele>
        <time>2015-02-11T11:52:06Z</time>
      </trkpt>
      <trkpt lat="45.64729" lon="6.11882">
        <ele>1844.91</ele>
        <time>2015-02-11T11:52:08Z</time>
      </trkpt>
      <trkpt lat="45.64731" lon="6.11877">
        <ele>1842.02</ele>
        <time>2015-02-11T11:52:09Z</time>
      </trkpt>
      <trkpt lat="45.64729" lon="6.11866">
        <ele>1832.89</ele>
        <time>2015-02-11T11:52:12Z</time>
      </trkpt>
      <trkpt lat="45.64727" lon="6.1186">
        <ele>1829.53</ele>
        <time>2015-02-11T11:52:14Z</time>
      </trkpt>
      <trkpt lat="45.64724" lon="6.11856">
        <ele>1827.12</ele>
        <time>2015-02-11T11:52:25Z</time>
      </trkpt>
      <trkpt lat="45.64722" lon="6.11849">
        <ele>1826.16</ele>
        <time>2015-02-11T11:52:38Z</time>
      </trkpt>
      <trkpt lat="45.64722" lon="6.11849">
        <ele>1826.64</ele>
        <time>2015-02-11T11:53:37Z</time>
      </trkpt>
      <trkpt lat="45.64718" lon="6.11826">
        <ele>1824.24</ele>
        <time>2015-02-11T11:55:21Z</time>
      </trkpt>
      <trkpt lat="45.64716" lon="6.11817">
        <ele>1823.76</ele>
        <time>2015-02-11T11:55:35Z</time>
      </trkpt>
      <trkpt lat="45.64716" lon="6.11815">
        <ele>1823.76</ele>
        <time>2015-02-11T11:55:37Z</time>
      </trkpt>
      <trkpt lat="45.64709" lon="6.11798">
        <ele>1821.84</ele>
        <time>2015-02-11T11:55:49Z</time>
      </trkpt>
      <trkpt lat="45.64699" lon="6.11772">
        <ele>1818.47</ele>
        <time>2015-02-11T11:56:00Z</time>
      </trkpt>
      <trkpt lat="45.64693" lon="6.1175">
        <ele>1815.59</ele>
        <time>2015-02-11T11:56:04Z</time>
      </trkpt>
      <trkpt lat="45.64692" lon="6.1174">
        <ele>1813.66</ele>
        <time>2015-02-11T11:56:06Z</time>
      </trkpt>
      <trkpt lat="45.64701" lon="6.11733">
        <ele>1809.34</ele>
        <time>2015-02-11T11:56:09Z</time>
      </trkpt>
      <trkpt lat="45.64708" lon="6.11732">
        <ele>1805.01</ele>
        <time>2015-02-11T11:56:11Z</time>
      </trkpt>
      <trkpt lat="45.64713" lon="6.11725">
        <ele>1802.13</ele>
        <time>2015-02-11T11:56:13Z</time>
      </trkpt>
      <trkpt lat="45.64721" lon="6.11718">
        <ele>1796.84</ele>
        <time>2015-02-11T11:56:15Z</time>
      </trkpt>
      <trkpt lat="45.64729" lon="6.11716">
        <ele>1791.55</ele>
        <time>2015-02-11T11:56:17Z</time>
      </trkpt>
      <trkpt lat="45.64735" lon="6.11714">
        <ele>1786.27</ele>
        <time>2015-02-11T11:56:19Z</time>
      </trkpt>
      <trkpt lat="45.64741" lon="6.11708">
        <ele>1780.5</ele>
        <time>2015-02-11T11:56:21Z</time>
      </trkpt>
      <trkpt lat="45.64746" lon="6.11706">
        <ele>1777.13</ele>
        <time>2015-02-11T11:56:22Z</time>
      </trkpt>
      <trkpt lat="45.6475" lon="6.11709">
        <ele>1777.13</ele>
        <time>2015-02-11T11:56:23Z</time>
      </trkpt>
      <trkpt lat="45.64754" lon="6.1171">
        <ele>1774.25</ele>
        <time>2015-02-11T11:56:24Z</time>
      </trkpt>
      <trkpt lat="45.64764" lon="6.11707">
        <ele>1768.48</ele>
        <time>2015-02-11T11:56:26Z</time>
      </trkpt>
      <trkpt lat="45.64768" lon="6.11714">
        <ele>1765.12</ele>
        <time>2015-02-11T11:56:27Z</time>
      </trkpt>
      <trkpt lat="45.64771" lon="6.11721">
        <ele>1762.23</ele>
        <time>2015-02-11T11:56:28Z</time>
      </trkpt>
      <trkpt lat="45.64774" lon="6.11734">
        <ele>1757.91</ele>
        <time>2015-02-11T11:56:30Z</time>
      </trkpt>
      <trkpt lat="45.64782" lon="6.11736">
        <ele>1756.47</ele>
        <time>2015-02-11T11:56:32Z</time>
      </trkpt>
      <trkpt lat="45.64795" lon="6.11732">
        <ele>1751.18</ele>
        <time>2015-02-11T11:56:35Z</time>
      </trkpt>
      <trkpt lat="45.64802" lon="6.11733">
        <ele>1747.81</ele>
        <time>2015-02-11T11:56:36Z</time>
      </trkpt>
      <trkpt lat="45.64809" lon="6.11728">
        <ele>1743.97</ele>
        <time>2015-02-11T11:56:37Z</time>
      </trkpt>
      <trkpt lat="45.64815" lon="6.11726">
        <ele>1739.64</ele>
        <time>2015-02-11T11:56:38Z</time>
      </trkpt>
      <trkpt lat="45.6482" lon="6.1173">
        <ele>1735.32</ele>
        <time>2015-02-11T11:56:39Z</time>
      </trkpt>
      <trkpt lat="45.64825" lon="6.1173">
        <ele>1731.47</ele>
        <time>2015-02-11T11:56:40Z</time>
      </trkpt>
      <trkpt lat="45.6483" lon="6.11724">
        <ele>1727.63</ele>
        <time>2015-02-11T11:56:41Z</time>
      </trkpt>
      <trkpt lat="45.64834" lon="6.11717">
        <ele>1727.63</ele>
        <time>2015-02-11T11:56:42Z</time>
      </trkpt>
      <trkpt lat="45.64841" lon="6.11716">
        <ele>1724.74</ele>
        <time>2015-02-11T11:56:43Z</time>
      </trkpt>
      <trkpt lat="45.64852" lon="6.11728">
        <ele>1718.49</ele>
        <time>2015-02-11T11:56:45Z</time>
      </trkpt>
      <trkpt lat="45.6486" lon="6.11743">
        <ele>1712.25</ele>
        <time>2015-02-11T11:56:47Z</time>
      </trkpt>
      <trkpt lat="45.64865" lon="6.11752">
        <ele>1709.36</ele>
        <time>2015-02-11T11:56:48Z</time>
      </trkpt>
      <trkpt lat="45.64891" lon="6.11759">
        <ele>1704.07</ele>
        <time>2015-02-11T11:56:51Z</time>
      </trkpt>
      <trkpt lat="45.64899" lon="6.11764">
        <ele>1700.71</ele>
        <time>2015-02-11T11:56:52Z</time>
      </trkpt>
      <trkpt lat="45.64925" lon="6.11778">
        <ele>1692.06</ele>
        <time>2015-02-11T11:56:55Z</time>
      </trkpt>
      <trkpt lat="45.64933" lon="6.1178">
        <ele>1690.14</ele>
        <time>2015-02-11T11:56:56Z</time>
      </trkpt>
      <trkpt lat="45.64963" lon="6.11773">
        <ele>1687.73</ele>
        <time>2015-02-11T11:57:00Z</time>
      </trkpt>
      <trkpt lat="45.64997" lon="6.11761">
        <ele>1683.89</ele>
        <time>2015-02-11T11:57:05Z</time>
      </trkpt>
      <trkpt lat="45.65021" lon="6.11751">
        <ele>1683.89</ele>
        <time>2015-02-11T11:57:14Z</time>
      </trkpt>
      <trkpt lat="45.65026" lon="6.11747">
        <ele>1684.37</ele>
        <time>2015-02-11T11:57:44Z</time>
      </trkpt>
      <trkpt lat="45.65027" lon="6.11747">
        <ele>1685.33</ele>
        <time>2015-02-11T11:58:22Z</time>
      </trkpt>
      <trkpt lat="45.65027" lon="6.11746">
        <ele>1685.33</ele>
        <time>2015-02-11T11:59:00Z</time>
      </trkpt>
      <trkpt lat="45.65027" lon="6.11756">
        <ele>1686.29</ele>
        <time>2015-02-11T12:01:47Z</time>
      </trkpt>
      <trkpt lat="45.65022" lon="6.11757">
        <ele>1686.29</ele>
        <time>2015-02-11T12:02:05Z</time>
      </trkpt>
      <trkpt lat="45.65015" lon="6.1176">
        <ele>1686.29</ele>
        <time>2015-02-11T12:02:25Z</time>
      </trkpt>
      <trkpt lat="45.65021" lon="6.11753">
        <ele>1686.29</ele>
        <time>2015-02-11T12:03:56Z</time>
      </trkpt>
      <trkpt lat="45.65023" lon="6.11747">
        <ele>1686.77</ele>
        <time>2015-02-11T12:04:15Z</time>
      </trkpt>
      <trkpt lat="45.65025" lon="6.11746">
        <ele>1687.25</ele>
        <time>2015-02-11T12:04:25Z</time>
      </trkpt>
      <trkpt lat="45.65039" lon="6.11745">
        <ele>1687.25</ele>
        <time>2015-02-11T12:04:39Z</time>
      </trkpt>
      <trkpt lat="45.65053" lon="6.11742">
        <ele>1687.25</ele>
        <time>2015-02-11T12:04:53Z</time>
      </trkpt>
      <trkpt lat="45.65065" lon="6.11742">
        <ele>1687.73</ele>
        <time>2015-02-11T12:05:05Z</time>
      </trkpt>
      <trkpt lat="45.65076" lon="6.11738">
        <ele>1688.21</ele>
        <time>2015-02-11T12:05:17Z</time>
      </trkpt>
      <trkpt lat="45.65079" lon="6.11737">
        <ele>1688.69</ele>
        <time>2015-02-11T12:05:20Z</time>
      </trkpt>
      <trkpt lat="45.65088" lon="6.11739">
        <ele>1689.17</ele>
        <time>2015-02-11T12:05:34Z</time>
      </trkpt>
      <trkpt lat="45.65099" lon="6.11732">
        <ele>1689.65</ele>
        <time>2015-02-11T12:05:52Z</time>
      </trkpt>
      <trkpt lat="45.65108" lon="6.11729">
        <ele>1689.65</ele>
        <time>2015-02-11T12:06:01Z</time>
      </trkpt>
      <trkpt lat="45.65116" lon="6.11726">
        <ele>1690.62</ele>
        <time>2015-02-11T12:06:15Z</time>
      </trkpt>
      <trkpt lat="45.65125" lon="6.11725">
        <ele>1692.06</ele>
        <time>2015-02-11T12:06:27Z</time>
      </trkpt>
      <trkpt lat="45.65134" lon="6.11724">
        <ele>1693.98</ele>
        <time>2015-02-11T12:06:39Z</time>
      </trkpt>
      <trkpt lat="45.6514" lon="6.11725">
        <ele>1694.94</ele>
        <time>2015-02-11T12:06:46Z</time>
      </trkpt>
      <trkpt lat="45.65143" lon="6.11723">
        <ele>1695.9</ele>
        <time>2015-02-11T12:06:49Z</time>
      </trkpt>
      <trkpt lat="45.65151" lon="6.11719">
        <ele>1697.83</ele>
        <time>2015-02-11T12:07:01Z</time>
      </trkpt>
      <trkpt lat="45.65158" lon="6.11717">
        <ele>1699.75</ele>
        <time>2015-02-11T12:07:13Z</time>
      </trkpt>
      <trkpt lat="45.65166" lon="6.11715">
        <ele>1701.67</ele>
        <time>2015-02-11T12:07:22Z</time>
      </trkpt>
      <trkpt lat="45.65174" lon="6.11716">
        <ele>1703.59</ele>
        <time>2015-02-11T12:07:34Z</time>
      </trkpt>
      <trkpt lat="45.65182" lon="6.11715">
        <ele>1705.52</ele>
        <time>2015-02-11T12:07:47Z</time>
      </trkpt>
      <trkpt lat="45.65189" lon="6.11715">
        <ele>1707.92</ele>
        <time>2015-02-11T12:07:59Z</time>
      </trkpt>
      <trkpt lat="45.65197" lon="6.11716">
        <ele>1710.32</ele>
        <time>2015-02-11T12:08:11Z</time>
      </trkpt>
      <trkpt lat="45.65203" lon="6.11716">
        <ele>1712.25</ele>
        <time>2015-02-11T12:08:23Z</time>
      </trkpt>
      <trkpt lat="45.65205" lon="6.11707">
        <ele>1713.69</ele>
        <time>2015-02-11T12:08:33Z</time>
      </trkpt>
      <trkpt lat="45.65206" lon="6.11703">
        <ele>1714.17</ele>
        <time>2015-02-11T12:08:37Z</time>
      </trkpt>
      <trkpt lat="45.65206" lon="6.11692">
        <ele>1716.09</ele>
        <time>2015-02-11T12:08:49Z</time>
      </trkpt>
      <trkpt lat="45.65205" lon="6.11682">
        <ele>1718.01</ele>
        <time>2015-02-11T12:09:00Z</time>
      </trkpt>
      <trkpt lat="45.65204" lon="6.11675">
        <ele>1719.94</ele>
        <time>2015-02-11T12:09:10Z</time>
      </trkpt>
      <trkpt lat="45.65205" lon="6.11674">
        <ele>1720.42</ele>
        <time>2015-02-11T12:09:11Z</time>
      </trkpt>
      <trkpt lat="45.65211" lon="6.11676">
        <ele>1721.38</ele>
        <time>2015-02-11T12:09:19Z</time>
      </trkpt>
      <trkpt lat="45.65217" lon="6.11678">
        <ele>1722.82</ele>
        <time>2015-02-11T12:09:27Z</time>
      </trkpt>
      <trkpt lat="45.65222" lon="6.11678">
        <ele>1725.22</ele>
        <time>2015-02-11T12:09:37Z</time>
      </trkpt>
      <trkpt lat="45.65228" lon="6.11674">
        <ele>1726.67</ele>
        <time>2015-02-11T12:09:46Z</time>
      </trkpt>
      <trkpt lat="45.65232" lon="6.11673">
        <ele>1729.07</ele>
        <time>2015-02-11T12:09:56Z</time>
      </trkpt>
      <trkpt lat="45.65236" lon="6.11679">
        <ele>1731.95</ele>
        <time>2015-02-11T12:10:10Z</time>
      </trkpt>
      <trkpt lat="45.65238" lon="6.11676">
        <ele>1733.88</ele>
        <time>2015-02-11T12:10:21Z</time>
      </trkpt>
      <trkpt lat="45.65242" lon="6.11669">
        <ele>1736.28</ele>
        <time>2015-02-11T12:10:34Z</time>
      </trkpt>
      <trkpt lat="45.65246" lon="6.1167">
        <ele>1738.2</ele>
        <time>2015-02-11T12:10:46Z</time>
      </trkpt>
      <trkpt lat="45.6525" lon="6.11675">
        <ele>1740.12</ele>
        <time>2015-02-11T12:10:59Z</time>
      </trkpt>
      <trkpt lat="45.65255" lon="6.11679">
        <ele>1742.53</ele>
        <time>2015-02-11T12:11:11Z</time>
      </trkpt>
      <trkpt lat="45.65256" lon="6.1168">
        <ele>1743.01</ele>
        <time>2015-02-11T12:11:14Z</time>
      </trkpt>
      <trkpt lat="45.65262" lon="6.11684">
        <ele>1745.41</ele>
        <time>2015-02-11T12:11:27Z</time>
      </trkpt>
      <trkpt lat="45.65264" lon="6.11689">
        <ele>1747.81</ele>
        <time>2015-02-11T12:11:40Z</time>
      </trkpt>
      <trkpt lat="45.65265" lon="6.11683">
        <ele>1748.78</ele>
        <time>2015-02-11T12:11:51Z</time>
      </trkpt>
      <trkpt lat="45.65266" lon="6.11679">
        <ele>1750.22</ele>
        <time>2015-02-11T12:11:58Z</time>
      </trkpt>
      <trkpt lat="45.65267" lon="6.11672">
        <ele>1751.66</ele>
        <time>2015-02-11T12:12:07Z</time>
      </trkpt>
      <trkpt lat="45.65269" lon="6.11673">
        <ele>1752.62</ele>
        <time>2015-02-11T12:12:16Z</time>
      </trkpt>
      <trkpt lat="45.65273" lon="6.1168">
        <ele>1755.5</ele>
        <time>2015-02-11T12:12:30Z</time>
      </trkpt>
      <trkpt lat="45.65274" lon="6.11674">
        <ele>1756.47</ele>
        <time>2015-02-11T12:12:44Z</time>
      </trkpt>
      <trkpt lat="45.65274" lon="6.11662">
        <ele>1759.35</ele>
        <time>2015-02-11T12:12:57Z</time>
      </trkpt>
      <trkpt lat="45.65271" lon="6.11657">
        <ele>1760.79</ele>
        <time>2015-02-11T12:13:05Z</time>
      </trkpt>
      <trkpt lat="45.65272" lon="6.11656">
        <ele>1761.27</ele>
        <time>2015-02-11T12:13:07Z</time>
      </trkpt>
      <trkpt lat="45.65278" lon="6.11651">
        <ele>1763.68</ele>
        <time>2015-02-11T12:13:17Z</time>
      </trkpt>
      <trkpt lat="45.65285" lon="6.11644">
        <ele>1765.6</ele>
        <time>2015-02-11T12:13:29Z</time>
      </trkpt>
      <trkpt lat="45.65291" lon="6.1164">
        <ele>1767.52</ele>
        <time>2015-02-11T12:13:39Z</time>
      </trkpt>
      <trkpt lat="45.65294" lon="6.11637">
        <ele>1768.48</ele>
        <time>2015-02-11T12:13:44Z</time>
      </trkpt>
      <trkpt lat="45.65299" lon="6.11631">
        <ele>1770.41</ele>
        <time>2015-02-11T12:13:55Z</time>
      </trkpt>
      <trkpt lat="45.65305" lon="6.11626">
        <ele>1771.85</ele>
        <time>2015-02-11T12:14:04Z</time>
      </trkpt>
      <trkpt lat="45.65314" lon="6.11619">
        <ele>1772.81</ele>
        <time>2015-02-11T12:14:16Z</time>
      </trkpt>
      <trkpt lat="45.65327" lon="6.1161">
        <ele>1773.77</ele>
        <time>2015-02-11T12:14:32Z</time>
      </trkpt>
      <trkpt lat="45.65329" lon="6.11608">
        <ele>1774.25</ele>
        <time>2015-02-11T12:14:34Z</time>
      </trkpt>
      <trkpt lat="45.65342" lon="6.11604">
        <ele>1775.21</ele>
        <time>2015-02-11T12:14:47Z</time>
      </trkpt>
      <trkpt lat="45.65354" lon="6.11599">
        <ele>1777.13</ele>
        <time>2015-02-11T12:15:03Z</time>
      </trkpt>
      <trkpt lat="45.65355" lon="6.11599">
        <ele>1777.13</ele>
        <time>2015-02-11T12:15:18Z</time>
      </trkpt>
      <trkpt lat="45.65357" lon="6.11599">
        <ele>1777.13</ele>
        <time>2015-02-11T12:15:20Z</time>
      </trkpt>
      <trkpt lat="45.65367" lon="6.11602">
        <ele>1779.54</ele>
        <time>2015-02-11T12:15:35Z</time>
      </trkpt>
      <trkpt lat="45.65376" lon="6.11607">
        <ele>1781.94</ele>
        <time>2015-02-11T12:15:49Z</time>
      </trkpt>
      <trkpt lat="45.65385" lon="6.11608">
        <ele>1784.34</ele>
        <time>2015-02-11T12:16:14Z</time>
      </trkpt>
      <trkpt lat="45.65392" lon="6.11609">
        <ele>1786.27</ele>
        <time>2015-02-11T12:16:25Z</time>
      </trkpt>
      <trkpt lat="45.65402" lon="6.11608">
        <ele>1788.19</ele>
        <time>2015-02-11T12:16:38Z</time>
      </trkpt>
      <trkpt lat="45.6541" lon="6.11606">
        <ele>1790.11</ele>
        <time>2015-02-11T12:16:49Z</time>
      </trkpt>
      <trkpt lat="45.65416" lon="6.11604">
        <ele>1792.52</ele>
        <time>2015-02-11T12:16:59Z</time>
      </trkpt>
      <trkpt lat="45.65417" lon="6.11604">
        <ele>1793</ele>
        <time>2015-02-11T12:17:01Z</time>
      </trkpt>
      <trkpt lat="45.65425" lon="6.11603">
        <ele>1793.96</ele>
        <time>2015-02-11T12:17:11Z</time>
      </trkpt>
      <trkpt lat="45.65428" lon="6.11603">
        <ele>1794.92</ele>
        <time>2015-02-11T12:17:15Z</time>
      </trkpt>
      <trkpt lat="45.65437" lon="6.11604">
        <ele>1797.32</ele>
        <time>2015-02-11T12:17:27Z</time>
      </trkpt>
      <trkpt lat="45.65445" lon="6.11604">
        <ele>1799.73</ele>
        <time>2015-02-11T12:17:39Z</time>
      </trkpt>
      <trkpt lat="45.65446" lon="6.11604">
        <ele>1800.21</ele>
        <time>2015-02-11T12:17:40Z</time>
      </trkpt>
      <trkpt lat="45.6545" lon="6.11604">
        <ele>1801.17</ele>
        <time>2015-02-11T12:17:47Z</time>
      </trkpt>
      <trkpt lat="45.65457" lon="6.11607">
        <ele>1804.05</ele>
        <time>2015-02-11T12:17:59Z</time>
      </trkpt>
      <trkpt lat="45.65467" lon="6.1161">
        <ele>1806.94</ele>
        <time>2015-02-11T12:18:13Z</time>
      </trkpt>
      <trkpt lat="45.65476" lon="6.11613">
        <ele>1809.34</ele>
        <time>2015-02-11T12:18:29Z</time>
      </trkpt>
      <trkpt lat="45.65485" lon="6.11617">
        <ele>1812.22</ele>
        <time>2015-02-11T12:18:42Z</time>
      </trkpt>
      <trkpt lat="45.65493" lon="6.11619">
        <ele>1813.66</ele>
        <time>2015-02-11T12:18:54Z</time>
      </trkpt>
      <trkpt lat="45.65498" lon="6.1162">
        <ele>1815.59</ele>
        <time>2015-02-11T12:19:04Z</time>
      </trkpt>
      <trkpt lat="45.65506" lon="6.11621">
        <ele>1817.99</ele>
        <time>2015-02-11T12:19:17Z</time>
      </trkpt>
      <trkpt lat="45.65513" lon="6.11623">
        <ele>1819.91</ele>
        <time>2015-02-11T12:19:28Z</time>
      </trkpt>
      <trkpt lat="45.65518" lon="6.11624">
        <ele>1821.84</ele>
        <time>2015-02-11T12:19:41Z</time>
      </trkpt>
      <trkpt lat="45.65525" lon="6.11627">
        <ele>1822.8</ele>
        <time>2015-02-11T12:19:51Z</time>
      </trkpt>
      <trkpt lat="45.65532" lon="6.11628">
        <ele>1825.2</ele>
        <time>2015-02-11T12:20:01Z</time>
      </trkpt>
      <trkpt lat="45.65542" lon="6.11631">
        <ele>1828.08</ele>
        <time>2015-02-11T12:20:15Z</time>
      </trkpt>
      <trkpt lat="45.65546" lon="6.11632">
        <ele>1830.01</ele>
        <time>2015-02-11T12:20:28Z</time>
      </trkpt>
      <trkpt lat="45.65552" lon="6.11633">
        <ele>1831.45</ele>
        <time>2015-02-11T12:20:43Z</time>
      </trkpt>
      <trkpt lat="45.65559" lon="6.11633">
        <ele>1833.85</ele>
        <time>2015-02-11T12:20:53Z</time>
      </trkpt>
      <trkpt lat="45.65564" lon="6.11636">
        <ele>1835.29</ele>
        <time>2015-02-11T12:21:01Z</time>
      </trkpt>
      <trkpt lat="45.65569" lon="6.11637">
        <ele>1836.74</ele>
        <time>2015-02-11T12:21:10Z</time>
      </trkpt>
      <trkpt lat="45.65575" lon="6.11638">
        <ele>1838.66</ele>
        <time>2015-02-11T12:21:19Z</time>
      </trkpt>
      <trkpt lat="45.65579" lon="6.11638">
        <ele>1840.58</ele>
        <time>2015-02-11T12:21:30Z</time>
      </trkpt>
      <trkpt lat="45.6558" lon="6.11635">
        <ele>1841.06</ele>
        <time>2015-02-11T12:21:35Z</time>
      </trkpt>
      <trkpt lat="45.65582" lon="6.11631">
        <ele>1842.5</ele>
        <time>2015-02-11T12:21:39Z</time>
      </trkpt>
      <trkpt lat="45.65587" lon="6.11626">
        <ele>1844.43</ele>
        <time>2015-02-11T12:21:48Z</time>
      </trkpt>
      <trkpt lat="45.65593" lon="6.1163">
        <ele>1846.83</ele>
        <time>2015-02-11T12:21:59Z</time>
      </trkpt>
      <trkpt lat="45.65601" lon="6.11637">
        <ele>1849.71</ele>
        <time>2015-02-11T12:22:12Z</time>
      </trkpt>
      <trkpt lat="45.65609" lon="6.11641">
        <ele>1852.6</ele>
        <time>2015-02-11T12:22:25Z</time>
      </trkpt>
      <trkpt lat="45.65617" lon="6.11645">
        <ele>1855.48</ele>
        <time>2015-02-11T12:22:38Z</time>
      </trkpt>
      <trkpt lat="45.65625" lon="6.11649">
        <ele>1857.89</ele>
        <time>2015-02-11T12:22:50Z</time>
      </trkpt>
      <trkpt lat="45.65631" lon="6.11649">
        <ele>1859.81</ele>
        <time>2015-02-11T12:23:01Z</time>
      </trkpt>
      <trkpt lat="45.65638" lon="6.11652">
        <ele>1862.69</ele>
        <time>2015-02-11T12:23:12Z</time>
      </trkpt>
      <trkpt lat="45.65639" lon="6.11646">
        <ele>1864.61</ele>
        <time>2015-02-11T12:23:22Z</time>
      </trkpt>
      <trkpt lat="45.6564" lon="6.11638">
        <ele>1866.54</ele>
        <time>2015-02-11T12:23:30Z</time>
      </trkpt>
      <trkpt lat="45.65642" lon="6.11628">
        <ele>1868.94</ele>
        <time>2015-02-11T12:23:41Z</time>
      </trkpt>
      <trkpt lat="45.65645" lon="6.11618">
        <ele>1871.34</ele>
        <time>2015-02-11T12:23:54Z</time>
      </trkpt>
      <trkpt lat="45.65646" lon="6.11609">
        <ele>1872.79</ele>
        <time>2015-02-11T12:24:03Z</time>
      </trkpt>
      <trkpt lat="45.65649" lon="6.116">
        <ele>1875.67</ele>
        <time>2015-02-11T12:24:14Z</time>
      </trkpt>
      <trkpt lat="45.65651" lon="6.11597">
        <ele>1876.63</ele>
        <time>2015-02-11T12:24:19Z</time>
      </trkpt>
      <trkpt lat="45.65661" lon="6.11599">
        <ele>1879.51</ele>
        <time>2015-02-11T12:24:32Z</time>
      </trkpt>
      <trkpt lat="45.6567" lon="6.11607">
        <ele>1881.44</ele>
        <time>2015-02-11T12:24:46Z</time>
      </trkpt>
      <trkpt lat="45.65675" lon="6.11613">
        <ele>1883.84</ele>
        <time>2015-02-11T12:24:57Z</time>
      </trkpt>
      <trkpt lat="45.65683" lon="6.11617">
        <ele>1886.24</ele>
        <time>2015-02-11T12:25:09Z</time>
      </trkpt>
      <trkpt lat="45.65687" lon="6.11619">
        <ele>1887.21</ele>
        <time>2015-02-11T12:25:15Z</time>
      </trkpt>
      <trkpt lat="45.65689" lon="6.1162">
        <ele>1888.17</ele>
        <time>2015-02-11T12:25:17Z</time>
      </trkpt>
      <trkpt lat="45.65695" lon="6.11627">
        <ele>1890.09</ele>
        <time>2015-02-11T12:25:29Z</time>
      </trkpt>
      <trkpt lat="45.65696" lon="6.11627">
        <ele>1890.09</ele>
        <time>2015-02-11T12:25:30Z</time>
      </trkpt>
      <trkpt lat="45.65699" lon="6.11631">
        <ele>1892.01</ele>
        <time>2015-02-11T12:25:43Z</time>
      </trkpt>
      <trkpt lat="45.65699" lon="6.11632">
        <ele>1891.53</ele>
        <time>2015-02-11T12:26:11Z</time>
      </trkpt>
      <trkpt lat="45.65699" lon="6.11633">
        <ele>1891.53</ele>
        <time>2015-02-11T12:26:28Z</time>
      </trkpt>
      <trkpt lat="45.65702" lon="6.11633">
        <ele>1892.01</ele>
        <time>2015-02-11T12:26:53Z</time>
      </trkpt>
      <trkpt lat="45.657" lon="6.1163">
        <ele>1891.53</ele>
        <time>2015-02-11T12:27:17Z</time>
      </trkpt>
      <trkpt lat="45.657" lon="6.11628">
        <ele>1891.05</ele>
        <time>2015-02-11T12:27:37Z</time>
      </trkpt>
      <trkpt lat="45.657" lon="6.11632">
        <ele>1891.05</ele>
        <time>2015-02-11T12:28:17Z</time>
      </trkpt>
      <trkpt lat="45.65702" lon="6.11632">
        <ele>1890.57</ele>
        <time>2015-02-11T12:29:50Z</time>
      </trkpt>
      <trkpt lat="45.657" lon="6.1163">
        <ele>1891.05</ele>
        <time>2015-02-11T12:30:30Z</time>
      </trkpt>
      <trkpt lat="45.65701" lon="6.11629">
        <ele>1890.57</ele>
        <time>2015-02-11T12:30:57Z</time>
      </trkpt>
      <trkpt lat="45.65701" lon="6.11629">
        <ele>1890.57</ele>
        <time>2015-02-11T12:31:52Z</time>
      </trkpt>
      <trkpt lat="45.65701" lon="6.11634">
        <ele>1891.05</ele>
        <time>2015-02-11T12:33:14Z</time>
      </trkpt>
      <trkpt lat="45.657" lon="6.11635">
        <ele>1891.53</ele>
        <time>2015-02-11T12:34:37Z</time>
      </trkpt>
      <trkpt lat="45.65699" lon="6.11635">
        <ele>1892.01</ele>
        <time>2015-02-11T12:36:42Z</time>
      </trkpt>
      <trkpt lat="45.65699" lon="6.11637">
        <ele>1892.01</ele>
        <time>2015-02-11T12:38:06Z</time>
      </trkpt>
      <trkpt lat="45.65699" lon="6.11637">
        <ele>1892.01</ele>
        <time>2015-02-11T12:38:49Z</time>
      </trkpt>
      <trkpt lat="45.657" lon="6.11635">
        <ele>1892.49</ele>
        <time>2015-02-11T12:38:54Z</time>
      </trkpt>
      <trkpt lat="45.657" lon="6.11637">
        <ele>1892.01</ele>
        <time>2015-02-11T12:38:56Z</time>
      </trkpt>
      <trkpt lat="45.65693" lon="6.11642">
        <ele>1891.05</ele>
        <time>2015-02-11T12:38:58Z</time>
      </trkpt>
      <trkpt lat="45.65688" lon="6.11644">
        <ele>1890.09</ele>
        <time>2015-02-11T12:38:59Z</time>
      </trkpt>
      <trkpt lat="45.65667" lon="6.11638">
        <ele>1882.88</ele>
        <time>2015-02-11T12:39:02Z</time>
      </trkpt>
      <trkpt lat="45.65661" lon="6.11634">
        <ele>1879.51</ele>
        <time>2015-02-11T12:39:03Z</time>
      </trkpt>
      <trkpt lat="45.65637" lon="6.11629">
        <ele>1871.82</ele>
        <time>2015-02-11T12:39:06Z</time>
      </trkpt>
      <trkpt lat="45.6563" lon="6.11624">
        <ele>1871.82</ele>
        <time>2015-02-11T12:39:07Z</time>
      </trkpt>
      <trkpt lat="45.65623" lon="6.1162">
        <ele>1868.46</ele>
        <time>2015-02-11T12:39:08Z</time>
      </trkpt>
      <trkpt lat="45.6561" lon="6.11615">
        <ele>1862.69</ele>
        <time>2015-02-11T12:39:10Z</time>
      </trkpt>
      <trkpt lat="45.65597" lon="6.11611">
        <ele>1858.37</ele>
        <time>2015-02-11T12:39:12Z</time>
      </trkpt>
      <trkpt lat="45.65582" lon="6.11607">
        <ele>1852.12</ele>
        <time>2015-02-11T12:39:14Z</time>
      </trkpt>
      <trkpt lat="45.65574" lon="6.11605">
        <ele>1850.19</ele>
        <time>2015-02-11T12:39:15Z</time>
      </trkpt>
      <trkpt lat="45.65554" lon="6.11607">
        <ele>1846.35</ele>
        <time>2015-02-11T12:39:17Z</time>
      </trkpt>
      <trkpt lat="45.65545" lon="6.11607">
        <ele>1842.98</ele>
        <time>2015-02-11T12:39:18Z</time>
      </trkpt>
      <trkpt lat="45.65536" lon="6.11609">
        <ele>1840.1</ele>
        <time>2015-02-11T12:39:19Z</time>
      </trkpt>
      <trkpt lat="45.65518" lon="6.11604">
        <ele>1832.89</ele>
        <time>2015-02-11T12:39:21Z</time>
      </trkpt>
      <trkpt lat="45.655" lon="6.11601">
        <ele>1827.12</ele>
        <time>2015-02-11T12:39:23Z</time>
      </trkpt>
      <trkpt lat="45.65492" lon="6.11598">
        <ele>1823.76</ele>
        <time>2015-02-11T12:39:24Z</time>
      </trkpt>
      <trkpt lat="45.65483" lon="6.11596">
        <ele>1822.32</ele>
        <time>2015-02-11T12:39:25Z</time>
      </trkpt>
      <trkpt lat="45.65464" lon="6.11593">
        <ele>1818.47</ele>
        <time>2015-02-11T12:39:27Z</time>
      </trkpt>
      <trkpt lat="45.65455" lon="6.11587">
        <ele>1815.11</ele>
        <time>2015-02-11T12:39:28Z</time>
      </trkpt>
      <trkpt lat="45.65431" lon="6.11588">
        <ele>1806.94</ele>
        <time>2015-02-11T12:39:31Z</time>
      </trkpt>
      <trkpt lat="45.65423" lon="6.11584">
        <ele>1805.01</ele>
        <time>2015-02-11T12:39:32Z</time>
      </trkpt>
      <trkpt lat="45.65406" lon="6.11582">
        <ele>1799.24</ele>
        <time>2015-02-11T12:39:34Z</time>
      </trkpt>
      <trkpt lat="45.65398" lon="6.11577">
        <ele>1799.24</ele>
        <time>2015-02-11T12:39:35Z</time>
      </trkpt>
      <trkpt lat="45.65389" lon="6.11573">
        <ele>1795.88</ele>
        <time>2015-02-11T12:39:36Z</time>
      </trkpt>
      <trkpt lat="45.65375" lon="6.11562">
        <ele>1791.55</ele>
        <time>2015-02-11T12:39:38Z</time>
      </trkpt>
      <trkpt lat="45.65348" lon="6.11582">
        <ele>1784.34</ele>
        <time>2015-02-11T12:39:42Z</time>
      </trkpt>
      <trkpt lat="45.65334" lon="6.11595">
        <ele>1782.9</ele>
        <time>2015-02-11T12:39:44Z</time>
      </trkpt>
      <trkpt lat="45.65325" lon="6.11612">
        <ele>1779.06</ele>
        <time>2015-02-11T12:39:46Z</time>
      </trkpt>
      <trkpt lat="45.6531" lon="6.11645">
        <ele>1776.17</ele>
        <time>2015-02-11T12:39:51Z</time>
      </trkpt>
      <trkpt lat="45.653" lon="6.11649">
        <ele>1774.25</ele>
        <time>2015-02-11T12:40:00Z</time>
      </trkpt>
      <trkpt lat="45.653" lon="6.1165">
        <ele>1774.25</ele>
        <time>2015-02-11T12:40:41Z</time>
      </trkpt>
      <trkpt lat="45.65294" lon="6.11669">
        <ele>1772.81</ele>
        <time>2015-02-11T12:40:54Z</time>
      </trkpt>
      <trkpt lat="45.65292" lon="6.11712">
        <ele>1769.44</ele>
        <time>2015-02-11T12:41:04Z</time>
      </trkpt>
      <trkpt lat="45.6528" lon="6.11756">
        <ele>1766.08</ele>
        <time>2015-02-11T12:41:13Z</time>
      </trkpt>
      <trkpt lat="45.65267" lon="6.1176">
        <ele>1762.23</ele>
        <time>2015-02-11T12:41:17Z</time>
      </trkpt>
      <trkpt lat="45.65258" lon="6.11759">
        <ele>1757.91</ele>
        <time>2015-02-11T12:41:19Z</time>
      </trkpt>
      <trkpt lat="45.65252" lon="6.11762">
        <ele>1754.54</ele>
        <time>2015-02-11T12:41:20Z</time>
      </trkpt>
      <trkpt lat="45.65247" lon="6.11759">
        <ele>1751.18</ele>
        <time>2015-02-11T12:41:21Z</time>
      </trkpt>
      <trkpt lat="45.6524" lon="6.11758">
        <ele>1747.33</ele>
        <time>2015-02-11T12:41:22Z</time>
      </trkpt>
      <trkpt lat="45.65233" lon="6.11765">
        <ele>1743.97</ele>
        <time>2015-02-11T12:41:23Z</time>
      </trkpt>
      <trkpt lat="45.65207" lon="6.11768">
        <ele>1734.84</ele>
        <time>2015-02-11T12:41:26Z</time>
      </trkpt>
      <trkpt lat="45.65197" lon="6.11756">
        <ele>1729.55</ele>
        <time>2015-02-11T12:41:27Z</time>
      </trkpt>
      <trkpt lat="45.65172" lon="6.1174">
        <ele>1720.9</ele>
        <time>2015-02-11T12:41:29Z</time>
      </trkpt>
      <trkpt lat="45.65157" lon="6.11736">
        <ele>1716.57</ele>
        <time>2015-02-11T12:41:30Z</time>
      </trkpt>
      <trkpt lat="45.65143" lon="6.11733">
        <ele>1710.8</ele>
        <time>2015-02-11T12:41:31Z</time>
      </trkpt>
      <trkpt lat="45.65114" lon="6.11734">
        <ele>1701.67</ele>
        <time>2015-02-11T12:41:33Z</time>
      </trkpt>
      <trkpt lat="45.651" lon="6.11735">
        <ele>1696.86</ele>
        <time>2015-02-11T12:41:34Z</time>
      </trkpt>
      <trkpt lat="45.65087" lon="6.11736">
        <ele>1696.86</ele>
        <time>2015-02-11T12:41:35Z</time>
      </trkpt>
      <trkpt lat="45.65075" lon="6.11738">
        <ele>1692.54</ele>
        <time>2015-02-11T12:41:36Z</time>
      </trkpt>
      <trkpt lat="45.65046" lon="6.11742">
        <ele>1689.17</ele>
        <time>2015-02-11T12:41:39Z</time>
      </trkpt>
      <trkpt lat="45.65038" lon="6.11743">
        <ele>1688.69</ele>
        <time>2015-02-11T12:41:40Z</time>
      </trkpt>
      <trkpt lat="45.65024" lon="6.11745">
        <ele>1688.69</ele>
        <time>2015-02-11T12:41:42Z</time>
      </trkpt>
      <trkpt lat="45.65001" lon="6.11753">
        <ele>1690.14</ele>
        <time>2015-02-11T12:41:51Z</time>
      </trkpt>
      <trkpt lat="45.65" lon="6.11755">
        <ele>1690.62</ele>
        <time>2015-02-11T12:42:44Z</time>
      </trkpt>
      <trkpt lat="45.65" lon="6.11754">
        <ele>1690.62</ele>
        <time>2015-02-11T12:43:16Z</time>
      </trkpt>
      <trkpt lat="45.64996" lon="6.11757">
        <ele>1693.5</ele>
        <time>2015-02-11T12:45:43Z</time>
      </trkpt>
      <trkpt lat="45.64975" lon="6.11769">
        <ele>1696.86</ele>
        <time>2015-02-11T12:46:07Z</time>
      </trkpt>
      <trkpt lat="45.64959" lon="6.11774">
        <ele>1696.86</ele>
        <time>2015-02-11T12:46:20Z</time>
      </trkpt>
      <trkpt lat="45.6495" lon="6.11777">
        <ele>1696.86</ele>
        <time>2015-02-11T12:46:32Z</time>
      </trkpt>
      <trkpt lat="45.64948" lon="6.11778">
        <ele>1696.86</ele>
        <time>2015-02-11T12:47:00Z</time>
      </trkpt>
      <trkpt lat="45.64933" lon="6.11783">
        <ele>1698.31</ele>
        <time>2015-02-11T12:47:33Z</time>
      </trkpt>
      <trkpt lat="45.64922" lon="6.11789">
        <ele>1700.23</ele>
        <time>2015-02-11T12:47:46Z</time>
      </trkpt>
      <trkpt lat="45.64921" lon="6.11791">
        <ele>1700.71</ele>
        <time>2015-02-11T12:47:48Z</time>
      </trkpt>
      <trkpt lat="45.64915" lon="6.11796">
        <ele>1702.15</ele>
        <time>2015-02-11T12:47:58Z</time>
      </trkpt>
      <trkpt lat="45.64915" lon="6.11809">
        <ele>1705.04</ele>
        <time>2015-02-11T12:48:13Z</time>
      </trkpt>
      <trkpt lat="45.64916" lon="6.11813">
        <ele>1706.48</ele>
        <time>2015-02-11T12:48:18Z</time>
      </trkpt>
      <trkpt lat="45.64918" lon="6.1182">
        <ele>1707.92</ele>
        <time>2015-02-11T12:48:28Z</time>
      </trkpt>
      <trkpt lat="45.64919" lon="6.11823">
        <ele>1708.4</ele>
        <time>2015-02-11T12:48:33Z</time>
      </trkpt>
      <trkpt lat="45.64923" lon="6.1183">
        <ele>1710.8</ele>
        <time>2015-02-11T12:48:43Z</time>
      </trkpt>
      <trkpt lat="45.64925" lon="6.11833">
        <ele>1711.76</ele>
        <time>2015-02-11T12:48:49Z</time>
      </trkpt>
      <trkpt lat="45.6493" lon="6.11838">
        <ele>1713.21</ele>
        <time>2015-02-11T12:48:58Z</time>
      </trkpt>
      <trkpt lat="45.64935" lon="6.11842">
        <ele>1715.13</ele>
        <time>2015-02-11T12:49:08Z</time>
      </trkpt>
      <trkpt lat="45.64941" lon="6.11847">
        <ele>1717.53</ele>
        <time>2015-02-11T12:49:20Z</time>
      </trkpt>
      <trkpt lat="45.64944" lon="6.1185">
        <ele>1718.97</ele>
        <time>2015-02-11T12:49:29Z</time>
      </trkpt>
      <trkpt lat="45.64943" lon="6.11849">
        <ele>1718.97</ele>
        <time>2015-02-11T12:49:43Z</time>
      </trkpt>
      <trkpt lat="45.64949" lon="6.11855">
        <ele>1720.9</ele>
        <time>2015-02-11T12:51:17Z</time>
      </trkpt>
      <trkpt lat="45.64954" lon="6.1186">
        <ele>1722.82</ele>
        <time>2015-02-11T12:51:27Z</time>
      </trkpt>
      <trkpt lat="45.64959" lon="6.11865">
        <ele>1725.22</ele>
        <time>2015-02-11T12:51:38Z</time>
      </trkpt>
      <trkpt lat="45.64958" lon="6.1187">
        <ele>1726.67</ele>
        <time>2015-02-11T12:51:47Z</time>
      </trkpt>
      <trkpt lat="45.64952" lon="6.11876">
        <ele>1728.59</ele>
        <time>2015-02-11T12:52:06Z</time>
      </trkpt>
      <trkpt lat="45.64947" lon="6.11883">
        <ele>1730.03</ele>
        <time>2015-02-11T12:52:24Z</time>
      </trkpt>
      <trkpt lat="45.64946" lon="6.11886">
        <ele>1732.43</ele>
        <time>2015-02-11T12:52:41Z</time>
      </trkpt>
      <trkpt lat="45.64951" lon="6.11893">
        <ele>1734.36</ele>
        <time>2015-02-11T12:52:54Z</time>
      </trkpt>
      <trkpt lat="45.64955" lon="6.11896">
        <ele>1735.8</ele>
        <time>2015-02-11T12:53:02Z</time>
      </trkpt>
      <trkpt lat="45.64957" lon="6.11897">
        <ele>1737.24</ele>
        <time>2015-02-11T12:53:08Z</time>
      </trkpt>
      <trkpt lat="45.64964" lon="6.11902">
        <ele>1738.68</ele>
        <time>2015-02-11T12:53:18Z</time>
      </trkpt>
      <trkpt lat="45.64968" lon="6.11908">
        <ele>1740.6</ele>
        <time>2015-02-11T12:53:28Z</time>
      </trkpt>
      <trkpt lat="45.64968" lon="6.11908">
        <ele>1741.08</ele>
        <time>2015-02-11T12:53:29Z</time>
      </trkpt>
      <trkpt lat="45.64974" lon="6.11919">
        <ele>1742.05</ele>
        <time>2015-02-11T12:53:42Z</time>
      </trkpt>
      <trkpt lat="45.64973" lon="6.11924">
        <ele>1743.97</ele>
        <time>2015-02-11T12:53:55Z</time>
      </trkpt>
      <trkpt lat="45.64967" lon="6.11928">
        <ele>1746.37</ele>
        <time>2015-02-11T12:54:17Z</time>
      </trkpt>
      <trkpt lat="45.64957" lon="6.11938">
        <ele>1749.26</ele>
        <time>2015-02-11T12:54:41Z</time>
      </trkpt>
      <trkpt lat="45.64964" lon="6.11946">
        <ele>1751.66</ele>
        <time>2015-02-11T12:54:59Z</time>
      </trkpt>
      <trkpt lat="45.6497" lon="6.11951">
        <ele>1754.06</ele>
        <time>2015-02-11T12:55:17Z</time>
      </trkpt>
      <trkpt lat="45.64974" lon="6.11954">
        <ele>1755.02</ele>
        <time>2015-02-11T12:55:37Z</time>
      </trkpt>
      <trkpt lat="45.64981" lon="6.1196">
        <ele>1756.95</ele>
        <time>2015-02-11T12:55:54Z</time>
      </trkpt>
      <trkpt lat="45.64977" lon="6.11961">
        <ele>1758.39</ele>
        <time>2015-02-11T12:56:07Z</time>
      </trkpt>
      <trkpt lat="45.64969" lon="6.11965">
        <ele>1761.27</ele>
        <time>2015-02-11T12:56:25Z</time>
      </trkpt>
      <trkpt lat="45.64967" lon="6.1197">
        <ele>1764.16</ele>
        <time>2015-02-11T12:56:46Z</time>
      </trkpt>
      <trkpt lat="45.64976" lon="6.1198">
        <ele>1766.08</ele>
        <time>2015-02-11T12:57:04Z</time>
      </trkpt>
      <trkpt lat="45.64981" lon="6.11984">
        <ele>1767.52</ele>
        <time>2015-02-11T12:57:13Z</time>
      </trkpt>
      <trkpt lat="45.64976" lon="6.11982">
        <ele>1769.44</ele>
        <time>2015-02-11T12:57:31Z</time>
      </trkpt>
      <trkpt lat="45.6497" lon="6.11982">
        <ele>1770.89</ele>
        <time>2015-02-11T12:57:52Z</time>
      </trkpt>
      <trkpt lat="45.64977" lon="6.11993">
        <ele>1774.25</ele>
        <time>2015-02-11T12:58:16Z</time>
      </trkpt>
      <trkpt lat="45.64967" lon="6.11994">
        <ele>1776.65</ele>
        <time>2015-02-11T12:58:37Z</time>
      </trkpt>
      <trkpt lat="45.64955" lon="6.11989">
        <ele>1779.54</ele>
        <time>2015-02-11T12:58:58Z</time>
      </trkpt>
      <trkpt lat="45.64948" lon="6.11984">
        <ele>1782.42</ele>
        <time>2015-02-11T12:59:23Z</time>
      </trkpt>
      <trkpt lat="45.64954" lon="6.11991">
        <ele>1783.38</ele>
        <time>2015-02-11T12:59:39Z</time>
      </trkpt>
      <trkpt lat="45.64956" lon="6.12001">
        <ele>1785.31</ele>
        <time>2015-02-11T12:59:51Z</time>
      </trkpt>
      <trkpt lat="45.64955" lon="6.12001">
        <ele>1786.27</ele>
        <time>2015-02-11T13:00:07Z</time>
      </trkpt>
      <trkpt lat="45.64949" lon="6.12001">
        <ele>1789.15</ele>
        <time>2015-02-11T13:00:25Z</time>
      </trkpt>
      <trkpt lat="45.64936" lon="6.11996">
        <ele>1792.03</ele>
        <time>2015-02-11T13:00:50Z</time>
      </trkpt>
      <trkpt lat="45.64929" lon="6.11989">
        <ele>1794.92</ele>
        <time>2015-02-11T13:01:07Z</time>
      </trkpt>
      <trkpt lat="45.64919" lon="6.11984">
        <ele>1797.8</ele>
        <time>2015-02-11T13:01:25Z</time>
      </trkpt>
      <trkpt lat="45.64909" lon="6.11983">
        <ele>1801.17</ele>
        <time>2015-02-11T13:01:40Z</time>
      </trkpt>
      <trkpt lat="45.64907" lon="6.11985">
        <ele>1804.05</ele>
        <time>2015-02-11T13:02:01Z</time>
      </trkpt>
      <trkpt lat="45.64912" lon="6.11999">
        <ele>1806.94</ele>
        <time>2015-02-11T13:02:20Z</time>
      </trkpt>
      <trkpt lat="45.64908" lon="6.12">
        <ele>1809.82</ele>
        <time>2015-02-11T13:02:40Z</time>
      </trkpt>
      <trkpt lat="45.64901" lon="6.12">
        <ele>1812.7</ele>
        <time>2015-02-11T13:02:57Z</time>
      </trkpt>
      <trkpt lat="45.64893" lon="6.12">
        <ele>1816.07</ele>
        <time>2015-02-11T13:03:12Z</time>
      </trkpt>
      <trkpt lat="45.64884" lon="6.12">
        <ele>1818.95</ele>
        <time>2015-02-11T13:03:30Z</time>
      </trkpt>
      <trkpt lat="45.64875" lon="6.11999">
        <ele>1822.32</ele>
        <time>2015-02-11T13:03:46Z</time>
      </trkpt>
      <trkpt lat="45.64869" lon="6.11999">
        <ele>1825.2</ele>
        <time>2015-02-11T13:04:04Z</time>
      </trkpt>
      <trkpt lat="45.64863" lon="6.12">
        <ele>1828.08</ele>
        <time>2015-02-11T13:04:22Z</time>
      </trkpt>
      <trkpt lat="45.64852" lon="6.12003">
        <ele>1831.45</ele>
        <time>2015-02-11T13:04:45Z</time>
      </trkpt>
      <trkpt lat="45.6484" lon="6.12006">
        <ele>1834.33</ele>
        <time>2015-02-11T13:05:03Z</time>
      </trkpt>
      <trkpt lat="45.64827" lon="6.12009">
        <ele>1837.22</ele>
        <time>2015-02-11T13:05:22Z</time>
      </trkpt>
      <trkpt lat="45.64818" lon="6.12012">
        <ele>1840.58</ele>
        <time>2015-02-11T13:05:37Z</time>
      </trkpt>
      <trkpt lat="45.64807" lon="6.12014">
        <ele>1843.47</ele>
        <time>2015-02-11T13:05:54Z</time>
      </trkpt>
      <trkpt lat="45.64807" lon="6.12019">
        <ele>1845.39</ele>
        <time>2015-02-11T13:06:09Z</time>
      </trkpt>
      <trkpt lat="45.64814" lon="6.12025">
        <ele>1847.79</ele>
        <time>2015-02-11T13:06:23Z</time>
      </trkpt>
      <trkpt lat="45.64805" lon="6.12025">
        <ele>1849.71</ele>
        <time>2015-02-11T13:06:42Z</time>
      </trkpt>
      <trkpt lat="45.64794" lon="6.12024">
        <ele>1852.6</ele>
        <time>2015-02-11T13:06:58Z</time>
      </trkpt>
      <trkpt lat="45.64783" lon="6.1202">
        <ele>1855.96</ele>
        <time>2015-02-11T13:07:15Z</time>
      </trkpt>
      <trkpt lat="45.64772" lon="6.12017">
        <ele>1858.85</ele>
        <time>2015-02-11T13:07:31Z</time>
      </trkpt>
      <trkpt lat="45.64768" lon="6.12015">
        <ele>1859.33</ele>
        <time>2015-02-11T13:07:35Z</time>
      </trkpt>
      <trkpt lat="45.64757" lon="6.12004">
        <ele>1862.69</ele>
        <time>2015-02-11T13:07:52Z</time>
      </trkpt>
      <trkpt lat="45.64746" lon="6.11997">
        <ele>1865.58</ele>
        <time>2015-02-11T13:08:09Z</time>
      </trkpt>
      <trkpt lat="45.64747" lon="6.11998">
        <ele>1866.54</ele>
        <time>2015-02-11T13:08:14Z</time>
      </trkpt>
      <trkpt lat="45.64749" lon="6.12008">
        <ele>1867.98</ele>
        <time>2015-02-11T13:08:26Z</time>
      </trkpt>
      <trkpt lat="45.64754" lon="6.12017">
        <ele>1869.42</ele>
        <time>2015-02-11T13:08:38Z</time>
      </trkpt>
      <trkpt lat="45.64761" lon="6.12028">
        <ele>1871.34</ele>
        <time>2015-02-11T13:08:52Z</time>
      </trkpt>
      <trkpt lat="45.64763" lon="6.12031">
        <ele>1872.3</ele>
        <time>2015-02-11T13:08:57Z</time>
      </trkpt>
      <trkpt lat="45.64769" lon="6.1204">
        <ele>1874.23</ele>
        <time>2015-02-11T13:09:10Z</time>
      </trkpt>
      <trkpt lat="45.64772" lon="6.12044">
        <ele>1876.15</ele>
        <time>2015-02-11T13:09:21Z</time>
      </trkpt>
      <trkpt lat="45.64761" lon="6.1204">
        <ele>1879.03</ele>
        <time>2015-02-11T13:09:40Z</time>
      </trkpt>
      <trkpt lat="45.64764" lon="6.12046">
        <ele>1880.48</ele>
        <time>2015-02-11T13:09:58Z</time>
      </trkpt>
      <trkpt lat="45.64765" lon="6.1205">
        <ele>1882.88</ele>
        <time>2015-02-11T13:10:11Z</time>
      </trkpt>
      <trkpt lat="45.64759" lon="6.12051">
        <ele>1885.28</ele>
        <time>2015-02-11T13:10:25Z</time>
      </trkpt>
      <trkpt lat="45.64753" lon="6.12049">
        <ele>1888.17</ele>
        <time>2015-02-11T13:10:41Z</time>
      </trkpt>
      <trkpt lat="45.64755" lon="6.12052">
        <ele>1888.65</ele>
        <time>2015-02-11T13:10:47Z</time>
      </trkpt>
      <trkpt lat="45.64758" lon="6.12057">
        <ele>1890.09</ele>
        <time>2015-02-11T13:10:57Z</time>
      </trkpt>
      <trkpt lat="45.64764" lon="6.12065">
        <ele>1892.01</ele>
        <time>2015-02-11T13:11:09Z</time>
      </trkpt>
      <trkpt lat="45.64772" lon="6.12073">
        <ele>1892.49</ele>
        <time>2015-02-11T13:11:23Z</time>
      </trkpt>
      <trkpt lat="45.64781" lon="6.12086">
        <ele>1895.38</ele>
        <time>2015-02-11T13:11:39Z</time>
      </trkpt>
      <trkpt lat="45.64785" lon="6.12092">
        <ele>1896.82</ele>
        <time>2015-02-11T13:11:48Z</time>
      </trkpt>
      <trkpt lat="45.64787" lon="6.12095">
        <ele>1898.74</ele>
        <time>2015-02-11T13:12:12Z</time>
      </trkpt>
      <trkpt lat="45.64788" lon="6.12095">
        <ele>1899.22</ele>
        <time>2015-02-11T13:12:34Z</time>
      </trkpt>
      <trkpt lat="45.6479" lon="6.12097">
        <ele>1899.7</ele>
        <time>2015-02-11T13:12:42Z</time>
      </trkpt>
      <trkpt lat="45.64788" lon="6.12101">
        <ele>1901.63</ele>
        <time>2015-02-11T13:12:54Z</time>
      </trkpt>
      <trkpt lat="45.64791" lon="6.12105">
        <ele>1903.07</ele>
        <time>2015-02-11T13:13:09Z</time>
      </trkpt>
      <trkpt lat="45.64789" lon="6.12108">
        <ele>1903.07</ele>
        <time>2015-02-11T13:13:29Z</time>
      </trkpt>
      <trkpt lat="45.64784" lon="6.12111">
        <ele>1905.95</ele>
        <time>2015-02-11T13:13:59Z</time>
      </trkpt>
      <trkpt lat="45.64783" lon="6.12109">
        <ele>1906.43</ele>
        <time>2015-02-11T13:14:22Z</time>
      </trkpt>
      <trkpt lat="45.64784" lon="6.12109">
        <ele>1906.91</ele>
        <time>2015-02-11T13:15:42Z</time>
      </trkpt>
      <trkpt lat="45.64783" lon="6.12109">
        <ele>1906.43</ele>
        <time>2015-02-11T13:16:26Z</time>
      </trkpt>
      <trkpt lat="45.64783" lon="6.12109">
        <ele>1906.43</ele>
        <time>2015-02-11T13:17:22Z</time>
      </trkpt>
      <trkpt lat="45.64784" lon="6.12112">
        <ele>1906.91</ele>
        <time>2015-02-11T13:21:40Z</time>
      </trkpt>
      <trkpt lat="45.64785" lon="6.12113">
        <ele>1906.43</ele>
        <time>2015-02-11T13:23:49Z</time>
      </trkpt>
      <trkpt lat="45.64796" lon="6.1212">
        <ele>1903.07</ele>
        <time>2015-02-11T13:24:01Z</time>
      </trkpt>
      <trkpt lat="45.64797" lon="6.12123">
        <ele>1902.59</ele>
        <time>2015-02-11T13:24:16Z</time>
      </trkpt>
      <trkpt lat="45.64799" lon="6.12124">
        <ele>1902.59</ele>
        <time>2015-02-11T13:24:59Z</time>
      </trkpt>
      <trkpt lat="45.64802" lon="6.12124">
        <ele>1903.07</ele>
        <time>2015-02-11T13:26:03Z</time>
      </trkpt>
      <trkpt lat="45.64809" lon="6.1213">
        <ele>1902.59</ele>
        <time>2015-02-11T13:29:23Z</time>
      </trkpt>
      <trkpt lat="45.64811" lon="6.12152">
        <ele>1899.7</ele>
        <time>2015-02-11T13:29:33Z</time>
      </trkpt>
      <trkpt lat="45.64809" lon="6.12154">
        <ele>1899.22</ele>
        <time>2015-02-11T13:29:40Z</time>
      </trkpt>
      <trkpt lat="45.64805" lon="6.12162">
        <ele>1898.74</ele>
        <time>2015-02-11T13:29:43Z</time>
      </trkpt>
      <trkpt lat="45.64796" lon="6.12163">
        <ele>1894.42</ele>
        <time>2015-02-11T13:29:46Z</time>
      </trkpt>
      <trkpt lat="45.64789" lon="6.12162">
        <ele>1889.13</ele>
        <time>2015-02-11T13:29:48Z</time>
      </trkpt>
      <trkpt lat="45.64786" lon="6.1216">
        <ele>1889.13</ele>
        <time>2015-02-11T13:29:49Z</time>
      </trkpt>
      <trkpt lat="45.64783" lon="6.12158">
        <ele>1886.72</ele>
        <time>2015-02-11T13:29:50Z</time>
      </trkpt>
      <trkpt lat="45.64774" lon="6.12152">
        <ele>1879.51</ele>
        <time>2015-02-11T13:29:53Z</time>
      </trkpt>
      <trkpt lat="45.64772" lon="6.12143">
        <ele>1876.15</ele>
        <time>2015-02-11T13:29:55Z</time>
      </trkpt>
      <trkpt lat="45.64769" lon="6.12138">
        <ele>1872.79</ele>
        <time>2015-02-11T13:29:58Z</time>
      </trkpt>
      <trkpt lat="45.64769" lon="6.12138">
        <ele>1872.79</ele>
        <time>2015-02-11T13:29:59Z</time>
      </trkpt>
      <trkpt lat="45.64765" lon="6.12146">
        <ele>1870.86</ele>
        <time>2015-02-11T13:30:10Z</time>
      </trkpt>
      <trkpt lat="45.64758" lon="6.12146">
        <ele>1866.54</ele>
        <time>2015-02-11T13:30:13Z</time>
      </trkpt>
      <trkpt lat="45.64757" lon="6.12142">
        <ele>1862.69</ele>
        <time>2015-02-11T13:30:16Z</time>
      </trkpt>
      <trkpt lat="45.64757" lon="6.12143">
        <ele>1862.21</ele>
        <time>2015-02-11T13:30:18Z</time>
      </trkpt>
      <trkpt lat="45.64757" lon="6.12143">
        <ele>1862.21</ele>
        <time>2015-02-11T13:30:22Z</time>
      </trkpt>
      <trkpt lat="45.64757" lon="6.12153">
        <ele>1859.33</ele>
        <time>2015-02-11T13:30:35Z</time>
      </trkpt>
      <trkpt lat="45.64758" lon="6.1215">
        <ele>1859.33</ele>
        <time>2015-02-11T13:30:54Z</time>
      </trkpt>
      <trkpt lat="45.64746" lon="6.12149">
        <ele>1855.96</ele>
        <time>2015-02-11T13:30:59Z</time>
      </trkpt>
      <trkpt lat="45.64738" lon="6.12159">
        <ele>1853.08</ele>
        <time>2015-02-11T13:31:03Z</time>
      </trkpt>
      <trkpt lat="45.64732" lon="6.12166">
        <ele>1848.75</ele>
        <time>2015-02-11T13:31:06Z</time>
      </trkpt>
      <trkpt lat="45.64728" lon="6.12165">
        <ele>1845.39</ele>
        <time>2015-02-11T13:31:08Z</time>
      </trkpt>
      <trkpt lat="45.64725" lon="6.12165">
        <ele>1842.02</ele>
        <time>2015-02-11T13:31:12Z</time>
      </trkpt>
      <trkpt lat="45.64712" lon="6.12175">
        <ele>1839.14</ele>
        <time>2015-02-11T13:31:17Z</time>
      </trkpt>
      <trkpt lat="45.64706" lon="6.12175">
        <ele>1835.29</ele>
        <time>2015-02-11T13:31:19Z</time>
      </trkpt>
      <trkpt lat="45.64699" lon="6.1217">
        <ele>1831.45</ele>
        <time>2015-02-11T13:31:22Z</time>
      </trkpt>
      <trkpt lat="45.64685" lon="6.12156">
        <ele>1828.56</ele>
        <time>2015-02-11T13:31:27Z</time>
      </trkpt>
      <trkpt lat="45.64672" lon="6.12152">
        <ele>1825.2</ele>
        <time>2015-02-11T13:31:31Z</time>
      </trkpt>
      <trkpt lat="45.64654" lon="6.12146">
        <ele>1820.87</ele>
        <time>2015-02-11T13:31:35Z</time>
      </trkpt>
      <trkpt lat="45.64646" lon="6.12138">
        <ele>1817.51</ele>
        <time>2015-02-11T13:31:37Z</time>
      </trkpt>
      <trkpt lat="45.64637" lon="6.12136">
        <ele>1815.59</ele>
        <time>2015-02-11T13:31:40Z</time>
      </trkpt>
      <trkpt lat="45.6462" lon="6.12138">
        <ele>1812.22</ele>
        <time>2015-02-11T13:31:45Z</time>
      </trkpt>
      <trkpt lat="45.64596" lon="6.12144">
        <ele>1808.86</ele>
        <time>2015-02-11T13:31:52Z</time>
      </trkpt>
      <trkpt lat="45.64577" lon="6.12154">
        <ele>1805.49</ele>
        <time>2015-02-11T13:31:58Z</time>
      </trkpt>
      <trkpt lat="45.64563" lon="6.12158">
        <ele>1802.61</ele>
        <time>2015-02-11T13:32:10Z</time>
      </trkpt>
      <trkpt lat="45.64564" lon="6.12158">
        <ele>1803.09</ele>
        <time>2015-02-11T13:37:13Z</time>
      </trkpt>
      <trkpt lat="45.64568" lon="6.12164">
        <ele>1802.61</ele>
        <time>2015-02-11T13:37:15Z</time>
      </trkpt>
      <trkpt lat="45.64568" lon="6.12181">
        <ele>1798.28</ele>
        <time>2015-02-11T13:37:18Z</time>
      </trkpt>
      <trkpt lat="45.64569" lon="6.1219">
        <ele>1792.52</ele>
        <time>2015-02-11T13:37:20Z</time>
      </trkpt>
      <trkpt lat="45.6457" lon="6.12197">
        <ele>1792.52</ele>
        <time>2015-02-11T13:37:21Z</time>
      </trkpt>
      <trkpt lat="45.64569" lon="6.12208">
        <ele>1787.71</ele>
        <time>2015-02-11T13:37:23Z</time>
      </trkpt>
      <trkpt lat="45.64573" lon="6.12226">
        <ele>1779.54</ele>
        <time>2015-02-11T13:37:26Z</time>
      </trkpt>
      <trkpt lat="45.64574" lon="6.12232">
        <ele>1776.65</ele>
        <time>2015-02-11T13:37:27Z</time>
      </trkpt>
      <trkpt lat="45.64574" lon="6.12237">
        <ele>1773.29</ele>
        <time>2015-02-11T13:37:28Z</time>
      </trkpt>
      <trkpt lat="45.64574" lon="6.12242">
        <ele>1770.41</ele>
        <time>2015-02-11T13:37:29Z</time>
      </trkpt>
      <trkpt lat="45.64575" lon="6.12248">
        <ele>1767.04</ele>
        <time>2015-02-11T13:37:30Z</time>
      </trkpt>
      <trkpt lat="45.64577" lon="6.12253">
        <ele>1763.68</ele>
        <time>2015-02-11T13:37:31Z</time>
      </trkpt>
      <trkpt lat="45.64578" lon="6.12257">
        <ele>1763.68</ele>
        <time>2015-02-11T13:37:32Z</time>
      </trkpt>
      <trkpt lat="45.64579" lon="6.12267">
        <ele>1757.91</ele>
        <time>2015-02-11T13:37:34Z</time>
      </trkpt>
      <trkpt lat="45.64578" lon="6.12273">
        <ele>1754.54</ele>
        <time>2015-02-11T13:37:35Z</time>
      </trkpt>
      <trkpt lat="45.64573" lon="6.12287">
        <ele>1748.78</ele>
        <time>2015-02-11T13:37:37Z</time>
      </trkpt>
      <trkpt lat="45.64569" lon="6.12293">
        <ele>1745.89</ele>
        <time>2015-02-11T13:37:38Z</time>
      </trkpt>
      <trkpt lat="45.64555" lon="6.12302">
        <ele>1740.6</ele>
        <time>2015-02-11T13:37:41Z</time>
      </trkpt>
      <trkpt lat="45.64551" lon="6.12299">
        <ele>1738.68</ele>
        <time>2015-02-11T13:37:49Z</time>
      </trkpt>
      <trkpt lat="45.64552" lon="6.12299">
        <ele>1739.64</ele>
        <time>2015-02-11T13:38:46Z</time>
      </trkpt>
      <trkpt lat="45.64551" lon="6.12298">
        <ele>1740.12</ele>
        <time>2015-02-11T13:39:05Z</time>
      </trkpt>
      <trkpt lat="45.64552" lon="6.12295">
        <ele>1741.08</ele>
        <time>2015-02-11T13:40:09Z</time>
      </trkpt>
      <trkpt lat="45.64552" lon="6.12295">
        <ele>1742.53</ele>
        <time>2015-02-11T13:41:09Z</time>
      </trkpt>
      <trkpt lat="45.64547" lon="6.12295">
        <ele>1742.53</ele>
        <time>2015-02-11T13:42:02Z</time>
      </trkpt>
      <trkpt lat="45.64525" lon="6.12304">
        <ele>1739.16</ele>
        <time>2015-02-11T13:42:10Z</time>
      </trkpt>
      <trkpt lat="45.64501" lon="6.12321">
        <ele>1735.8</ele>
        <time>2015-02-11T13:42:16Z</time>
      </trkpt>
      <trkpt lat="45.6449" lon="6.1233">
        <ele>1733.88</ele>
        <time>2015-02-11T13:42:18Z</time>
      </trkpt>
      <trkpt lat="45.64482" lon="6.12346">
        <ele>1729.07</ele>
        <time>2015-02-11T13:42:21Z</time>
      </trkpt>
      <trkpt lat="45.6448" lon="6.12367">
        <ele>1724.74</ele>
        <time>2015-02-11T13:42:24Z</time>
      </trkpt>
      <trkpt lat="45.64471" lon="6.12382">
        <ele>1719.46</ele>
        <time>2015-02-11T13:42:26Z</time>
      </trkpt>
      <trkpt lat="45.64459" lon="6.12394">
        <ele>1715.13</ele>
        <time>2015-02-11T13:42:29Z</time>
      </trkpt>
      <trkpt lat="45.64437" lon="6.12427">
        <ele>1712.73</ele>
        <time>2015-02-11T13:42:40Z</time>
      </trkpt>
      <trkpt lat="45.64424" lon="6.12456">
        <ele>1709.84</ele>
        <time>2015-02-11T13:42:49Z</time>
      </trkpt>
      <trkpt lat="45.64421" lon="6.12462">
        <ele>1709.36</ele>
        <time>2015-02-11T13:43:40Z</time>
      </trkpt>
      <trkpt lat="45.64407" lon="6.12482">
        <ele>1705.52</ele>
        <time>2015-02-11T13:44:06Z</time>
      </trkpt>
      <trkpt lat="45.64405" lon="6.12489">
        <ele>1704.07</ele>
        <time>2015-02-11T13:44:08Z</time>
      </trkpt>
      <trkpt lat="45.64408" lon="6.12496">
        <ele>1699.75</ele>
        <time>2015-02-11T13:44:10Z</time>
      </trkpt>
      <trkpt lat="45.64419" lon="6.12507">
        <ele>1691.1</ele>
        <time>2015-02-11T13:44:13Z</time>
      </trkpt>
      <trkpt lat="45.64422" lon="6.12513">
        <ele>1687.73</ele>
        <time>2015-02-11T13:44:14Z</time>
      </trkpt>
      <trkpt lat="45.64423" lon="6.12522">
        <ele>1683.89</ele>
        <time>2015-02-11T13:44:15Z</time>
      </trkpt>
      <trkpt lat="45.64421" lon="6.12533">
        <ele>1680.52</ele>
        <time>2015-02-11T13:44:16Z</time>
      </trkpt>
      <trkpt lat="45.64418" lon="6.12544">
        <ele>1678.12</ele>
        <time>2015-02-11T13:44:18Z</time>
      </trkpt>
      <trkpt lat="45.64425" lon="6.12544">
        <ele>1674.27</ele>
        <time>2015-02-11T13:44:20Z</time>
      </trkpt>
      <trkpt lat="45.64429" lon="6.12548">
        <ele>1671.87</ele>
        <time>2015-02-11T13:44:22Z</time>
      </trkpt>
      <trkpt lat="45.64434" lon="6.12556">
        <ele>1666.1</ele>
        <time>2015-02-11T13:44:25Z</time>
      </trkpt>
      <trkpt lat="45.6443" lon="6.12564">
        <ele>1662.74</ele>
        <time>2015-02-11T13:44:27Z</time>
      </trkpt>
      <trkpt lat="45.64422" lon="6.12578">
        <ele>1659.85</ele>
        <time>2015-02-11T13:44:30Z</time>
      </trkpt>
      <trkpt lat="45.64404" lon="6.12598">
        <ele>1656.49</ele>
        <time>2015-02-11T13:44:34Z</time>
      </trkpt>
      <trkpt lat="45.64384" lon="6.12617">
        <ele>1653.12</ele>
        <time>2015-02-11T13:44:39Z</time>
      </trkpt>
      <trkpt lat="45.64376" lon="6.12616">
        <ele>1651.68</ele>
        <time>2015-02-11T13:44:48Z</time>
      </trkpt>
      <trkpt lat="45.64377" lon="6.12618">
        <ele>1651.68</ele>
        <time>2015-02-11T13:44:58Z</time>
      </trkpt>
      <trkpt lat="45.64385" lon="6.12607">
        <ele>1650.24</ele>
        <time>2015-02-11T13:45:03Z</time>
      </trkpt>
      <trkpt lat="45.64389" lon="6.12602">
        <ele>1648.8</ele>
        <time>2015-02-11T13:45:09Z</time>
      </trkpt>
      <trkpt lat="45.64387" lon="6.12613">
        <ele>1646.88</ele>
        <time>2015-02-11T13:45:14Z</time>
      </trkpt>
      <trkpt lat="45.64387" lon="6.12614">
        <ele>1643.51</ele>
        <time>2015-02-11T13:45:18Z</time>
      </trkpt>
      <trkpt lat="45.64392" lon="6.12614">
        <ele>1643.03</ele>
        <time>2015-02-11T13:45:30Z</time>
      </trkpt>
      <trkpt lat="45.64404" lon="6.12614">
        <ele>1640.15</ele>
        <time>2015-02-11T13:45:34Z</time>
      </trkpt>
      <trkpt lat="45.64404" lon="6.1262">
        <ele>1638.7</ele>
        <time>2015-02-11T13:45:37Z</time>
      </trkpt>
      <trkpt lat="45.64406" lon="6.12626">
        <ele>1636.78</ele>
        <time>2015-02-11T13:45:39Z</time>
      </trkpt>
      <trkpt lat="45.64402" lon="6.12636">
        <ele>1631.98</ele>
        <time>2015-02-11T13:45:43Z</time>
      </trkpt>
      <trkpt lat="45.64395" lon="6.12641">
        <ele>1628.61</ele>
        <time>2015-02-11T13:45:50Z</time>
      </trkpt>
      <trkpt lat="45.644" lon="6.12643">
        <ele>1626.69</ele>
        <time>2015-02-11T13:45:59Z</time>
      </trkpt>
      <trkpt lat="45.64408" lon="6.12641">
        <ele>1625.25</ele>
        <time>2015-02-11T13:46:04Z</time>
      </trkpt>
      <trkpt lat="45.64402" lon="6.12652">
        <ele>1621.4</ele>
        <time>2015-02-11T13:46:09Z</time>
      </trkpt>
      <trkpt lat="45.64402" lon="6.12652">
        <ele>1621.4</ele>
        <time>2015-02-11T13:46:10Z</time>
      </trkpt>
      <trkpt lat="45.64403" lon="6.12651">
        <ele>1619.96</ele>
        <time>2015-02-11T13:46:13Z</time>
      </trkpt>
      <trkpt lat="45.64403" lon="6.1265">
        <ele>1619.96</ele>
        <time>2015-02-11T13:46:20Z</time>
      </trkpt>
      <trkpt lat="45.64396" lon="6.12656">
        <ele>1618.04</ele>
        <time>2015-02-11T13:46:26Z</time>
      </trkpt>
      <trkpt lat="45.64373" lon="6.12665">
        <ele>1612.75</ele>
        <time>2015-02-11T13:46:30Z</time>
      </trkpt>
      <trkpt lat="45.64369" lon="6.12672">
        <ele>1611.79</ele>
        <time>2015-02-11T13:46:32Z</time>
      </trkpt>
      <trkpt lat="45.64365" lon="6.12689">
        <ele>1608.42</ele>
        <time>2015-02-11T13:46:36Z</time>
      </trkpt>
      <trkpt lat="45.64351" lon="6.12706">
        <ele>1605.06</ele>
        <time>2015-02-11T13:46:41Z</time>
      </trkpt>
      <trkpt lat="45.64327" lon="6.1271">
        <ele>1602.17</ele>
        <time>2015-02-11T13:46:53Z</time>
      </trkpt>
      <trkpt lat="45.64326" lon="6.12709">
        <ele>1602.17</ele>
        <time>2015-02-11T13:47:19Z</time>
      </trkpt>
      <trkpt lat="45.64327" lon="6.12711">
        <ele>1602.17</ele>
        <time>2015-02-11T13:47:41Z</time>
      </trkpt>
      <trkpt lat="45.64328" lon="6.12709">
        <ele>1602.17</ele>
        <time>2015-02-11T13:48:17Z</time>
      </trkpt>
      <trkpt lat="45.64327" lon="6.12706">
        <ele>1603.14</ele>
        <time>2015-02-11T13:48:38Z</time>
      </trkpt>
      <trkpt lat="45.64326" lon="6.12703">
        <ele>1602.66</ele>
        <time>2015-02-11T13:50:44Z</time>
      </trkpt>
      <trkpt lat="45.64328" lon="6.12702">
        <ele>1603.14</ele>
        <time>2015-02-11T13:51:13Z</time>
      </trkpt>
      <trkpt lat="45.64327" lon="6.12701">
        <ele>1603.14</ele>
        <time>2015-02-11T13:51:45Z</time>
      </trkpt>
      <trkpt lat="45.64327" lon="6.12699">
        <ele>1602.17</ele>
        <time>2015-02-11T13:52:05Z</time>
      </trkpt>
      <trkpt lat="45.64327" lon="6.12701">
        <ele>1602.66</ele>
        <time>2015-02-11T13:52:17Z</time>
      </trkpt>
      <trkpt lat="45.64327" lon="6.127">
        <ele>1603.14</ele>
        <time>2015-02-11T13:52:35Z</time>
      </trkpt>
      <trkpt lat="45.64332" lon="6.12696">
        <ele>1604.1</ele>
        <time>2015-02-11T13:52:46Z</time>
      </trkpt>
      <trkpt lat="45.64339" lon="6.12692">
        <ele>1606.5</ele>
        <time>2015-02-11T13:52:59Z</time>
      </trkpt>
      <trkpt lat="45.64344" lon="6.12689">
        <ele>1608.42</ele>
        <time>2015-02-11T13:53:12Z</time>
      </trkpt>
      <trkpt lat="45.64348" lon="6.12683">
        <ele>1610.83</ele>
        <time>2015-02-11T13:53:24Z</time>
      </trkpt>
      <trkpt lat="45.64351" lon="6.1268">
        <ele>1611.79</ele>
        <time>2015-02-11T13:53:36Z</time>
      </trkpt>
      <trkpt lat="45.64352" lon="6.12677">
        <ele>1612.75</ele>
        <time>2015-02-11T13:53:49Z</time>
      </trkpt>
      <trkpt lat="45.64354" lon="6.12671">
        <ele>1614.19</ele>
        <time>2015-02-11T13:54:01Z</time>
      </trkpt>
      <trkpt lat="45.64357" lon="6.12663">
        <ele>1616.59</ele>
        <time>2015-02-11T13:54:14Z</time>
      </trkpt>
      <trkpt lat="45.64357" lon="6.12658">
        <ele>1618.52</ele>
        <time>2015-02-11T13:54:25Z</time>
      </trkpt>
      <trkpt lat="45.64357" lon="6.12658">
        <ele>1619.96</ele>
        <time>2015-02-11T13:54:37Z</time>
      </trkpt>
      <trkpt lat="45.64352" lon="6.1266">
        <ele>1621.4</ele>
        <time>2015-02-11T13:54:54Z</time>
      </trkpt>
      <trkpt lat="45.6435" lon="6.12654">
        <ele>1622.84</ele>
        <time>2015-02-11T13:55:04Z</time>
      </trkpt>
      <trkpt lat="45.64351" lon="6.1265">
        <ele>1624.28</ele>
        <time>2015-02-11T13:55:14Z</time>
      </trkpt>
      <trkpt lat="45.64351" lon="6.12652">
        <ele>1624.77</ele>
        <time>2015-02-11T13:55:18Z</time>
      </trkpt>
      <trkpt lat="45.64346" lon="6.12658">
        <ele>1626.21</ele>
        <time>2015-02-11T13:55:32Z</time>
      </trkpt>
      <trkpt lat="45.64344" lon="6.1266">
        <ele>1626.69</ele>
        <time>2015-02-11T13:55:38Z</time>
      </trkpt>
      <trkpt lat="45.64339" lon="6.12656">
        <ele>1628.13</ele>
        <time>2015-02-11T13:55:47Z</time>
      </trkpt>
      <trkpt lat="45.64334" lon="6.12649">
        <ele>1630.05</ele>
        <time>2015-02-11T13:55:59Z</time>
      </trkpt>
      <trkpt lat="45.64331" lon="6.12642">
        <ele>1631.98</ele>
        <time>2015-02-11T13:56:10Z</time>
      </trkpt>
      <trkpt lat="45.64334" lon="6.12639">
        <ele>1633.9</ele>
        <time>2015-02-11T13:56:21Z</time>
      </trkpt>
      <trkpt lat="45.64336" lon="6.12634">
        <ele>1636.3</ele>
        <time>2015-02-11T13:56:36Z</time>
      </trkpt>
      <trkpt lat="45.64334" lon="6.12629">
        <ele>1637.74</ele>
        <time>2015-02-11T13:56:45Z</time>
      </trkpt>
      <trkpt lat="45.64333" lon="6.12625">
        <ele>1639.67</ele>
        <time>2015-02-11T13:56:56Z</time>
      </trkpt>
      <trkpt lat="45.64335" lon="6.12624">
        <ele>1641.59</ele>
        <time>2015-02-11T13:57:08Z</time>
      </trkpt>
      <trkpt lat="45.64333" lon="6.1262">
        <ele>1642.07</ele>
        <time>2015-02-11T13:57:19Z</time>
      </trkpt>
      <trkpt lat="45.6433" lon="6.12616">
        <ele>1643.99</ele>
        <time>2015-02-11T13:57:27Z</time>
      </trkpt>
      <trkpt lat="45.6433" lon="6.12613">
        <ele>1644.47</ele>
        <time>2015-02-11T13:57:38Z</time>
      </trkpt>
      <trkpt lat="45.64334" lon="6.12611">
        <ele>1646.4</ele>
        <time>2015-02-11T13:57:52Z</time>
      </trkpt>
      <trkpt lat="45.64331" lon="6.12605">
        <ele>1648.32</ele>
        <time>2015-02-11T13:58:02Z</time>
      </trkpt>
      <trkpt lat="45.64329" lon="6.12601">
        <ele>1649.76</ele>
        <time>2015-02-11T13:58:09Z</time>
      </trkpt>
      <trkpt lat="45.64329" lon="6.12595">
        <ele>1651.2</ele>
        <time>2015-02-11T13:58:18Z</time>
      </trkpt>
      <trkpt lat="45.64329" lon="6.12588">
        <ele>1653.6</ele>
        <time>2015-02-11T13:58:31Z</time>
      </trkpt>
      <trkpt lat="45.64326" lon="6.12583">
        <ele>1655.53</ele>
        <time>2015-02-11T13:58:40Z</time>
      </trkpt>
      <trkpt lat="45.64329" lon="6.12583">
        <ele>1656.97</ele>
        <time>2015-02-11T13:58:51Z</time>
      </trkpt>
      <trkpt lat="45.64329" lon="6.12578">
        <ele>1658.89</ele>
        <time>2015-02-11T13:59:04Z</time>
      </trkpt>
      <trkpt lat="45.64326" lon="6.12572">
        <ele>1660.33</ele>
        <time>2015-02-11T13:59:15Z</time>
      </trkpt>
      <trkpt lat="45.64326" lon="6.12567">
        <ele>1662.74</ele>
        <time>2015-02-11T13:59:26Z</time>
      </trkpt>
      <trkpt lat="45.64323" lon="6.1256">
        <ele>1665.14</ele>
        <time>2015-02-11T13:59:40Z</time>
      </trkpt>
      <trkpt lat="45.64319" lon="6.12554">
        <ele>1666.58</ele>
        <time>2015-02-11T13:59:51Z</time>
      </trkpt>
      <trkpt lat="45.64315" lon="6.12546">
        <ele>1668.02</ele>
        <time>2015-02-11T14:00:03Z</time>
      </trkpt>
      <trkpt lat="45.64314" lon="6.12543">
        <ele>1668.51</ele>
        <time>2015-02-11T14:00:07Z</time>
      </trkpt>
      <trkpt lat="45.64311" lon="6.12535">
        <ele>1670.43</ele>
        <time>2015-02-11T14:00:18Z</time>
      </trkpt>
      <trkpt lat="45.64307" lon="6.12528">
        <ele>1671.87</ele>
        <time>2015-02-11T14:00:27Z</time>
      </trkpt>
      <trkpt lat="45.64303" lon="6.12518">
        <ele>1673.31</ele>
        <time>2015-02-11T14:00:40Z</time>
      </trkpt>
      <trkpt lat="45.64297" lon="6.12508">
        <ele>1674.27</ele>
        <time>2015-02-11T14:00:53Z</time>
      </trkpt>
      <trkpt lat="45.64293" lon="6.12493">
        <ele>1674.75</ele>
        <time>2015-02-11T14:01:09Z</time>
      </trkpt>
      <trkpt lat="45.64287" lon="6.12482">
        <ele>1674.27</ele>
        <time>2015-02-11T14:01:20Z</time>
      </trkpt>
      <trkpt lat="45.64278" lon="6.12475">
        <ele>1671.87</ele>
        <time>2015-02-11T14:01:30Z</time>
      </trkpt>
      <trkpt lat="45.64265" lon="6.12463">
        <ele>1668.99</ele>
        <time>2015-02-11T14:01:48Z</time>
      </trkpt>
      <trkpt lat="45.64253" lon="6.12458">
        <ele>1665.62</ele>
        <time>2015-02-11T14:01:55Z</time>
      </trkpt>
      <trkpt lat="45.64249" lon="6.12458">
        <ele>1664.18</ele>
        <time>2015-02-11T14:01:56Z</time>
      </trkpt>
      <trkpt lat="45.64241" lon="6.12463">
        <ele>1660.33</ele>
        <time>2015-02-11T14:02:00Z</time>
      </trkpt>
      <trkpt lat="45.6424" lon="6.12462">
        <ele>1660.33</ele>
        <time>2015-02-11T14:02:01Z</time>
      </trkpt>
      <trkpt lat="45.64239" lon="6.1246">
        <ele>1659.37</ele>
        <time>2015-02-11T14:02:04Z</time>
      </trkpt>
      <trkpt lat="45.64229" lon="6.12456">
        <ele>1659.85</ele>
        <time>2015-02-11T14:02:18Z</time>
      </trkpt>
      <trkpt lat="45.64219" lon="6.12452">
        <ele>1659.37</ele>
        <time>2015-02-11T14:02:30Z</time>
      </trkpt>
      <trkpt lat="45.64212" lon="6.12446">
        <ele>1659.85</ele>
        <time>2015-02-11T14:02:43Z</time>
      </trkpt>
      <trkpt lat="45.64207" lon="6.12439">
        <ele>1660.33</ele>
        <time>2015-02-11T14:02:56Z</time>
      </trkpt>
      <trkpt lat="45.64201" lon="6.12434">
        <ele>1659.37</ele>
        <time>2015-02-11T14:03:05Z</time>
      </trkpt>
      <trkpt lat="45.6419" lon="6.12433">
        <ele>1658.89</ele>
        <time>2015-02-11T14:03:20Z</time>
      </trkpt>
      <trkpt lat="45.64189" lon="6.12428">
        <ele>1659.37</ele>
        <time>2015-02-11T14:03:39Z</time>
      </trkpt>
      <trkpt lat="45.64191" lon="6.12425">
        <ele>1660.33</ele>
        <time>2015-02-11T14:03:57Z</time>
      </trkpt>
      <trkpt lat="45.64189" lon="6.12415">
        <ele>1661.78</ele>
        <time>2015-02-11T14:04:10Z</time>
      </trkpt>
      <trkpt lat="45.64175" lon="6.12411">
        <ele>1660.33</ele>
        <time>2015-02-11T14:04:26Z</time>
      </trkpt>
      <trkpt lat="45.64165" lon="6.12413">
        <ele>1661.78</ele>
        <time>2015-02-11T14:04:44Z</time>
      </trkpt>
      <trkpt lat="45.64163" lon="6.12413">
        <ele>1662.26</ele>
        <time>2015-02-11T14:04:57Z</time>
      </trkpt>
      <trkpt lat="45.64152" lon="6.1241">
        <ele>1662.74</ele>
        <time>2015-02-11T14:05:13Z</time>
      </trkpt>
      <trkpt lat="45.64139" lon="6.12407">
        <ele>1660.81</ele>
        <time>2015-02-11T14:05:27Z</time>
      </trkpt>
      <trkpt lat="45.64125" lon="6.12403">
        <ele>1657.93</ele>
        <time>2015-02-11T14:05:40Z</time>
      </trkpt>
      <trkpt lat="45.64121" lon="6.12402">
        <ele>1657.45</ele>
        <time>2015-02-11T14:05:45Z</time>
      </trkpt>
      <trkpt lat="45.64115" lon="6.12396">
        <ele>1658.89</ele>
        <time>2015-02-11T14:05:55Z</time>
      </trkpt>
      <trkpt lat="45.64108" lon="6.12391">
        <ele>1659.85</ele>
        <time>2015-02-11T14:06:07Z</time>
      </trkpt>
      <trkpt lat="45.64099" lon="6.12387">
        <ele>1660.33</ele>
        <time>2015-02-11T14:06:18Z</time>
      </trkpt>
      <trkpt lat="45.64091" lon="6.12383">
        <ele>1661.78</ele>
        <time>2015-02-11T14:06:30Z</time>
      </trkpt>
      <trkpt lat="45.64083" lon="6.1238">
        <ele>1663.22</ele>
        <time>2015-02-11T14:06:41Z</time>
      </trkpt>
      <trkpt lat="45.64077" lon="6.12376">
        <ele>1664.18</ele>
        <time>2015-02-11T14:06:49Z</time>
      </trkpt>
      <trkpt lat="45.64067" lon="6.12366">
        <ele>1664.66</ele>
        <time>2015-02-11T14:07:03Z</time>
      </trkpt>
      <trkpt lat="45.64064" lon="6.1236">
        <ele>1665.14</ele>
        <time>2015-02-11T14:07:18Z</time>
      </trkpt>
      <trkpt lat="45.64065" lon="6.12359">
        <ele>1665.62</ele>
        <time>2015-02-11T14:07:55Z</time>
      </trkpt>
      <trkpt lat="45.64066" lon="6.12348">
        <ele>1666.1</ele>
        <time>2015-02-11T14:08:04Z</time>
      </trkpt>
      <trkpt lat="45.64065" lon="6.12334">
        <ele>1667.06</ele>
        <time>2015-02-11T14:08:18Z</time>
      </trkpt>
      <trkpt lat="45.64066" lon="6.12325">
        <ele>1667.06</ele>
        <time>2015-02-11T14:08:38Z</time>
      </trkpt>
      <trkpt lat="45.64068" lon="6.12313">
        <ele>1667.54</ele>
        <time>2015-02-11T14:08:52Z</time>
      </trkpt>
      <trkpt lat="45.64069" lon="6.12297">
        <ele>1667.54</ele>
        <time>2015-02-11T14:09:05Z</time>
      </trkpt>
      <trkpt lat="45.6407" lon="6.1228">
        <ele>1667.06</ele>
        <time>2015-02-11T14:09:20Z</time>
      </trkpt>
      <trkpt lat="45.6407" lon="6.12264">
        <ele>1667.54</ele>
        <time>2015-02-11T14:09:33Z</time>
      </trkpt>
      <trkpt lat="45.6407" lon="6.12254">
        <ele>1668.99</ele>
        <time>2015-02-11T14:09:45Z</time>
      </trkpt>
      <trkpt lat="45.6407" lon="6.12238">
        <ele>1668.51</ele>
        <time>2015-02-11T14:10:00Z</time>
      </trkpt>
      <trkpt lat="45.64063" lon="6.12218">
        <ele>1665.14</ele>
        <time>2015-02-11T14:10:09Z</time>
      </trkpt>
      <trkpt lat="45.64061" lon="6.12212">
        <ele>1664.18</ele>
        <time>2015-02-11T14:10:21Z</time>
      </trkpt>
      <trkpt lat="45.64058" lon="6.12207">
        <ele>1663.7</ele>
        <time>2015-02-11T14:10:27Z</time>
      </trkpt>
      <trkpt lat="45.64049" lon="6.12193">
        <ele>1664.18</ele>
        <time>2015-02-11T14:10:43Z</time>
      </trkpt>
      <trkpt lat="45.64047" lon="6.12189">
        <ele>1664.18</ele>
        <time>2015-02-11T14:10:48Z</time>
      </trkpt>
      <trkpt lat="45.64042" lon="6.12174">
        <ele>1664.18</ele>
        <time>2015-02-11T14:11:03Z</time>
      </trkpt>
      <trkpt lat="45.64038" lon="6.1216">
        <ele>1664.18</ele>
        <time>2015-02-11T14:11:17Z</time>
      </trkpt>
      <trkpt lat="45.64037" lon="6.12159">
        <ele>1664.18</ele>
        <time>2015-02-11T14:11:18Z</time>
      </trkpt>
      <trkpt lat="45.64036" lon="6.12156">
        <ele>1663.7</ele>
        <time>2015-02-11T14:11:20Z</time>
      </trkpt>
      <trkpt lat="45.6403" lon="6.12142">
        <ele>1662.74</ele>
        <time>2015-02-11T14:11:37Z</time>
      </trkpt>
      <trkpt lat="45.64026" lon="6.12136">
        <ele>1663.22</ele>
        <time>2015-02-11T14:11:50Z</time>
      </trkpt>
      <trkpt lat="45.64016" lon="6.12114">
        <ele>1660.33</ele>
        <time>2015-02-11T14:12:04Z</time>
      </trkpt>
      <trkpt lat="45.64012" lon="6.12107">
        <ele>1657.93</ele>
        <time>2015-02-11T14:12:11Z</time>
      </trkpt>
      <trkpt lat="45.6401" lon="6.12101">
        <ele>1656.97</ele>
        <time>2015-02-11T14:12:29Z</time>
      </trkpt>
      <trkpt lat="45.64008" lon="6.12096">
        <ele>1656.49</ele>
        <time>2015-02-11T14:12:54Z</time>
      </trkpt>
      <trkpt lat="45.63995" lon="6.12086">
        <ele>1654.57</ele>
        <time>2015-02-11T14:14:04Z</time>
      </trkpt>
      <trkpt lat="45.63987" lon="6.12081">
        <ele>1651.2</ele>
        <time>2015-02-11T14:14:09Z</time>
      </trkpt>
      <trkpt lat="45.63982" lon="6.12078">
        <ele>1650.72</ele>
        <time>2015-02-11T14:14:11Z</time>
      </trkpt>
      <trkpt lat="45.63973" lon="6.12071">
        <ele>1648.32</ele>
        <time>2015-02-11T14:14:14Z</time>
      </trkpt>
      <trkpt lat="45.63962" lon="6.12063">
        <ele>1643.51</ele>
        <time>2015-02-11T14:14:18Z</time>
      </trkpt>
      <trkpt lat="45.6396" lon="6.12063">
        <ele>1641.59</ele>
        <time>2015-02-11T14:14:21Z</time>
      </trkpt>
      <trkpt lat="45.63947" lon="6.12055">
        <ele>1639.67</ele>
        <time>2015-02-11T14:14:38Z</time>
      </trkpt>
      <trkpt lat="45.63938" lon="6.12048">
        <ele>1639.19</ele>
        <time>2015-02-11T14:14:53Z</time>
      </trkpt>
      <trkpt lat="45.63933" lon="6.12046">
        <ele>1639.67</ele>
        <time>2015-02-11T14:15:03Z</time>
      </trkpt>
      <trkpt lat="45.63923" lon="6.12038">
        <ele>1639.19</ele>
        <time>2015-02-11T14:15:16Z</time>
      </trkpt>
      <trkpt lat="45.63918" lon="6.12036">
        <ele>1640.15</ele>
        <time>2015-02-11T14:15:25Z</time>
      </trkpt>
      <trkpt lat="45.63912" lon="6.12037">
        <ele>1641.59</ele>
        <time>2015-02-11T14:15:37Z</time>
      </trkpt>
      <trkpt lat="45.6391" lon="6.12039">
        <ele>1642.07</ele>
        <time>2015-02-11T14:15:41Z</time>
      </trkpt>
      <trkpt lat="45.63905" lon="6.12039">
        <ele>1643.03</ele>
        <time>2015-02-11T14:15:50Z</time>
      </trkpt>
      <trkpt lat="45.63897" lon="6.12041">
        <ele>1643.99</ele>
        <time>2015-02-11T14:16:00Z</time>
      </trkpt>
      <trkpt lat="45.63889" lon="6.12039">
        <ele>1645.43</ele>
        <time>2015-02-11T14:16:13Z</time>
      </trkpt>
      <trkpt lat="45.63882" lon="6.12039">
        <ele>1646.88</ele>
        <time>2015-02-11T14:16:24Z</time>
      </trkpt>
      <trkpt lat="45.63875" lon="6.1204">
        <ele>1648.8</ele>
        <time>2015-02-11T14:16:36Z</time>
      </trkpt>
      <trkpt lat="45.63868" lon="6.1204">
        <ele>1650.24</ele>
        <time>2015-02-11T14:16:49Z</time>
      </trkpt>
      <trkpt lat="45.63862" lon="6.12038">
        <ele>1650.72</ele>
        <time>2015-02-11T14:16:59Z</time>
      </trkpt>
      <trkpt lat="45.63857" lon="6.12031">
        <ele>1652.16</ele>
        <time>2015-02-11T14:17:08Z</time>
      </trkpt>
      <trkpt lat="45.63857" lon="6.1203">
        <ele>1652.64</ele>
        <time>2015-02-11T14:17:09Z</time>
      </trkpt>
      <trkpt lat="45.63848" lon="6.12014">
        <ele>1654.09</ele>
        <time>2015-02-11T14:17:25Z</time>
      </trkpt>
      <trkpt lat="45.63845" lon="6.12004">
        <ele>1655.05</ele>
        <time>2015-02-11T14:17:36Z</time>
      </trkpt>
      <trkpt lat="45.63844" lon="6.12003">
        <ele>1655.53</ele>
        <time>2015-02-11T14:17:37Z</time>
      </trkpt>
      <trkpt lat="45.63842" lon="6.11991">
        <ele>1656.97</ele>
        <time>2015-02-11T14:17:49Z</time>
      </trkpt>
      <trkpt lat="45.63842" lon="6.11982">
        <ele>1658.89</ele>
        <time>2015-02-11T14:17:59Z</time>
      </trkpt>
      <trkpt lat="45.63844" lon="6.1197">
        <ele>1660.33</ele>
        <time>2015-02-11T14:18:11Z</time>
      </trkpt>
      <trkpt lat="45.63847" lon="6.11963">
        <ele>1661.3</ele>
        <time>2015-02-11T14:18:19Z</time>
      </trkpt>
      <trkpt lat="45.6385" lon="6.11955">
        <ele>1663.22</ele>
        <time>2015-02-11T14:18:28Z</time>
      </trkpt>
      <trkpt lat="45.63854" lon="6.11942">
        <ele>1664.66</ele>
        <time>2015-02-11T14:18:41Z</time>
      </trkpt>
      <trkpt lat="45.63857" lon="6.11928">
        <ele>1665.62</ele>
        <time>2015-02-11T14:18:52Z</time>
      </trkpt>
      <trkpt lat="45.63857" lon="6.11913">
        <ele>1667.54</ele>
        <time>2015-02-11T14:19:07Z</time>
      </trkpt>
      <trkpt lat="45.63856" lon="6.11895">
        <ele>1668.51</ele>
        <time>2015-02-11T14:19:19Z</time>
      </trkpt>
      <trkpt lat="45.63855" lon="6.11891">
        <ele>1668.99</ele>
        <time>2015-02-11T14:19:23Z</time>
      </trkpt>
      <trkpt lat="45.63861" lon="6.11873">
        <ele>1669.47</ele>
        <time>2015-02-11T14:19:38Z</time>
      </trkpt>
      <trkpt lat="45.63865" lon="6.11849">
        <ele>1669.95</ele>
        <time>2015-02-11T14:19:54Z</time>
      </trkpt>
      <trkpt lat="45.63864" lon="6.11833">
        <ele>1670.43</ele>
        <time>2015-02-11T14:20:11Z</time>
      </trkpt>
      <trkpt lat="45.63865" lon="6.11828">
        <ele>1670.43</ele>
        <time>2015-02-11T14:20:15Z</time>
      </trkpt>
      <trkpt lat="45.63865" lon="6.11812">
        <ele>1671.87</ele>
        <time>2015-02-11T14:20:31Z</time>
      </trkpt>
      <trkpt lat="45.63867" lon="6.11798">
        <ele>1672.35</ele>
        <time>2015-02-11T14:20:41Z</time>
      </trkpt>
      <trkpt lat="45.6387" lon="6.11777">
        <ele>1672.83</ele>
        <time>2015-02-11T14:20:57Z</time>
      </trkpt>
      <trkpt lat="45.6388" lon="6.11756">
        <ele>1672.83</ele>
        <time>2015-02-11T14:21:15Z</time>
      </trkpt>
      <trkpt lat="45.63883" lon="6.11735">
        <ele>1673.31</ele>
        <time>2015-02-11T14:21:32Z</time>
      </trkpt>
      <trkpt lat="45.63889" lon="6.11713">
        <ele>1673.31</ele>
        <time>2015-02-11T14:21:48Z</time>
      </trkpt>
      <trkpt lat="45.6389" lon="6.11686">
        <ele>1674.27</ele>
        <time>2015-02-11T14:22:03Z</time>
      </trkpt>
      <trkpt lat="45.63895" lon="6.11674">
        <ele>1674.75</ele>
        <time>2015-02-11T14:22:18Z</time>
      </trkpt>
      <trkpt lat="45.63896" lon="6.11656">
        <ele>1676.2</ele>
        <time>2015-02-11T14:22:32Z</time>
      </trkpt>
      <trkpt lat="45.63901" lon="6.1164">
        <ele>1677.16</ele>
        <time>2015-02-11T14:22:46Z</time>
      </trkpt>
      <trkpt lat="45.63902" lon="6.11624">
        <ele>1677.64</ele>
        <time>2015-02-11T14:23:00Z</time>
      </trkpt>
      <trkpt lat="45.63903" lon="6.11612">
        <ele>1677.64</ele>
        <time>2015-02-11T14:23:15Z</time>
      </trkpt>
      <trkpt lat="45.63902" lon="6.11605">
        <ele>1678.12</ele>
        <time>2015-02-11T14:23:32Z</time>
      </trkpt>
      <trkpt lat="45.63902" lon="6.11593">
        <ele>1679.08</ele>
        <time>2015-02-11T14:23:43Z</time>
      </trkpt>
      <trkpt lat="45.63903" lon="6.11579">
        <ele>1681</ele>
        <time>2015-02-11T14:23:55Z</time>
      </trkpt>
      <trkpt lat="45.63902" lon="6.11555">
        <ele>1683.41</ele>
        <time>2015-02-11T14:24:15Z</time>
      </trkpt>
      <trkpt lat="45.63901" lon="6.11547">
        <ele>1684.37</ele>
        <time>2015-02-11T14:24:21Z</time>
      </trkpt>
      <trkpt lat="45.63902" lon="6.1153">
        <ele>1686.77</ele>
        <time>2015-02-11T14:24:38Z</time>
      </trkpt>
      <trkpt lat="45.63899" lon="6.11512">
        <ele>1689.65</ele>
        <time>2015-02-11T14:24:57Z</time>
      </trkpt>
      <trkpt lat="45.63895" lon="6.11499">
        <ele>1692.06</ele>
        <time>2015-02-11T14:25:10Z</time>
      </trkpt>
      <trkpt lat="45.63892" lon="6.1149">
        <ele>1693.5</ele>
        <time>2015-02-11T14:25:21Z</time>
      </trkpt>
      <trkpt lat="45.63886" lon="6.11481">
        <ele>1695.42</ele>
        <time>2015-02-11T14:25:33Z</time>
      </trkpt>
      <trkpt lat="45.63881" lon="6.11471">
        <ele>1697.34</ele>
        <time>2015-02-11T14:25:44Z</time>
      </trkpt>
      <trkpt lat="45.63878" lon="6.11463">
        <ele>1698.79</ele>
        <time>2015-02-11T14:25:56Z</time>
      </trkpt>
      <trkpt lat="45.63871" lon="6.11448">
        <ele>1699.75</ele>
        <time>2015-02-11T14:26:10Z</time>
      </trkpt>
      <trkpt lat="45.63865" lon="6.11441">
        <ele>1701.67</ele>
        <time>2015-02-11T14:26:23Z</time>
      </trkpt>
      <trkpt lat="45.63863" lon="6.1144">
        <ele>1702.15</ele>
        <time>2015-02-11T14:26:45Z</time>
      </trkpt>
      <trkpt lat="45.63863" lon="6.11437">
        <ele>1702.15</ele>
        <time>2015-02-11T14:27:05Z</time>
      </trkpt>
      <trkpt lat="45.63867" lon="6.11435">
        <ele>1701.67</ele>
        <time>2015-02-11T14:27:17Z</time>
      </trkpt>
      <trkpt lat="45.63867" lon="6.11434">
        <ele>1701.67</ele>
        <time>2015-02-11T14:27:44Z</time>
      </trkpt>
      <trkpt lat="45.63868" lon="6.11434">
        <ele>1702.15</ele>
        <time>2015-02-11T14:28:07Z</time>
      </trkpt>
      <trkpt lat="45.63868" lon="6.11434">
        <ele>1701.19</ele>
        <time>2015-02-11T14:28:48Z</time>
      </trkpt>
      <trkpt lat="45.63867" lon="6.11435">
        <ele>1701.67</ele>
        <time>2015-02-11T14:29:23Z</time>
      </trkpt>
      <trkpt lat="45.63869" lon="6.11437">
        <ele>1701.67</ele>
        <time>2015-02-11T14:29:44Z</time>
      </trkpt>
      <trkpt lat="45.6387" lon="6.11435">
        <ele>1701.67</ele>
        <time>2015-02-11T14:30:18Z</time>
      </trkpt>
      <trkpt lat="45.63869" lon="6.11435">
        <ele>1701.19</ele>
        <time>2015-02-11T14:30:44Z</time>
      </trkpt>
      <trkpt lat="45.63871" lon="6.11438">
        <ele>1701.19</ele>
        <time>2015-02-11T14:31:57Z</time>
      </trkpt>
      <trkpt lat="45.63869" lon="6.11437">
        <ele>1701.67</ele>
        <time>2015-02-11T14:32:13Z</time>
      </trkpt>
      <trkpt lat="45.63871" lon="6.11438">
        <ele>1701.67</ele>
        <time>2015-02-11T14:32:55Z</time>
      </trkpt>
      <trkpt lat="45.63871" lon="6.11435">
        <ele>1702.15</ele>
        <time>2015-02-11T14:33:27Z</time>
      </trkpt>
      <trkpt lat="45.63872" lon="6.11435">
        <ele>1702.15</ele>
        <time>2015-02-11T14:33:47Z</time>
      </trkpt>
      <trkpt lat="45.63872" lon="6.11435">
        <ele>1701.67</ele>
        <time>2015-02-11T14:34:25Z</time>
      </trkpt>
      <trkpt lat="45.63875" lon="6.11434">
        <ele>1701.19</ele>
        <time>2015-02-11T14:35:03Z</time>
      </trkpt>
      <trkpt lat="45.63874" lon="6.11434">
        <ele>1702.63</ele>
        <time>2015-02-11T14:37:26Z</time>
      </trkpt>
      <trkpt lat="45.63874" lon="6.11433">
        <ele>1702.63</ele>
        <time>2015-02-11T14:38:12Z</time>
      </trkpt>
      <trkpt lat="45.63873" lon="6.11434">
        <ele>1702.63</ele>
        <time>2015-02-11T14:38:37Z</time>
      </trkpt>
      <trkpt lat="45.63872" lon="6.11434">
        <ele>1703.11</ele>
        <time>2015-02-11T14:39:34Z</time>
      </trkpt>
      <trkpt lat="45.63872" lon="6.11434">
        <ele>1703.11</ele>
        <time>2015-02-11T14:39:53Z</time>
      </trkpt>
      <trkpt lat="45.63871" lon="6.11434">
        <ele>1703.11</ele>
        <time>2015-02-11T14:42:48Z</time>
      </trkpt>
      <trkpt lat="45.63871" lon="6.11433">
        <ele>1703.11</ele>
        <time>2015-02-11T14:43:12Z</time>
      </trkpt>
      <trkpt lat="45.63871" lon="6.11432">
        <ele>1703.11</ele>
        <time>2015-02-11T14:43:56Z</time>
      </trkpt>
      <trkpt lat="45.63871" lon="6.11432">
        <ele>1702.63</ele>
        <time>2015-02-11T14:44:34Z</time>
      </trkpt>
      <trkpt lat="45.6386" lon="6.11415">
        <ele>1701.67</ele>
        <time>2015-02-11T14:44:37Z</time>
      </trkpt>
      <trkpt lat="45.63865" lon="6.11406">
        <ele>1697.83</ele>
        <time>2015-02-11T14:44:41Z</time>
      </trkpt>
      <trkpt lat="45.63864" lon="6.11404">
        <ele>1696.38</ele>
        <time>2015-02-11T14:44:44Z</time>
      </trkpt>
      <trkpt lat="45.63882" lon="6.11392">
        <ele>1693.02</ele>
        <time>2015-02-11T14:44:54Z</time>
      </trkpt>
      <trkpt lat="45.6389" lon="6.11387">
        <ele>1691.58</ele>
        <time>2015-02-11T14:44:56Z</time>
      </trkpt>
      <trkpt lat="45.63898" lon="6.11376">
        <ele>1687.73</ele>
        <time>2015-02-11T14:44:59Z</time>
      </trkpt>
      <trkpt lat="45.63898" lon="6.1137">
        <ele>1683.41</ele>
        <time>2015-02-11T14:45:02Z</time>
      </trkpt>
      <trkpt lat="45.63891" lon="6.11367">
        <ele>1681.96</ele>
        <time>2015-02-11T14:45:05Z</time>
      </trkpt>
      <trkpt lat="45.63882" lon="6.11365">
        <ele>1681.48</ele>
        <time>2015-02-11T14:45:10Z</time>
      </trkpt>
      <trkpt lat="45.63882" lon="6.11352">
        <ele>1677.64</ele>
        <time>2015-02-11T14:45:15Z</time>
      </trkpt>
      <trkpt lat="45.63881" lon="6.11351">
        <ele>1675.72</ele>
        <time>2015-02-11T14:45:18Z</time>
      </trkpt>
      <trkpt lat="45.6388" lon="6.11351">
        <ele>1674.75</ele>
        <time>2015-02-11T14:45:30Z</time>
      </trkpt>
      <trkpt lat="45.63896" lon="6.11345">
        <ele>1671.87</ele>
        <time>2015-02-11T14:45:41Z</time>
      </trkpt>
      <trkpt lat="45.63902" lon="6.11349">
        <ele>1672.35</ele>
        <time>2015-02-11T14:46:01Z</time>
      </trkpt>
      <trkpt lat="45.63907" lon="6.1135">
        <ele>1672.83</ele>
        <time>2015-02-11T14:46:17Z</time>
      </trkpt>
      <trkpt lat="45.63907" lon="6.1135">
        <ele>1672.83</ele>
        <time>2015-02-11T14:46:18Z</time>
      </trkpt>
      <trkpt lat="45.63913" lon="6.11355">
        <ele>1672.35</ele>
        <time>2015-02-11T14:46:21Z</time>
      </trkpt>
      <trkpt lat="45.63933" lon="6.11345">
        <ele>1670.43</ele>
        <time>2015-02-11T14:46:25Z</time>
      </trkpt>
      <trkpt lat="45.6394" lon="6.11341">
        <ele>1669.47</ele>
        <time>2015-02-11T14:46:26Z</time>
      </trkpt>
      <trkpt lat="45.63963" lon="6.11327">
        <ele>1665.62</ele>
        <time>2015-02-11T14:46:32Z</time>
      </trkpt>
      <trkpt lat="45.63975" lon="6.11316">
        <ele>1663.7</ele>
        <time>2015-02-11T14:46:36Z</time>
      </trkpt>
      <trkpt lat="45.63983" lon="6.11305">
        <ele>1662.74</ele>
        <time>2015-02-11T14:46:38Z</time>
      </trkpt>
      <trkpt lat="45.63983" lon="6.1128">
        <ele>1658.89</ele>
        <time>2015-02-11T14:46:41Z</time>
      </trkpt>
      <trkpt lat="45.63977" lon="6.11266">
        <ele>1653.6</ele>
        <time>2015-02-11T14:46:43Z</time>
      </trkpt>
      <trkpt lat="45.63978" lon="6.11258">
        <ele>1650.72</ele>
        <time>2015-02-11T14:46:44Z</time>
      </trkpt>
      <trkpt lat="45.63976" lon="6.11252">
        <ele>1647.84</ele>
        <time>2015-02-11T14:46:45Z</time>
      </trkpt>
      <trkpt lat="45.63972" lon="6.11231">
        <ele>1640.63</ele>
        <time>2015-02-11T14:46:48Z</time>
      </trkpt>
      <trkpt lat="45.63967" lon="6.11222">
        <ele>1635.34</ele>
        <time>2015-02-11T14:46:50Z</time>
      </trkpt>
      <trkpt lat="45.63965" lon="6.11216">
        <ele>1632.46</ele>
        <time>2015-02-11T14:46:51Z</time>
      </trkpt>
      <trkpt lat="45.63958" lon="6.11208">
        <ele>1626.69</ele>
        <time>2015-02-11T14:46:53Z</time>
      </trkpt>
      <trkpt lat="45.63949" lon="6.11202">
        <ele>1620.44</ele>
        <time>2015-02-11T14:46:55Z</time>
      </trkpt>
      <trkpt lat="45.63946" lon="6.11199">
        <ele>1617.56</ele>
        <time>2015-02-11T14:46:56Z</time>
      </trkpt>
      <trkpt lat="45.63942" lon="6.1119">
        <ele>1611.79</ele>
        <time>2015-02-11T14:46:58Z</time>
      </trkpt>
      <trkpt lat="45.63938" lon="6.11181">
        <ele>1609.38</ele>
        <time>2015-02-11T14:47:00Z</time>
      </trkpt>
      <trkpt lat="45.63936" lon="6.11177">
        <ele>1606.5</ele>
        <time>2015-02-11T14:47:01Z</time>
      </trkpt>
      <trkpt lat="45.6393" lon="6.11159">
        <ele>1597.85</ele>
        <time>2015-02-11T14:47:04Z</time>
      </trkpt>
      <trkpt lat="45.63926" lon="6.11149">
        <ele>1592.08</ele>
        <time>2015-02-11T14:47:06Z</time>
      </trkpt>
      <trkpt lat="45.63924" lon="6.11143">
        <ele>1590.16</ele>
        <time>2015-02-11T14:47:07Z</time>
      </trkpt>
      <trkpt lat="45.6391" lon="6.11135">
        <ele>1581.99</ele>
        <time>2015-02-11T14:47:10Z</time>
      </trkpt>
      <trkpt lat="45.63909" lon="6.11128">
        <ele>1581.99</ele>
        <time>2015-02-11T14:47:11Z</time>
      </trkpt>
      <trkpt lat="45.6391" lon="6.11115">
        <ele>1576.7</ele>
        <time>2015-02-11T14:47:13Z</time>
      </trkpt>
      <trkpt lat="45.63908" lon="6.11114">
        <ele>1574.3</ele>
        <time>2015-02-11T14:47:14Z</time>
      </trkpt>
      <trkpt lat="45.63904" lon="6.1112">
        <ele>1569.49</ele>
        <time>2015-02-11T14:47:19Z</time>
      </trkpt>
      <trkpt lat="45.63905" lon="6.11119">
        <ele>1569.49</ele>
        <time>2015-02-11T14:47:45Z</time>
      </trkpt>
      <trkpt lat="45.63895" lon="6.11096">
        <ele>1565.16</ele>
        <time>2015-02-11T14:47:48Z</time>
      </trkpt>
      <trkpt lat="45.63887" lon="6.11086">
        <ele>1565.16</ele>
        <time>2015-02-11T14:47:49Z</time>
      </trkpt>
      <trkpt lat="45.63847" lon="6.11061">
        <ele>1555.55</ele>
        <time>2015-02-11T14:47:53Z</time>
      </trkpt>
      <trkpt lat="45.63834" lon="6.1106">
        <ele>1553.15</ele>
        <time>2015-02-11T14:47:55Z</time>
      </trkpt>
      <trkpt lat="45.63826" lon="6.1106">
        <ele>1552.19</ele>
        <time>2015-02-11T14:48:03Z</time>
      </trkpt>
      <trkpt lat="45.63826" lon="6.1106">
        <ele>1555.07</ele>
        <time>2015-02-11T14:49:56Z</time>
      </trkpt>
      <trkpt lat="45.63826" lon="6.11061">
        <ele>1557.47</ele>
        <time>2015-02-11T14:51:27Z</time>
      </trkpt>
      <trkpt lat="45.63809" lon="6.1105">
        <ele>1558.43</ele>
        <time>2015-02-11T14:52:32Z</time>
      </trkpt>
      <trkpt lat="45.63812" lon="6.11032">
        <ele>1560.36</ele>
        <time>2015-02-11T14:52:51Z</time>
      </trkpt>
      <trkpt lat="45.6381" lon="6.11025">
        <ele>1562.76</ele>
        <time>2015-02-11T14:53:09Z</time>
      </trkpt>
      <trkpt lat="45.638" lon="6.11013">
        <ele>1565.64</ele>
        <time>2015-02-11T14:53:29Z</time>
      </trkpt>
      <trkpt lat="45.63787" lon="6.11001">
        <ele>1568.53</ele>
        <time>2015-02-11T14:53:51Z</time>
      </trkpt>
      <trkpt lat="45.63783" lon="6.10997">
        <ele>1569.01</ele>
        <time>2015-02-11T14:53:57Z</time>
      </trkpt>
      <trkpt lat="45.63768" lon="6.1099">
        <ele>1566.12</ele>
        <time>2015-02-11T14:54:06Z</time>
      </trkpt>
      <trkpt lat="45.63762" lon="6.10987">
        <ele>1568.53</ele>
        <time>2015-02-11T14:54:22Z</time>
      </trkpt>
      <trkpt lat="45.63753" lon="6.10984">
        <ele>1571.41</ele>
        <time>2015-02-11T14:54:40Z</time>
      </trkpt>
      <trkpt lat="45.63745" lon="6.10981">
        <ele>1574.78</ele>
        <time>2015-02-11T14:54:56Z</time>
      </trkpt>
      <trkpt lat="45.63741" lon="6.10971">
        <ele>1577.66</ele>
        <time>2015-02-11T14:55:16Z</time>
      </trkpt>
      <trkpt lat="45.6374" lon="6.10968">
        <ele>1577.18</ele>
        <time>2015-02-11T14:55:21Z</time>
      </trkpt>
      <trkpt lat="45.63729" lon="6.1097">
        <ele>1573.82</ele>
        <time>2015-02-11T14:55:28Z</time>
      </trkpt>
      <trkpt lat="45.63714" lon="6.10973">
        <ele>1575.26</ele>
        <time>2015-02-11T14:55:49Z</time>
      </trkpt>
      <trkpt lat="45.63703" lon="6.10977">
        <ele>1577.18</ele>
        <time>2015-02-11T14:56:07Z</time>
      </trkpt>
      <trkpt lat="45.637" lon="6.10978">
        <ele>1577.66</ele>
        <time>2015-02-11T14:56:11Z</time>
      </trkpt>
      <trkpt lat="45.63682" lon="6.10983">
        <ele>1580.06</ele>
        <time>2015-02-11T14:56:30Z</time>
      </trkpt>
      <trkpt lat="45.63669" lon="6.10981">
        <ele>1583.43</ele>
        <time>2015-02-11T14:56:52Z</time>
      </trkpt>
      <trkpt lat="45.63664" lon="6.10987">
        <ele>1585.35</ele>
        <time>2015-02-11T14:57:07Z</time>
      </trkpt>
      <trkpt lat="45.63653" lon="6.10992">
        <ele>1587.75</ele>
        <time>2015-02-11T14:57:24Z</time>
      </trkpt>
      <trkpt lat="45.63649" lon="6.10999">
        <ele>1591.12</ele>
        <time>2015-02-11T14:57:39Z</time>
      </trkpt>
      <trkpt lat="45.63646" lon="6.10999">
        <ele>1594</ele>
        <time>2015-02-11T14:57:54Z</time>
      </trkpt>
      <trkpt lat="45.63638" lon="6.10998">
        <ele>1596.89</ele>
        <time>2015-02-11T14:58:18Z</time>
      </trkpt>
      <trkpt lat="45.63635" lon="6.11006">
        <ele>1599.77</ele>
        <time>2015-02-11T14:58:38Z</time>
      </trkpt>
      <trkpt lat="45.63636" lon="6.1101">
        <ele>1601.21</ele>
        <time>2015-02-11T14:58:48Z</time>
      </trkpt>
      <trkpt lat="45.63638" lon="6.11019">
        <ele>1603.14</ele>
        <time>2015-02-11T14:59:01Z</time>
      </trkpt>
      <trkpt lat="45.63627" lon="6.11021">
        <ele>1606.02</ele>
        <time>2015-02-11T14:59:18Z</time>
      </trkpt>
      <trkpt lat="45.63615" lon="6.11018">
        <ele>1608.9</ele>
        <time>2015-02-11T14:59:39Z</time>
      </trkpt>
      <trkpt lat="45.63607" lon="6.11018">
        <ele>1611.79</ele>
        <time>2015-02-11T15:00:00Z</time>
      </trkpt>
      <trkpt lat="45.63604" lon="6.11033">
        <ele>1614.67</ele>
        <time>2015-02-11T15:00:18Z</time>
      </trkpt>
      <trkpt lat="45.63598" lon="6.11039">
        <ele>1615.63</ele>
        <time>2015-02-11T15:00:30Z</time>
      </trkpt>
      <trkpt lat="45.63589" lon="6.11036">
        <ele>1619</ele>
        <time>2015-02-11T15:00:48Z</time>
      </trkpt>
      <trkpt lat="45.63588" lon="6.1105">
        <ele>1621.4</ele>
        <time>2015-02-11T15:01:05Z</time>
      </trkpt>
      <trkpt lat="45.63589" lon="6.11054">
        <ele>1622.36</ele>
        <time>2015-02-11T15:01:12Z</time>
      </trkpt>
      <trkpt lat="45.6359" lon="6.11057">
        <ele>1622.84</ele>
        <time>2015-02-11T15:01:15Z</time>
      </trkpt>
      <trkpt lat="45.63582" lon="6.11062">
        <ele>1624.77</ele>
        <time>2015-02-11T15:01:27Z</time>
      </trkpt>
      <trkpt lat="45.63571" lon="6.11054">
        <ele>1627.65</ele>
        <time>2015-02-11T15:01:48Z</time>
      </trkpt>
      <trkpt lat="45.63568" lon="6.11066">
        <ele>1631.01</ele>
        <time>2015-02-11T15:02:06Z</time>
      </trkpt>
      <trkpt lat="45.63564" lon="6.11074">
        <ele>1632.46</ele>
        <time>2015-02-11T15:02:16Z</time>
      </trkpt>
      <trkpt lat="45.63552" lon="6.11074">
        <ele>1635.82</ele>
        <time>2015-02-11T15:02:33Z</time>
      </trkpt>
      <trkpt lat="45.63539" lon="6.11063">
        <ele>1638.7</ele>
        <time>2015-02-11T15:02:57Z</time>
      </trkpt>
      <trkpt lat="45.63535" lon="6.11051">
        <ele>1641.59</ele>
        <time>2015-02-11T15:03:16Z</time>
      </trkpt>
      <trkpt lat="45.63527" lon="6.11049">
        <ele>1644.95</ele>
        <time>2015-02-11T15:03:36Z</time>
      </trkpt>
      <trkpt lat="45.63517" lon="6.11061">
        <ele>1647.84</ele>
        <time>2015-02-11T15:03:54Z</time>
      </trkpt>
      <trkpt lat="45.63514" lon="6.11064">
        <ele>1649.76</ele>
        <time>2015-02-11T15:04:10Z</time>
      </trkpt>
      <trkpt lat="45.63505" lon="6.11049">
        <ele>1653.12</ele>
        <time>2015-02-11T15:04:30Z</time>
      </trkpt>
      <trkpt lat="45.63501" lon="6.11055">
        <ele>1656.01</ele>
        <time>2015-02-11T15:04:47Z</time>
      </trkpt>
      <trkpt lat="45.63497" lon="6.11066">
        <ele>1657.93</ele>
        <time>2015-02-11T15:05:03Z</time>
      </trkpt>
      <trkpt lat="45.63489" lon="6.11071">
        <ele>1660.81</ele>
        <time>2015-02-11T15:05:20Z</time>
      </trkpt>
      <trkpt lat="45.63484" lon="6.11058">
        <ele>1663.7</ele>
        <time>2015-02-11T15:05:38Z</time>
      </trkpt>
      <trkpt lat="45.6348" lon="6.1104">
        <ele>1667.06</ele>
        <time>2015-02-11T15:05:58Z</time>
      </trkpt>
      <trkpt lat="45.63474" lon="6.11048">
        <ele>1669.47</ele>
        <time>2015-02-11T15:06:16Z</time>
      </trkpt>
      <trkpt lat="45.63464" lon="6.11056">
        <ele>1672.35</ele>
        <time>2015-02-11T15:06:35Z</time>
      </trkpt>
      <trkpt lat="45.63455" lon="6.11063">
        <ele>1675.72</ele>
        <time>2015-02-11T15:06:51Z</time>
      </trkpt>
      <trkpt lat="45.6345" lon="6.11068">
        <ele>1678.12</ele>
        <time>2015-02-11T15:07:09Z</time>
      </trkpt>
      <trkpt lat="45.63447" lon="6.11053">
        <ele>1681.48</ele>
        <time>2015-02-11T15:07:28Z</time>
      </trkpt>
      <trkpt lat="45.63446" lon="6.11036">
        <ele>1684.37</ele>
        <time>2015-02-11T15:07:44Z</time>
      </trkpt>
      <trkpt lat="45.63442" lon="6.11033">
        <ele>1687.73</ele>
        <time>2015-02-11T15:08:03Z</time>
      </trkpt>
      <trkpt lat="45.63433" lon="6.11039">
        <ele>1690.62</ele>
        <time>2015-02-11T15:08:20Z</time>
      </trkpt>
      <trkpt lat="45.63425" lon="6.11048">
        <ele>1693.98</ele>
        <time>2015-02-11T15:08:38Z</time>
      </trkpt>
      <trkpt lat="45.63421" lon="6.11045">
        <ele>1696.38</ele>
        <time>2015-02-11T15:08:58Z</time>
      </trkpt>
      <trkpt lat="45.63418" lon="6.11029">
        <ele>1699.27</ele>
        <time>2015-02-11T15:09:18Z</time>
      </trkpt>
      <trkpt lat="45.6342" lon="6.11014">
        <ele>1702.63</ele>
        <time>2015-02-11T15:09:34Z</time>
      </trkpt>
      <trkpt lat="45.63416" lon="6.11012">
        <ele>1705.04</ele>
        <time>2015-02-11T15:09:51Z</time>
      </trkpt>
      <trkpt lat="45.6341" lon="6.1101">
        <ele>1707.92</ele>
        <time>2015-02-11T15:10:10Z</time>
      </trkpt>
      <trkpt lat="45.63403" lon="6.11014">
        <ele>1711.28</ele>
        <time>2015-02-11T15:10:32Z</time>
      </trkpt>
      <trkpt lat="45.634" lon="6.11009">
        <ele>1713.21</ele>
        <time>2015-02-11T15:10:52Z</time>
      </trkpt>
      <trkpt lat="45.63403" lon="6.11001">
        <ele>1714.65</ele>
        <time>2015-02-11T15:11:19Z</time>
      </trkpt>
      <trkpt lat="45.63401" lon="6.10999">
        <ele>1715.61</ele>
        <time>2015-02-11T15:11:45Z</time>
      </trkpt>
      <trkpt lat="45.63389" lon="6.11009">
        <ele>1718.49</ele>
        <time>2015-02-11T15:12:11Z</time>
      </trkpt>
      <trkpt lat="45.63383" lon="6.1101">
        <ele>1720.9</ele>
        <time>2015-02-11T15:12:30Z</time>
      </trkpt>
      <trkpt lat="45.63385" lon="6.10996">
        <ele>1723.3</ele>
        <time>2015-02-11T15:12:55Z</time>
      </trkpt>
      <trkpt lat="45.63389" lon="6.10979">
        <ele>1726.67</ele>
        <time>2015-02-11T15:14:05Z</time>
      </trkpt>
      <trkpt lat="45.6339" lon="6.10971">
        <ele>1728.59</ele>
        <time>2015-02-11T15:14:26Z</time>
      </trkpt>
      <trkpt lat="45.63386" lon="6.10973">
        <ele>1730.51</ele>
        <time>2015-02-11T15:14:41Z</time>
      </trkpt>
      <trkpt lat="45.63379" lon="6.10978">
        <ele>1732.91</ele>
        <time>2015-02-11T15:14:55Z</time>
      </trkpt>
      <trkpt lat="45.63373" lon="6.10981">
        <ele>1733.88</ele>
        <time>2015-02-11T15:15:14Z</time>
      </trkpt>
      <trkpt lat="45.63368" lon="6.10985">
        <ele>1735.32</ele>
        <time>2015-02-11T15:15:23Z</time>
      </trkpt>
      <trkpt lat="45.63366" lon="6.10985">
        <ele>1735.8</ele>
        <time>2015-02-11T15:15:35Z</time>
      </trkpt>
      <trkpt lat="45.63367" lon="6.10977">
        <ele>1736.76</ele>
        <time>2015-02-11T15:15:47Z</time>
      </trkpt>
      <trkpt lat="45.63364" lon="6.10981">
        <ele>1738.2</ele>
        <time>2015-02-11T15:16:16Z</time>
      </trkpt>
      <trkpt lat="45.63363" lon="6.10982">
        <ele>1738.68</ele>
        <time>2015-02-11T15:16:19Z</time>
      </trkpt>
      <trkpt lat="45.6336" lon="6.10984">
        <ele>1740.12</ele>
        <time>2015-02-11T15:16:27Z</time>
      </trkpt>
      <trkpt lat="45.63358" lon="6.10979">
        <ele>1741.57</ele>
        <time>2015-02-11T15:16:43Z</time>
      </trkpt>
      <trkpt lat="45.63358" lon="6.10974">
        <ele>1743.97</ele>
        <time>2015-02-11T15:17:06Z</time>
      </trkpt>
      <trkpt lat="45.63352" lon="6.10979">
        <ele>1745.41</ele>
        <time>2015-02-11T15:17:20Z</time>
      </trkpt>
      <trkpt lat="45.63349" lon="6.10977">
        <ele>1746.37</ele>
        <time>2015-02-11T15:17:43Z</time>
      </trkpt>
      <trkpt lat="45.63351" lon="6.10967">
        <ele>1748.78</ele>
        <time>2015-02-11T15:18:02Z</time>
      </trkpt>
      <trkpt lat="45.63355" lon="6.10958">
        <ele>1750.22</ele>
        <time>2015-02-11T15:18:17Z</time>
      </trkpt>
      <trkpt lat="45.63366" lon="6.10947">
        <ele>1751.18</ele>
        <time>2015-02-11T15:18:38Z</time>
      </trkpt>
      <trkpt lat="45.63375" lon="6.10938">
        <ele>1752.62</ele>
        <time>2015-02-11T15:19:05Z</time>
      </trkpt>
      <trkpt lat="45.63372" lon="6.10939">
        <ele>1753.1</ele>
        <time>2015-02-11T15:19:21Z</time>
      </trkpt>
      <trkpt lat="45.63372" lon="6.1094">
        <ele>1754.06</ele>
        <time>2015-02-11T15:19:35Z</time>
      </trkpt>
      <trkpt lat="45.6337" lon="6.10939">
        <ele>1754.54</ele>
        <time>2015-02-11T15:19:55Z</time>
      </trkpt>
      <trkpt lat="45.63362" lon="6.1094">
        <ele>1755.99</ele>
        <time>2015-02-11T15:20:11Z</time>
      </trkpt>
      <trkpt lat="45.63354" lon="6.1094">
        <ele>1757.43</ele>
        <time>2015-02-11T15:20:25Z</time>
      </trkpt>
      <trkpt lat="45.63344" lon="6.10941">
        <ele>1760.31</ele>
        <time>2015-02-11T15:20:39Z</time>
      </trkpt>
      <trkpt lat="45.63339" lon="6.10946">
        <ele>1763.68</ele>
        <time>2015-02-11T15:20:59Z</time>
      </trkpt>
      <trkpt lat="45.63338" lon="6.10949">
        <ele>1765.6</ele>
        <time>2015-02-11T15:21:15Z</time>
      </trkpt>
      <trkpt lat="45.6333" lon="6.1095">
        <ele>1767.52</ele>
        <time>2015-02-11T15:21:35Z</time>
      </trkpt>
      <trkpt lat="45.63329" lon="6.1095">
        <ele>1768</ele>
        <time>2015-02-11T15:21:37Z</time>
      </trkpt>
      <trkpt lat="45.63319" lon="6.1095">
        <ele>1770.89</ele>
        <time>2015-02-11T15:21:54Z</time>
      </trkpt>
      <trkpt lat="45.63309" lon="6.10947">
        <ele>1773.77</ele>
        <time>2015-02-11T15:22:11Z</time>
      </trkpt>
      <trkpt lat="45.63302" lon="6.10944">
        <ele>1775.21</ele>
        <time>2015-02-11T15:22:29Z</time>
      </trkpt>
      <trkpt lat="45.633" lon="6.10948">
        <ele>1776.65</ele>
        <time>2015-02-11T15:22:44Z</time>
      </trkpt>
      <trkpt lat="45.63298" lon="6.10957">
        <ele>1779.06</ele>
        <time>2015-02-11T15:23:04Z</time>
      </trkpt>
      <trkpt lat="45.63298" lon="6.10959">
        <ele>1779.54</ele>
        <time>2015-02-11T15:23:06Z</time>
      </trkpt>
      <trkpt lat="45.63297" lon="6.10974">
        <ele>1781.46</ele>
        <time>2015-02-11T15:23:22Z</time>
      </trkpt>
      <trkpt lat="45.63294" lon="6.10977">
        <ele>1783.38</ele>
        <time>2015-02-11T15:23:30Z</time>
      </trkpt>
      <trkpt lat="45.63293" lon="6.1098">
        <ele>1785.31</ele>
        <time>2015-02-11T15:23:42Z</time>
      </trkpt>
      <trkpt lat="45.6329" lon="6.10973">
        <ele>1787.23</ele>
        <time>2015-02-11T15:24:11Z</time>
      </trkpt>
      <trkpt lat="45.63287" lon="6.10981">
        <ele>1788.19</ele>
        <time>2015-02-11T15:24:22Z</time>
      </trkpt>
      <trkpt lat="45.63288" lon="6.10991">
        <ele>1790.11</ele>
        <time>2015-02-11T15:24:32Z</time>
      </trkpt>
      <trkpt lat="45.63284" lon="6.10986">
        <ele>1791.55</ele>
        <time>2015-02-11T15:24:49Z</time>
      </trkpt>
      <trkpt lat="45.63282" lon="6.10995">
        <ele>1793.48</ele>
        <time>2015-02-11T15:25:05Z</time>
      </trkpt>
      <trkpt lat="45.63279" lon="6.10994">
        <ele>1795.88</ele>
        <time>2015-02-11T15:25:22Z</time>
      </trkpt>
      <trkpt lat="45.63269" lon="6.10986">
        <ele>1798.76</ele>
        <time>2015-02-11T15:25:40Z</time>
      </trkpt>
      <trkpt lat="45.63257" lon="6.10969">
        <ele>1801.65</ele>
        <time>2015-02-11T15:26:02Z</time>
      </trkpt>
      <trkpt lat="45.63255" lon="6.10971">
        <ele>1803.57</ele>
        <time>2015-02-11T15:26:20Z</time>
      </trkpt>
      <trkpt lat="45.63251" lon="6.10973">
        <ele>1806.45</ele>
        <time>2015-02-11T15:26:35Z</time>
      </trkpt>
      <trkpt lat="45.63243" lon="6.10965">
        <ele>1809.82</ele>
        <time>2015-02-11T15:26:52Z</time>
      </trkpt>
      <trkpt lat="45.63238" lon="6.10975">
        <ele>1812.7</ele>
        <time>2015-02-11T15:27:08Z</time>
      </trkpt>
      <trkpt lat="45.63234" lon="6.10984">
        <ele>1816.07</ele>
        <time>2015-02-11T15:27:22Z</time>
      </trkpt>
      <trkpt lat="45.63231" lon="6.10981">
        <ele>1817.51</ele>
        <time>2015-02-11T15:27:29Z</time>
      </trkpt>
      <trkpt lat="45.63226" lon="6.10972">
        <ele>1820.39</ele>
        <time>2015-02-11T15:27:47Z</time>
      </trkpt>
      <trkpt lat="45.63217" lon="6.1096">
        <ele>1823.76</ele>
        <time>2015-02-11T15:28:10Z</time>
      </trkpt>
      <trkpt lat="45.63204" lon="6.10951">
        <ele>1825.2</ele>
        <time>2015-02-11T15:28:33Z</time>
      </trkpt>
      <trkpt lat="45.6319" lon="6.10947">
        <ele>1828.56</ele>
        <time>2015-02-11T15:28:53Z</time>
      </trkpt>
      <trkpt lat="45.63177" lon="6.10946">
        <ele>1831.45</ele>
        <time>2015-02-11T15:29:11Z</time>
      </trkpt>
      <trkpt lat="45.63166" lon="6.10943">
        <ele>1834.81</ele>
        <time>2015-02-11T15:29:31Z</time>
      </trkpt>
      <trkpt lat="45.6316" lon="6.10941">
        <ele>1835.77</ele>
        <time>2015-02-11T15:29:52Z</time>
      </trkpt>
      <trkpt lat="45.63164" lon="6.10949">
        <ele>1837.7</ele>
        <time>2015-02-11T15:30:13Z</time>
      </trkpt>
      <trkpt lat="45.63165" lon="6.10953">
        <ele>1839.14</ele>
        <time>2015-02-11T15:30:31Z</time>
      </trkpt>
      <trkpt lat="45.63166" lon="6.10955">
        <ele>1839.62</ele>
        <time>2015-02-11T15:30:55Z</time>
      </trkpt>
      <trkpt lat="45.63161" lon="6.10955">
        <ele>1840.58</ele>
        <time>2015-02-11T15:31:07Z</time>
      </trkpt>
      <trkpt lat="45.63157" lon="6.10953">
        <ele>1842.5</ele>
        <time>2015-02-11T15:31:26Z</time>
      </trkpt>
      <trkpt lat="45.63156" lon="6.10953">
        <ele>1842.02</ele>
        <time>2015-02-11T15:31:56Z</time>
      </trkpt>
      <trkpt lat="45.63155" lon="6.10955">
        <ele>1841.54</ele>
        <time>2015-02-11T15:32:42Z</time>
      </trkpt>
      <trkpt lat="45.63155" lon="6.10955">
        <ele>1841.54</ele>
        <time>2015-02-11T15:33:43Z</time>
      </trkpt>
      <trkpt lat="45.63155" lon="6.10954">
        <ele>1841.06</ele>
        <time>2015-02-11T15:37:24Z</time>
      </trkpt>
      <trkpt lat="45.63155" lon="6.10954">
        <ele>1841.06</ele>
        <time>2015-02-11T15:37:36Z</time>
      </trkpt>
      <trkpt lat="45.63154" lon="6.10959">
        <ele>1841.06</ele>
        <time>2015-02-11T15:37:52Z</time>
      </trkpt>
      <trkpt lat="45.63154" lon="6.10958">
        <ele>1840.58</ele>
        <time>2015-02-11T15:38:25Z</time>
      </trkpt>
      <trkpt lat="45.63154" lon="6.10958">
        <ele>1841.06</ele>
        <time>2015-02-11T15:39:28Z</time>
      </trkpt>
      <trkpt lat="45.63152" lon="6.10959">
        <ele>1840.1</ele>
        <time>2015-02-11T15:40:50Z</time>
      </trkpt>
      <trkpt lat="45.63157" lon="6.10956">
        <ele>1840.1</ele>
        <time>2015-02-11T15:42:34Z</time>
      </trkpt>
      <trkpt lat="45.63157" lon="6.10958">
        <ele>1839.62</ele>
        <time>2015-02-11T15:45:22Z</time>
      </trkpt>
      <trkpt lat="45.63157" lon="6.10958">
        <ele>1839.14</ele>
        <time>2015-02-11T15:45:50Z</time>
      </trkpt>
      <trkpt lat="45.6316" lon="6.10957">
        <ele>1838.18</ele>
        <time>2015-02-11T15:46:09Z</time>
      </trkpt>
      <trkpt lat="45.63161" lon="6.10955">
        <ele>1837.22</ele>
        <time>2015-02-11T15:46:27Z</time>
      </trkpt>
      <trkpt lat="45.63165" lon="6.10953">
        <ele>1835.77</ele>
        <time>2015-02-11T15:46:43Z</time>
      </trkpt>
      <trkpt lat="45.63168" lon="6.10955">
        <ele>1834.81</ele>
        <time>2015-02-11T15:46:57Z</time>
      </trkpt>
      <trkpt lat="45.63171" lon="6.10952">
        <ele>1834.81</ele>
        <time>2015-02-11T15:47:12Z</time>
      </trkpt>
      <trkpt lat="45.63175" lon="6.10952">
        <ele>1833.37</ele>
        <time>2015-02-11T15:47:23Z</time>
      </trkpt>
      <trkpt lat="45.63188" lon="6.10948">
        <ele>1832.41</ele>
        <time>2015-02-11T15:47:26Z</time>
      </trkpt>
      <trkpt lat="45.63208" lon="6.10954">
        <ele>1826.16</ele>
        <time>2015-02-11T15:47:29Z</time>
      </trkpt>
      <trkpt lat="45.63215" lon="6.1096">
        <ele>1822.8</ele>
        <time>2015-02-11T15:47:32Z</time>
      </trkpt>
      <trkpt lat="45.63217" lon="6.1096">
        <ele>1823.28</ele>
        <time>2015-02-11T15:47:41Z</time>
      </trkpt>
      <trkpt lat="45.63224" lon="6.10966">
        <ele>1821.84</ele>
        <time>2015-02-11T15:47:47Z</time>
      </trkpt>
      <trkpt lat="45.63226" lon="6.10972">
        <ele>1821.35</ele>
        <time>2015-02-11T15:47:49Z</time>
      </trkpt>
      <trkpt lat="45.63234" lon="6.10991">
        <ele>1819.43</ele>
        <time>2015-02-11T15:47:54Z</time>
      </trkpt>
      <trkpt lat="45.63235" lon="6.10992">
        <ele>1819.43</ele>
        <time>2015-02-11T15:47:58Z</time>
      </trkpt>
      <trkpt lat="45.6325" lon="6.10981">
        <ele>1814.63</ele>
        <time>2015-02-11T15:48:03Z</time>
      </trkpt>
      <trkpt lat="45.63254" lon="6.10976">
        <ele>1812.22</ele>
        <time>2015-02-11T15:48:05Z</time>
      </trkpt>
      <trkpt lat="45.63254" lon="6.10976">
        <ele>1808.38</ele>
        <time>2015-02-11T15:48:07Z</time>
      </trkpt>
      <trkpt lat="45.63255" lon="6.10975">
        <ele>1805.97</ele>
        <time>2015-02-11T15:48:21Z</time>
      </trkpt>
      <trkpt lat="45.63263" lon="6.10967">
        <ele>1803.57</ele>
        <time>2015-02-11T15:48:24Z</time>
      </trkpt>
      <trkpt lat="45.63264" lon="6.10962">
        <ele>1801.65</ele>
        <time>2015-02-11T15:48:25Z</time>
      </trkpt>
      <trkpt lat="45.63261" lon="6.10943">
        <ele>1795.4</ele>
        <time>2015-02-11T15:48:28Z</time>
      </trkpt>
      <trkpt lat="45.63261" lon="6.10942">
        <ele>1792.52</ele>
        <time>2015-02-11T15:48:32Z</time>
      </trkpt>
      <trkpt lat="45.63265" lon="6.10934">
        <ele>1792.03</ele>
        <time>2015-02-11T15:48:57Z</time>
      </trkpt>
      <trkpt lat="45.63264" lon="6.10932">
        <ele>1792.03</ele>
        <time>2015-02-11T15:49:17Z</time>
      </trkpt>
      <trkpt lat="45.63261" lon="6.10933">
        <ele>1792.03</ele>
        <time>2015-02-11T15:49:59Z</time>
      </trkpt>
      <trkpt lat="45.63265" lon="6.10916">
        <ele>1788.19</ele>
        <time>2015-02-11T15:50:03Z</time>
      </trkpt>
      <trkpt lat="45.63271" lon="6.10901">
        <ele>1780.02</ele>
        <time>2015-02-11T15:50:06Z</time>
      </trkpt>
      <trkpt lat="45.63274" lon="6.10896">
        <ele>1776.17</ele>
        <time>2015-02-11T15:50:07Z</time>
      </trkpt>
      <trkpt lat="45.63276" lon="6.10893">
        <ele>1773.29</ele>
        <time>2015-02-11T15:50:08Z</time>
      </trkpt>
      <trkpt lat="45.63278" lon="6.10889">
        <ele>1769.92</ele>
        <time>2015-02-11T15:50:09Z</time>
      </trkpt>
      <trkpt lat="45.6328" lon="6.10885">
        <ele>1769.92</ele>
        <time>2015-02-11T15:50:10Z</time>
      </trkpt>
      <trkpt lat="45.63285" lon="6.10876">
        <ele>1764.16</ele>
        <time>2015-02-11T15:50:12Z</time>
      </trkpt>
      <trkpt lat="45.6329" lon="6.10867">
        <ele>1757.91</ele>
        <time>2015-02-11T15:50:14Z</time>
      </trkpt>
      <trkpt lat="45.63293" lon="6.10863">
        <ele>1755.02</ele>
        <time>2015-02-11T15:50:15Z</time>
      </trkpt>
      <trkpt lat="45.63296" lon="6.1086">
        <ele>1751.66</ele>
        <time>2015-02-11T15:50:16Z</time>
      </trkpt>
      <trkpt lat="45.63299" lon="6.10856">
        <ele>1748.29</ele>
        <time>2015-02-11T15:50:17Z</time>
      </trkpt>
      <trkpt lat="45.6331" lon="6.10844">
        <ele>1739.16</ele>
        <time>2015-02-11T15:50:20Z</time>
      </trkpt>
      <trkpt lat="45.63313" lon="6.10841">
        <ele>1739.16</ele>
        <time>2015-02-11T15:50:21Z</time>
      </trkpt>
      <trkpt lat="45.63319" lon="6.10834">
        <ele>1732.91</ele>
        <time>2015-02-11T15:50:23Z</time>
      </trkpt>
      <trkpt lat="45.63325" lon="6.10827">
        <ele>1727.15</ele>
        <time>2015-02-11T15:50:25Z</time>
      </trkpt>
      <trkpt lat="45.63329" lon="6.1082">
        <ele>1721.86</ele>
        <time>2015-02-11T15:50:27Z</time>
      </trkpt>
      <trkpt lat="45.63338" lon="6.10828">
        <ele>1716.09</ele>
        <time>2015-02-11T15:50:31Z</time>
      </trkpt>
      <trkpt lat="45.63338" lon="6.1083">
        <ele>1716.09</ele>
        <time>2015-02-11T15:50:32Z</time>
      </trkpt>
      <trkpt lat="45.63357" lon="6.10839">
        <ele>1712.73</ele>
        <time>2015-02-11T15:51:31Z</time>
      </trkpt>
      <trkpt lat="45.63375" lon="6.10852">
        <ele>1709.36</ele>
        <time>2015-02-11T15:51:39Z</time>
      </trkpt>
      <trkpt lat="45.63377" lon="6.10852">
        <ele>1707.92</ele>
        <time>2015-02-11T15:51:53Z</time>
      </trkpt>
      <trkpt lat="45.63381" lon="6.10857">
        <ele>1711.28</ele>
        <time>2015-02-11T16:04:44Z</time>
      </trkpt>
      <trkpt lat="45.63373" lon="6.10854">
        <ele>1714.17</ele>
        <time>2015-02-11T16:05:20Z</time>
      </trkpt>
      <trkpt lat="45.63362" lon="6.10853">
        <ele>1717.05</ele>
        <time>2015-02-11T16:05:39Z</time>
      </trkpt>
      <trkpt lat="45.63354" lon="6.10854">
        <ele>1720.42</ele>
        <time>2015-02-11T16:05:57Z</time>
      </trkpt>
      <trkpt lat="45.63352" lon="6.10858">
        <ele>1722.34</ele>
        <time>2015-02-11T16:06:20Z</time>
      </trkpt>
      <trkpt lat="45.63354" lon="6.1087">
        <ele>1724.74</ele>
        <time>2015-02-11T16:06:38Z</time>
      </trkpt>
      <trkpt lat="45.63357" lon="6.10878">
        <ele>1727.15</ele>
        <time>2015-02-11T16:06:50Z</time>
      </trkpt>
      <trkpt lat="45.6336" lon="6.10882">
        <ele>1728.11</ele>
        <time>2015-02-11T16:07:03Z</time>
      </trkpt>
      <trkpt lat="45.6335" lon="6.1088">
        <ele>1731.47</ele>
        <time>2015-02-11T16:07:25Z</time>
      </trkpt>
      <trkpt lat="45.63343" lon="6.1088">
        <ele>1734.36</ele>
        <time>2015-02-11T16:07:42Z</time>
      </trkpt>
      <trkpt lat="45.63332" lon="6.10877">
        <ele>1737.72</ele>
        <time>2015-02-11T16:08:02Z</time>
      </trkpt>
      <trkpt lat="45.63335" lon="6.10886">
        <ele>1739.16</ele>
        <time>2015-02-11T16:08:25Z</time>
      </trkpt>
      <trkpt lat="45.63339" lon="6.10895">
        <ele>1741.08</ele>
        <time>2015-02-11T16:08:38Z</time>
      </trkpt>
      <trkpt lat="45.63342" lon="6.109">
        <ele>1742.53</ele>
        <time>2015-02-11T16:08:52Z</time>
      </trkpt>
      <trkpt lat="45.63344" lon="6.10905">
        <ele>1743.97</ele>
        <time>2015-02-11T16:09:06Z</time>
      </trkpt>
      <trkpt lat="45.63351" lon="6.10917">
        <ele>1746.37</ele>
        <time>2015-02-11T16:09:25Z</time>
      </trkpt>
      <trkpt lat="45.63352" lon="6.10917">
        <ele>1746.37</ele>
        <time>2015-02-11T16:09:27Z</time>
      </trkpt>
      <trkpt lat="45.63359" lon="6.10926">
        <ele>1747.33</ele>
        <time>2015-02-11T16:09:40Z</time>
      </trkpt>
      <trkpt lat="45.63366" lon="6.10931">
        <ele>1748.78</ele>
        <time>2015-02-11T16:09:52Z</time>
      </trkpt>
      <trkpt lat="45.63371" lon="6.10936">
        <ele>1749.74</ele>
        <time>2015-02-11T16:10:04Z</time>
      </trkpt>
      <trkpt lat="45.63378" lon="6.10939">
        <ele>1750.7</ele>
        <time>2015-02-11T16:10:21Z</time>
      </trkpt>
      <trkpt lat="45.63376" lon="6.1094">
        <ele>1750.22</ele>
        <time>2015-02-11T16:12:11Z</time>
      </trkpt>
      <trkpt lat="45.63376" lon="6.1094">
        <ele>1750.22</ele>
        <time>2015-02-11T16:12:58Z</time>
      </trkpt>
      <trkpt lat="45.63379" lon="6.1094">
        <ele>1750.7</ele>
        <time>2015-02-11T16:13:25Z</time>
      </trkpt>
      <trkpt lat="45.63384" lon="6.10941">
        <ele>1750.22</ele>
        <time>2015-02-11T16:13:45Z</time>
      </trkpt>
      <trkpt lat="45.63387" lon="6.10941">
        <ele>1749.26</ele>
        <time>2015-02-11T16:13:53Z</time>
      </trkpt>
      <trkpt lat="45.63392" lon="6.10944">
        <ele>1749.74</ele>
        <time>2015-02-11T16:14:02Z</time>
      </trkpt>
      <trkpt lat="45.63392" lon="6.10943">
        <ele>1749.26</ele>
        <time>2015-02-11T16:14:18Z</time>
      </trkpt>
      <trkpt lat="45.63393" lon="6.10943">
        <ele>1749.74</ele>
        <time>2015-02-11T16:14:21Z</time>
      </trkpt>
      <trkpt lat="45.63381" lon="6.10946">
        <ele>1750.22</ele>
        <time>2015-02-11T16:14:36Z</time>
      </trkpt>
      <trkpt lat="45.63378" lon="6.10952">
        <ele>1749.74</ele>
        <time>2015-02-11T16:14:47Z</time>
      </trkpt>
      <trkpt lat="45.63378" lon="6.10966">
        <ele>1747.33</ele>
        <time>2015-02-11T16:14:51Z</time>
      </trkpt>
      <trkpt lat="45.63388" lon="6.10973">
        <ele>1744.93</ele>
        <time>2015-02-11T16:14:53Z</time>
      </trkpt>
      <trkpt lat="45.63395" lon="6.10977">
        <ele>1742.05</ele>
        <time>2015-02-11T16:14:54Z</time>
      </trkpt>
      <trkpt lat="45.63406" lon="6.10985">
        <ele>1735.32</ele>
        <time>2015-02-11T16:14:56Z</time>
      </trkpt>
      <trkpt lat="45.63414" lon="6.10994">
        <ele>1728.11</ele>
        <time>2015-02-11T16:14:58Z</time>
      </trkpt>
      <trkpt lat="45.63418" lon="6.10999">
        <ele>1724.26</ele>
        <time>2015-02-11T16:14:59Z</time>
      </trkpt>
      <trkpt lat="45.63421" lon="6.11004">
        <ele>1720.9</ele>
        <time>2015-02-11T16:15:00Z</time>
      </trkpt>
      <trkpt lat="45.63423" lon="6.11009">
        <ele>1717.53</ele>
        <time>2015-02-11T16:15:01Z</time>
      </trkpt>
      <trkpt lat="45.63425" lon="6.11014">
        <ele>1714.65</ele>
        <time>2015-02-11T16:15:02Z</time>
      </trkpt>
      <trkpt lat="45.63427" lon="6.1102">
        <ele>1711.28</ele>
        <time>2015-02-11T16:15:03Z</time>
      </trkpt>
      <trkpt lat="45.63439" lon="6.11026">
        <ele>1706.96</ele>
        <time>2015-02-11T16:15:06Z</time>
      </trkpt>
      <trkpt lat="45.63451" lon="6.11029">
        <ele>1702.15</ele>
        <time>2015-02-11T16:15:08Z</time>
      </trkpt>
      <trkpt lat="45.63454" lon="6.11038">
        <ele>1699.75</ele>
        <time>2015-02-11T16:15:09Z</time>
      </trkpt>
      <trkpt lat="45.63465" lon="6.11055">
        <ele>1694.46</ele>
        <time>2015-02-11T16:15:11Z</time>
      </trkpt>
      <trkpt lat="45.63479" lon="6.11058">
        <ele>1688.21</ele>
        <time>2015-02-11T16:15:13Z</time>
      </trkpt>
      <trkpt lat="45.63485" lon="6.1106">
        <ele>1688.21</ele>
        <time>2015-02-11T16:15:14Z</time>
      </trkpt>
      <trkpt lat="45.63492" lon="6.11061">
        <ele>1685.33</ele>
        <time>2015-02-11T16:15:15Z</time>
      </trkpt>
      <trkpt lat="45.63505" lon="6.11068">
        <ele>1677.16</ele>
        <time>2015-02-11T16:15:18Z</time>
      </trkpt>
      <trkpt lat="45.63509" lon="6.11068">
        <ele>1674.75</ele>
        <time>2015-02-11T16:15:19Z</time>
      </trkpt>
      <trkpt lat="45.63525" lon="6.11059">
        <ele>1670.43</ele>
        <time>2015-02-11T16:15:21Z</time>
      </trkpt>
      <trkpt lat="45.63544" lon="6.11068">
        <ele>1663.7</ele>
        <time>2015-02-11T16:15:24Z</time>
      </trkpt>
      <trkpt lat="45.63553" lon="6.11071">
        <ele>1661.78</ele>
        <time>2015-02-11T16:15:26Z</time>
      </trkpt>
      <trkpt lat="45.63561" lon="6.1107">
        <ele>1659.37</ele>
        <time>2015-02-11T16:15:27Z</time>
      </trkpt>
      <trkpt lat="45.63567" lon="6.11073">
        <ele>1653.12</ele>
        <time>2015-02-11T16:15:30Z</time>
      </trkpt>
      <trkpt lat="45.63564" lon="6.11071">
        <ele>1649.28</ele>
        <time>2015-02-11T16:15:33Z</time>
      </trkpt>
      <trkpt lat="45.63564" lon="6.1107">
        <ele>1649.28</ele>
        <time>2015-02-11T16:15:34Z</time>
      </trkpt>
      <trkpt lat="45.63571" lon="6.11062">
        <ele>1649.76</ele>
        <time>2015-02-11T16:15:50Z</time>
      </trkpt>
      <trkpt lat="45.63571" lon="6.11056">
        <ele>1650.24</ele>
        <time>2015-02-11T16:16:13Z</time>
      </trkpt>
      <trkpt lat="45.63569" lon="6.11056">
        <ele>1651.68</ele>
        <time>2015-02-11T16:16:21Z</time>
      </trkpt>
      <trkpt lat="45.63568" lon="6.11063">
        <ele>1652.16</ele>
        <time>2015-02-11T16:16:36Z</time>
      </trkpt>
      <trkpt lat="45.63566" lon="6.11062">
        <ele>1653.12</ele>
        <time>2015-02-11T16:16:38Z</time>
      </trkpt>
      <trkpt lat="45.63565" lon="6.11067">
        <ele>1653.6</ele>
        <time>2015-02-11T16:16:55Z</time>
      </trkpt>
      <trkpt lat="45.6357" lon="6.11071">
        <ele>1654.57</ele>
        <time>2015-02-11T16:17:11Z</time>
      </trkpt>
      <trkpt lat="45.63563" lon="6.11074">
        <ele>1654.57</ele>
        <time>2015-02-11T16:17:26Z</time>
      </trkpt>
      <trkpt lat="45.63589" lon="6.11055">
        <ele>1650.24</ele>
        <time>2015-02-11T16:17:33Z</time>
      </trkpt>
      <trkpt lat="45.63605" lon="6.11042">
        <ele>1643.03</ele>
        <time>2015-02-11T16:17:36Z</time>
      </trkpt>
      <trkpt lat="45.63611" lon="6.11037">
        <ele>1639.19</ele>
        <time>2015-02-11T16:17:38Z</time>
      </trkpt>
      <trkpt lat="45.63618" lon="6.11033">
        <ele>1636.3</ele>
        <time>2015-02-11T16:17:40Z</time>
      </trkpt>
      <trkpt lat="45.63627" lon="6.11023">
        <ele>1633.9</ele>
        <time>2015-02-11T16:17:43Z</time>
      </trkpt>
      <trkpt lat="45.6363" lon="6.11018">
        <ele>1629.09</ele>
        <time>2015-02-11T16:17:46Z</time>
      </trkpt>
      <trkpt lat="45.63634" lon="6.11024">
        <ele>1626.21</ele>
        <time>2015-02-11T16:17:48Z</time>
      </trkpt>
      <trkpt lat="45.63638" lon="6.11014">
        <ele>1623.32</ele>
        <time>2015-02-11T16:17:50Z</time>
      </trkpt>
      <trkpt lat="45.63654" lon="6.11006">
        <ele>1617.56</ele>
        <time>2015-02-11T16:17:54Z</time>
      </trkpt>
      <trkpt lat="45.63674" lon="6.11014">
        <ele>1612.75</ele>
        <time>2015-02-11T16:17:57Z</time>
      </trkpt>
      <trkpt lat="45.63684" lon="6.11001">
        <ele>1605.54</ele>
        <time>2015-02-11T16:18:00Z</time>
      </trkpt>
      <trkpt lat="45.63694" lon="6.11002">
        <ele>1602.17</ele>
        <time>2015-02-11T16:18:02Z</time>
      </trkpt>
      <trkpt lat="45.63709" lon="6.10999">
        <ele>1596.89</ele>
        <time>2015-02-11T16:18:05Z</time>
      </trkpt>
      <trkpt lat="45.63717" lon="6.10989">
        <ele>1594.48</ele>
        <time>2015-02-11T16:18:07Z</time>
      </trkpt>
      <trkpt lat="45.63733" lon="6.10975">
        <ele>1587.75</ele>
        <time>2015-02-11T16:18:10Z</time>
      </trkpt>
      <trkpt lat="45.63748" lon="6.10976">
        <ele>1582.47</ele>
        <time>2015-02-11T16:18:13Z</time>
      </trkpt>
      <trkpt lat="45.63756" lon="6.10975">
        <ele>1580.54</ele>
        <time>2015-02-11T16:18:15Z</time>
      </trkpt>
      <trkpt lat="45.63766" lon="6.10961">
        <ele>1577.66</ele>
        <time>2015-02-11T16:18:19Z</time>
      </trkpt>
      <trkpt lat="45.63766" lon="6.10952">
        <ele>1576.7</ele>
        <time>2015-02-11T16:18:25Z</time>
      </trkpt>
      <trkpt lat="45.63766" lon="6.10952">
        <ele>1578.14</ele>
        <time>2015-02-11T16:18:50Z</time>
      </trkpt>
      <trkpt lat="45.63772" lon="6.10963">
        <ele>1576.7</ele>
        <time>2015-02-11T16:18:54Z</time>
      </trkpt>
      <trkpt lat="45.63779" lon="6.10974">
        <ele>1575.74</ele>
        <time>2015-02-11T16:18:56Z</time>
      </trkpt>
      <trkpt lat="45.63784" lon="6.1098">
        <ele>1574.3</ele>
        <time>2015-02-11T16:18:57Z</time>
      </trkpt>
      <trkpt lat="45.638" lon="6.10984">
        <ele>1569.97</ele>
        <time>2015-02-11T16:19:02Z</time>
      </trkpt>
      <trkpt lat="45.63809" lon="6.10951">
        <ele>1567.09</ele>
        <time>2015-02-11T16:19:10Z</time>
      </trkpt>
      <trkpt lat="45.63809" lon="6.10951">
        <ele>1567.09</ele>
        <time>2015-02-11T16:19:21Z</time>
      </trkpt>
      <trkpt lat="45.63809" lon="6.10951">
        <ele>1567.09</ele>
        <time>2015-02-11T16:19:33Z</time>
      </trkpt>
      <trkpt lat="45.63788" lon="6.10932">
        <ele>1564.68</ele>
        <time>2015-02-11T16:19:41Z</time>
      </trkpt>
      <trkpt lat="45.63785" lon="6.10917">
        <ele>1562.28</ele>
        <time>2015-02-11T16:19:45Z</time>
      </trkpt>
      <trkpt lat="45.63787" lon="6.10899">
        <ele>1557.95</ele>
        <time>2015-02-11T16:19:49Z</time>
      </trkpt>
      <trkpt lat="45.63786" lon="6.10898">
        <ele>1554.59</ele>
        <time>2015-02-11T16:19:52Z</time>
      </trkpt>
      <trkpt lat="45.6379" lon="6.10894">
        <ele>1552.19</ele>
        <time>2015-02-11T16:19:55Z</time>
      </trkpt>
      <trkpt lat="45.63791" lon="6.10897">
        <ele>1550.26</ele>
        <time>2015-02-11T16:19:59Z</time>
      </trkpt>
      <trkpt lat="45.63794" lon="6.10891">
        <ele>1546.42</ele>
        <time>2015-02-11T16:20:06Z</time>
      </trkpt>
      <trkpt lat="45.63795" lon="6.1089">
        <ele>1546.42</ele>
        <time>2015-02-11T16:20:07Z</time>
      </trkpt>
      <trkpt lat="45.638" lon="6.1089">
        <ele>1545.46</ele>
        <time>2015-02-11T16:20:11Z</time>
      </trkpt>
      <trkpt lat="45.63807" lon="6.10889">
        <ele>1542.57</ele>
        <time>2015-02-11T16:20:14Z</time>
      </trkpt>
      <trkpt lat="45.63817" lon="6.10887">
        <ele>1538.25</ele>
        <time>2015-02-11T16:20:18Z</time>
      </trkpt>
      <trkpt lat="45.63817" lon="6.10881">
        <ele>1537.77</ele>
        <time>2015-02-11T16:20:34Z</time>
      </trkpt>
      <trkpt lat="45.63816" lon="6.10879">
        <ele>1537.77</ele>
        <time>2015-02-11T16:20:40Z</time>
      </trkpt>
      <trkpt lat="45.63823" lon="6.10869">
        <ele>1533.92</ele>
        <time>2015-02-11T16:20:46Z</time>
      </trkpt>
      <trkpt lat="45.63832" lon="6.10865">
        <ele>1531.52</ele>
        <time>2015-02-11T16:20:49Z</time>
      </trkpt>
      <trkpt lat="45.63835" lon="6.10865">
        <ele>1529.59</ele>
        <time>2015-02-11T16:20:50Z</time>
      </trkpt>
      <trkpt lat="45.63842" lon="6.10862">
        <ele>1523.35</ele>
        <time>2015-02-11T16:20:53Z</time>
      </trkpt>
      <trkpt lat="45.63853" lon="6.10856">
        <ele>1518.54</ele>
        <time>2015-02-11T16:20:58Z</time>
      </trkpt>
      <trkpt lat="45.63857" lon="6.10855">
        <ele>1516.14</ele>
        <time>2015-02-11T16:21:00Z</time>
      </trkpt>
      <trkpt lat="45.63859" lon="6.10856">
        <ele>1515.18</ele>
        <time>2015-02-11T16:21:02Z</time>
      </trkpt>
      <trkpt lat="45.63862" lon="6.1086">
        <ele>1511.81</ele>
        <time>2015-02-11T16:21:07Z</time>
      </trkpt>
      <trkpt lat="45.63862" lon="6.1086">
        <ele>1511.33</ele>
        <time>2015-02-11T16:21:09Z</time>
      </trkpt>
      <trkpt lat="45.63862" lon="6.1086">
        <ele>1510.85</ele>
        <time>2015-02-11T16:21:11Z</time>
      </trkpt>
      <trkpt lat="45.63856" lon="6.10857">
        <ele>1508.93</ele>
        <time>2015-02-11T16:21:25Z</time>
      </trkpt>
      <trkpt lat="45.63857" lon="6.10861">
        <ele>1509.41</ele>
        <time>2015-02-11T16:21:33Z</time>
      </trkpt>
      <trkpt lat="45.63861" lon="6.10858">
        <ele>1507.97</ele>
        <time>2015-02-11T16:21:44Z</time>
      </trkpt>
      <trkpt lat="45.63856" lon="6.10857">
        <ele>1508.45</ele>
        <time>2015-02-11T16:21:57Z</time>
      </trkpt>
      <trkpt lat="45.63857" lon="6.10852">
        <ele>1505.08</ele>
        <time>2015-02-11T16:22:09Z</time>
      </trkpt>
      <trkpt lat="45.63859" lon="6.1085">
        <ele>1502.2</ele>
        <time>2015-02-11T16:22:13Z</time>
      </trkpt>
      <trkpt lat="45.63869" lon="6.10847">
        <ele>1500.76</ele>
        <time>2015-02-11T16:22:16Z</time>
      </trkpt>
      <trkpt lat="45.63872" lon="6.10845">
        <ele>1498.83</ele>
        <time>2015-02-11T16:22:18Z</time>
      </trkpt>
      <trkpt lat="45.63872" lon="6.10843">
        <ele>1497.39</ele>
        <time>2015-02-11T16:22:21Z</time>
      </trkpt>
      <trkpt lat="45.63871" lon="6.10842">
        <ele>1496.91</ele>
        <time>2015-02-11T16:22:29Z</time>
      </trkpt>
      <trkpt lat="45.63876" lon="6.1083">
        <ele>1493.06</ele>
        <time>2015-02-11T16:22:34Z</time>
      </trkpt>
      <trkpt lat="45.63878" lon="6.10828">
        <ele>1489.7</ele>
        <time>2015-02-11T16:22:37Z</time>
      </trkpt>
      <trkpt lat="45.63879" lon="6.10827">
        <ele>1488.26</ele>
        <time>2015-02-11T16:22:40Z</time>
      </trkpt>
      <trkpt lat="45.63886" lon="6.10811">
        <ele>1484.41</ele>
        <time>2015-02-11T16:22:45Z</time>
      </trkpt>
      <trkpt lat="45.63884" lon="6.10808">
        <ele>1482.49</ele>
        <time>2015-02-11T16:22:48Z</time>
      </trkpt>
      <trkpt lat="45.63883" lon="6.10805">
        <ele>1482.49</ele>
        <time>2015-02-11T16:22:50Z</time>
      </trkpt>
      <trkpt lat="45.63893" lon="6.10781">
        <ele>1478.16</ele>
        <time>2015-02-11T16:22:57Z</time>
      </trkpt>
      <trkpt lat="45.63897" lon="6.10773">
        <ele>1474.8</ele>
        <time>2015-02-11T16:23:00Z</time>
      </trkpt>
      <trkpt lat="45.63905" lon="6.10765">
        <ele>1471.44</ele>
        <time>2015-02-11T16:23:04Z</time>
      </trkpt>
      <trkpt lat="45.63907" lon="6.10767">
        <ele>1470.95</ele>
        <time>2015-02-11T16:23:10Z</time>
      </trkpt>
      <trkpt lat="45.63904" lon="6.10767">
        <ele>1467.59</ele>
        <time>2015-02-11T16:23:19Z</time>
      </trkpt>
      <trkpt lat="45.63903" lon="6.1076">
        <ele>1464.23</ele>
        <time>2015-02-11T16:23:25Z</time>
      </trkpt>
      <trkpt lat="45.63897" lon="6.10752">
        <ele>1460.86</ele>
        <time>2015-02-11T16:23:29Z</time>
      </trkpt>
      <trkpt lat="45.63895" lon="6.10749">
        <ele>1460.86</ele>
        <time>2015-02-11T16:23:30Z</time>
      </trkpt>
      <trkpt lat="45.63884" lon="6.10738">
        <ele>1457.5</ele>
        <time>2015-02-11T16:23:34Z</time>
      </trkpt>
      <trkpt lat="45.63884" lon="6.10729">
        <ele>1457.5</ele>
        <time>2015-02-11T16:23:45Z</time>
      </trkpt>
      <trkpt lat="45.63882" lon="6.1073">
        <ele>1459.42</ele>
        <time>2015-02-11T16:24:24Z</time>
      </trkpt>
      <trkpt lat="45.63879" lon="6.10731">
        <ele>1462.3</ele>
        <time>2015-02-11T16:24:45Z</time>
      </trkpt>
      <trkpt lat="45.63846" lon="6.10697">
        <ele>1464.23</ele>
        <time>2015-02-11T16:25:37Z</time>
      </trkpt>
      <trkpt lat="45.63829" lon="6.1069">
        <ele>1465.67</ele>
        <time>2015-02-11T16:25:56Z</time>
      </trkpt>
      <trkpt lat="45.63817" lon="6.10689">
        <ele>1466.63</ele>
        <time>2015-02-11T16:26:18Z</time>
      </trkpt>
      <trkpt lat="45.63811" lon="6.10684">
        <ele>1466.63</ele>
        <time>2015-02-11T16:26:43Z</time>
      </trkpt>
      <trkpt lat="45.63798" lon="6.10657">
        <ele>1465.19</ele>
        <time>2015-02-11T16:26:53Z</time>
      </trkpt>
      <trkpt lat="45.63791" lon="6.10643">
        <ele>1464.23</ele>
        <time>2015-02-11T16:27:05Z</time>
      </trkpt>
      <trkpt lat="45.63774" lon="6.10615">
        <ele>1463.74</ele>
        <time>2015-02-11T16:27:22Z</time>
      </trkpt>
      <trkpt lat="45.6377" lon="6.10608">
        <ele>1464.71</ele>
        <time>2015-02-11T16:27:34Z</time>
      </trkpt>
      <trkpt lat="45.63736" lon="6.10584">
        <ele>1463.74</ele>
        <time>2015-02-11T16:27:58Z</time>
      </trkpt>
      <trkpt lat="45.63728" lon="6.10578">
        <ele>1462.78</ele>
        <time>2015-02-11T16:28:09Z</time>
      </trkpt>
      <trkpt lat="45.63712" lon="6.10563">
        <ele>1465.67</ele>
        <time>2015-02-11T16:28:44Z</time>
      </trkpt>
      <trkpt lat="45.63706" lon="6.10552">
        <ele>1467.11</ele>
        <time>2015-02-11T16:29:06Z</time>
      </trkpt>
      <trkpt lat="45.63699" lon="6.10543">
        <ele>1468.07</ele>
        <time>2015-02-11T16:29:27Z</time>
      </trkpt>
      <trkpt lat="45.63695" lon="6.10536">
        <ele>1468.55</ele>
        <time>2015-02-11T16:29:46Z</time>
      </trkpt>
      <trkpt lat="45.63689" lon="6.10535">
        <ele>1469.51</ele>
        <time>2015-02-11T16:30:06Z</time>
      </trkpt>
      <trkpt lat="45.63684" lon="6.10537">
        <ele>1469.51</ele>
        <time>2015-02-11T16:30:53Z</time>
      </trkpt>
      <trkpt lat="45.63671" lon="6.10533">
        <ele>1468.55</ele>
        <time>2015-02-11T16:32:22Z</time>
      </trkpt>
      <trkpt lat="45.63651" lon="6.10533">
        <ele>1467.11</ele>
        <time>2015-02-11T16:32:38Z</time>
      </trkpt>
      <trkpt lat="45.63637" lon="6.10523">
        <ele>1467.11</ele>
        <time>2015-02-11T16:32:48Z</time>
      </trkpt>
      <trkpt lat="45.63631" lon="6.10511">
        <ele>1466.15</ele>
        <time>2015-02-11T16:32:52Z</time>
      </trkpt>
      <trkpt lat="45.63604" lon="6.10476">
        <ele>1462.78</ele>
        <time>2015-02-11T16:33:00Z</time>
      </trkpt>
      <trkpt lat="45.63602" lon="6.10473">
        <ele>1462.3</ele>
        <time>2015-02-11T16:33:01Z</time>
      </trkpt>
      <trkpt lat="45.63595" lon="6.10456">
        <ele>1462.3</ele>
        <time>2015-02-11T16:33:11Z</time>
      </trkpt>
      <trkpt lat="45.63576" lon="6.10417">
        <ele>1458.94</ele>
        <time>2015-02-11T16:33:22Z</time>
      </trkpt>
      <trkpt lat="45.63562" lon="6.10394">
        <ele>1455.09</ele>
        <time>2015-02-11T16:33:27Z</time>
      </trkpt>
      <trkpt lat="45.63561" lon="6.10392">
        <ele>1455.09</ele>
        <time>2015-02-11T16:33:28Z</time>
      </trkpt>
      <trkpt lat="45.63543" lon="6.10379">
        <ele>1452.69</ele>
        <time>2015-02-11T16:34:40Z</time>
      </trkpt>
      <trkpt lat="45.63537" lon="6.10365">
        <ele>1448.84</ele>
        <time>2015-02-11T16:34:44Z</time>
      </trkpt>
      <trkpt lat="45.63536" lon="6.10355">
        <ele>1445.48</ele>
        <time>2015-02-11T16:34:46Z</time>
      </trkpt>
      <trkpt lat="45.63532" lon="6.10353">
        <ele>1442.6</ele>
        <time>2015-02-11T16:34:48Z</time>
      </trkpt>
      <trkpt lat="45.6353" lon="6.10351">
        <ele>1441.63</ele>
        <time>2015-02-11T16:34:50Z</time>
      </trkpt>
      <trkpt lat="45.63534" lon="6.10338">
        <ele>1436.83</ele>
        <time>2015-02-11T16:34:54Z</time>
      </trkpt>
      <trkpt lat="45.63532" lon="6.1034">
        <ele>1434.42</ele>
        <time>2015-02-11T16:34:58Z</time>
      </trkpt>
      <trkpt lat="45.63533" lon="6.10341">
        <ele>1434.42</ele>
        <time>2015-02-11T16:35:14Z</time>
      </trkpt>
      <trkpt lat="45.63535" lon="6.10339">
        <ele>1432.5</ele>
        <time>2015-02-11T16:35:27Z</time>
      </trkpt>
      <trkpt lat="45.63534" lon="6.10336">
        <ele>1432.02</ele>
        <time>2015-02-11T16:35:29Z</time>
      </trkpt>
      <trkpt lat="45.63526" lon="6.10323">
        <ele>1428.66</ele>
        <time>2015-02-11T16:35:33Z</time>
      </trkpt>
      <trkpt lat="45.63526" lon="6.10319">
        <ele>1425.77</ele>
        <time>2015-02-11T16:35:36Z</time>
      </trkpt>
      <trkpt lat="45.63529" lon="6.10311">
        <ele>1422.89</ele>
        <time>2015-02-11T16:35:39Z</time>
      </trkpt>
      <trkpt lat="45.63527" lon="6.10301">
        <ele>1419.04</ele>
        <time>2015-02-11T16:35:42Z</time>
      </trkpt>
      <trkpt lat="45.63521" lon="6.10293">
        <ele>1416.16</ele>
        <time>2015-02-11T16:35:44Z</time>
      </trkpt>
      <trkpt lat="45.63524" lon="6.10289">
        <ele>1414.24</ele>
        <time>2015-02-11T16:35:45Z</time>
      </trkpt>
      <trkpt lat="45.63531" lon="6.10283">
        <ele>1412.79</ele>
        <time>2015-02-11T16:35:47Z</time>
      </trkpt>
      <trkpt lat="45.63531" lon="6.10281">
        <ele>1409.91</ele>
        <time>2015-02-11T16:35:51Z</time>
      </trkpt>
      <trkpt lat="45.63541" lon="6.10265">
        <ele>1405.58</ele>
        <time>2015-02-11T16:36:01Z</time>
      </trkpt>
      <trkpt lat="45.6355" lon="6.10264">
        <ele>1402.7</ele>
        <time>2015-02-11T16:36:03Z</time>
      </trkpt>
      <trkpt lat="45.63563" lon="6.1026">
        <ele>1399.34</ele>
        <time>2015-02-11T16:36:06Z</time>
      </trkpt>
      <trkpt lat="45.63569" lon="6.10253">
        <ele>1397.41</ele>
        <time>2015-02-11T16:36:08Z</time>
      </trkpt>
      <trkpt lat="45.63566" lon="6.10249">
        <ele>1395.97</ele>
        <time>2015-02-11T16:36:10Z</time>
      </trkpt>
      <trkpt lat="45.63565" lon="6.1024">
        <ele>1391.65</ele>
        <time>2015-02-11T16:36:13Z</time>
      </trkpt>
      <trkpt lat="45.63566" lon="6.10232">
        <ele>1386.84</ele>
        <time>2015-02-11T16:36:16Z</time>
      </trkpt>
      <trkpt lat="45.63568" lon="6.10224">
        <ele>1383.96</ele>
        <time>2015-02-11T16:36:18Z</time>
      </trkpt>
      <trkpt lat="45.63565" lon="6.10217">
        <ele>1380.11</ele>
        <time>2015-02-11T16:36:20Z</time>
      </trkpt>
      <trkpt lat="45.63567" lon="6.10212">
        <ele>1380.11</ele>
        <time>2015-02-11T16:36:21Z</time>
      </trkpt>
      <trkpt lat="45.63579" lon="6.10203">
        <ele>1374.34</ele>
        <time>2015-02-11T16:36:24Z</time>
      </trkpt>
      <trkpt lat="45.63577" lon="6.102">
        <ele>1372.42</ele>
        <time>2015-02-11T16:36:25Z</time>
      </trkpt>
      <trkpt lat="45.6357" lon="6.10193">
        <ele>1369.05</ele>
        <time>2015-02-11T16:36:27Z</time>
      </trkpt>
      <trkpt lat="45.63577" lon="6.10181">
        <ele>1364.25</ele>
        <time>2015-02-11T16:36:30Z</time>
      </trkpt>
      <trkpt lat="45.63576" lon="6.10176">
        <ele>1362.33</ele>
        <time>2015-02-11T16:36:32Z</time>
      </trkpt>
      <trkpt lat="45.63574" lon="6.10174">
        <ele>1358.96</ele>
        <time>2015-02-11T16:36:35Z</time>
      </trkpt>
      <trkpt lat="45.63575" lon="6.10176">
        <ele>1358</ele>
        <time>2015-02-11T16:36:37Z</time>
      </trkpt>
      <trkpt lat="45.63576" lon="6.10175">
        <ele>1357.52</ele>
        <time>2015-02-11T16:37:33Z</time>
      </trkpt>
      <trkpt lat="45.63574" lon="6.10165">
        <ele>1353.67</ele>
        <time>2015-02-11T16:37:38Z</time>
      </trkpt>
      <trkpt lat="45.63576" lon="6.1016">
        <ele>1351.27</ele>
        <time>2015-02-11T16:37:42Z</time>
      </trkpt>
      <trkpt lat="45.63577" lon="6.10159">
        <ele>1350.31</ele>
        <time>2015-02-11T16:37:43Z</time>
      </trkpt>
      <trkpt lat="45.63587" lon="6.10154">
        <ele>1346.46</ele>
        <time>2015-02-11T16:37:51Z</time>
      </trkpt>
      <trkpt lat="45.63597" lon="6.10149">
        <ele>1344.06</ele>
        <time>2015-02-11T16:38:05Z</time>
      </trkpt>
      <trkpt lat="45.63596" lon="6.10145">
        <ele>1342.14</ele>
        <time>2015-02-11T16:38:19Z</time>
      </trkpt>
      <trkpt lat="45.63586" lon="6.10136">
        <ele>1337.81</ele>
        <time>2015-02-11T16:38:25Z</time>
      </trkpt>
      <trkpt lat="45.63584" lon="6.10128">
        <ele>1336.85</ele>
        <time>2015-02-11T16:38:27Z</time>
      </trkpt>
      <trkpt lat="45.63586" lon="6.10119">
        <ele>1333.97</ele>
        <time>2015-02-11T16:38:29Z</time>
      </trkpt>
      <trkpt lat="45.63587" lon="6.1011">
        <ele>1331.08</ele>
        <time>2015-02-11T16:38:31Z</time>
      </trkpt>
      <trkpt lat="45.63581" lon="6.10103">
        <ele>1327.72</ele>
        <time>2015-02-11T16:38:33Z</time>
      </trkpt>
      <trkpt lat="45.63579" lon="6.10093">
        <ele>1324.35</ele>
        <time>2015-02-11T16:38:35Z</time>
      </trkpt>
      <trkpt lat="45.63582" lon="6.10084">
        <ele>1321.47</ele>
        <time>2015-02-11T16:38:37Z</time>
      </trkpt>
      <trkpt lat="45.63585" lon="6.10081">
        <ele>1321.47</ele>
        <time>2015-02-11T16:38:38Z</time>
      </trkpt>
      <trkpt lat="45.63596" lon="6.10073">
        <ele>1317.62</ele>
        <time>2015-02-11T16:38:41Z</time>
      </trkpt>
      <trkpt lat="45.63603" lon="6.1007">
        <ele>1316.18</ele>
        <time>2015-02-11T16:38:43Z</time>
      </trkpt>
      <trkpt lat="45.63608" lon="6.10055">
        <ele>1312.82</ele>
        <time>2015-02-11T16:38:49Z</time>
      </trkpt>
      <trkpt lat="45.63611" lon="6.1004">
        <ele>1309.45</ele>
        <time>2015-02-11T16:38:53Z</time>
      </trkpt>
      <trkpt lat="45.63605" lon="6.10025">
        <ele>1305.61</ele>
        <time>2015-02-11T16:38:56Z</time>
      </trkpt>
      <trkpt lat="45.63603" lon="6.10014">
        <ele>1301.28</ele>
        <time>2015-02-11T16:38:59Z</time>
      </trkpt>
      <trkpt lat="45.63604" lon="6.10014">
        <ele>1301.28</ele>
        <time>2015-02-11T16:39:00Z</time>
      </trkpt>
      <trkpt lat="45.63606" lon="6.1001">
        <ele>1299.36</ele>
        <time>2015-02-11T16:39:31Z</time>
      </trkpt>
      <trkpt lat="45.63605" lon="6.09991">
        <ele>1296.96</ele>
        <time>2015-02-11T16:39:35Z</time>
      </trkpt>
      <trkpt lat="45.63604" lon="6.09989">
        <ele>1296.48</ele>
        <time>2015-02-11T16:39:36Z</time>
      </trkpt>
      <trkpt lat="45.63596" lon="6.09985">
        <ele>1292.63</ele>
        <time>2015-02-11T16:39:44Z</time>
      </trkpt>
      <trkpt lat="45.63592" lon="6.09975">
        <ele>1290.23</ele>
        <time>2015-02-11T16:39:54Z</time>
      </trkpt>
      <trkpt lat="45.63588" lon="6.09963">
        <ele>1286.86</ele>
        <time>2015-02-11T16:40:09Z</time>
      </trkpt>
      <trkpt lat="45.63588" lon="6.09948">
        <ele>1283.98</ele>
        <time>2015-02-11T16:40:30Z</time>
      </trkpt>
      <trkpt lat="45.63587" lon="6.09944">
        <ele>1283.02</ele>
        <time>2015-02-11T16:40:35Z</time>
      </trkpt>
      <trkpt lat="45.63578" lon="6.09945">
        <ele>1280.13</ele>
        <time>2015-02-11T16:40:57Z</time>
      </trkpt>
      <trkpt lat="45.63572" lon="6.09948">
        <ele>1277.25</ele>
        <time>2015-02-11T16:41:14Z</time>
      </trkpt>
      <trkpt lat="45.63567" lon="6.0995">
        <ele>1273.88</ele>
        <time>2015-02-11T16:41:27Z</time>
      </trkpt>
      <trkpt lat="45.63554" lon="6.09945">
        <ele>1271</ele>
        <time>2015-02-11T16:41:35Z</time>
      </trkpt>
      <trkpt lat="45.63548" lon="6.09945">
        <ele>1267.64</ele>
        <time>2015-02-11T16:41:44Z</time>
      </trkpt>
      <trkpt lat="45.63537" lon="6.09948">
        <ele>1264.75</ele>
        <time>2015-02-11T16:41:59Z</time>
      </trkpt>
      <trkpt lat="45.63534" lon="6.09947">
        <ele>1261.39</ele>
        <time>2015-02-11T16:42:11Z</time>
      </trkpt>
      <trkpt lat="45.63531" lon="6.09946">
        <ele>1258.5</ele>
        <time>2015-02-11T16:42:18Z</time>
      </trkpt>
      <trkpt lat="45.63532" lon="6.09944">
        <ele>1256.58</ele>
        <time>2015-02-11T16:42:22Z</time>
      </trkpt>
      <trkpt lat="45.63536" lon="6.09939">
        <ele>1254.18</ele>
        <time>2015-02-11T16:42:26Z</time>
      </trkpt>
      <trkpt lat="45.63542" lon="6.09935">
        <ele>1250.81</ele>
        <time>2015-02-11T16:42:33Z</time>
      </trkpt>
      <trkpt lat="45.63543" lon="6.09935">
        <ele>1249.85</ele>
        <time>2015-02-11T16:42:35Z</time>
      </trkpt>
      <trkpt lat="45.63547" lon="6.09931">
        <ele>1246.49</ele>
        <time>2015-02-11T16:42:44Z</time>
      </trkpt>
      <trkpt lat="45.63547" lon="6.09924">
        <ele>1244.08</ele>
        <time>2015-02-11T16:42:52Z</time>
      </trkpt>
      <trkpt lat="45.63546" lon="6.09906">
        <ele>1240.24</ele>
        <time>2015-02-11T16:42:58Z</time>
      </trkpt>
      <trkpt lat="45.63528" lon="6.0988">
        <ele>1236.87</ele>
        <time>2015-02-11T16:43:06Z</time>
      </trkpt>
      <trkpt lat="45.63529" lon="6.09871">
        <ele>1235.91</ele>
        <time>2015-02-11T16:43:08Z</time>
      </trkpt>
      <trkpt lat="45.63539" lon="6.09857">
        <ele>1232.07</ele>
        <time>2015-02-11T16:43:12Z</time>
      </trkpt>
      <trkpt lat="45.63539" lon="6.09854">
        <ele>1231.11</ele>
        <time>2015-02-11T16:43:14Z</time>
      </trkpt>
      <trkpt lat="45.63539" lon="6.09853">
        <ele>1230.14</ele>
        <time>2015-02-11T16:43:15Z</time>
      </trkpt>
      <trkpt lat="45.63543" lon="6.0984">
        <ele>1226.78</ele>
        <time>2015-02-11T16:43:22Z</time>
      </trkpt>
      <trkpt lat="45.63542" lon="6.09834">
        <ele>1223.9</ele>
        <time>2015-02-11T16:43:28Z</time>
      </trkpt>
      <trkpt lat="45.63543" lon="6.09831">
        <ele>1223.42</ele>
        <time>2015-02-11T16:43:34Z</time>
      </trkpt>
      <trkpt lat="45.63543" lon="6.09819">
        <ele>1221.49</ele>
        <time>2015-02-11T16:43:40Z</time>
      </trkpt>
      <trkpt lat="45.63555" lon="6.09792">
        <ele>1217.65</ele>
        <time>2015-02-11T16:43:46Z</time>
      </trkpt>
      <trkpt lat="45.63559" lon="6.09782">
        <ele>1216.21</ele>
        <time>2015-02-11T16:43:48Z</time>
      </trkpt>
      <trkpt lat="45.63559" lon="6.09779">
        <ele>1212.84</ele>
        <time>2015-02-11T16:43:52Z</time>
      </trkpt>
      <trkpt lat="45.63559" lon="6.09778">
        <ele>1212.84</ele>
        <time>2015-02-11T16:43:53Z</time>
      </trkpt>
      <trkpt lat="45.63567" lon="6.09765">
        <ele>1209.48</ele>
        <time>2015-02-11T16:44:00Z</time>
      </trkpt>
      <trkpt lat="45.63565" lon="6.09761">
        <ele>1207.07</ele>
        <time>2015-02-11T16:44:07Z</time>
      </trkpt>
      <trkpt lat="45.63557" lon="6.09758">
        <ele>1202.75</ele>
        <time>2015-02-11T16:44:13Z</time>
      </trkpt>
      <trkpt lat="45.6355" lon="6.09753">
        <ele>1200.34</ele>
        <time>2015-02-11T16:44:22Z</time>
      </trkpt>
      <trkpt lat="45.63548" lon="6.09759">
        <ele>1196.98</ele>
        <time>2015-02-11T16:44:39Z</time>
      </trkpt>
      <trkpt lat="45.63543" lon="6.09757">
        <ele>1195.06</ele>
        <time>2015-02-11T16:44:55Z</time>
      </trkpt>
      <trkpt lat="45.63543" lon="6.09757">
        <ele>1195.06</ele>
        <time>2015-02-11T16:44:58Z</time>
      </trkpt>
      <trkpt lat="45.63539" lon="6.09763">
        <ele>1193.61</ele>
        <time>2015-02-11T16:45:04Z</time>
      </trkpt>
      <trkpt lat="45.6353" lon="6.09766">
        <ele>1190.25</ele>
        <time>2015-02-11T16:45:17Z</time>
      </trkpt>
      <trkpt lat="45.6353" lon="6.09767">
        <ele>1187.85</ele>
        <time>2015-02-11T16:45:28Z</time>
      </trkpt>
      <trkpt lat="45.63527" lon="6.09774">
        <ele>1186.4</ele>
        <time>2015-02-11T16:45:38Z</time>
      </trkpt>
      <trkpt lat="45.63513" lon="6.09777">
        <ele>1183.04</ele>
        <time>2015-02-11T16:45:46Z</time>
      </trkpt>
      <trkpt lat="45.63503" lon="6.09773">
        <ele>1181.6</ele>
        <time>2015-02-11T16:45:49Z</time>
      </trkpt>
      <trkpt lat="45.63502" lon="6.09771">
        <ele>1181.6</ele>
        <time>2015-02-11T16:45:52Z</time>
      </trkpt>
      <trkpt lat="45.63488" lon="6.09763">
        <ele>1178.23</ele>
        <time>2015-02-11T16:46:01Z</time>
      </trkpt>
      <trkpt lat="45.63482" lon="6.09762">
        <ele>1176.31</ele>
        <time>2015-02-11T16:46:20Z</time>
      </trkpt>
      <trkpt lat="45.6348" lon="6.09751">
        <ele>1173.43</ele>
        <time>2015-02-11T16:46:35Z</time>
      </trkpt>
      <trkpt lat="45.63481" lon="6.09754">
        <ele>1172.95</ele>
        <time>2015-02-11T16:46:53Z</time>
      </trkpt>
      <trkpt lat="45.63474" lon="6.09753">
        <ele>1172.95</ele>
        <time>2015-02-11T16:47:14Z</time>
      </trkpt>
      <trkpt lat="45.63472" lon="6.09746">
        <ele>1172.47</ele>
        <time>2015-02-11T16:47:37Z</time>
      </trkpt>
      <trkpt lat="45.63475" lon="6.09741">
        <ele>1172.47</ele>
        <time>2015-02-11T16:47:51Z</time>
      </trkpt>
      <trkpt lat="45.63469" lon="6.09734">
        <ele>1172.95</ele>
        <time>2015-02-11T16:48:08Z</time>
      </trkpt>
      <trkpt lat="45.63457" lon="6.09713">
        <ele>1171.5</ele>
        <time>2015-02-11T16:48:19Z</time>
      </trkpt>
      <trkpt lat="45.63458" lon="6.09709">
        <ele>1171.02</ele>
        <time>2015-02-11T16:48:28Z</time>
      </trkpt>
      <trkpt lat="45.63448" lon="6.09673">
        <ele>1168.14</ele>
        <time>2015-02-11T16:48:36Z</time>
      </trkpt>
      <trkpt lat="45.63448" lon="6.09657">
        <ele>1166.7</ele>
        <time>2015-02-11T16:48:39Z</time>
      </trkpt>
      <trkpt lat="45.63449" lon="6.09655">
        <ele>1165.74</ele>
        <time>2015-02-11T16:48:40Z</time>
      </trkpt>
      <trkpt lat="45.63442" lon="6.0964">
        <ele>1161.41</ele>
        <time>2015-02-11T16:48:48Z</time>
      </trkpt>
      <trkpt lat="45.63441" lon="6.09617">
        <ele>1158.05</ele>
        <time>2015-02-11T16:48:56Z</time>
      </trkpt>
      <trkpt lat="45.63441" lon="6.09615">
        <ele>1155.64</ele>
        <time>2015-02-11T16:49:00Z</time>
      </trkpt>
      <trkpt lat="45.63434" lon="6.09608">
        <ele>1153.72</ele>
        <time>2015-02-11T16:49:10Z</time>
      </trkpt>
      <trkpt lat="45.63427" lon="6.09599">
        <ele>1153.72</ele>
        <time>2015-02-11T16:49:22Z</time>
      </trkpt>
      <trkpt lat="45.63425" lon="6.09598">
        <ele>1153.24</ele>
        <time>2015-02-11T16:49:23Z</time>
      </trkpt>
      <trkpt lat="45.63413" lon="6.09584">
        <ele>1152.28</ele>
        <time>2015-02-11T16:49:32Z</time>
      </trkpt>
      <trkpt lat="45.63409" lon="6.09582">
        <ele>1151.8</ele>
        <time>2015-02-11T16:49:49Z</time>
      </trkpt>
      <trkpt lat="45.63391" lon="6.09562">
        <ele>1148.43</ele>
        <time>2015-02-11T16:49:56Z</time>
      </trkpt>
      <trkpt lat="45.63388" lon="6.09557">
        <ele>1146.03</ele>
        <time>2015-02-11T16:50:00Z</time>
      </trkpt>
      <trkpt lat="45.63372" lon="6.09534">
        <ele>1142.18</ele>
        <time>2015-02-11T16:50:05Z</time>
      </trkpt>
      <trkpt lat="45.63364" lon="6.09532">
        <ele>1139.3</ele>
        <time>2015-02-11T16:50:08Z</time>
      </trkpt>
      <trkpt lat="45.63364" lon="6.09532">
        <ele>1138.82</ele>
        <time>2015-02-11T16:50:09Z</time>
      </trkpt>
      <trkpt lat="45.63366" lon="6.09531">
        <ele>1138.34</ele>
        <time>2015-02-11T16:50:17Z</time>
      </trkpt>
      <trkpt lat="45.63381" lon="6.09522">
        <ele>1135.94</ele>
        <time>2015-02-11T16:50:22Z</time>
      </trkpt>
      <trkpt lat="45.63392" lon="6.09519">
        <ele>1133.53</ele>
        <time>2015-02-11T16:50:33Z</time>
      </trkpt>
      <trkpt lat="45.63394" lon="6.09519">
        <ele>1133.05</ele>
        <time>2015-02-11T16:50:56Z</time>
      </trkpt>
      <trkpt lat="45.63395" lon="6.0952">
        <ele>1133.53</ele>
        <time>2015-02-11T16:51:21Z</time>
      </trkpt>
      <trkpt lat="45.63395" lon="6.0952">
        <ele>1133.53</ele>
        <time>2015-02-11T16:51:23Z</time>
      </trkpt>
      <trkpt lat="45.63403" lon="6.09507">
        <ele>1130.17</ele>
        <time>2015-02-11T16:51:28Z</time>
      </trkpt>
      <trkpt lat="45.63402" lon="6.09496">
        <ele>1126.32</ele>
        <time>2015-02-11T16:51:30Z</time>
      </trkpt>
      <trkpt lat="45.63403" lon="6.09491">
        <ele>1126.32</ele>
        <time>2015-02-11T16:51:31Z</time>
      </trkpt>
      <trkpt lat="45.63404" lon="6.09484">
        <ele>1124.4</ele>
        <time>2015-02-11T16:51:32Z</time>
      </trkpt>
      <trkpt lat="45.63397" lon="6.09465">
        <ele>1118.15</ele>
        <time>2015-02-11T16:51:35Z</time>
      </trkpt>
      <trkpt lat="45.63391" lon="6.09458">
        <ele>1115.27</ele>
        <time>2015-02-11T16:51:37Z</time>
      </trkpt>
      <trkpt lat="45.63376" lon="6.09447">
        <ele>1111.9</ele>
        <time>2015-02-11T16:51:45Z</time>
      </trkpt>
      <trkpt lat="45.6337" lon="6.09442">
        <ele>1111.42</ele>
        <time>2015-02-11T16:51:47Z</time>
      </trkpt>
      <trkpt lat="45.63369" lon="6.09423">
        <ele>1105.17</ele>
        <time>2015-02-11T16:51:51Z</time>
      </trkpt>
      <trkpt lat="45.6337" lon="6.09411">
        <ele>1102.77</ele>
        <time>2015-02-11T16:51:53Z</time>
      </trkpt>
      <trkpt lat="45.63369" lon="6.09402">
        <ele>1097.96</ele>
        <time>2015-02-11T16:51:55Z</time>
      </trkpt>
      <trkpt lat="45.63367" lon="6.09398">
        <ele>1094.6</ele>
        <time>2015-02-11T16:51:57Z</time>
      </trkpt>
      <trkpt lat="45.63367" lon="6.0939">
        <ele>1090.27</ele>
        <time>2015-02-11T16:52:00Z</time>
      </trkpt>
      <trkpt lat="45.63364" lon="6.09386">
        <ele>1085.95</ele>
        <time>2015-02-11T16:52:03Z</time>
      </trkpt>
      <trkpt lat="45.63364" lon="6.09386">
        <ele>1085.95</ele>
        <time>2015-02-11T16:52:04Z</time>
      </trkpt>
      <trkpt lat="45.63363" lon="6.09382">
        <ele>1082.58</ele>
        <time>2015-02-11T16:52:08Z</time>
      </trkpt>
      <trkpt lat="45.63363" lon="6.09382">
        <ele>1081.62</ele>
        <time>2015-02-11T16:52:23Z</time>
      </trkpt>
      <trkpt lat="45.63363" lon="6.09382">
        <ele>1081.62</ele>
        <time>2015-02-11T16:52:32Z</time>
      </trkpt>
      <trkpt lat="45.63379" lon="6.09373">
        <ele>1079.22</ele>
        <time>2015-02-11T16:52:38Z</time>
      </trkpt>
      <trkpt lat="45.63382" lon="6.09368">
        <ele>1077.29</ele>
        <time>2015-02-11T16:52:44Z</time>
      </trkpt>
      <trkpt lat="45.63378" lon="6.09348">
        <ele>1072.97</ele>
        <time>2015-02-11T16:52:49Z</time>
      </trkpt>
      <trkpt lat="45.63377" lon="6.09348">
        <ele>1072.97</ele>
        <time>2015-02-11T16:52:50Z</time>
      </trkpt>
      <trkpt lat="45.63371" lon="6.09341">
        <ele>1070.08</ele>
        <time>2015-02-11T16:52:54Z</time>
      </trkpt>
      <trkpt lat="45.6337" lon="6.09335">
        <ele>1066.72</ele>
        <time>2015-02-11T16:52:58Z</time>
      </trkpt>
      <trkpt lat="45.63371" lon="6.09334">
        <ele>1066.24</ele>
        <time>2015-02-11T16:53:00Z</time>
      </trkpt>
      <trkpt lat="45.63371" lon="6.09333">
        <ele>1065.28</ele>
        <time>2015-02-11T16:53:10Z</time>
      </trkpt>
      <trkpt lat="45.63377" lon="6.09323">
        <ele>1061.91</ele>
        <time>2015-02-11T16:53:22Z</time>
      </trkpt>
      <trkpt lat="45.63388" lon="6.09319">
        <ele>1058.55</ele>
        <time>2015-02-11T16:53:33Z</time>
      </trkpt>
      <trkpt lat="45.63398" lon="6.09306">
        <ele>1054.7</ele>
        <time>2015-02-11T16:53:39Z</time>
      </trkpt>
      <trkpt lat="45.634" lon="6.09299">
        <ele>1053.26</ele>
        <time>2015-02-11T16:53:40Z</time>
      </trkpt>
      <trkpt lat="45.63414" lon="6.09298">
        <ele>1048.45</ele>
        <time>2015-02-11T16:53:43Z</time>
      </trkpt>
      <trkpt lat="45.63416" lon="6.09303">
        <ele>1045.57</ele>
        <time>2015-02-11T16:53:46Z</time>
      </trkpt>
      <trkpt lat="45.63416" lon="6.09302">
        <ele>1045.57</ele>
        <time>2015-02-11T16:53:49Z</time>
      </trkpt>
      <trkpt lat="45.63407" lon="6.09281">
        <ele>1041.73</ele>
        <time>2015-02-11T16:53:55Z</time>
      </trkpt>
      <trkpt lat="45.63399" lon="6.0927">
        <ele>1037.88</ele>
        <time>2015-02-11T16:53:58Z</time>
      </trkpt>
      <trkpt lat="45.63408" lon="6.09253">
        <ele>1034.52</ele>
        <time>2015-02-11T16:54:01Z</time>
      </trkpt>
      <trkpt lat="45.63416" lon="6.09239">
        <ele>1030.19</ele>
        <time>2015-02-11T16:54:03Z</time>
      </trkpt>
      <trkpt lat="45.63424" lon="6.09218">
        <ele>1024.42</ele>
        <time>2015-02-11T16:54:06Z</time>
      </trkpt>
      <trkpt lat="45.63428" lon="6.09207">
        <ele>1021.06</ele>
        <time>2015-02-11T16:54:08Z</time>
      </trkpt>
      <trkpt lat="45.63431" lon="6.09194">
        <ele>1019.13</ele>
        <time>2015-02-11T16:54:10Z</time>
      </trkpt>
      <trkpt lat="45.63437" lon="6.09168">
        <ele>1014.81</ele>
        <time>2015-02-11T16:54:13Z</time>
      </trkpt>
      <trkpt lat="45.63438" lon="6.09159">
        <ele>1011.44</ele>
        <time>2015-02-11T16:54:16Z</time>
      </trkpt>
      <trkpt lat="45.63436" lon="6.09158">
        <ele>1010.96</ele>
        <time>2015-02-11T16:54:18Z</time>
      </trkpt>
      <trkpt lat="45.63436" lon="6.09157">
        <ele>1010.48</ele>
        <time>2015-02-11T16:54:26Z</time>
      </trkpt>
      <trkpt lat="45.63452" lon="6.09162">
        <ele>1009.52</ele>
        <time>2015-02-11T16:54:31Z</time>
      </trkpt>
      <trkpt lat="45.63467" lon="6.09149">
        <ele>1006.64</ele>
        <time>2015-02-11T16:54:35Z</time>
      </trkpt>
      <trkpt lat="45.63471" lon="6.0912">
        <ele>1001.35</ele>
        <time>2015-02-11T16:54:38Z</time>
      </trkpt>
      <trkpt lat="45.63471" lon="6.09109">
        <ele>998.95</ele>
        <time>2015-02-11T16:54:39Z</time>
      </trkpt>
      <trkpt lat="45.63487" lon="6.09089">
        <ele>993.66</ele>
        <time>2015-02-11T16:54:42Z</time>
      </trkpt>
      <trkpt lat="45.63495" lon="6.09088">
        <ele>991.74</ele>
        <time>2015-02-11T16:54:43Z</time>
      </trkpt>
      <trkpt lat="45.63522" lon="6.0907">
        <ele>987.41</ele>
        <time>2015-02-11T16:54:47Z</time>
      </trkpt>
      <trkpt lat="45.63552" lon="6.09051">
        <ele>982.12</ele>
        <time>2015-02-11T16:54:52Z</time>
      </trkpt>
      <trkpt lat="45.63559" lon="6.09051">
        <ele>980.68</ele>
        <time>2015-02-11T16:54:53Z</time>
      </trkpt>
      <trkpt lat="45.63574" lon="6.09031">
        <ele>977.8</ele>
        <time>2015-02-11T16:54:57Z</time>
      </trkpt>
      <trkpt lat="45.63576" lon="6.09025">
        <ele>976.84</ele>
        <time>2015-02-11T16:54:58Z</time>
      </trkpt>
      <trkpt lat="45.63576" lon="6.08996">
        <ele>971.55</ele>
        <time>2015-02-11T16:55:02Z</time>
      </trkpt>
      <trkpt lat="45.63576" lon="6.08991">
        <ele>970.59</ele>
        <time>2015-02-11T16:55:03Z</time>
      </trkpt>
      <trkpt lat="45.63578" lon="6.08979">
        <ele>968.18</ele>
        <time>2015-02-11T16:55:05Z</time>
      </trkpt>
      <trkpt lat="45.63585" lon="6.08962">
        <ele>964.34</ele>
        <time>2015-02-11T16:55:08Z</time>
      </trkpt>
      <trkpt lat="45.63587" lon="6.0896">
        <ele>964.34</ele>
        <time>2015-02-11T16:55:09Z</time>
      </trkpt>
      <trkpt lat="45.63587" lon="6.08957">
        <ele>961.46</ele>
        <time>2015-02-11T16:55:13Z</time>
      </trkpt>
      <trkpt lat="45.63586" lon="6.08957">
        <ele>960.98</ele>
        <time>2015-02-11T16:55:19Z</time>
      </trkpt>
      <trkpt lat="45.6358" lon="6.08939">
        <ele>959.53</ele>
        <time>2015-02-11T16:55:28Z</time>
      </trkpt>
      <trkpt lat="45.63581" lon="6.0892">
        <ele>956.17</ele>
        <time>2015-02-11T16:55:39Z</time>
      </trkpt>
      <trkpt lat="45.6358" lon="6.08919">
        <ele>955.21</ele>
        <time>2015-02-11T16:55:41Z</time>
      </trkpt>
      <trkpt lat="45.63575" lon="6.08912">
        <ele>954.25</ele>
        <time>2015-02-11T16:55:45Z</time>
      </trkpt>
      <trkpt lat="45.63585" lon="6.08911">
        <ele>953.77</ele>
        <time>2015-02-11T16:56:01Z</time>
      </trkpt>
      <trkpt lat="45.63587" lon="6.0891">
        <ele>953.77</ele>
        <time>2015-02-11T16:56:07Z</time>
      </trkpt>
      <trkpt lat="45.63594" lon="6.08905">
        <ele>953.28</ele>
        <time>2015-02-11T16:56:10Z</time>
      </trkpt>
      <trkpt lat="45.63607" lon="6.08909">
        <ele>950.88</ele>
        <time>2015-02-11T16:56:13Z</time>
      </trkpt>
      <trkpt lat="45.63619" lon="6.08909">
        <ele>949.44</ele>
        <time>2015-02-11T16:56:16Z</time>
      </trkpt>
      <trkpt lat="45.63622" lon="6.08911">
        <ele>948</ele>
        <time>2015-02-11T16:56:27Z</time>
      </trkpt>
      <trkpt lat="45.63622" lon="6.08911">
        <ele>947.52</ele>
        <time>2015-02-11T16:56:59Z</time>
      </trkpt>
      <trkpt lat="45.6363" lon="6.08891">
        <ele>944.15</ele>
        <time>2015-02-11T16:57:08Z</time>
      </trkpt>
      <trkpt lat="45.63636" lon="6.08869">
        <ele>941.27</ele>
        <time>2015-02-11T16:57:14Z</time>
      </trkpt>
      <trkpt lat="45.63636" lon="6.08869">
        <ele>939.35</ele>
        <time>2015-02-11T16:57:18Z</time>
      </trkpt>
      <trkpt lat="45.63642" lon="6.08861">
        <ele>938.86</ele>
        <time>2015-02-11T16:57:51Z</time>
      </trkpt>
      <trkpt lat="45.63647" lon="6.08862">
        <ele>938.86</ele>
        <time>2015-02-11T16:58:11Z</time>
      </trkpt>
      <trkpt lat="45.63652" lon="6.08863">
        <ele>939.35</ele>
        <time>2015-02-11T16:58:18Z</time>
      </trkpt>
      <trkpt lat="45.63679" lon="6.08879">
        <ele>939.83</ele>
        <time>2015-02-11T16:58:43Z</time>
      </trkpt>
      <trkpt lat="45.63698" lon="6.08897">
        <ele>939.83</ele>
        <time>2015-02-11T16:59:04Z</time>
      </trkpt>
      <trkpt lat="45.63703" lon="6.08907">
        <ele>940.79</ele>
        <time>2015-02-11T16:59:19Z</time>
      </trkpt>
      <trkpt lat="45.63714" lon="6.08938">
        <ele>940.79</ele>
        <time>2015-02-11T16:59:42Z</time>
      </trkpt>
      <trkpt lat="45.63724" lon="6.08952">
        <ele>940.79</ele>
        <time>2015-02-11T16:59:57Z</time>
      </trkpt>
      <trkpt lat="45.63746" lon="6.0896">
        <ele>940.79</ele>
        <time>2015-02-11T17:00:18Z</time>
      </trkpt>
      <trkpt lat="45.63764" lon="6.08964">
        <ele>941.27</ele>
        <time>2015-02-11T17:00:35Z</time>
      </trkpt>
      <trkpt lat="45.63775" lon="6.0897">
        <ele>940.31</ele>
        <time>2015-02-11T17:00:54Z</time>
      </trkpt>
      <trkpt lat="45.63778" lon="6.08971">
        <ele>941.27</ele>
        <time>2015-02-11T17:01:22Z</time>
      </trkpt>
      <trkpt lat="45.63786" lon="6.08978">
        <ele>940.79</ele>
        <time>2015-02-11T17:01:41Z</time>
      </trkpt>
      <trkpt lat="45.63799" lon="6.08983">
        <ele>939.83</ele>
        <time>2015-02-11T17:02:00Z</time>
      </trkpt>
      <trkpt lat="45.63824" lon="6.08995">
        <ele>938.86</ele>
        <time>2015-02-11T17:02:23Z</time>
      </trkpt>
      <trkpt lat="45.63846" lon="6.09001">
        <ele>937.42</ele>
        <time>2015-02-11T17:02:41Z</time>
      </trkpt>
      <trkpt lat="45.63866" lon="6.09006">
        <ele>936.94</ele>
        <time>2015-02-11T17:03:00Z</time>
      </trkpt>
      <trkpt lat="45.63875" lon="6.09007">
        <ele>936.94</ele>
        <time>2015-02-11T17:03:09Z</time>
      </trkpt>
      <trkpt lat="45.63893" lon="6.09008">
        <ele>936.94</ele>
        <time>2015-02-11T17:03:25Z</time>
      </trkpt>
      <trkpt lat="45.63913" lon="6.09025">
        <ele>935.98</ele>
        <time>2015-02-11T17:03:43Z</time>
      </trkpt>
      <trkpt lat="45.63928" lon="6.09045">
        <ele>935.5</ele>
        <time>2015-02-11T17:04:02Z</time>
      </trkpt>
      <trkpt lat="45.63932" lon="6.09051">
        <ele>935.02</ele>
        <time>2015-02-11T17:04:09Z</time>
      </trkpt>
      <trkpt lat="45.63933" lon="6.09055">
        <ele>935.5</ele>
        <time>2015-02-11T17:04:32Z</time>
      </trkpt>
      <trkpt lat="45.63931" lon="6.09058">
        <ele>935.02</ele>
        <time>2015-02-11T17:06:05Z</time>
      </trkpt>
      <trkpt lat="45.63935" lon="6.09058">
        <ele>934.54</ele>
        <time>2015-02-11T17:06:32Z</time>
      </trkpt>
      <trkpt lat="45.63942" lon="6.09061">
        <ele>934.54</ele>
        <time>2015-02-11T17:07:01Z</time>
      </trkpt>
      <trkpt lat="45.63938" lon="6.0906">
        <ele>934.06</ele>
        <time>2015-02-11T17:07:16Z</time>
      </trkpt>
      <trkpt lat="45.63932" lon="6.09059">
        <ele>934.54</ele>
        <time>2015-02-11T17:07:40Z</time>
      </trkpt>
      <trkpt lat="45.63931" lon="6.09057">
        <ele>934.06</ele>
        <time>2015-02-11T17:08:05Z</time>
      </trkpt>
      <trkpt lat="45.63932" lon="6.09057">
        <ele>934.06</ele>
        <time>2015-02-11T17:08:40Z</time>
      </trkpt>
      <trkpt lat="45.63933" lon="6.09057">
        <ele>934.06</ele>
        <time>2015-02-11T17:09:11Z</time>
      </trkpt>
      <trkpt lat="45.63933" lon="6.09055">
        <ele>934.06</ele>
        <time>2015-02-11T17:09:36Z</time>
      </trkpt>
      <trkpt lat="45.63934" lon="6.09057">
        <ele>933.58</ele>
        <time>2015-02-11T17:09:57Z</time>
      </trkpt>
      <trkpt lat="45.63933" lon="6.09059">
        <ele>933.1</ele>
        <time>2015-02-11T17:10:41Z</time>
      </trkpt>
      <trkpt lat="45.6394" lon="6.09059">
        <ele>932.14</ele>
        <time>2015-02-11T17:11:18Z</time>
      </trkpt>
    </trkseg>
  </trk>
</gpx>